# Wetter Temperatur Luftdruck Luftfeuchtigkeit Sichtweite Windgeschwindigkeit Windrichtung Zeit
1 Clouds 17 1020 42 10000 6.17 120 13:21 22.04.2021
2 Clouds 17 1020 42 10000 6.17 120 12:48 22.04.2021
3 Clouds 17 1020 39 10000 4.63 160 12:29 22.04.2021
4 Clouds 18 1020 32 10000 3.09 200 11:48 22.04.2021
5 Clouds 18 1020 37 10000 2.57 0 11:24 22.04.2021
6 Clouds 17 1020 36 10000 2.57 260 10:46 22.04.2021
7 Clear 16 1020 48 10000 2.57 240 10:26 22.04.2021
8 Clear 16 1020 51 10000 2.06 210 09:49 22.04.2021
9 Clear 15 1020 58 10000 1.54 260 09:30 22.04.2021
10 Clear 13 1020 67 10000 1.03 0 08:41 22.04.2021
11 Clear 12 1020 71 9000 1.03 0 08:22 22.04.2021
12 Clear 12 1020 76 10000 1.43 258 07:46 22.04.2021
13 Clear 10 1020 81 10000 1.4 274 07:24 22.04.2021
14 Clear 8 1020 81 10000 1.4 274 06:32 22.04.2021
15 Clear 6 1019 93 10000 1.69 284 05:26 22.04.2021
16 Clear 7 1019 87 10000 1.69 284 04:56 22.04.2021
17 Clear 8 1019 87 10000 1.54 10 01:23 22.04.2021
18 Clear 8 1019 81 10000 1.54 340 23:53 21.04.2021
19 Clear 8 1018 81 10000 2.57 360 23:32 21.04.2021
20 Clear 9 1018 71 10000 2.57 10 22:44 21.04.2021
21 Clear 9 1018 76 10000 1.03 0 22:24 21.04.2021
22 Clear 9 1018 76 10000 0.51 0 21:50 21.04.2021
23 Clear 9 1018 76 10000 1.03 0 21:25 21.04.2021
24 Clear 10 1018 71 10000 1.54 200 20:59 21.04.2021
25 Clear 10 1018 71 10000 1.54 200 20:59 21.04.2021
26 Clear 10 1018 71 10000 1.03 0 20:21 21.04.2021
27 Clear 12 1017 67 10000 1.54 140 19:45 21.04.2021
28 Clouds 13 1017 67 10000 4.63 130 19:25 21.04.2021
29 Clouds 15 1017 58 10000 1.54 120 18:46 21.04.2021
30 Clouds 15 1016 55 10000 2.06 270 18:28 21.04.2021
31 Clouds 15 1016 51 10000 5.14 290 17:49 21.04.2021
32 Clouds 16 1016 48 10000 2.57 100 17:25 21.04.2021
33 Clouds 16 1016 48 10000 2.57 100 17:25 21.04.2021
34 Clouds 16 1016 48 10000 2.57 100 17:25 21.04.2021
35 Clouds 16 1016 48 10000 2.57 100 17:25 21.04.2021
36 Clouds 18 1015 42 10000 2.57 0 16:55 21.04.2021
37 Clouds 17 1015 48 10000 5.66 80 16:23 21.04.2021
38 Clouds 18 1015 37 10000 2.57 110 15:42 21.04.2021
39 Clouds 17 1015 42 10000 4.63 270 14:58 21.04.2021
40 Clouds 17 1015 42 10000 4.63 270 14:40 21.04.2021
41 Clouds 17 1016 42 10000 4.63 270 14:18 21.04.2021
42 Clouds 16 1016 42 10000 5.14 260 13:40 21.04.2021
43 Clouds 16 1016 42 10000 5.14 260 13:21 21.04.2021
44 Clouds 16 1016 48 10000 6.69 280 12:31 21.04.2021
45 Clouds 17 1016 45 10000 7.2 270 11:50 21.04.2021
46 Clouds 16 1016 42 10000 6.69 270 11:30 21.04.2021
47 Clear 16 1016 44 10000 6.17 280 10:52 21.04.2021
48 Clear 16 1016 44 10000 6.17 280 10:34 21.04.2021
49 Clear 14 1016 58 10000 3.6 240 09:51 21.04.2021
50 Clear 13 1016 54 10000 6.69 280 09:19 21.04.2021
51 Clear 12 1016 76 9000 2.57 240 08:40 21.04.2021
52 Clear 11 1016 76 9000 2.57 240 08:20 21.04.2021
53 Clear 9 1015 81 8000 1.54 240 07:31 21.04.2021
54 Clear 7 1015 100 6000 2.69 263 06:56 21.04.2021
55 Mist 5 1014 93 5000 1.54 330 05:20 21.04.2021
56 Clear 7 1014 93 10000 2.06 10 01:32 21.04.2021
57 Clear 8 1014 87 10000 0.51 0 23:51 20.04.2021
58 Clear 8 1014 87 10000 2.57 227 23:25 20.04.2021
59 Clouds 9 1014 81 10000 1.03 40 22:41 20.04.2021
60 Clouds 9 1014 81 10000 1.03 100 22:21 20.04.2021
61 Clouds 9 1013 81 10000 1.54 80 21:47 20.04.2021
62 Clouds 9 1013 81 10000 2.08 236 21:25 20.04.2021
63 Clouds 9 1013 87 10000 1.54 10 20:43 20.04.2021
64 Clouds 9 1013 87 10000 0.51 0 20:24 20.04.2021
65 Clouds 10 1013 76 10000 1.54 190 19:55 20.04.2021
66 Clouds 10 1012 71 10000 1.03 240 19:37 20.04.2021
67 Clouds 11 1012 71 10000 1.03 240 19:18 20.04.2021
68 Clouds 13 1012 67 10000 2.57 270 18:35 20.04.2021
69 Clouds 13 1012 67 10000 2.57 270 18:35 20.04.2021
70 Clouds 13 1012 58 10000 3.6 280 17:46 20.04.2021
71 Clouds 13 1012 58 10000 4.63 300 17:27 20.04.2021
72 Clouds 13 1012 67 10000 5.14 280 16:48 20.04.2021
73 Clouds 12 1011 67 10000 6.17 260 15:53 20.04.2021
74 Clouds 12 1011 67 10000 6.69 270 15:29 20.04.2021
75 Clouds 12 1012 76 10000 8.23 280 14:57 20.04.2021
76 Clouds 12 1011 76 10000 8.23 280 14:33 20.04.2021
77 Clouds 11 1011 76 10000 7.72 270 13:44 20.04.2021
78 Clouds 11 1011 82 10000 7.2 270 13:22 20.04.2021
79 Clouds 10 1011 87 10000 7.72 270 12:41 20.04.2021
80 Clouds 11 1011 87 10000 7.2 260 12:20 20.04.2021
81 Clouds 11 1011 87 10000 7.2 260 12:20 20.04.2021
82 Clouds 10 1011 93 8000 6.17 250 11:42 20.04.2021
83 Clouds 10 1010 87 10000 5.14 250 11:21 20.04.2021
84 Clouds 9 1010 87 10000 6.17 260 10:43 20.04.2021
85 Clouds 10 1010 82 10000 5.14 280 10:23 20.04.2021
86 Clouds 9 1009 93 10000 3.6 240 09:23 20.04.2021
87 Rain 9 1009 93 10000 3.09 240 08:55 20.04.2021
88 Rain 8 1009 87 10000 3.09 280 08:20 20.04.2021
89 Rain 8 1008 87 9000 3.6 290 07:40 20.04.2021
90 Rain 8 1008 87 9000 3.6 290 07:40 20.04.2021
91 Rain 8 1008 87 9000 3.6 290 07:40 20.04.2021
92 Rain 8 1008 93 7000 2.57 320 06:37 20.04.2021
93 Clouds 8 1007 87 10000 2.57 280 05:38 20.04.2021
94 Clouds 8 1007 87 10000 2.06 270 04:41 20.04.2021
95 Clouds 7 1008 93 9000 1.54 260 00:53 20.04.2021
96 Clouds 7 1008 93 10000 1.54 270 00:28 20.04.2021
97 Clouds 7 1009 93 7000 2.06 270 23:34 19.04.2021
98 Clouds 7 1009 93 7000 1.54 240 22:56 19.04.2021
99 Clouds 7 1009 93 10000 1.03 0 22:30 19.04.2021
100 Clouds 7 1009 93 10000 1.03 0 22:30 19.04.2021
101 Clouds 7 1009 93 10000 1.67 71 21:47 19.04.2021
102 Clouds 7 1009 87 10000 3.09 50 21:25 19.04.2021
103 Rain 7 1010 93 10000 3.6 80 20:42 19.04.2021
104 Rain 7 1011 93 9000 2.57 130 20:22 19.04.2021
105 Rain 8 1011 93 10000 2.57 140 19:50 19.04.2021
106 Rain 8 1011 93 10000 3.09 140 19:28 19.04.2021
107 Clouds 8 1011 81 10000 4.12 120 18:59 19.04.2021
108 Clouds 8 1011 81 10000 4.12 120 18:41 19.04.2021
109 Clouds 8 1011 87 10000 4.63 90 18:19 19.04.2021
110 Clouds 8 1011 81 10000 4.12 90 17:44 19.04.2021
111 Clouds 9 1012 81 9000 3.09 80 17:24 19.04.2021
112 Rain 10 1013 71 10000 4.63 170 16:45 19.04.2021
113 Rain 11 1011 62 10000 8.23 110 16:25 19.04.2021
114 Clouds 11 1012 62 10000 8.23 110 15:43 19.04.2021
115 Clouds 12 1012 62 10000 7.72 130 15:24 19.04.2021
116 Clouds 12 1011 66 10000 8.23 130 14:52 19.04.2021
117 Clouds 13 1012 58 10000 7.2 140 14:31 19.04.2021
118 Clouds 14 1013 54 10000 6.69 130 13:52 19.04.2021
119 Clouds 14 1013 54 10000 5.66 130 13:28 19.04.2021
120 Clouds 14 1013 54 10000 5.14 120 12:48 19.04.2021
121 Clouds 14 1013 54 10000 5.14 120 12:48 19.04.2021
122 Clouds 14 1014 58 10000 5.66 120 12:27 19.04.2021
123 Clouds 14 1014 58 10000 4.12 140 11:58 19.04.2021
124 Clouds 14 1014 58 10000 4.12 150 11:27 19.04.2021
125 Clouds 13 1014 58 10000 3.6 110 10:55 19.04.2021
126 Clouds 14 1015 62 10000 3.09 160 10:36 19.04.2021
127 Clouds 13 1015 62 10000 3.09 160 10:18 19.04.2021
128 Clouds 13 1015 62 10000 3.09 160 10:18 19.04.2021
129 Clouds 13 1015 62 10000 3.09 160 10:18 19.04.2021
130 Clouds 13 1015 62 10000 1.03 0 09:38 19.04.2021
131 Clouds 12 1015 62 10000 1.03 0 09:20 19.04.2021
132 Clouds 11 1016 66 10000 2.57 270 08:32 19.04.2021
133 Clouds 8 1016 81 10000 2.06 260 07:49 19.04.2021
134 Clouds 8 1016 71 10000 2.1 9 07:21 19.04.2021
135 Clouds 7 1016 76 10000 2.1 9 06:44 19.04.2021
136 Clouds 6 1016 76 10000 1.03 0 02:38 19.04.2021
137 Clouds 7 1016 76 10000 2.06 340 01:40 19.04.2021
138 Clouds 6 1017 76 10000 1.03 0 00:33 19.04.2021
139 Clouds 8 1017 66 10000 1.54 10 23:19 18.04.2021
140 Clouds 8 1016 71 10000 1.54 290 22:53 18.04.2021
141 Clouds 8 1016 76 10000 1.54 310 22:31 18.04.2021
142 Clouds 8 1017 87 10000 1.54 260 21:45 18.04.2021
143 Clouds 9 1017 87 10000 0.51 0 21:23 18.04.2021
144 Clouds 9 1016 81 10000 1.03 0 20:40 18.04.2021
145 Clouds 9 1016 81 10000 1.03 0 20:21 18.04.2021
146 Clouds 9 1016 76 10000 1.54 230 19:49 18.04.2021
147 Clouds 9 1016 76 10000 1.83 48 19:30 18.04.2021
148 Clouds 9 1015 76 10000 1.03 0 18:54 18.04.2021
149 Clouds 9 1015 76 10000 1.03 0 18:31 18.04.2021
150 Clouds 9 1015 81 10000 1.03 100 17:57 18.04.2021
151 Clouds 9 1015 81 10000 1.03 100 17:38 18.04.2021
152 Clouds 9 1015 81 10000 2.57 90 17:19 18.04.2021
153 Clouds 9 1015 81 10000 3.09 70 16:41 18.04.2021
154 Clouds 9 1014 81 10000 4.63 90 15:59 18.04.2021
155 Clouds 9 1015 81 10000 4.63 80 15:39 18.04.2021
156 Clouds 9 1015 81 10000 4.63 80 15:19 18.04.2021
157 Clouds 9 1014 81 10000 4.63 80 14:42 18.04.2021
158 Clouds 9 1014 81 10000 5.14 90 14:19 18.04.2021
159 Clouds 9 1015 81 10000 6.17 90 13:50 18.04.2021
160 Clouds 9 1015 81 10000 6.17 100 13:30 18.04.2021
161 Clouds 9 1015 81 10000 5.66 80 12:39 18.04.2021
162 Clouds 9 1014 81 10000 6.17 80 11:59 18.04.2021
163 Clouds 9 1015 81 10000 5.66 80 11:40 18.04.2021
164 Clouds 9 1015 81 10000 5.66 80 11:20 18.04.2021
165 Clouds 9 1015 81 10000 6.17 90 10:44 18.04.2021
166 Clouds 9 1015 81 10000 6.17 80 10:19 18.04.2021
167 Clouds 9 1015 76 10000 5.66 80 09:39 18.04.2021
168 Clouds 9 1015 76 10000 5.14 90 09:21 18.04.2021
169 Clouds 9 1015 76 10000 5.14 80 08:46 18.04.2021
170 Clouds 9 1015 76 10000 4.63 70 08:26 18.04.2021
171 Clouds 8 1015 81 10000 4.63 70 07:41 18.04.2021
172 Clear 8 1015 71 10000 3.6 70 06:56 18.04.2021
173 Clear 8 1015 61 10000 3.6 80 05:27 18.04.2021
174 Clear 8 1015 61 10000 4.12 110 04:44 18.04.2021
175 Clear 8 1016 66 10000 3.09 80 02:23 18.04.2021
176 Clear 8 1016 71 10000 2.57 100 00:58 18.04.2021
177 Clear 8 1016 76 10000 3.6 80 23:57 17.04.2021
178 Clear 8 1016 76 10000 3.6 80 23:24 17.04.2021
179 Clear 8 1017 76 10000 2.57 80 22:44 17.04.2021
180 Clear 8 1016 66 10000 3.6 80 22:22 17.04.2021
181 Clear 8 1016 71 10000 3.09 80 21:43 17.04.2021
182 Clouds 8 1016 61 10000 4.12 80 21:22 17.04.2021
183 Clouds 8 1017 57 10000 3.6 80 20:37 17.04.2021
184 Clouds 8 1017 57 10000 3.6 80 20:19 17.04.2021
185 Clouds 8 1016 57 10000 3.6 90 19:39 17.04.2021
186 Clear 8 1016 53 10000 3.6 100 19:19 17.04.2021
187 Clear 8 1016 57 10000 3.6 100 18:46 17.04.2021
188 Clear 9 1017 53 10000 3.6 130 18:21 17.04.2021
189 Clear 10 1017 53 10000 4.63 120 17:41 17.04.2021
190 Clear 10 1017 62 10000 4.63 130 16:56 17.04.2021
191 Clear 10 1017 62 10000 5.14 120 16:34 17.04.2021
192 Clear 11 1017 57 10000 5.66 130 15:58 17.04.2021
193 Clear 11 1017 58 10000 4.63 120 14:51 17.04.2021
194 Clear 12 1017 58 10000 4.63 120 14:33 17.04.2021
195 Clouds 11 1018 66 10000 4.12 110 13:59 17.04.2021
196 Clouds 11 1018 66 10000 4.12 110 13:40 17.04.2021
197 Clouds 11 1019 66 10000 4.12 120 12:42 17.04.2021
198 Clouds 11 1019 66 10000 4.63 130 12:22 17.04.2021
199 Clouds 10 1019 66 10000 4.12 130 11:50 17.04.2021
200 Clouds 9 1019 71 10000 4.12 140 11:31 17.04.2021
201 Clouds 10 1019 71 10000 2.57 160 10:47 17.04.2021
202 Clouds 10 1020 66 10000 3.6 180 10:29 17.04.2021
203 Rain 10 1020 66 10000 2.57 130 09:44 17.04.2021
204 Clouds 10 1020 66 10000 1.54 80 08:41 17.04.2021
205 Rain 9 1020 71 10000 0.51 0 08:22 17.04.2021
206 Clouds 6 1020 81 10000 0.51 0 06:58 17.04.2021
207 Clear 5 1020 70 10000 0.03 140 03:55 17.04.2021
208 Clear 5 1020 70 10000 0.03 140 03:37 17.04.2021
209 Clear 6 1020 57 10000 1.54 360 00:49 17.04.2021
210 Clear 5 1020 61 10000 2.57 360 00:28 17.04.2021
211 Clear 5 1020 61 10000 1.03 340 23:48 16.04.2021
212 Clear 5 1020 61 10000 1.03 340 23:48 16.04.2021
213 Clear 6 1020 57 10000 1.68 275 23:25 16.04.2021
214 Clear 6 1020 61 10000 0.51 350 22:46 16.04.2021
215 Clear 6 1020 57 10000 1.33 271 22:21 16.04.2021
216 Clear 7 1020 53 10000 1.33 271 21:51 16.04.2021
217 Clear 7 1020 49 10000 1.03 0 21:30 16.04.2021
218 Clear 9 1020 43 10000 2.06 60 20:50 16.04.2021
219 Clear 8 1019 71 10000 3.6 100 20:24 16.04.2021
220 Clear 9 1019 50 10000 1.54 80 19:52 16.04.2021
221 Clear 11 1019 40 10000 1.54 30 19:28 16.04.2021
222 Clear 11 1018 35 10000 3.6 310 18:36 16.04.2021
223 Clear 13 1018 30 10000 6.17 290 18:18 16.04.2021
224 Clear 13 1018 30 10000 7.2 290 17:37 16.04.2021
225 Clear 14 1018 28 10000 7.2 300 17:18 16.04.2021
226 Clear 14 1018 28 10000 6.69 290 16:41 16.04.2021
227 Clear 14 1018 30 10000 6.69 290 16:22 16.04.2021
228 Clear 14 1018 30 10000 7.2 290 15:44 16.04.2021
229 Clouds 14 1018 28 10000 7.72 280 15:18 16.04.2021
230 Clouds 14 1018 31 10000 6.69 280 14:41 16.04.2021
231 Clouds 14 1018 35 10000 8.23 280 13:59 16.04.2021
232 Clouds 14 1018 35 10000 8.23 280 13:41 16.04.2021
233 Clouds 14 1018 33 10000 7.2 270 13:19 16.04.2021
234 Clouds 13 1019 33 10000 9.77 280 12:46 16.04.2021
235 Clear 12 1019 35 10000 8.75 280 12:25 16.04.2021
236 Clear 12 1019 47 10000 9.77 280 11:43 16.04.2021
237 Clear 12 1019 37 10000 9.26 270 11:25 16.04.2021
238 Clear 11 1019 40 10000 8.75 270 10:46 16.04.2021
239 Clear 11 1019 46 10000 7.2 280 10:25 16.04.2021
240 Clear 10 1019 50 10000 9.26 270 09:52 16.04.2021
241 Clear 9 1019 53 10000 8.75 270 09:24 16.04.2021
242 Clear 8 1018 53 10000 7.72 270 08:46 16.04.2021
243 Clear 7 1018 57 10000 10.29 270 08:27 16.04.2021
244 Clouds 7 1019 61 10000 9.77 270 07:52 16.04.2021
245 Clouds 6 1019 61 10000 9.77 270 07:33 16.04.2021
246 Clear 6 1018 61 10000 8.75 280 06:56 16.04.2021
247 Clouds 6 1018 57 10000 6.69 300 05:33 16.04.2021
248 Clear 7 1018 57 10000 5.14 290 04:18 16.04.2021
249 Clear 8 1018 49 10000 3.09 270 00:49 16.04.2021
250 Clear 7 1018 65 10000 0.51 0 00:22 16.04.2021
251 Clear 7 1017 65 10000 1.03 0 23:58 15.04.2021
252 Clear 6 1017 65 10000 5.04 285 23:35 15.04.2021
253 Clear 7 1017 65 10000 2.06 330 22:52 15.04.2021
254 Clear 6 1017 70 10000 2.06 270 22:26 15.04.2021
255 Clear 7 1017 65 10000 2.06 290 21:56 15.04.2021
256 Clear 7 1017 61 10000 1.54 340 21:37 15.04.2021
257 Clear 7 1017 61 10000 1.54 340 21:19 15.04.2021
258 Clear 7 1017 61 10000 2.84 302 20:38 15.04.2021
259 Clear 8 1017 61 10000 1.03 350 20:20 15.04.2021
260 Clear 9 1016 57 10000 1.54 340 19:42 15.04.2021
261 Clear 10 1016 53 10000 3.6 310 19:23 15.04.2021
262 Clear 11 1016 50 10000 6.17 310 18:41 15.04.2021
263 Clear 11 1015 47 10000 6.17 310 18:20 15.04.2021
264 Clear 12 1016 47 10000 7.2 300 17:54 15.04.2021
265 Clear 12 1016 47 10000 7.2 300 17:36 15.04.2021
266 Clear 13 1016 41 10000 8.23 290 16:47 15.04.2021
267 Clear 12 1016 47 10000 8.75 290 16:25 15.04.2021
268 Clear 13 1016 41 10000 8.75 280 15:51 15.04.2021
269 Clear 13 1016 44 10000 7.2 290 15:31 15.04.2021
270 Clear 13 1016 44 10000 8.23 280 14:57 15.04.2021
271 Clear 13 1016 44 10000 8.23 280 14:38 15.04.2021
272 Clear 12 1016 47 10000 8.23 270 14:19 15.04.2021
273 Clouds 12 1016 47 10000 8.23 280 13:41 15.04.2021
274 Clear 11 1017 50 10000 7.72 270 12:59 15.04.2021
275 Clear 11 1017 50 10000 7.72 270 12:38 15.04.2021
276 Clouds 12 1017 50 10000 8.23 280 12:20 15.04.2021
277 Clouds 12 1017 50 10000 8.23 280 12:20 15.04.2021
278 Clouds 12 1017 50 10000 7.72 280 11:42 15.04.2021
279 Clear 11 1017 54 10000 7.72 290 11:22 15.04.2021
280 Clear 10 1017 57 10000 7.2 280 10:46 15.04.2021
281 Clear 10 1017 57 10000 8.23 270 10:26 15.04.2021
282 Clear 9 1017 57 10000 11.32 280 09:35 15.04.2021
283 Clear 7 1017 61 10000 11.83 270 08:58 15.04.2021
284 Clouds 7 1017 61 10000 9.77 270 08:38 15.04.2021
285 Clear 6 1017 66 10000 7.72 270 07:48 15.04.2021
286 Clear 5 1016 70 10000 5.66 270 07:22 15.04.2021
287 Clear 4 1016 75 10000 4.12 270 06:37 15.04.2021
288 Clear 4 1016 75 10000 4.12 270 06:19 15.04.2021
289 Clear 4 1016 70 10000 8.23 280 04:23 15.04.2021
290 Clear 6 1016 65 10000 9.77 270 00:23 15.04.2021
291 Clear 7 1015 71 10000 6.69 280 23:36 14.04.2021
292 Clear 7 1015 71 10000 6.69 280 23:18 14.04.2021
293 Clouds 8 1015 66 10000 6.69 280 22:43 14.04.2021
294 Clouds 8 1015 66 10000 5.66 280 22:21 14.04.2021
295 Clouds 9 1014 66 10000 7.72 280 21:42 14.04.2021
296 Clouds 8 1014 76 10000 5.14 280 21:22 14.04.2021
297 Rain 8 1014 76 10000 3.6 280 20:54 14.04.2021
298 Clouds 9 1014 76 10000 3.6 280 20:31 14.04.2021
299 Clouds 9 1014 76 10000 3.6 280 20:31 14.04.2021
300 Clouds 10 1013 71 10000 4.12 290 19:48 14.04.2021
301 Rain 10 1013 66 10000 5.14 280 19:19 14.04.2021
302 Rain 10 1013 66 10000 6.17 270 18:55 14.04.2021
303 Clouds 11 1013 62 10000 7.72 270 18:21 14.04.2021
304 Clouds 11 1012 62 10000 7.72 270 17:58 14.04.2021
305 Clouds 12 1012 62 10000 8.75 280 17:25 14.04.2021
306 Clouds 12 1012 62 10000 9.26 280 16:53 14.04.2021
307 Clouds 12 1012 66 10000 8.23 290 16:25 14.04.2021
308 Clouds 12 1012 67 10000 9.77 280 15:42 14.04.2021
309 Clouds 12 1011 62 10000 10.29 280 15:22 14.04.2021
310 Clouds 12 1011 67 10000 9.77 290 14:46 14.04.2021
311 Clouds 12 1012 76 10000 8.75 280 14:24 14.04.2021
312 Rain 11 1012 87 10000 4.63 280 13:54 14.04.2021
313 Rain 10 1012 82 10000 9.26 270 13:23 14.04.2021
314 Clouds 10 1012 93 10000 5.66 280 12:37 14.04.2021
315 Rain 11 1012 87 10000 6.69 280 11:43 14.04.2021
316 Rain 11 1012 87 10000 9.77 270 11:25 14.04.2021
317 Clouds 13 1012 77 10000 4.12 270 10:48 14.04.2021
318 Clouds 13 1012 82 10000 4.12 260 10:30 14.04.2021
319 Clouds 14 1012 82 7000 2.57 240 09:42 14.04.2021
320 Clouds 12 1012 94 6000 2.06 260 09:21 14.04.2021
321 Clouds 13 1011 87 6000 1.54 270 08:43 14.04.2021
322 Clouds 12 1011 93 6000 1.03 0 08:20 14.04.2021
323 Mist 9 1012 100 1700 1.03 0 06:55 14.04.2021
324 Mist 9 1011 100 1700 1.54 140 06:24 14.04.2021
325 Mist 9 1012 100 3600 2.06 110 04:34 14.04.2021
326 Rain 9 1013 100 5000 4.12 110 01:42 14.04.2021
327 Rain 9 1013 100 5000 4.12 110 01:42 14.04.2021
328 Clouds 9 1014 93 9000 3.09 130 00:37 14.04.2021
329 Rain 9 1014 93 9000 3.6 100 23:46 13.04.2021
330 Rain 9 1015 87 10000 3.09 120 23:21 13.04.2021
331 Rain 9 1015 81 10000 3.6 120 22:41 13.04.2021
332 Clouds 9 1015 81 10000 3.6 120 22:19 13.04.2021
333 Clouds 9 1015 76 10000 4.63 110 21:45 13.04.2021
334 Clouds 9 1015 76 10000 3.6 110 21:27 13.04.2021
335 Rain 9 1015 76 10000 5.14 110 20:42 13.04.2021
336 Rain 9 1015 76 10000 4.63 100 20:21 13.04.2021
337 Clouds 10 1015 76 10000 3.6 100 19:43 13.04.2021
338 Clear 10 1015 76 10000 3.6 110 19:23 13.04.2021
339 Clear 10 1015 76 10000 4.12 110 18:40 13.04.2021
340 Clear 11 1015 71 10000 5.66 110 17:54 13.04.2021
341 Clear 11 1015 71 10000 5.66 110 17:36 13.04.2021
342 Clear 11 1015 62 10000 6.17 110 17:18 13.04.2021
343 Clear 13 1015 62 10000 6.17 110 16:42 13.04.2021
344 Clear 12 1015 62 10000 6.17 110 16:20 13.04.2021
345 Clear 13 1015 62 10000 7.2 110 15:41 13.04.2021
346 Clear 13 1016 62 10000 7.72 110 15:21 13.04.2021
347 Clear 13 1016 67 10000 8.23 110 14:46 13.04.2021
348 Clear 13 1016 58 10000 8.23 110 14:18 13.04.2021
349 Clear 14 1016 58 10000 8.23 120 13:45 13.04.2021
350 Clear 14 1016 51 10000 8.23 110 13:24 13.04.2021
351 Clear 15 1017 54 10000 7.72 110 12:55 13.04.2021
352 Clear 15 1017 54 10000 8.75 110 12:24 13.04.2021
353 Clear 15 1017 62 10000 8.23 110 11:52 13.04.2021
354 Clear 14 1017 62 10000 8.75 110 11:29 13.04.2021
355 Clear 14 1017 62 10000 6.69 120 10:45 13.04.2021
356 Clear 14 1017 72 10000 4.12 130 10:20 13.04.2021
357 Clear 14 1017 72 10000 4.12 130 10:20 13.04.2021
358 Clear 14 1017 58 10000 1.03 0 09:53 13.04.2021
359 Clear 14 1017 58 10000 1.03 0 09:34 13.04.2021
360 Clear 11 1018 71 10000 1.03 0 08:51 13.04.2021
361 Clear 11 1018 76 10000 1.89 169 08:25 13.04.2021
362 Clear 10 1018 76 10000 1.89 169 07:52 13.04.2021
363 Clear 8 1018 87 10000 1.89 169 07:32 13.04.2021
364 Clear 4 1018 100 10000 0.89 175 06:28 13.04.2021
365 Clear 4 1018 93 10000 1.19 143 03:55 13.04.2021
366 Clear 6 1019 87 10000 2.06 40 01:37 13.04.2021
367 Clear 7 1020 70 10000 3.6 100 23:58 12.04.2021
368 Clear 7 1020 65 10000 4.12 90 23:33 12.04.2021
369 Clear 8 1020 61 10000 4.12 90 22:59 12.04.2021
370 Clear 8 1020 53 10000 3.09 90 22:37 12.04.2021
371 Clear 8 1020 57 10000 4.12 90 21:55 12.04.2021
372 Clear 8 1020 57 10000 4.12 90 21:36 12.04.2021
373 Clear 8 1020 61 10000 4.12 90 21:18 12.04.2021
374 Clear 9 1020 57 10000 3.6 110 20:36 12.04.2021
375 Clear 9 1020 57 10000 3.6 110 20:18 12.04.2021
376 Clear 10 1020 53 10000 4.63 110 19:41 12.04.2021
377 Clear 10 1020 53 10000 5.66 100 19:21 12.04.2021
378 Clear 11 1020 40 10000 6.17 110 18:52 12.04.2021
379 Clear 11 1020 40 10000 6.17 110 18:34 12.04.2021
380 Clear 13 1019 35 10000 6.17 120 17:59 12.04.2021
381 Clear 13 1019 35 10000 6.17 120 17:59 12.04.2021
382 Clear 13 1019 33 10000 5.66 110 17:41 12.04.2021
383 Clear 14 1019 33 10000 5.66 110 17:19 12.04.2021
384 Clear 15 1019 31 10000 5.66 120 16:41 12.04.2021
385 Clear 15 1019 31 10000 6.69 110 16:23 12.04.2021
386 Clear 16 1019 29 10000 6.69 110 15:45 12.04.2021
387 Clear 17 1019 29 10000 6.17 110 14:59 12.04.2021
388 Clear 17 1020 27 10000 5.66 120 14:40 12.04.2021
389 Clear 17 1020 27 10000 5.66 120 14:22 12.04.2021
390 Clear 16 1020 29 10000 4.63 110 13:41 12.04.2021
391 Clear 16 1020 25 10000 2.06 0 13:20 12.04.2021
392 Clear 16 1020 25 10000 2.06 0 12:44 12.04.2021
393 Clear 16 1021 29 10000 3.09 230 12:23 12.04.2021
394 Clear 16 1021 29 10000 2.06 0 11:43 12.04.2021
395 Clear 15 1022 31 10000 3.09 220 10:53 12.04.2021
396 Clear 15 1022 36 10000 3.6 230 10:28 12.04.2021
397 Clear 15 1022 36 10000 3.6 230 10:28 12.04.2021
398 Clear 14 1022 41 10000 2.06 240 09:53 12.04.2021
399 Clear 14 1022 41 10000 2.06 240 09:31 12.04.2021
400 Clear 10 1022 53 10000 2.06 260 08:58 12.04.2021
401 Clear 9 1022 57 10000 0.51 0 08:22 12.04.2021
402 Clear 6 1022 60 10000 1.54 260 07:30 12.04.2021
403 Clear 5 1022 70 10000 1.03 0 06:47 12.04.2021
404 Clear 3 1022 75 10000 2.06 30 05:48 12.04.2021
405 Clear 3 1023 69 10000 2.93 302 03:32 12.04.2021
406 Clear 5 1025 52 10000 2.06 230 00:30 12.04.2021
407 Clear 5 1025 56 10000 2.85 298 23:56 11.04.2021
408 Clear 5 1025 56 10000 1.54 280 23:38 11.04.2021
409 Clear 5 1025 56 10000 1.54 280 23:19 11.04.2021
410 Clear 5 1025 52 10000 2.06 340 22:38 11.04.2021
411 Clear 5 1025 52 10000 2.57 360 22:19 11.04.2021
412 Clear 5 1025 49 10000 2.06 350 21:42 11.04.2021
413 Clear 5 1025 56 10000 2.06 340 21:24 11.04.2021
414 Clear 6 1025 52 10000 2.06 340 20:42 11.04.2021
415 Clear 6 1025 52 10000 2.06 340 20:23 11.04.2021
416 Clear 8 1025 46 10000 2.06 80 19:43 11.04.2021
417 Clear 8 1025 42 10000 2.57 90 19:21 11.04.2021
418 Clear 9 1025 43 10000 3.6 110 18:57 11.04.2021
419 Clear 9 1025 43 10000 3.6 110 18:39 11.04.2021
420 Clear 10 1025 46 10000 4.12 110 18:20 11.04.2021
421 Clear 11 1025 35 10000 5.14 120 17:40 11.04.2021
422 Clear 13 1025 32 10000 5.14 130 17:22 11.04.2021
423 Clear 12 1025 32 10000 5.14 120 16:42 11.04.2021
424 Clear 13 1025 30 10000 5.14 130 16:21 11.04.2021
425 Clear 13 1025 33 10000 5.14 140 15:46 11.04.2021
426 Clear 13 1025 33 10000 5.14 140 15:46 11.04.2021
427 Clear 13 1025 33 10000 5.14 140 15:46 11.04.2021
428 Clear 14 1025 33 10000 5.66 130 15:26 11.04.2021
429 Clear 14 1025 33 10000 5.14 130 14:51 11.04.2021
430 Clear 14 1025 30 10000 5.66 130 14:24 11.04.2021
431 Clear 13 1026 30 10000 5.66 130 13:44 11.04.2021
432 Clear 12 1026 28 10000 6.17 140 13:26 11.04.2021
433 Clear 13 1026 30 10000 6.17 130 12:40 11.04.2021
434 Clear 13 1026 32 10000 6.69 130 12:20 11.04.2021
435 Clear 13 1026 35 10000 6.69 140 11:45 11.04.2021
436 Clear 12 1026 43 10000 6.69 130 11:20 11.04.2021
437 Clear 12 1026 54 10000 7.2 130 10:45 11.04.2021
438 Clear 11 1026 43 10000 5.66 130 10:23 11.04.2021
439 Clear 12 1026 46 10000 4.63 120 09:50 11.04.2021
440 Clear 10 1026 46 10000 2.06 130 09:29 11.04.2021
441 Clear 8 1026 57 10000 0.51 0 08:40 11.04.2021
442 Clear 4 1026 75 10000 1.54 140 07:54 11.04.2021
443 Clear 3 1025 86 10000 1.03 0 07:19 11.04.2021
444 Clear 1 1025 75 10000 1.54 310 05:48 11.04.2021
445 Clear 1 1025 86 10000 1.54 330 05:23 11.04.2021
446 Clear 0 1025 86 10000 1.54 290 04:37 11.04.2021
447 Clear 0 1025 86 10000 1.03 0 04:19 11.04.2021
448 Clear 1 1025 80 10000 2.06 330 00:55 11.04.2021
449 Clear 2 1025 80 10000 1.54 320 00:32 11.04.2021
450 Rain 3 1025 87 10000 2.06 30 23:45 10.04.2021
451 Clear 3 1025 81 10000 2.06 20 22:55 10.04.2021
452 Rain 4 1025 81 10000 2.06 50 22:28 10.04.2021
453 Clear 4 1025 81 10000 2.06 50 21:54 10.04.2021
454 Clear 4 1025 81 10000 2.06 50 21:25 10.04.2021
455 Clear 4 1025 81 10000 2.06 30 20:56 10.04.2021
456 Clear 5 1025 81 10000 2.06 30 20:36 10.04.2021
457 Clear 6 1025 65 10000 3.09 110 19:59 10.04.2021
458 Clear 6 1025 65 10000 3.09 110 19:41 10.04.2021
459 Clear 6 1024 53 10000 2.06 130 19:23 10.04.2021
460 Clear 8 1024 43 10000 3.6 120 18:41 10.04.2021
461 Clear 9 1024 40 10000 4.12 120 18:23 10.04.2021
462 Clear 10 1024 40 10000 5.14 120 17:35 10.04.2021
463 Clear 11 1024 40 10000 6.69 110 16:42 10.04.2021
464 Clear 12 1024 37 10000 6.69 120 16:21 10.04.2021
465 Clear 12 1024 32 10000 6.69 120 15:44 10.04.2021
466 Clear 13 1025 30 10000 5.66 110 14:54 10.04.2021
467 Clear 12 1025 30 10000 5.14 120 14:33 10.04.2021
468 Clear 12 1026 32 10000 5.14 110 13:56 10.04.2021
469 Clear 12 1026 32 10000 5.14 110 13:36 10.04.2021
470 Clouds 12 1026 32 10000 5.14 120 12:43 10.04.2021
471 Clouds 12 1026 32 10000 5.14 120 12:43 10.04.2021
472 Clouds 13 1026 30 10000 3.09 140 12:20 10.04.2021
473 Clear 12 1027 28 10000 2.57 0 11:45 10.04.2021
474 Clear 12 1027 32 10000 2.06 0 11:22 10.04.2021
475 Clear 12 1027 28 10000 4.12 170 10:51 10.04.2021
476 Clear 11 1027 32 10000 2.57 210 10:30 10.04.2021
477 Clear 10 1027 46 10000 2.06 250 09:37 10.04.2021
478 Clear 8 1027 61 9000 2.06 260 09:18 10.04.2021
479 Clear 8 1027 61 9000 2.06 260 09:18 10.04.2021
480 Clear 6 1028 70 8000 2.06 260 08:34 10.04.2021
481 Clear 2 1027 75 10000 1.03 0 07:56 10.04.2021
482 Mist 3 1027 86 5000 1.75 312 07:26 10.04.2021
483 Clear 1 1026 86 9000 0.51 0 06:27 10.04.2021
484 Clear -1 1026 86 10000 2.28 311 05:28 10.04.2021
485 Clear 0 1027 86 10000 2.24 307 03:36 10.04.2021
486 Clear 0 1027 80 10000 2.27 306 02:42 10.04.2021
487 Clear 1 1027 74 10000 1.54 340 01:27 10.04.2021
488 Clear 1 1028 80 10000 1.03 280 00:31 10.04.2021
489 Clear 1 1028 80 10000 2.06 10 23:50 09.04.2021
490 Clear 1 1028 80 10000 2.06 10 23:27 09.04.2021
491 Clear 2 1028 70 10000 2.06 360 22:47 09.04.2021
492 Clear 2 1028 80 10000 2.57 10 22:28 09.04.2021
493 Clear 2 1028 70 10000 2.06 360 21:39 09.04.2021
494 Clear 3 1028 70 10000 2.06 360 21:20 09.04.2021
495 Clear 3 1028 70 10000 2.06 360 21:20 09.04.2021
496 Clear 3 1028 70 10000 2.06 10 20:46 09.04.2021
497 Clear 4 1028 65 10000 1.54 30 20:23 09.04.2021
498 Clear 5 1028 65 10000 2.06 180 19:58 09.04.2021
499 Clear 6 1028 65 10000 2.06 180 19:39 09.04.2021
500 Clouds 6 1028 57 10000 3.6 140 19:20 09.04.2021
501 Clouds 7 1028 49 10000 3.09 120 18:41 09.04.2021
502 Clouds 7 1028 46 10000 3.6 120 18:22 09.04.2021
503 Clouds 8 1027 43 10000 4.12 130 17:44 09.04.2021
504 Clouds 9 1027 49 10000 4.63 130 17:22 09.04.2021
505 Clouds 10 1027 46 10000 5.66 120 16:41 09.04.2021
506 Clouds 10 1027 46 10000 5.66 120 16:19 09.04.2021
507 Clouds 11 1027 50 10000 5.66 130 15:40 09.04.2021
508 Clouds 10 1027 57 10000 6.17 130 15:20 09.04.2021
509 Clouds 11 1027 28 10000 2.57 320 14:46 09.04.2021
510 Clouds 11 1027 28 10000 3.09 20 13:58 09.04.2021
511 Clouds 11 1027 28 10000 3.09 20 13:39 09.04.2021
512 Clouds 11 1027 30 10000 4.12 340 13:21 09.04.2021
513 Clouds 11 1027 32 10000 4.63 10 12:47 09.04.2021
514 Clouds 10 1027 35 10000 4.12 340 11:52 09.04.2021
515 Clouds 10 1028 37 10000 3.6 330 11:27 09.04.2021
516 Clear 9 1028 43 10000 4.63 350 10:51 09.04.2021
517 Clear 9 1028 46 10000 3.6 10 10:30 09.04.2021
518 Clear 8 1028 53 10000 2.57 0 09:51 09.04.2021
519 Clear 7 1028 53 10000 4.63 280 09:26 09.04.2021
520 Clear 6 1027 56 10000 4.63 260 08:54 09.04.2021
521 Clear 5 1027 56 10000 4.63 260 08:23 09.04.2021
522 Clear 2 1026 70 10000 2.06 300 07:21 09.04.2021
523 Clear 1 1026 75 10000 3.09 250 06:21 09.04.2021
524 Clear 1 1025 75 10000 1.54 0 03:54 09.04.2021
525 Clear 1 1024 80 10000 1.03 0 02:27 09.04.2021
526 Clear 1 1024 75 10000 2.9 319 00:38 09.04.2021
527 Clear 1 1024 75 10000 2.9 319 00:20 09.04.2021
528 Clear 2 1023 69 10000 2.9 319 23:30 08.04.2021
529 Clear 3 1023 65 10000 1.03 0 22:46 08.04.2021
530 Clear 3 1023 70 10000 2.97 339 22:27 08.04.2021
531 Clear 3 1023 70 10000 1.03 0 21:58 08.04.2021
532 Clear 4 1023 70 10000 1.03 0 21:38 08.04.2021
533 Clear 4 1022 70 10000 4.12 350 21:19 08.04.2021
534 Clear 4 1022 65 10000 1.54 330 20:53 08.04.2021
535 Clear 4 1022 65 10000 1.54 330 20:32 08.04.2021
536 Clouds 5 1021 56 10000 5.14 360 19:55 08.04.2021
537 Clouds 6 1021 57 10000 6.17 340 19:24 08.04.2021
538 Clouds 6 1021 57 10000 4.63 350 18:52 08.04.2021
539 Clouds 7 1020 49 10000 3.6 30 18:23 08.04.2021
540 Clouds 7 1020 53 10000 3.6 130 17:50 08.04.2021
541 Clouds 8 1020 37 10000 2.57 340 17:26 08.04.2021
542 Clouds 9 1019 37 10000 4.63 320 16:55 08.04.2021
543 Clouds 9 1019 37 10000 4.12 310 16:35 08.04.2021
544 Clouds 9 1019 37 10000 3.6 360 15:50 08.04.2021
545 Clouds 9 1019 37 10000 4.12 20 15:32 08.04.2021
546 Clouds 9 1019 40 10000 4.12 20 14:58 08.04.2021
547 Clouds 9 1019 40 10000 4.12 20 14:37 08.04.2021
548 Clouds 9 1019 43 10000 4.63 10 14:19 08.04.2021
549 Clouds 8 1019 43 10000 4.63 360 13:43 08.04.2021
550 Clouds 8 1019 49 10000 4.12 350 13:23 08.04.2021
551 Clouds 8 1019 53 10000 4.63 360 12:45 08.04.2021
552 Clouds 8 1019 57 10000 4.63 360 12:26 08.04.2021
553 Clouds 6 1019 66 10000 4.12 330 11:47 08.04.2021
554 Clouds 6 1019 70 10000 3.09 310 11:20 08.04.2021
555 Clouds 6 1019 75 10000 3.09 340 10:43 08.04.2021
556 Clouds 6 1019 75 10000 3.09 310 10:24 08.04.2021
557 Clouds 4 1018 87 10000 2.57 320 09:43 08.04.2021
558 Clouds 3 1018 93 10000 2.57 260 08:51 08.04.2021
559 Clouds 3 1017 87 10000 2.57 310 08:30 08.04.2021
560 Clouds 3 1017 81 10000 1.03 0 07:59 08.04.2021
561 Clouds 3 1017 81 10000 1.03 0 07:39 08.04.2021
562 Rain 3 1015 93 10000 2.57 270 04:44 08.04.2021
563 Rain 3 1014 93 9000 0.35 95 01:21 08.04.2021
564 Rain 3 1014 93 7000 1.62 160 00:29 08.04.2021
565 Rain 3 1014 93 6000 1.03 0 23:45 07.04.2021
566 Rain 3 1014 100 5000 1.54 200 23:22 07.04.2021
567 Rain 3 1014 100 4100 1.54 250 22:54 07.04.2021
568 Rain 3 1014 100 4100 1.54 250 22:35 07.04.2021
569 Rain 3 1013 100 5000 1.24 76 21:48 07.04.2021
570 Rain 3 1012 100 5000 1.03 0 21:26 07.04.2021
571 Rain 3 1013 93 7000 1.54 250 20:47 07.04.2021
572 Rain 3 1012 93 9000 0.51 0 20:27 07.04.2021
573 Rain 3 1012 93 6000 1.54 240 19:46 07.04.2021
574 Rain 3 1011 93 10000 2.57 270 19:28 07.04.2021
575 Rain 3 1010 93 10000 2.57 300 18:53 07.04.2021
576 Rain 3 1010 93 10000 5.14 290 18:21 07.04.2021
577 Rain 3 1010 93 9000 6.69 270 17:57 07.04.2021
578 Rain 3 1010 93 9000 6.69 270 17:39 07.04.2021
579 Rain 4 1009 87 10000 6.69 280 16:58 07.04.2021
580 Rain 4 1009 87 10000 6.69 280 16:39 07.04.2021
581 Rain 4 1008 81 10000 8.75 280 16:20 07.04.2021
582 Rain 5 1008 87 10000 7.2 300 15:40 07.04.2021
583 Rain 6 1007 70 10000 9.26 290 14:58 07.04.2021
584 Clouds 6 1007 70 10000 9.26 290 14:32 07.04.2021
585 Clouds 8 1005 66 10000 9.26 300 13:53 07.04.2021
586 Clouds 9 1006 62 10000 10.29 290 13:28 07.04.2021
587 Clouds 10 1006 66 10000 8.75 280 12:57 07.04.2021
588 Clouds 10 1005 71 10000 10.29 280 12:25 07.04.2021
589 Clouds 10 1005 71 10000 10.29 280 12:25 07.04.2021
590 Clouds 9 1005 71 10000 9.77 260 11:57 07.04.2021
591 Clouds 9 1004 71 10000 9.77 280 11:29 07.04.2021
592 Clouds 9 1004 66 10000 9.77 270 10:59 07.04.2021
593 Clouds 8 1004 71 10000 7.72 280 10:27 07.04.2021
594 Clouds 9 1003 76 10000 6.17 260 09:44 07.04.2021
595 Clouds 9 1002 76 10000 6.69 260 09:25 07.04.2021
596 Clouds 10 1002 76 10000 3.09 240 08:47 07.04.2021
597 Clouds 9 1001 81 10000 1.54 230 08:22 07.04.2021
598 Clouds 9 1001 81 10000 1.54 230 08:22 07.04.2021
599 Clouds 8 1001 87 10000 2.57 330 07:43 07.04.2021
600 Clouds 8 1001 100 9000 4.12 240 07:24 07.04.2021
601 Mist 7 1000 100 3800 1.54 300 06:32 07.04.2021
602 Mist 8 1000 100 1600 1.54 290 04:23 07.04.2021
603 Mist 9 999 100 4200 1.03 140 00:31 07.04.2021
604 Clouds 9 1000 100 4900 0.51 0 23:47 06.04.2021
605 Clouds 9 1000 100 6000 0.51 0 23:22 06.04.2021
606 Mist 9 1000 93 5000 2.06 110 22:48 06.04.2021
607 Mist 9 1000 93 5000 2.06 130 22:19 06.04.2021
608 Clouds 9 1000 93 7000 2.57 110 21:42 06.04.2021
609 Clouds 9 1000 93 7000 2.57 120 21:22 06.04.2021
610 Clouds 9 1000 93 8000 2.06 70 20:54 06.04.2021
611 Clouds 9 1001 93 9000 2.57 90 20:25 06.04.2021
612 Clouds 9 1001 87 9000 2.57 90 19:58 06.04.2021
613 Clouds 9 1001 87 9000 2.57 90 19:58 06.04.2021
614 Clouds 9 1001 87 9000 2.57 90 19:35 06.04.2021
615 Clouds 9 1001 87 8000 4.12 110 18:57 06.04.2021
616 Clouds 9 1001 87 8000 4.12 110 18:57 06.04.2021
617 Clouds 9 1001 87 8000 4.12 110 18:57 06.04.2021
618 Clouds 9 1001 87 8000 4.12 110 18:39 06.04.2021
619 Clouds 11 1001 87 9000 6.17 120 18:19 06.04.2021
620 Clouds 11 1001 81 10000 5.66 100 17:41 06.04.2021
621 Clouds 12 1001 76 10000 6.17 110 17:18 06.04.2021
622 Clouds 12 1001 76 10000 8.23 100 16:43 06.04.2021
623 Clouds 11 1002 76 10000 7.72 100 15:59 06.04.2021
624 Clouds 11 1002 71 10000 8.75 110 15:25 06.04.2021
625 Clouds 12 1001 62 10000 3.09 90 14:43 06.04.2021
626 Clouds 13 1003 62 10000 3.6 110 14:24 06.04.2021
627 Clouds 12 1003 67 10000 5.66 100 13:46 06.04.2021
628 Clouds 12 1004 66 10000 7.72 100 13:25 06.04.2021
629 Clouds 10 1004 71 10000 7.2 120 12:45 06.04.2021
630 Clouds 11 1004 62 10000 3.09 130 12:27 06.04.2021
631 Clouds 11 1004 62 10000 3.09 130 12:27 06.04.2021
632 Clouds 12 1005 62 10000 2.06 150 11:55 06.04.2021
633 Clouds 12 1005 62 10000 2.06 150 11:36 06.04.2021
634 Clouds 11 1005 66 10000 0.51 0 11:18 06.04.2021
635 Clouds 9 1006 71 10000 3.09 170 10:39 06.04.2021
636 Clouds 9 1006 71 10000 3.6 180 10:21 06.04.2021
637 Clear 9 1006 66 10000 4.63 180 09:43 06.04.2021
638 Clear 7 1007 81 10000 3.6 130 08:57 06.04.2021
639 Clear 7 1007 81 10000 3.09 130 08:19 06.04.2021
640 Clear 4 1008 93 9000 2.57 130 07:22 06.04.2021
641 Clear 3 1008 100 10000 2.06 90 06:47 06.04.2021
642 Clear 2 1008 93 10000 1.54 90 03:54 06.04.2021
643 Clear 4 1011 93 10000 2.76 179 00:49 06.04.2021
644 Clear 4 1012 87 10000 2.06 130 00:22 06.04.2021
645 Clear 4 1012 87 10000 2.57 50 23:50 05.04.2021
646 Clear 4 1013 93 10000 1.03 0 23:28 05.04.2021
647 Clear 5 1013 81 10000 0.51 0 22:54 05.04.2021
648 Clear 5 1013 81 10000 0.51 0 22:35 05.04.2021
649 Rain 5 1013 87 10000 0.51 0 21:48 05.04.2021
650 Rain 6 1013 81 10000 1.54 0 21:27 05.04.2021
651 Clear 6 1013 81 10000 4.12 130 20:49 05.04.2021
652 Clouds 6 1013 87 10000 2.57 100 20:30 05.04.2021
653 Clouds 7 1013 81 10000 3.6 120 19:45 05.04.2021
654 Clouds 7 1013 81 10000 3.09 100 19:26 05.04.2021
655 Clouds 9 1013 71 10000 3.09 120 18:58 05.04.2021
656 Clouds 9 1013 71 10000 3.09 120 18:39 05.04.2021
657 Clouds 10 1013 66 10000 3.09 120 18:19 05.04.2021
658 Clouds 11 1013 62 10000 4.12 120 17:46 05.04.2021
659 Clouds 11 1013 66 10000 3.6 120 17:21 05.04.2021
660 Clouds 11 1013 58 10000 2.57 230 16:45 05.04.2021
661 Clouds 11 1013 62 10000 1.03 0 16:22 05.04.2021
662 Clouds 11 1014 58 10000 0.51 0 15:56 05.04.2021
663 Clouds 10 1014 66 10000 2.57 360 15:30 05.04.2021
664 Clouds 10 1014 71 10000 5.14 310 14:58 05.04.2021
665 Clouds 10 1014 58 10000 4.63 310 14:35 05.04.2021
666 Clouds 11 1014 54 10000 4.12 240 13:40 05.04.2021
667 Clouds 11 1014 54 10000 4.12 240 13:40 05.04.2021
668 Clouds 10 1014 66 10000 6.17 280 13:22 05.04.2021
669 Clouds 11 1014 66 10000 6.17 240 12:45 05.04.2021
670 Clouds 11 1015 71 10000 5.14 260 12:22 05.04.2021
671 Clouds 10 1014 66 10000 3.09 290 11:45 05.04.2021
672 Clouds 10 1014 66 10000 3.09 290 11:45 05.04.2021
673 Clouds 10 1015 66 10000 4.12 270 11:27 05.04.2021
674 Clouds 8 1015 71 10000 4.12 290 10:45 05.04.2021
675 Clouds 8 1015 76 10000 4.63 300 10:27 05.04.2021
676 Clouds 8 1014 76 10000 3.6 300 09:48 05.04.2021
677 Clouds 7 1014 81 10000 3.6 290 09:24 05.04.2021
678 Clouds 6 1014 93 10000 3.6 260 08:45 05.04.2021
679 Clouds 6 1014 93 10000 3.09 260 08:26 05.04.2021
680 Clouds 4 1014 93 10000 2.57 260 07:37 05.04.2021
681 Clouds 3 1013 93 10000 2.06 250 06:32 05.04.2021
682 Rain 3 1014 93 10000 2.57 230 01:57 05.04.2021
683 Rain 3 1014 93 8000 2.06 290 00:50 05.04.2021
684 Rain 4 1014 93 10000 1.03 0 23:52 04.04.2021
685 Rain 4 1014 93 10000 2.06 30 23:28 04.04.2021
686 Rain 4 1014 87 10000 2.06 10 22:52 04.04.2021
687 Rain 4 1014 87 8000 2.06 0 22:30 04.04.2021
688 Rain 4 1013 87 9000 1.54 140 21:29 04.04.2021
689 Rain 4 1013 87 9000 2.57 0 20:58 04.04.2021
690 Clouds 5 1013 87 9000 4.63 10 20:30 04.04.2021
691 Clouds 5 1013 87 9000 4.63 10 20:30 04.04.2021
692 Rain 5 1013 87 10000 0.51 0 19:58 04.04.2021
693 Rain 5 1013 87 10000 0.51 0 19:37 04.04.2021
694 Rain 6 1013 87 10000 3.09 20 19:18 04.04.2021
695 Rain 6 1013 87 8000 1.54 50 18:44 04.04.2021
696 Rain 6 1014 87 7000 3.09 30 18:21 04.04.2021
697 Rain 6 1014 93 10000 1.54 120 17:44 04.04.2021
698 Rain 7 1013 81 10000 2.06 40 17:23 04.04.2021
699 Rain 7 1013 81 10000 3.6 40 16:44 04.04.2021
700 Clouds 7 1014 87 10000 3.09 50 16:19 04.04.2021
701 Clouds 8 1014 76 10000 3.09 360 15:34 04.04.2021
702 Clouds 8 1014 81 10000 3.09 350 14:46 04.04.2021
703 Clouds 8 1014 76 10000 2.06 350 14:27 04.04.2021
704 Clouds 8 1015 76 10000 2.57 340 13:50 04.04.2021
705 Clouds 8 1015 76 10000 2.57 320 13:24 04.04.2021
706 Clouds 8 1015 81 10000 2.57 300 12:43 04.04.2021
707 Clouds 8 1015 81 10000 2.57 300 12:24 04.04.2021
708 Clouds 8 1015 81 10000 3.6 350 11:42 04.04.2021
709 Clouds 8 1015 81 10000 4.12 360 11:23 04.04.2021
710 Rain 8 1015 93 10000 2.57 350 10:45 04.04.2021
711 Rain 7 1014 93 7000 3.09 270 09:55 04.04.2021
712 Rain 7 1014 93 10000 4.63 290 09:26 04.04.2021
713 Rain 7 1013 87 10000 4.63 300 08:53 04.04.2021
714 Clouds 7 1013 87 10000 6.17 300 08:35 04.04.2021
715 Clouds 7 1013 87 10000 5.14 280 07:55 04.04.2021
716 Rain 7 1012 93 10000 5.66 290 06:38 04.04.2021
717 Rain 7 1012 93 10000 5.66 270 05:33 04.04.2021
718 Rain 9 1011 100 2700 2.57 260 01:29 04.04.2021
719 Rain 9 1010 100 3700 1.03 0 00:20 04.04.2021
720 Rain 9 1010 100 2800 1.54 50 23:48 03.04.2021
721 Rain 9 1011 100 2100 1.03 0 23:29 03.04.2021
722 Rain 9 1010 100 700 1.54 150 22:52 03.04.2021
723 Mist 9 1010 100 4000 1.54 210 22:22 03.04.2021
724 Rain 9 1010 100 3600 2.06 10 21:52 03.04.2021
725 Rain 9 1011 100 2800 0.51 0 21:25 03.04.2021
726 Rain 9 1011 100 3700 1.54 260 20:51 03.04.2021
727 Rain 8 1011 100 5000 1.6 127 20:28 03.04.2021
728 Rain 8 1010 93 5000 2.57 120 19:51 03.04.2021
729 Mist 8 1010 93 4900 2.57 110 19:27 03.04.2021
730 Mist 8 1010 93 3500 3.6 130 18:52 03.04.2021
731 Mist 8 1010 93 3500 3.6 130 18:33 03.04.2021
732 Mist 8 1010 100 5000 4.12 120 17:55 03.04.2021
733 Rain 8 1010 93 7000 3.6 120 17:26 03.04.2021
734 Rain 9 1011 93 8000 5.14 120 16:54 03.04.2021
735 Clouds 9 1010 87 10000 5.14 120 16:25 03.04.2021
736 Clouds 10 1010 87 10000 5.66 110 15:51 03.04.2021
737 Clouds 10 1010 87 10000 5.66 110 15:31 03.04.2021
738 Clouds 12 1011 81 10000 6.17 120 14:45 03.04.2021
739 Clouds 12 1011 81 10000 6.69 110 14:25 03.04.2021
740 Clouds 12 1012 81 10000 6.17 120 13:54 03.04.2021
741 Clouds 12 1012 76 10000 6.69 110 13:34 03.04.2021
742 Clouds 12 1012 76 10000 6.69 120 12:58 03.04.2021
743 Clouds 11 1012 76 10000 6.69 120 12:33 03.04.2021
744 Clouds 10 1013 81 10000 5.66 120 11:41 03.04.2021
745 Clouds 9 1012 81 10000 5.14 130 11:20 03.04.2021
746 Clouds 9 1013 76 10000 5.14 120 10:45 03.04.2021
747 Clouds 8 1013 81 10000 4.63 130 10:26 03.04.2021
748 Clouds 8 1012 81 10000 5.14 140 09:36 03.04.2021
749 Clouds 8 1012 81 10000 5.14 140 09:18 03.04.2021
750 Clouds 8 1012 81 10000 1.54 120 08:35 03.04.2021
751 Clouds 8 1011 81 10000 2.06 50 07:31 03.04.2021
752 Clouds 8 1011 81 10000 1.03 0 06:56 03.04.2021
753 Clouds 8 1011 81 10000 2.57 360 03:54 03.04.2021
754 Clouds 9 1011 82 10000 1.03 0 02:55 03.04.2021
755 Clouds 9 1011 87 10000 1.54 330 02:28 03.04.2021
756 Clouds 10 1010 87 10000 3.09 10 00:32 03.04.2021
757 Clear 11 1009 82 10000 6.17 360 23:59 02.04.2021
758 Clear 11 1009 82 10000 4.63 340 23:29 02.04.2021
759 Clear 11 1009 76 10000 3.6 350 22:56 02.04.2021
760 Clear 11 1009 76 10000 3.6 350 22:37 02.04.2021
761 Clouds 12 1009 76 10000 4.63 30 21:59 02.04.2021
762 Clouds 12 1009 76 10000 4.63 30 21:40 02.04.2021
763 Clouds 13 1008 77 10000 3.09 20 21:18 02.04.2021
764 Rain 14 1010 63 10000 6.17 340 20:38 02.04.2021
765 Rain 14 1010 63 10000 6.17 340 20:38 02.04.2021
766 Clouds 14 1007 58 10000 1.03 0 20:18 02.04.2021
767 Clouds 15 1007 55 10000 1.54 290 19:40 02.04.2021
768 Rain 15 1007 55 10000 1.54 290 19:22 02.04.2021
769 Clouds 17 1007 48 10000 2.57 350 18:43 02.04.2021
770 Rain 16 1007 51 10000 1.54 110 18:23 02.04.2021
771 Clouds 17 1007 45 10000 2.57 150 17:54 02.04.2021
772 Clouds 18 1007 42 10000 2.06 160 17:22 02.04.2021
773 Clear 17 1007 42 10000 3.09 130 16:23 02.04.2021
774 Clear 16 1007 45 10000 3.6 130 15:43 02.04.2021
775 Clear 17 1008 32 10000 2.06 150 15:19 02.04.2021
776 Clear 16 1008 39 10000 2.57 160 14:33 02.04.2021
777 Clear 17 1009 37 10000 3.6 170 13:47 02.04.2021
778 Clear 16 1009 32 10000 4.12 230 13:27 02.04.2021
779 Clear 16 1010 34 10000 3.09 230 12:47 02.04.2021
780 Clear 15 1010 42 10000 2.57 210 12:20 02.04.2021
781 Clear 14 1011 41 10000 3.09 250 11:58 02.04.2021
782 Clear 13 1011 44 10000 1.54 0 11:21 02.04.2021
783 Clear 11 1011 50 10000 1.54 320 10:51 02.04.2021
784 Clear 10 1011 58 10000 3.09 280 10:32 02.04.2021
785 Clear 10 1011 58 10000 3.09 280 10:32 02.04.2021
786 Clear 10 1012 61 10000 3.34 201 09:55 02.04.2021
787 Clear 9 1012 76 10000 1.03 0 09:37 02.04.2021
788 Clear 9 1012 76 10000 1.03 0 09:18 02.04.2021
789 Mist 6 1012 93 5000 1.54 290 08:34 02.04.2021
790 Mist 4 1012 93 4500 2.06 300 07:52 02.04.2021
791 Mist 4 1012 100 3100 1.03 0 07:18 02.04.2021
792 Mist 2 1013 93 4500 1.03 300 06:22 02.04.2021
793 Clear 2 1014 100 9000 1.82 261 02:51 02.04.2021
794 Clear 3 1015 93 8000 0.51 280 00:54 02.04.2021
795 Clear 3 1015 93 8000 0.51 280 00:54 02.04.2021
796 Clear 3 1015 93 8000 0.51 280 00:33 02.04.2021
797 Clear 3 1016 87 10000 2.06 290 23:41 01.04.2021
798 Clear 3 1016 93 10000 2.06 20 23:21 01.04.2021
799 Clear 4 1016 87 10000 1.54 30 22:22 01.04.2021
800 Clear 4 1016 87 10000 1.54 30 22:22 01.04.2021
801 Clear 4 1016 87 10000 2.06 10 21:52 01.04.2021
802 Clear 4 1017 87 10000 1.54 60 21:29 01.04.2021
803 Clear 5 1017 81 10000 1.47 233 20:58 01.04.2021
804 Clear 6 1017 87 10000 1.54 110 20:29 01.04.2021
805 Clear 6 1017 87 10000 3.6 100 19:57 01.04.2021
806 Clear 6 1017 81 10000 4.12 100 19:37 01.04.2021
807 Clear 8 1017 76 10000 3.6 110 18:49 01.04.2021
808 Clear 9 1017 71 10000 2.57 120 18:19 01.04.2021
809 Clear 8 1017 71 10000 4.12 120 17:57 01.04.2021
810 Clear 9 1017 66 10000 6.17 120 17:38 01.04.2021
811 Clear 9 1017 66 10000 6.17 120 17:19 01.04.2021
812 Clear 10 1017 66 10000 6.69 120 16:41 01.04.2021
813 Clear 10 1017 66 10000 7.72 120 15:49 01.04.2021
814 Clear 12 1017 62 10000 6.69 120 15:21 01.04.2021
815 Clear 12 1018 47 10000 5.14 120 14:48 01.04.2021
816 Clear 13 1018 50 10000 2.57 0 14:28 01.04.2021
817 Clouds 12 1018 47 10000 2.06 0 13:58 01.04.2021
818 Clouds 12 1019 50 10000 1.54 0 13:31 01.04.2021
819 Clouds 12 1019 50 10000 3.6 140 12:56 01.04.2021
820 Clouds 11 1020 50 10000 3.09 110 12:34 01.04.2021
821 Clouds 10 1020 50 10000 2.57 260 11:58 01.04.2021
822 Clouds 10 1020 50 10000 2.57 0 11:40 01.04.2021
823 Clouds 10 1020 50 10000 2.57 0 11:18 01.04.2021
824 Clouds 9 1020 53 10000 3.09 350 10:45 01.04.2021
825 Clouds 8 1020 61 10000 3.09 30 10:24 01.04.2021
826 Clouds 7 1020 65 10000 4.12 20 09:31 01.04.2021
827 Clouds 6 1020 75 10000 3.6 40 08:43 01.04.2021
828 Clouds 6 1020 75 10000 3.6 20 08:24 01.04.2021
829 Clear 2 1020 87 10000 3.09 350 07:21 01.04.2021
830 Clear 2 1020 87 10000 0.51 0 06:56 01.04.2021
831 Clear 1 1020 87 10000 2.06 30 05:33 01.04.2021
832 Clear 3 1020 87 10000 4.63 40 03:18 01.04.2021
833 Clouds 5 1021 75 10000 1.03 0 23:55 31.03.2021
834 Clouds 5 1021 75 10000 0.51 0 23:37 31.03.2021
835 Clouds 5 1022 75 10000 3.51 46 22:44 31.03.2021
836 Clouds 5 1022 75 10000 1.54 90 22:23 31.03.2021
837 Clear 3 1022 81 10000 1.54 260 21:54 31.03.2021
838 Clear 5 1022 75 10000 1.54 100 21:36 31.03.2021
839 Clear 5 1022 75 10000 1.54 100 21:18 31.03.2021
840 Clear 5 1023 75 10000 1.54 320 20:40 31.03.2021
841 Clear 5 1023 75 10000 1.54 320 20:20 31.03.2021
842 Clouds 6 1023 70 10000 1.54 30 19:42 31.03.2021
843 Clouds 6 1023 70 10000 1.03 0 19:20 31.03.2021
844 Clear 6 1023 65 10000 2.57 140 18:54 31.03.2021
845 Clear 8 1023 66 10000 3.6 150 18:35 31.03.2021
846 Clear 9 1023 66 10000 4.12 150 17:41 31.03.2021
847 Clear 10 1023 61 10000 5.14 140 17:19 31.03.2021
848 Clear 10 1023 53 10000 6.69 130 16:53 31.03.2021
849 Clouds 11 1024 57 10000 6.69 140 16:34 31.03.2021
850 Clouds 11 1024 57 10000 7.2 140 15:53 31.03.2021
851 Clouds 11 1024 57 10000 7.2 130 15:20 31.03.2021
852 Clouds 11 1025 57 10000 6.69 140 14:50 31.03.2021
853 Clouds 12 1025 54 10000 7.2 140 14:25 31.03.2021
854 Clouds 12 1025 58 10000 7.2 130 13:55 31.03.2021
855 Clouds 12 1026 54 10000 6.17 130 13:23 31.03.2021
856 Clouds 11 1026 43 10000 5.66 50 12:40 31.03.2021
857 Clouds 12 1026 43 10000 5.66 50 12:18 31.03.2021
858 Clouds 11 1027 43 10000 5.66 50 11:23 31.03.2021
859 Clouds 10 1027 40 10000 6.69 60 10:50 31.03.2021
860 Clouds 10 1027 57 10000 3.6 60 10:28 31.03.2021
861 Clouds 9 1027 53 10000 5.66 50 09:56 31.03.2021
862 Clear 8 1027 57 10000 6.69 30 09:31 31.03.2021
863 Clear 7 1028 66 10000 5.14 20 08:46 31.03.2021
864 Clear 5 1027 75 10000 6.17 20 08:26 31.03.2021
865 Clear 3 1027 81 10000 6.17 20 07:37 31.03.2021
866 Clear 3 1027 81 10000 4.63 30 05:21 31.03.2021
867 Clear 3 1027 81 10000 4.63 30 02:37 31.03.2021
868 Clear 4 1028 81 10000 3.6 30 00:54 31.03.2021
869 Clear 4 1028 81 10000 3.6 20 00:25 31.03.2021
870 Clear 4 1028 81 10000 3.6 40 23:57 30.03.2021
871 Clear 4 1028 81 10000 4.12 40 23:25 30.03.2021
872 Clear 4 1028 75 10000 6.69 40 22:50 30.03.2021
873 Clear 4 1028 75 10000 7.72 40 22:30 30.03.2021
874 Clear 5 1028 75 10000 5.66 40 21:57 30.03.2021
875 Clear 5 1028 75 10000 6.17 30 21:29 30.03.2021
876 Clear 5 1028 75 10000 5.66 40 20:59 30.03.2021
877 Clear 5 1028 70 10000 4.63 50 20:31 30.03.2021
878 Clear 6 1028 57 10000 4.12 30 19:56 30.03.2021
879 Clear 6 1028 57 10000 5.14 40 19:37 30.03.2021
880 Clear 7 1028 53 10000 5.66 50 18:55 30.03.2021
881 Clear 8 1028 49 10000 7.72 60 18:26 30.03.2021
882 Clear 9 1028 46 10000 8.75 40 17:45 30.03.2021
883 Clear 10 1027 40 10000 10.8 40 17:26 30.03.2021
884 Clouds 11 1028 43 10000 10.8 40 16:47 30.03.2021
885 Clouds 10 1027 40 10000 10.8 40 16:27 30.03.2021
886 Clouds 11 1027 43 10000 8.75 40 15:37 30.03.2021
887 Clouds 11 1027 43 10000 8.75 40 15:18 30.03.2021
888 Clouds 11 1027 43 10000 7.72 40 14:45 30.03.2021
889 Clouds 11 1028 40 10000 6.69 20 14:20 30.03.2021
890 Clouds 12 1028 38 10000 7.2 40 13:47 30.03.2021
891 Clouds 12 1028 44 10000 7.2 30 13:24 30.03.2021
892 Clouds 13 1028 44 10000 8.23 30 12:41 30.03.2021
893 Clouds 12 1028 44 10000 7.72 20 12:20 30.03.2021
894 Clouds 11 1028 50 10000 7.72 40 11:41 30.03.2021
895 Clouds 12 1028 54 10000 7.72 360 11:18 30.03.2021
896 Clouds 11 1028 54 10000 5.66 30 10:41 30.03.2021
897 Clouds 10 1028 54 10000 5.66 30 10:19 30.03.2021
898 Clouds 9 1028 62 10000 5.66 20 09:40 30.03.2021
899 Clear 8 1028 66 10000 7.2 10 09:20 30.03.2021
900 Clear 8 1028 61 10000 6.69 10 08:41 30.03.2021
901 Clear 6 1028 75 10000 4.63 360 07:55 30.03.2021
902 Clear 5 1028 70 10000 4.63 350 07:28 30.03.2021
903 Clouds 4 1028 75 10000 3.6 350 06:23 30.03.2021
904 Clear 5 1027 70 10000 6.17 350 05:24 30.03.2021
905 Clear 5 1028 61 10000 3.6 350 01:37 30.03.2021
906 Clear 6 1028 57 10000 2.57 360 23:52 29.03.2021
907 Clear 6 1028 61 10000 3.09 340 23:18 29.03.2021
908 Clear 7 1029 57 10000 1.54 340 22:36 29.03.2021
909 Clear 7 1029 61 10000 1.54 290 21:55 29.03.2021
910 Clear 6 1029 61 10000 2.57 360 21:33 29.03.2021
911 Clear 7 1029 57 10000 2.06 10 20:50 29.03.2021
912 Clouds 9 1029 50 10000 3.6 10 20:29 29.03.2021
913 Clouds 9 1029 57 10000 3.09 360 19:52 29.03.2021
914 Clouds 9 1028 57 10000 3.09 10 19:27 29.03.2021
915 Clouds 10 1028 53 10000 2.57 20 18:51 29.03.2021
916 Clouds 10 1028 53 10000 8.75 350 18:27 29.03.2021
917 Clouds 12 1027 26 10000 3.6 320 17:55 29.03.2021
918 Clouds 12 1027 26 10000 3.6 320 17:35 29.03.2021
919 Clear 14 1028 25 10000 6.69 310 16:52 29.03.2021
920 Clear 14 1028 26 10000 6.69 340 16:25 29.03.2021
921 Clear 15 1028 25 10000 7.2 310 15:40 29.03.2021
922 Clear 14 1028 25 10000 7.2 310 15:22 29.03.2021
923 Clear 14 1028 29 10000 6.69 290 14:46 29.03.2021
924 Clouds 14 1029 25 10000 8.23 310 13:56 29.03.2021
925 Clouds 14 1029 26 10000 7.2 310 13:37 29.03.2021
926 Clouds 13 1029 35 10000 5.66 260 12:59 29.03.2021
927 Clouds 13 1029 35 10000 5.66 260 12:40 29.03.2021
928 Clear 12 1030 37 10000 5.66 300 11:45 29.03.2021
929 Clear 12 1030 37 10000 4.12 280 11:27 29.03.2021
930 Clear 12 1030 37 10000 4.12 280 11:27 29.03.2021
931 Clear 12 1030 37 10000 2.57 0 10:45 29.03.2021
932 Clear 11 1030 37 10000 4.12 350 10:19 29.03.2021
933 Clear 9 1031 40 10000 4.63 10 09:32 29.03.2021
934 Clear 8 1031 53 10000 3.09 240 08:34 29.03.2021
935 Clear 6 1031 61 10000 2.06 260 07:54 29.03.2021
936 Clear 5 1030 65 10000 1.54 290 06:57 29.03.2021
937 Clear 5 1030 56 10000 2.57 260 06:22 29.03.2021
938 Clear 7 1029 57 10000 3.6 20 02:33 29.03.2021
939 Clear 10 1028 71 10000 5.66 360 00:30 29.03.2021
940 Clear 10 1027 66 10000 2.57 360 23:58 28.03.2021
941 Clear 11 1026 58 10000 3.6 250 23:25 28.03.2021
942 Clear 11 1026 58 10000 3.6 250 23:25 28.03.2021
943 Clear 12 1026 54 10000 4.12 270 22:43 28.03.2021
944 Clouds 11 1026 62 10000 4.63 270 22:25 28.03.2021
945 Clouds 11 1026 71 10000 3.6 280 21:47 28.03.2021
946 Clouds 11 1026 71 10000 6 280 21:24 28.03.2021
947 Clouds 10 1026 76 10000 2.06 20 20:53 28.03.2021
948 Clouds 11 1025 71 10000 1.54 250 20:35 28.03.2021
949 Clouds 9 1025 71 10000 3.65 283 19:56 28.03.2021
950 Clouds 9 1025 71 10000 3.65 283 19:38 28.03.2021
951 Clouds 10 1025 66 10000 1.54 110 19:20 28.03.2021
952 Clouds 12 1024 62 10000 1.03 0 18:41 28.03.2021
953 Clouds 14 1024 51 10000 3.6 130 18:18 28.03.2021
954 Clouds 16 1024 41 10000 3.6 120 17:37 28.03.2021
955 Clouds 16 1024 39 10000 5.66 100 16:56 28.03.2021
956 Clear 16 1024 36 10000 5.66 100 16:28 28.03.2021
957 Clear 17 1024 34 10000 6.17 100 15:57 28.03.2021
958 Clear 18 1025 34 10000 5.66 110 15:24 28.03.2021
959 Clear 18 1025 34 10000 5.14 120 14:46 28.03.2021
960 Clear 18 1025 34 10000 6.17 120 14:18 28.03.2021
961 Clear 18 1025 32 10000 4.12 140 13:35 28.03.2021
962 Clear 18 1025 29 10000 4.12 180 12:56 28.03.2021
963 Clear 17 1026 31 10000 4.63 210 12:34 28.03.2021
964 Clear 18 1026 29 10000 3.6 220 11:52 28.03.2021
965 Clear 16 1026 36 10000 4.12 210 11:32 28.03.2021
966 Clear 15 1026 44 10000 4.63 210 10:48 28.03.2021
967 Clear 14 1026 44 10000 3.6 240 10:29 28.03.2021
968 Clear 13 1026 50 10000 1.03 0 09:51 28.03.2021
969 Clear 10 1026 57 10000 1.54 260 09:28 28.03.2021
970 Clear 9 1026 61 10000 1.54 250 08:49 28.03.2021
971 Clear 8 1026 70 10000 1.58 281 08:30 28.03.2021
972 Clear 7 1026 75 10000 1.54 280 07:39 28.03.2021
973 Clear 3 1025 80 10000 1.54 290 05:39 28.03.2021
974 Clear 3 1026 80 10000 1.54 350 03:28 28.03.2021
975 Clear 4 1026 70 10000 1.78 248 00:35 28.03.2021
976 Clear 4 1026 75 10000 0.51 0 23:51 27.03.2021
977 Clear 4 1026 75 10000 1.03 360 23:33 27.03.2021
978 Clear 5 1026 65 10000 2.06 30 22:40 27.03.2021
979 Clear 4 1026 65 10000 2.06 30 22:21 27.03.2021
980 Clear 4 1026 70 10000 2.57 10 21:42 27.03.2021
981 Clear 5 1026 56 10000 2.06 20 21:21 27.03.2021
982 Clear 6 1026 61 10000 2.06 30 20:55 27.03.2021
983 Clear 7 1026 53 10000 1.03 0 20:37 27.03.2021
984 Clear 8 1026 49 10000 2.22 197 19:46 27.03.2021
985 Clear 7 1026 57 10000 2.06 110 19:24 27.03.2021
986 Clear 7 1026 61 10000 3.6 90 18:57 27.03.2021
987 Clear 8 1026 61 10000 3.6 90 18:38 27.03.2021
988 Clear 9 1025 61 10000 4.63 100 18:19 27.03.2021
989 Clear 11 1025 43 10000 6.17 100 17:29 27.03.2021
990 Clear 11 1025 35 10000 5.66 110 16:54 27.03.2021
991 Clear 12 1025 33 10000 5.66 120 16:36 27.03.2021
992 Clear 12 1025 33 10000 5.66 120 16:18 27.03.2021
993 Clear 14 1025 31 10000 6.17 120 15:36 27.03.2021
994 Clear 15 1025 29 10000 6.17 120 14:55 27.03.2021
995 Clear 15 1025 29 10000 6.17 110 14:22 27.03.2021
996 Clear 16 1025 29 10000 5.66 120 13:36 27.03.2021
997 Clear 16 1025 25 10000 1.54 0 13:18 27.03.2021
998 Clear 15 1026 29 10000 2.57 260 12:35 27.03.2021
999 Clear 15 1026 29 10000 4.12 220 11:47 27.03.2021
1000 Clear 14 1026 28 10000 4.12 230 11:28 27.03.2021
1001 Clear 14 1026 28 10000 3.09 200 10:48 27.03.2021
1002 Clear 14 1026 30 10000 4.12 220 10:28 27.03.2021
1003 Clear 13 1027 35 10000 3.6 250 09:41 27.03.2021
1004 Clear 12 1027 40 10000 2.57 250 09:18 27.03.2021
1005 Clear 11 1026 46 10000 2.06 260 08:33 27.03.2021
1006 Clear 7 1026 57 10000 1.03 0 07:36 27.03.2021
1007 Clear 4 1026 70 10000 2.85 298 06:58 27.03.2021
1008 Clear 4 1026 70 10000 2.85 298 06:34 27.03.2021
1009 Clear 3 1025 69 10000 3.26 303 04:40 27.03.2021
1010 Clear 3 1025 69 10000 3.8 308 01:28 27.03.2021
1011 Clear 3 1025 75 10000 3.8 308 00:31 27.03.2021
1012 Clear 3 1025 75 10000 2.06 220 23:58 26.03.2021
1013 Clear 4 1024 60 10000 3.09 360 23:22 26.03.2021
1014 Clear 4 1024 56 10000 3.75 305 22:36 26.03.2021
1015 Clear 5 1024 60 10000 1.03 170 21:40 26.03.2021
1016 Clear 5 1024 56 10000 3.99 297 21:22 26.03.2021
1017 Clear 5 1024 60 10000 3.09 320 20:44 26.03.2021
1018 Clear 5 1024 60 10000 3.6 320 20:24 26.03.2021
1019 Clear 6 1024 56 10000 3.09 320 19:49 26.03.2021
1020 Clear 6 1024 56 10000 3.09 320 19:30 26.03.2021
1021 Clear 6 1023 56 10000 2.57 330 18:45 26.03.2021
1022 Clear 7 1023 49 10000 3.09 310 18:26 26.03.2021
1023 Clear 7 1023 49 10000 3.09 310 18:26 26.03.2021
1024 Clear 9 1023 43 10000 4.12 290 17:47 26.03.2021
1025 Clear 11 1022 32 10000 6.69 300 16:57 26.03.2021
1026 Clouds 11 1022 32 10000 6.17 300 16:33 26.03.2021
1027 Clouds 11 1022 30 10000 5.66 330 15:57 26.03.2021
1028 Clouds 11 1022 30 10000 5.14 310 15:23 26.03.2021
1029 Clouds 11 1022 30 10000 7.2 310 14:33 26.03.2021
1030 Clouds 11 1022 32 10000 6.69 310 13:41 26.03.2021
1031 Clouds 10 1022 32 10000 7.2 310 12:56 26.03.2021
1032 Clouds 10 1022 35 10000 8.23 310 12:33 26.03.2021
1033 Clouds 9 1022 37 10000 7.72 330 11:35 26.03.2021
1034 Clouds 10 1022 32 10000 6.17 330 10:58 26.03.2021
1035 Clear 8 1022 43 10000 5.66 310 10:39 26.03.2021
1036 Clear 7 1022 46 10000 6.69 310 09:54 26.03.2021
1037 Clear 7 1022 42 10000 6.17 330 09:35 26.03.2021
1038 Clear 6 1022 49 10000 5.66 320 08:42 26.03.2021
1039 Clear 6 1022 52 10000 4.63 300 08:22 26.03.2021
1040 Clear 4 1021 56 10000 5.66 300 07:24 26.03.2021
1041 Clear 4 1021 60 10000 5.14 310 06:58 26.03.2021
1042 Clear 3 1021 60 10000 5.14 310 06:35 26.03.2021
1043 Clear 3 1021 60 10000 6.17 310 05:31 26.03.2021
1044 Clear 3 1020 75 10000 3.6 280 02:22 26.03.2021
1045 Clear 2 1020 81 10000 3.6 290 00:32 26.03.2021
1046 Clear 2 1020 81 10000 4.12 300 23:44 25.03.2021
1047 Clear 2 1020 81 10000 4.63 290 23:20 25.03.2021
1048 Clear 2 1020 81 10000 4.63 290 23:20 25.03.2021
1049 Clear 2 1020 81 10000 4.12 290 22:37 25.03.2021
1050 Clear 2 1020 87 10000 2.57 260 21:53 25.03.2021
1051 Clear 2 1020 81 10000 3.09 270 21:34 25.03.2021
1052 Clear 2 1021 75 10000 2.57 260 20:45 25.03.2021
1053 Clear 2 1021 81 10000 1.54 270 20:26 25.03.2021
1054 Clear 2 1021 75 10000 4.12 290 19:49 25.03.2021
1055 Clear 2 1021 75 10000 4.12 290 19:49 25.03.2021
1056 Clouds 2 1021 75 10000 4.12 300 19:31 25.03.2021
1057 Clouds 3 1020 75 10000 5.14 300 18:51 25.03.2021
1058 Clouds 3 1020 75 10000 4.12 300 18:28 25.03.2021
1059 Clouds 3 1020 81 10000 4.63 300 17:57 25.03.2021
1060 Clouds 3 1020 81 10000 4.63 300 17:37 25.03.2021
1061 Clouds 3 1019 75 10000 6.17 300 16:56 25.03.2021
1062 Clouds 4 1019 75 10000 6.17 300 16:32 25.03.2021
1063 Clouds 4 1019 75 10000 6.17 300 15:46 25.03.2021
1064 Clouds 4 1019 75 10000 7.2 300 15:24 25.03.2021
1065 Clouds 5 1019 70 10000 8.23 290 14:48 25.03.2021
1066 Clouds 5 1019 65 10000 7.2 300 14:29 25.03.2021
1067 Clouds 5 1019 61 10000 7.2 310 13:25 25.03.2021
1068 Clouds 5 1019 65 10000 6.17 320 12:46 25.03.2021
1069 Clouds 5 1018 60 10000 6.69 330 12:22 25.03.2021
1070 Clouds 5 1018 60 10000 7.2 320 11:53 25.03.2021
1071 Clouds 5 1018 60 10000 7.2 320 11:53 25.03.2021
1072 Clouds 5 1018 60 10000 7.2 320 11:53 25.03.2021
1073 Clouds 5 1018 60 10000 7.2 320 11:33 25.03.2021
1074 Clouds 4 1018 70 10000 5.14 300 10:57 25.03.2021
1075 Clouds 4 1018 75 10000 5.66 300 10:39 25.03.2021
1076 Clouds 4 1018 75 10000 5.66 300 10:18 25.03.2021
1077 Clouds 2 1018 81 10000 5.66 300 09:43 25.03.2021
1078 Clouds 2 1018 87 10000 5.14 310 08:59 25.03.2021
1079 Clouds 2 1018 87 10000 5.14 300 08:30 25.03.2021
1080 Clouds 1 1017 87 10000 5.66 310 07:26 25.03.2021
1081 Clouds 0 1017 93 10000 2.57 290 06:27 25.03.2021
1082 Clouds 0 1017 86 10000 2.06 290 05:49 25.03.2021
1083 Clear -1 1016 93 10000 2.57 260 04:42 25.03.2021
1084 Clear -1 1016 86 10000 2.57 310 00:46 25.03.2021
1085 Clear -1 1016 86 10000 4.12 290 00:18 25.03.2021
1086 Clear -1 1016 86 10000 3.09 250 23:36 24.03.2021
1087 Clouds -1 1016 86 10000 2.57 280 22:58 24.03.2021
1088 Clouds -1 1017 86 10000 2.57 280 22:38 24.03.2021
1089 Clouds -1 1016 86 10000 3.09 270 21:50 24.03.2021
1090 Clouds -1 1016 93 10000 2.57 280 21:31 24.03.2021
1091 Clouds -1 1016 86 10000 3.09 270 20:55 24.03.2021
1092 Clouds -1 1016 86 10000 3.09 270 20:37 24.03.2021
1093 Clouds -1 1016 86 10000 3.09 290 20:18 24.03.2021
1094 Clouds -1 1016 86 10000 2.57 310 19:31 24.03.2021
1095 Clouds -1 1015 86 10000 3.6 320 18:52 24.03.2021
1096 Clouds -1 1015 80 10000 3.6 350 18:24 24.03.2021
1097 Clouds 0 1015 80 10000 4.12 350 17:53 24.03.2021
1098 Clouds 0 1015 80 10000 4.12 350 17:32 24.03.2021
1099 Clouds 0 1015 80 10000 4.12 350 17:32 24.03.2021
1100 Clouds 1 1015 64 10000 4.63 350 16:54 24.03.2021
1101 Clouds 2 1015 64 10000 4.63 350 16:32 24.03.2021
1102 Clouds 3 1014 56 10000 7.2 360 15:58 24.03.2021
1103 Clouds 3 1014 64 10000 6.17 330 15:33 24.03.2021
1104 Clouds 3 1014 52 10000 6.17 320 14:59 24.03.2021
1105 Clouds 4 1014 48 10000 6.17 340 14:28 24.03.2021
1106 Clouds 3 1014 52 10000 6.69 360 13:57 24.03.2021
1107 Clouds 2 1014 64 10000 8.75 330 13:28 24.03.2021
1108 Clouds 3 1013 69 10000 8.23 340 12:48 24.03.2021
1109 Clouds 3 1013 41 10000 4.63 350 12:27 24.03.2021
1110 Clouds 4 1013 42 10000 5.66 350 11:49 24.03.2021
1111 Clouds 3 1014 52 10000 7.72 360 11:20 24.03.2021
1112 Clouds 4 1014 52 10000 7.2 340 10:44 24.03.2021
1113 Clouds 3 1014 60 10000 6.69 10 10:25 24.03.2021
1114 Clouds 3 1013 56 10000 6.69 360 09:54 24.03.2021
1115 Clouds 3 1013 60 10000 6.69 360 09:23 24.03.2021
1116 Clouds 2 1013 60 10000 6.69 340 08:55 24.03.2021
1117 Clouds 2 1013 64 10000 7.72 10 08:29 24.03.2021
1118 Clouds 1 1013 69 10000 6.69 350 07:42 24.03.2021
1119 Clouds 0 1012 80 10000 4.12 340 06:54 24.03.2021
1120 Clear -1 1012 80 10000 2.57 340 05:52 24.03.2021
1121 Clouds 1 1010 86 10000 3.6 290 00:56 24.03.2021
1122 Clouds 1 1010 86 10000 3.09 250 00:28 24.03.2021
1123 Clouds 1 1011 80 10000 4.12 250 23:22 23.03.2021
1124 Clouds 1 1011 86 10000 3.6 260 22:58 23.03.2021
1125 Clouds 1 1011 86 10000 3.6 260 22:40 23.03.2021
1126 Clear 1 1011 80 10000 6.17 320 21:58 23.03.2021
1127 Clear 1 1011 80 10000 5.66 320 21:39 23.03.2021
1128 Clear 1 1011 80 10000 5.66 320 21:19 23.03.2021
1129 Clear 1 1011 80 10000 6.69 330 20:39 23.03.2021
1130 Clear 1 1011 80 10000 5.66 330 20:21 23.03.2021
1131 Clear 1 1011 80 10000 5.14 330 19:44 23.03.2021
1132 Clouds 2 1011 75 10000 5.66 320 19:23 23.03.2021
1133 Clouds 2 1011 70 10000 4.63 320 18:42 23.03.2021
1134 Clouds 3 1011 60 10000 1.54 320 18:20 23.03.2021
1135 Clouds 3 1011 56 10000 2.57 330 17:44 23.03.2021
1136 Clouds 5 1011 48 10000 4.63 340 17:21 23.03.2021
1137 Clouds 5 1011 48 10000 4.63 340 17:21 23.03.2021
1138 Clouds 5 1011 45 10000 4.12 350 16:26 23.03.2021
1139 Clouds 5 1011 45 10000 7.2 340 15:52 23.03.2021
1140 Clouds 5 1011 49 10000 5.66 360 15:25 23.03.2021
1141 Clouds 6 1011 45 10000 7.2 350 14:49 23.03.2021
1142 Clouds 6 1011 45 10000 7.2 360 14:20 23.03.2021
1143 Clouds 5 1011 45 10000 7.2 350 13:48 23.03.2021
1144 Clouds 5 1012 45 10000 6.17 10 13:25 23.03.2021
1145 Clouds 5 1011 49 10000 6.69 360 12:46 23.03.2021
1146 Clouds 5 1012 49 10000 6.69 350 12:26 23.03.2021
1147 Clouds 4 1012 52 10000 6.69 360 11:49 23.03.2021
1148 Clouds 4 1012 52 10000 7.72 350 11:26 23.03.2021
1149 Clear 3 1012 56 10000 5.14 350 10:43 23.03.2021
1150 Clear 4 1012 56 10000 7.2 360 10:21 23.03.2021
1151 Clear 3 1012 56 10000 4.63 360 09:54 23.03.2021
1152 Clear 3 1013 56 10000 4.63 10 09:24 23.03.2021
1153 Clouds 2 1013 60 10000 6.17 10 08:55 23.03.2021
1154 Clouds 2 1013 60 10000 6.17 10 08:37 23.03.2021
1155 Clouds 2 1012 60 10000 6.17 10 08:19 23.03.2021
1156 Clouds 1 1013 80 10000 3.09 0 07:28 23.03.2021
1157 Clouds 1 1013 80 10000 2.57 0 06:53 23.03.2021
1158 Rain 1 1010 87 10000 7.2 360 03:57 23.03.2021
1159 Rain 1 1010 93 10000 5.66 350 03:18 23.03.2021
1160 Clouds 1 1009 87 10000 3.09 270 23:56 22.03.2021
1161 Clouds 1 1009 87 10000 3.6 280 23:20 22.03.2021
1162 Clouds 1 1008 87 10000 2.57 300 22:44 22.03.2021
1163 Clouds 1 1008 87 10000 3.09 280 22:21 22.03.2021
1164 Clouds 1 1008 87 10000 3.09 0 21:49 22.03.2021
1165 Clouds 1 1006 87 10000 7.72 10 21:27 22.03.2021
1166 Clouds 1 1006 87 10000 8.23 10 20:44 22.03.2021
1167 Snow 1 1006 87 10000 3.6 0 20:26 22.03.2021
1168 Snow 1 1006 87 10000 1.54 0 19:58 22.03.2021
1169 Snow 1 1006 87 10000 1.54 0 19:38 22.03.2021
1170 Snow 1 1006 87 10000 1.54 0 19:38 22.03.2021
1171 Snow 1 1006 100 10000 3.6 260 19:20 22.03.2021
1172 Snow 1 1005 93 10000 4.12 270 18:41 22.03.2021
1173 Snow 1 1005 87 7000 4.12 260 18:22 22.03.2021
1174 Rain 1 1004 93 10000 2.57 0 17:49 22.03.2021
1175 Rain 1 1003 93 10000 6.17 20 17:22 22.03.2021
1176 Rain 1 1002 93 10000 9.77 10 16:55 22.03.2021
1177 Rain 2 1002 93 10000 9.77 10 16:36 22.03.2021
1178 Clouds 2 1002 87 10000 8.23 10 15:42 22.03.2021
1179 Clouds 2 1002 87 10000 8.23 10 15:42 22.03.2021
1180 Clouds 2 1001 87 10000 8.23 20 15:22 22.03.2021
1181 Clouds 2 1001 87 10000 9.26 10 14:57 22.03.2021
1182 Clouds 2 1001 87 10000 9.26 10 14:34 22.03.2021
1183 Clouds 2 1001 87 10000 8.23 20 13:50 22.03.2021
1184 Clouds 2 1001 87 10000 8.23 20 13:29 22.03.2021
1185 Clouds 2 1001 93 8000 11.83 30 12:57 22.03.2021
1186 Snow 2 1001 93 8000 11.83 30 12:26 22.03.2021
1187 Rain 2 1002 93 8000 10.29 10 11:51 22.03.2021
1188 Rain 2 1002 93 8000 10.29 10 11:51 22.03.2021
1189 Rain 2 1002 93 8000 10.29 10 11:29 22.03.2021
1190 Clouds 2 1002 93 9000 9.77 10 10:49 22.03.2021
1191 Clouds 2 1002 93 7000 10.29 10 10:26 22.03.2021
1192 Clouds 3 1002 93 9000 7.72 10 09:56 22.03.2021
1193 Clouds 3 1002 93 9000 7.72 10 09:34 22.03.2021
1194 Clouds 3 1002 87 10000 6.69 20 08:47 22.03.2021
1195 Clouds 3 1002 87 10000 6.69 20 08:47 22.03.2021
1196 Clouds 3 1003 93 10000 4.12 40 08:28 22.03.2021
1197 Clouds 3 1003 93 10000 5.14 40 07:54 22.03.2021
1198 Clouds 3 1003 93 10000 5.14 40 07:34 22.03.2021
1199 Clouds 3 1003 87 10000 2.57 70 06:51 22.03.2021
1200 Clouds 2 1007 93 10000 4.63 80 02:51 22.03.2021
1201 Rain 2 1009 93 9000 3.6 90 00:49 22.03.2021
1202 Clouds 2 1010 87 10000 4.12 120 23:59 21.03.2021
1203 Rain 2 1010 87 10000 4.12 120 23:39 21.03.2021
1204 Rain 3 1010 81 10000 4.12 80 23:18 21.03.2021
1205 Rain 3 1010 81 10000 5.14 70 22:43 21.03.2021
1206 Rain 4 1011 70 10000 4.63 80 21:43 21.03.2021
1207 Rain 4 1011 75 10000 5.14 90 21:25 21.03.2021
1208 Rain 4 1012 70 10000 5.14 100 20:57 21.03.2021
1209 Rain 4 1012 70 10000 5.14 100 20:38 21.03.2021
1210 Rain 4 1012 70 10000 5.14 100 20:19 21.03.2021
1211 Clouds 4 1012 70 10000 5.14 100 19:40 21.03.2021
1212 Clouds 4 1012 70 10000 5.66 110 19:19 21.03.2021
1213 Clouds 4 1012 70 10000 5.14 100 18:41 21.03.2021
1214 Clouds 4 1013 70 10000 4.63 100 18:18 21.03.2021
1215 Clouds 5 1013 70 10000 5.66 100 17:42 21.03.2021
1216 Clouds 5 1013 65 10000 5.14 100 17:18 21.03.2021
1217 Clouds 5 1013 75 10000 3.09 100 16:49 21.03.2021
1218 Clouds 5 1014 75 10000 1.54 120 16:23 21.03.2021
1219 Clouds 5 1014 81 10000 2.57 130 15:46 21.03.2021
1220 Clouds 5 1014 75 10000 3.09 130 15:21 21.03.2021
1221 Clouds 5 1015 75 10000 3.6 120 14:48 21.03.2021
1222 Clouds 5 1015 75 10000 3.6 120 14:48 21.03.2021
1223 Clouds 5 1015 81 10000 4.63 110 14:27 21.03.2021
1224 Clouds 5 1016 75 10000 5.66 90 13:57 21.03.2021
1225 Clouds 5 1016 75 10000 5.66 90 13:39 21.03.2021
1226 Clouds 5 1016 70 10000 5.14 90 12:43 21.03.2021
1227 Clouds 5 1017 75 10000 4.63 90 12:25 21.03.2021
1228 Clouds 5 1017 75 10000 4.63 90 12:25 21.03.2021
1229 Clouds 6 1017 75 10000 4.63 80 11:41 21.03.2021
1230 Clouds 5 1017 81 10000 5.14 80 11:20 21.03.2021
1231 Clouds 5 1017 70 10000 4.12 70 10:44 21.03.2021
1232 Clouds 5 1017 70 10000 4.63 50 10:26 21.03.2021
1233 Clouds 5 1017 70 10000 6.17 60 09:49 21.03.2021
1234 Clouds 5 1017 75 10000 5.66 50 09:30 21.03.2021
1235 Clouds 4 1017 75 10000 6.69 50 08:56 21.03.2021
1236 Clouds 4 1017 75 10000 6.69 50 08:31 21.03.2021
1237 Clouds 4 1018 70 10000 5.66 50 07:50 21.03.2021
1238 Clear 4 1018 70 10000 4.63 50 07:23 21.03.2021
1239 Clear 3 1018 75 10000 4.12 50 05:59 21.03.2021
1240 Rain 4 1018 70 10000 4.12 70 02:48 21.03.2021
1241 Clouds 4 1019 81 10000 3.6 40 00:56 21.03.2021
1242 Clouds 4 1019 81 10000 3.6 40 00:36 21.03.2021
1243 Clouds 4 1019 81 10000 3.6 40 00:18 21.03.2021
1244 Clouds 4 1019 81 10000 3.6 50 23:40 20.03.2021
1245 Clear 4 1019 81 10000 3.09 50 23:18 20.03.2021
1246 Clear 4 1019 81 10000 3.09 60 22:24 20.03.2021
1247 Clear 4 1019 81 10000 3.09 60 21:48 20.03.2021
1248 Clear 4 1019 81 10000 3.09 80 21:26 20.03.2021
1249 Clear 4 1019 87 10000 3.09 90 20:49 20.03.2021
1250 Clear 4 1019 87 10000 2.57 80 20:24 20.03.2021
1251 Clouds 4 1019 81 10000 3.6 70 19:52 20.03.2021
1252 Clouds 4 1019 81 10000 3.09 70 19:29 20.03.2021
1253 Clouds 4 1019 81 10000 3.6 90 18:52 20.03.2021
1254 Clouds 4 1018 81 10000 3.6 90 18:29 20.03.2021
1255 Clouds 5 1019 81 10000 3.6 100 17:58 20.03.2021
1256 Clouds 5 1019 81 10000 3.6 100 17:40 20.03.2021
1257 Clouds 5 1019 75 10000 4.63 100 17:20 20.03.2021
1258 Clouds 6 1018 75 10000 5.66 100 16:40 20.03.2021
1259 Clouds 6 1018 70 10000 5.14 110 16:18 20.03.2021
1260 Clouds 6 1018 70 10000 6.17 110 15:42 20.03.2021
1261 Clouds 7 1018 76 10000 6.17 130 15:24 20.03.2021
1262 Clouds 7 1018 66 10000 6.17 130 14:33 20.03.2021
1263 Clouds 8 1018 61 10000 5.66 120 13:59 20.03.2021
1264 Clouds 9 1019 57 10000 5.66 120 13:31 20.03.2021
1265 Clouds 9 1019 57 10000 6.17 120 12:39 20.03.2021
1266 Clouds 10 1019 53 10000 5.66 130 12:20 20.03.2021
1267 Clouds 10 1019 53 10000 5.66 130 11:43 20.03.2021
1268 Clouds 10 1019 53 10000 5.14 120 11:22 20.03.2021
1269 Clouds 10 1019 37 10000 2.06 310 10:45 20.03.2021
1270 Clouds 9 1019 43 10000 2.57 260 10:23 20.03.2021
1271 Clear 9 1019 57 10000 2.06 190 09:48 20.03.2021
1272 Clear 8 1019 53 10000 1.54 240 09:22 20.03.2021
1273 Clear 7 1019 65 10000 1.03 0 08:53 20.03.2021
1274 Clouds 5 1019 81 8000 1.03 0 08:19 20.03.2021
1275 Clouds 5 1019 87 7000 1.03 0 07:48 20.03.2021
1276 Clouds 2 1019 93 6000 0.51 0 07:29 20.03.2021
1277 Mist 1 1019 100 5000 2.06 290 06:40 20.03.2021
1278 Clouds 0 1018 93 6000 2.06 220 05:28 20.03.2021
1279 Clouds 0 1018 100 6000 1.54 260 03:44 20.03.2021
1280 Clouds 0 1017 93 8000 2.06 20 01:42 20.03.2021
1281 Clouds 0 1017 93 9000 1.54 20 23:48 19.03.2021
1282 Clouds 1 1017 86 9000 2.06 10 23:20 19.03.2021
1283 Clear 1 1017 86 10000 2.06 10 22:43 19.03.2021
1284 Clear 1 1017 86 10000 2.06 10 22:24 19.03.2021
1285 Clear 2 1016 80 10000 2.06 20 21:51 19.03.2021
1286 Clear 2 1016 80 10000 2.06 350 21:20 19.03.2021
1287 Clouds 2 1016 81 10000 0.51 360 20:46 19.03.2021
1288 Clouds 3 1016 75 10000 2.06 10 20:26 19.03.2021
1289 Clouds 3 1016 75 10000 1.03 320 19:50 19.03.2021
1290 Clouds 4 1015 70 10000 1.54 330 19:24 19.03.2021
1291 Clouds 4 1015 70 10000 2.06 350 18:49 19.03.2021
1292 Clouds 5 1015 65 10000 1.54 250 18:30 19.03.2021
1293 Clouds 6 1015 61 10000 2.57 260 17:58 19.03.2021
1294 Clouds 6 1015 61 10000 2.57 260 17:38 19.03.2021
1295 Clouds 6 1015 61 10000 3.6 280 17:18 19.03.2021
1296 Clouds 7 1014 61 10000 4.12 280 16:44 19.03.2021
1297 Clear 8 1014 57 10000 4.12 280 16:25 19.03.2021
1298 Clear 8 1014 53 10000 4.12 280 15:34 19.03.2021
1299 Clear 8 1014 53 10000 4.12 280 14:53 19.03.2021
1300 Clear 8 1014 53 10000 4.12 280 14:34 19.03.2021
1301 Clear 8 1014 57 10000 5.14 280 13:53 19.03.2021
1302 Clouds 8 1014 57 10000 4.63 290 13:19 19.03.2021
1303 Clouds 7 1015 57 10000 6.17 270 12:47 19.03.2021
1304 Clouds 8 1015 57 10000 5.66 280 12:18 19.03.2021
1305 Clouds 8 1014 61 10000 4.12 290 11:33 19.03.2021
1306 Clouds 7 1014 57 10000 4.12 280 10:47 19.03.2021
1307 Clouds 8 1014 61 10000 4.63 280 10:22 19.03.2021
1308 Clouds 8 1014 65 10000 4.63 280 09:44 19.03.2021
1309 Clouds 7 1014 65 10000 4.63 260 09:25 19.03.2021
1310 Clouds 7 1014 65 10000 4.63 270 08:52 19.03.2021
1311 Clouds 6 1014 70 10000 4.63 280 08:28 19.03.2021
1312 Clear 6 1014 70 10000 4.12 270 07:50 19.03.2021
1313 Clear 4 1014 93 10000 2.57 270 07:31 19.03.2021
1314 Clear 0 1013 100 10000 1.54 300 05:28 19.03.2021
1315 Clouds 3 1013 93 10000 2.06 280 01:58 19.03.2021
1316 Clouds 3 1013 100 10000 1.54 290 23:55 18.03.2021
1317 Clouds 3 1013 93 10000 2.06 260 23:29 18.03.2021
1318 Clouds 4 1013 93 10000 2.57 320 22:52 18.03.2021
1319 Clouds 4 1013 93 10000 2.06 330 22:25 18.03.2021
1320 Clouds 4 1014 93 10000 2.06 280 21:48 18.03.2021
1321 Clouds 4 1013 93 10000 2.06 280 21:30 18.03.2021
1322 Clouds 4 1013 93 10000 2.06 250 20:42 18.03.2021
1323 Clouds 4 1013 93 10000 2.57 260 20:22 18.03.2021
1324 Clouds 4 1013 87 10000 2.06 260 19:43 18.03.2021
1325 Clouds 3 1013 93 10000 1.54 270 19:23 18.03.2021
1326 Clouds 4 1013 87 10000 2.06 260 18:47 18.03.2021
1327 Clouds 5 1012 93 10000 3.6 260 17:58 18.03.2021
1328 Clouds 5 1012 87 10000 4.12 260 17:27 18.03.2021
1329 Clouds 5 1012 87 10000 5.14 280 16:59 18.03.2021
1330 Clouds 6 1012 87 10000 4.12 250 16:36 18.03.2021
1331 Rain 6 1012 75 10000 3.6 270 15:59 18.03.2021
1332 Rain 6 1012 75 10000 3.6 270 15:41 18.03.2021
1333 Rain 6 1012 65 10000 3.09 330 15:19 18.03.2021
1334 Rain 6 1012 65 10000 3.09 330 15:19 18.03.2021
1335 Clouds 6 1011 61 10000 3.09 350 14:45 18.03.2021
1336 Clouds 7 1011 57 10000 5.14 330 14:19 18.03.2021
1337 Clouds 6 1011 61 10000 5.66 330 13:37 18.03.2021
1338 Clouds 6 1011 61 10000 5.66 330 13:19 18.03.2021
1339 Clouds 7 1011 61 10000 6.17 340 12:38 18.03.2021
1340 Clouds 7 1011 61 10000 6.17 340 12:37 18.03.2021
1341 Clouds 7 1011 61 10000 6.17 340 12:19 18.03.2021
1342 Clouds 7 1011 61 10000 7.2 320 11:44 18.03.2021
1343 Clouds 7 1010 61 10000 7.2 320 11:20 18.03.2021
1344 Clouds 7 1010 71 10000 7.72 300 10:41 18.03.2021
1345 Clouds 6 1010 70 10000 7.2 310 10:23 18.03.2021
1346 Clouds 6 1010 70 10000 6.17 300 09:45 18.03.2021
1347 Clouds 5 1010 81 10000 5.66 260 09:26 18.03.2021
1348 Clouds 4 1010 87 10000 3.6 270 08:45 18.03.2021
1349 Clouds 4 1010 93 10000 3.6 280 08:23 18.03.2021
1350 Clouds 3 1009 93 10000 4.63 290 07:45 18.03.2021
1351 Clouds 3 1009 87 10000 6.69 310 06:44 18.03.2021
1352 Clouds 3 1008 81 10000 6.69 310 06:25 18.03.2021
1353 Clouds 2 1007 87 10000 3.09 280 05:26 18.03.2021
1354 Clouds 3 1006 81 10000 4.63 290 00:48 18.03.2021
1355 Clouds 2 1006 87 10000 4.63 260 23:37 17.03.2021
1356 Clouds 2 1005 93 10000 5.14 250 22:39 17.03.2021
1357 Clouds 2 1005 93 10000 5.14 250 22:21 17.03.2021
1358 Clouds 3 1005 81 10000 4.12 270 21:51 17.03.2021
1359 Clouds 3 1005 81 10000 4.12 280 21:32 17.03.2021
1360 Clouds 3 1005 81 10000 4.63 260 20:49 17.03.2021
1361 Clouds 3 1004 87 10000 4.63 240 20:27 17.03.2021
1362 Clouds 3 1004 81 10000 4.12 250 19:59 17.03.2021
1363 Clouds 3 1004 87 10000 5.14 240 19:39 17.03.2021
1364 Clouds 3 1004 87 10000 5.14 240 19:19 17.03.2021
1365 Clouds 3 1003 87 10000 5.14 250 18:49 17.03.2021
1366 Clouds 3 1003 87 10000 5.14 260 18:31 17.03.2021
1367 Clouds 4 1002 81 10000 7.72 280 17:33 17.03.2021
1368 Clouds 4 1002 81 10000 7.72 300 16:59 17.03.2021
1369 Clouds 4 1001 81 10000 9.77 300 16:39 17.03.2021
1370 Clouds 4 1001 81 10000 9.77 300 16:20 17.03.2021
1371 Clouds 5 1000 75 10000 9.26 300 15:44 17.03.2021
1372 Clouds 5 1000 75 10000 8.75 300 15:25 17.03.2021
1373 Clouds 5 1000 75 10000 9.26 290 14:37 17.03.2021
1374 Clouds 5 1000 75 10000 9.26 290 14:19 17.03.2021
1375 Clouds 4 999 81 10000 7.72 290 13:52 17.03.2021
1376 Clouds 4 999 87 10000 7.72 300 13:24 17.03.2021
1377 Clouds 4 999 81 10000 10.8 290 12:43 17.03.2021
1378 Clouds 4 999 87 10000 8.23 290 12:25 17.03.2021
1379 Clouds 4 998 93 10000 9.77 270 11:40 17.03.2021
1380 Rain 4 998 93 10000 9.77 270 11:20 17.03.2021
1381 Rain 4 998 87 10000 8.23 270 10:50 17.03.2021
1382 Rain 4 998 93 10000 8.75 270 10:22 17.03.2021
1383 Rain 3 998 93 10000 8.23 260 09:43 17.03.2021
1384 Rain 3 998 93 10000 8.23 260 09:20 17.03.2021
1385 Rain 3 998 93 10000 7.72 260 08:46 17.03.2021
1386 Rain 3 998 93 10000 7.2 260 08:26 17.03.2021
1387 Clouds 3 998 93 10000 5.14 260 07:39 17.03.2021
1388 Rain 3 998 100 10000 4.63 270 06:52 17.03.2021
1389 Rain 3 998 93 10000 4.12 270 06:27 17.03.2021
1390 Clouds 3 998 93 10000 5.66 260 03:32 17.03.2021
1391 Clouds 3 998 93 10000 5.66 260 03:32 17.03.2021
1392 Clouds 3 998 93 8000 4.12 270 02:37 17.03.2021
1393 Clouds 3 999 100 10000 5.66 270 00:38 17.03.2021
1394 Clouds 3 999 93 10000 5.14 270 23:27 16.03.2021
1395 Clouds 3 999 93 10000 5.14 270 22:45 16.03.2021
1396 Clouds 3 999 93 10000 5.14 280 22:27 16.03.2021
1397 Clouds 3 999 93 10000 6.17 270 21:44 16.03.2021
1398 Clouds 3 999 87 10000 6.69 270 21:26 16.03.2021
1399 Clouds 3 999 87 10000 6.17 280 20:57 16.03.2021
1400 Clouds 3 999 87 10000 6.17 280 20:20 16.03.2021
1401 Clouds 3 999 87 10000 6.17 280 20:20 16.03.2021
1402 Clouds 3 999 87 10000 4.63 290 19:48 16.03.2021
1403 Clouds 3 999 87 10000 5.14 280 19:29 16.03.2021
1404 Clouds 4 999 81 10000 6.17 290 18:57 16.03.2021
1405 Clouds 4 999 81 10000 5.66 290 18:38 16.03.2021
1406 Clouds 5 999 75 10000 6.17 270 17:59 16.03.2021
1407 Clouds 5 999 75 10000 6.69 280 17:40 16.03.2021
1408 Clouds 5 999 75 10000 6.69 280 17:20 16.03.2021
1409 Clouds 6 998 70 10000 6.17 290 16:46 16.03.2021
1410 Clouds 7 998 76 10000 6.69 270 16:25 16.03.2021
1411 Clouds 7 998 76 10000 7.72 280 15:45 16.03.2021
1412 Clouds 7 998 71 10000 8.23 290 15:20 16.03.2021
1413 Clouds 8 997 71 10000 8.75 280 14:56 16.03.2021
1414 Clouds 8 997 71 10000 8.23 280 14:38 16.03.2021
1415 Clouds 8 997 71 10000 8.23 280 14:18 16.03.2021
1416 Clouds 7 998 76 10000 7.2 280 13:42 16.03.2021
1417 Clouds 7 997 76 10000 7.2 280 13:21 16.03.2021
1418 Clouds 7 997 76 10000 7.2 300 12:40 16.03.2021
1419 Clouds 7 997 76 10000 7.2 300 12:19 16.03.2021
1420 Clouds 7 997 76 10000 6.69 280 11:35 16.03.2021
1421 Clouds 6 997 76 10000 6.69 280 10:53 16.03.2021
1422 Clouds 6 997 81 10000 6.17 280 10:21 16.03.2021
1423 Clouds 6 997 81 10000 6.17 280 10:21 16.03.2021
1424 Clouds 6 997 87 10000 6.69 270 09:41 16.03.2021
1425 Clouds 6 997 87 10000 5.66 270 09:21 16.03.2021
1426 Rain 5 996 87 10000 5.66 270 08:56 16.03.2021
1427 Clouds 5 996 87 10000 5.66 270 08:37 16.03.2021
1428 Clouds 5 996 87 10000 5.66 270 07:55 16.03.2021
1429 Rain 5 996 93 10000 4.63 270 07:27 16.03.2021
1430 Clouds 5 996 93 10000 5.66 260 06:38 16.03.2021
1431 Clouds 5 995 93 10000 5.14 260 05:37 16.03.2021
1432 Clouds 5 995 93 10000 5.14 270 04:28 16.03.2021
1433 Clouds 7 995 100 7000 1.03 210 02:27 16.03.2021
1434 Rain 8 995 87 10000 1.54 130 00:47 16.03.2021
1435 Clouds 9 996 87 10000 5.14 110 23:54 15.03.2021
1436 Clouds 9 995 81 10000 6.17 100 23:19 15.03.2021
1437 Clouds 9 996 76 10000 6.17 100 22:43 15.03.2021
1438 Clouds 9 996 81 10000 6.17 110 22:25 15.03.2021
1439 Clouds 9 997 81 10000 6.69 110 21:51 15.03.2021
1440 Clouds 9 997 87 10000 6.69 110 21:29 15.03.2021
1441 Clouds 9 997 87 10000 6.69 110 20:55 15.03.2021
1442 Clouds 10 997 82 10000 4.63 110 20:37 15.03.2021
1443 Clouds 10 997 82 10000 4.63 110 20:19 15.03.2021
1444 Clouds 10 997 82 10000 4.63 110 20:19 15.03.2021
1445 Clouds 10 997 87 10000 6.17 100 19:43 15.03.2021
1446 Clouds 10 998 76 10000 5.66 100 19:24 15.03.2021
1447 Rain 10 998 82 10000 4.63 100 18:47 15.03.2021
1448 Clouds 10 998 81 10000 4.12 90 18:23 15.03.2021
1449 Clouds 10 998 87 10000 4.12 100 17:55 15.03.2021
1450 Clouds 10 998 82 10000 5.14 100 17:28 15.03.2021
1451 Clear 11 998 82 10000 5.14 110 16:50 15.03.2021
1452 Clear 11 998 76 10000 6.69 110 16:25 15.03.2021
1453 Clear 12 998 71 10000 7.72 110 15:44 15.03.2021
1454 Clear 12 998 71 10000 7.72 110 15:25 15.03.2021
1455 Clear 14 999 63 10000 7.72 120 14:42 15.03.2021
1456 Clouds 15 999 58 10000 8.23 100 14:21 15.03.2021
1457 Clouds 14 999 67 10000 7.72 90 13:46 15.03.2021
1458 Clouds 15 999 63 10000 7.72 110 13:24 15.03.2021
1459 Clouds 14 1000 59 10000 8.75 110 12:47 15.03.2021
1460 Clouds 14 1000 67 10000 6.17 110 12:18 15.03.2021
1461 Clouds 13 1000 72 10000 7.2 100 11:48 15.03.2021
1462 Clouds 13 1001 72 10000 6.69 90 11:30 15.03.2021
1463 Clouds 13 1001 67 10000 4.12 130 10:45 15.03.2021
1464 Clouds 12 1001 72 10000 5.66 110 10:27 15.03.2021
1465 Clouds 12 1002 72 10000 5.66 90 09:49 15.03.2021
1466 Clouds 11 1002 76 10000 4.63 120 09:30 15.03.2021
1467 Clear 11 1003 82 10000 3.6 110 08:48 15.03.2021
1468 Clouds 10 1003 87 8000 4.12 110 08:27 15.03.2021
1469 Mist 10 1003 93 5000 5.14 110 07:43 15.03.2021
1470 Mist 9 1003 100 4000 4.63 110 07:24 15.03.2021
1471 Mist 6 1003 100 1200 4.12 120 06:21 15.03.2021
1472 Fog 6 1004 100 250 2.81 171 03:59 15.03.2021
1473 Fog 5 1006 100 300 1.54 100 01:20 15.03.2021
1474 Mist 6 1007 100 4200 1.94 153 23:24 14.03.2021
1475 Mist 6 1007 93 3800 1.94 153 23:00 14.03.2021
1476 Mist 6 1008 93 4100 1.94 153 22:38 14.03.2021
1477 Mist 6 1008 93 4100 1.41 147 22:18 14.03.2021
1478 Mist 7 1008 93 5000 0.51 120 21:39 14.03.2021
1479 Mist 7 1008 93 5000 0.51 120 21:18 14.03.2021
1480 Clear 7 1008 93 7000 0.51 70 20:42 14.03.2021
1481 Clear 8 1008 87 8000 2.03 147 20:23 14.03.2021
1482 Clear 8 1008 87 8000 2.06 100 19:42 14.03.2021
1483 Clear 8 1009 87 9000 3.09 90 19:20 14.03.2021
1484 Clear 9 1009 87 10000 2.57 100 18:41 14.03.2021
1485 Clear 9 1009 87 10000 4.12 100 17:56 14.03.2021
1486 Clear 10 1009 76 10000 3.6 100 17:37 14.03.2021
1487 Clear 10 1009 76 10000 3.6 100 17:19 14.03.2021
1488 Clouds 11 1009 76 10000 5.14 100 16:41 14.03.2021
1489 Clouds 11 1009 76 10000 5.14 100 16:21 14.03.2021
1490 Clear 12 1009 71 10000 5.66 100 15:48 14.03.2021
1491 Clear 12 1010 66 10000 6.69 110 14:59 14.03.2021
1492 Clouds 14 1010 58 10000 6.69 110 14:40 14.03.2021
1493 Clouds 15 1010 58 10000 6.69 110 14:20 14.03.2021
1494 Clouds 15 1010 62 10000 7.2 120 13:43 14.03.2021
1495 Clear 15 1010 62 10000 7.72 120 13:24 14.03.2021
1496 Clear 14 1011 58 10000 6.69 110 12:42 14.03.2021
1497 Clear 14 1011 58 10000 6.17 110 12:23 14.03.2021
1498 Clear 13 1012 62 10000 4.12 100 11:40 14.03.2021
1499 Clear 13 1012 62 10000 4.12 100 11:22 14.03.2021
1500 Clear 12 1013 66 10000 4.12 100 10:38 14.03.2021
1501 Clear 12 1013 66 10000 4.12 100 10:20 14.03.2021
1502 Clear 12 1013 66 10000 4.12 110 09:57 14.03.2021
1503 Clear 13 1013 66 10000 3.09 120 09:39 14.03.2021
1504 Clear 13 1013 66 10000 3.09 120 09:20 14.03.2021
1505 Clear 11 1014 71 10000 2.57 120 08:37 14.03.2021
1506 Clear 10 1014 81 10000 2.06 90 07:58 14.03.2021
1507 Clear 7 1014 87 8000 1.03 0 07:28 14.03.2021
1508 Clear 2 1014 100 7000 1.37 172 05:38 14.03.2021
1509 Clear 3 1015 93 10000 2.06 30 01:27 14.03.2021
1510 Clear 5 1016 87 10000 1.6 289 00:20 14.03.2021
1511 Clear 4 1016 87 10000 2.06 310 23:59 13.03.2021
1512 Clear 4 1016 87 10000 2.06 310 23:39 13.03.2021
1513 Clear 5 1016 87 10000 1.03 0 23:18 13.03.2021
1514 Clear 6 1016 81 10000 2.57 330 22:46 13.03.2021
1515 Clear 6 1016 81 10000 1.54 310 22:18 13.03.2021
1516 Clear 7 1016 71 10000 3.6 350 21:35 13.03.2021
1517 Clear 9 1016 66 10000 2.06 310 20:59 13.03.2021
1518 Clear 10 1016 62 10000 2.06 290 20:41 13.03.2021
1519 Clear 10 1016 62 10000 2.06 290 20:41 13.03.2021
1520 Clear 10 1016 62 10000 2.06 290 20:41 13.03.2021
1521 Clear 10 1016 62 10000 2.06 290 20:22 13.03.2021
1522 Clear 10 1016 66 10000 0.51 0 19:40 13.03.2021
1523 Clear 10 1015 66 10000 2.57 280 19:22 13.03.2021
1524 Clear 11 1015 62 10000 0.51 0 18:42 13.03.2021
1525 Clear 10 1015 66 10000 1.54 170 18:20 13.03.2021
1526 Clear 10 1015 66 10000 1.54 0 17:49 13.03.2021
1527 Clear 10 1015 66 10000 1.54 0 17:49 13.03.2021
1528 Clear 11 1015 71 10000 3.09 110 17:31 13.03.2021
1529 Clear 12 1014 62 10000 2.57 0 16:52 13.03.2021
1530 Clear 12 1014 66 10000 3.09 140 16:34 13.03.2021
1531 Clear 12 1014 62 10000 3.6 140 15:55 13.03.2021
1532 Clear 12 1014 58 10000 4.12 130 14:59 13.03.2021
1533 Clouds 13 1014 54 10000 2.06 160 14:40 13.03.2021
1534 Clouds 13 1014 54 10000 2.06 160 14:19 13.03.2021
1535 Clouds 13 1014 50 10000 3.6 100 13:27 13.03.2021
1536 Clouds 13 1014 54 10000 4.12 90 12:52 13.03.2021
1537 Clear 12 1014 54 10000 4.12 80 12:30 13.03.2021
1538 Clear 12 1014 54 10000 3.6 110 11:53 13.03.2021
1539 Clear 12 1015 54 10000 5.14 100 11:32 13.03.2021
1540 Clear 11 1015 58 10000 4.12 100 10:58 13.03.2021
1541 Clear 11 1015 58 10000 3.09 140 10:31 13.03.2021
1542 Clear 11 1015 58 10000 1.03 0 09:59 13.03.2021
1543 Clear 9 1015 66 10000 2.06 130 09:31 13.03.2021
1544 Clear 9 1016 66 10000 4.12 110 08:54 13.03.2021
1545 Clouds 7 1016 76 9000 3.09 120 08:21 13.03.2021
1546 Clouds 7 1016 81 8000 2.57 120 07:57 13.03.2021
1547 Clouds 3 1015 93 9000 1.69 141 07:30 13.03.2021
1548 Clear 0 1016 93 10000 0.99 111 05:29 13.03.2021
1549 Clear 1 1016 80 10000 1.53 287 01:22 13.03.2021
1550 Clear 1 1017 86 10000 1.03 0 00:24 13.03.2021
1551 Clear 2 1016 75 10000 1.03 0 23:33 12.03.2021
1552 Clear 1 1017 80 10000 1.54 310 22:57 12.03.2021
1553 Clear 2 1017 75 10000 1.43 278 22:30 12.03.2021
1554 Clear 3 1017 75 10000 2.06 310 21:56 12.03.2021
1555 Clear 2 1017 81 10000 3.09 330 21:37 12.03.2021
1556 Clear 2 1017 81 10000 3.09 330 21:37 12.03.2021
1557 Clear 3 1017 81 10000 3.09 330 21:18 12.03.2021
1558 Clear 3 1017 75 10000 2.57 320 20:47 12.03.2021
1559 Clear 2 1017 80 10000 2.57 340 20:21 12.03.2021
1560 Clear 2 1017 80 10000 1.54 0 19:44 12.03.2021
1561 Clear 3 1017 70 10000 2.86 217 19:25 12.03.2021
1562 Clear 4 1017 65 10000 3.22 200 18:47 12.03.2021
1563 Clear 5 1017 61 10000 2.06 240 18:25 12.03.2021
1564 Clear 6 1016 57 10000 2.57 240 17:43 12.03.2021
1565 Clear 6 1016 53 10000 2.06 260 17:24 12.03.2021
1566 Clear 8 1016 49 10000 3.09 260 16:44 12.03.2021
1567 Clear 8 1016 43 10000 3.6 220 16:23 12.03.2021
1568 Clear 7 1017 49 10000 2.57 230 15:38 12.03.2021
1569 Clear 7 1017 49 10000 4.12 250 14:52 12.03.2021
1570 Clear 7 1017 46 10000 4.12 230 14:22 12.03.2021
1571 Clear 7 1017 46 10000 4.12 230 14:22 12.03.2021
1572 Clear 7 1018 49 10000 5.66 230 13:55 12.03.2021
1573 Rain 7 1018 45 10000 5.14 230 13:37 12.03.2021
1574 Clear 7 1018 45 10000 5.14 230 13:18 12.03.2021
1575 Rain 6 1018 45 10000 5.66 230 12:42 12.03.2021
1576 Rain 6 1019 49 10000 5.14 220 12:23 12.03.2021
1577 Clouds 6 1019 49 10000 4.63 190 11:52 12.03.2021
1578 Clear 6 1019 49 10000 5.66 190 11:24 12.03.2021
1579 Clear 5 1020 56 10000 5.66 220 10:55 12.03.2021
1580 Clear 4 1021 56 10000 5.14 220 10:26 12.03.2021
1581 Clear 4 1021 56 10000 6.69 210 09:57 12.03.2021
1582 Clear 3 1021 60 10000 5.14 200 09:26 12.03.2021
1583 Clear 2 1021 64 10000 2.06 160 08:46 12.03.2021
1584 Clear 1 1021 69 10000 1.03 0 07:58 12.03.2021
1585 Clear 0 1021 80 10000 5.36 201 07:34 12.03.2021
1586 Clear -2 1021 86 10000 3.94 197 06:53 12.03.2021
1587 Clear -2 1021 93 10000 2.15 207 06:28 12.03.2021
1588 Clear -4 1022 93 10000 1.08 223 02:41 12.03.2021
1589 Clear -3 1024 86 10000 2.06 280 00:42 12.03.2021
1590 Clouds -2 1024 86 10000 1.54 350 23:30 11.03.2021
1591 Clouds -2 1024 86 10000 1.54 340 22:49 11.03.2021
1592 Clouds -2 1025 80 10000 2.06 10 22:29 11.03.2021
1593 Clear -1 1025 80 10000 1.54 330 21:51 11.03.2021
1594 Clear -1 1024 74 10000 2.06 10 21:30 11.03.2021
1595 Clouds -1 1024 74 10000 2.57 60 20:54 11.03.2021
1596 Clouds -1 1024 80 10000 2.06 350 20:35 11.03.2021
1597 Clouds 0 1024 74 10000 2.06 310 19:59 11.03.2021
1598 Clouds 0 1024 74 10000 2.06 310 19:41 11.03.2021
1599 Clouds 0 1024 69 10000 1.54 320 19:19 11.03.2021
1600 Clouds 1 1023 64 10000 2.06 320 18:43 11.03.2021
1601 Clouds 1 1023 64 10000 2.06 320 18:24 11.03.2021
1602 Clouds 1 1023 60 10000 3.6 340 17:42 11.03.2021
1603 Clouds 2 1022 60 10000 3.6 340 16:43 11.03.2021
1604 Clouds 3 1022 65 10000 4.12 340 16:25 11.03.2021
1605 Clouds 3 1022 60 10000 5.14 330 15:45 11.03.2021
1606 Clouds 3 1022 60 10000 5.66 350 15:21 11.03.2021
1607 Clouds 3 1022 60 10000 5.66 350 15:21 11.03.2021
1608 Clouds 3 1022 60 10000 5.66 350 15:21 11.03.2021
1609 Clouds 3 1022 65 10000 6.17 340 14:46 11.03.2021
1610 Clouds 3 1022 65 10000 6.69 350 14:19 11.03.2021
1611 Clouds 4 1021 60 10000 6.69 340 13:46 11.03.2021
1612 Clouds 3 1021 65 10000 6.69 340 13:24 11.03.2021
1613 Clouds 4 1021 65 10000 6.69 340 12:57 11.03.2021
1614 Clouds 3 1021 64 10000 5.66 360 12:36 11.03.2021
1615 Clouds 3 1021 64 10000 5.66 360 12:18 11.03.2021
1616 Clouds 4 1021 65 10000 6.69 360 11:42 11.03.2021
1617 Clouds 3 1021 69 10000 6.17 360 11:20 11.03.2021
1618 Clouds 3 1020 69 10000 6.69 360 10:28 11.03.2021
1619 Clouds 3 1020 75 10000 6.17 360 09:54 11.03.2021
1620 Clouds 3 1020 69 10000 6.17 360 09:35 11.03.2021
1621 Clouds 2 1019 75 10000 5.66 360 08:59 11.03.2021
1622 Clouds 2 1019 75 10000 5.66 360 08:41 11.03.2021
1623 Clouds 1 1019 75 10000 5.14 350 08:18 11.03.2021
1624 Clouds 1 1018 80 10000 2.06 0 07:22 11.03.2021
1625 Clouds 0 1017 75 10000 3.6 40 06:49 11.03.2021
1626 Clouds 0 1017 80 10000 2.57 0 06:23 11.03.2021
1627 Rain 2 1015 87 10000 7.72 50 02:48 11.03.2021
1628 Rain 2 1015 87 10000 5.66 70 00:47 11.03.2021
1629 Rain 2 1015 87 10000 5.66 70 00:46 11.03.2021
1630 Clouds 2 1014 87 10000 5.66 60 23:27 10.03.2021
1631 -273 0 0 0 0 0 23:26 10.03.2021
1632 Rain 2 1014 87 10000 5.66 60 23:25 10.03.2021
1633 Rain 1 1014 93 10000 6.17 50 22:43 10.03.2021
1634 Rain 2 1014 87 10000 6.69 40 22:23 10.03.2021
1635 Rain 2 1014 87 10000 8.75 40 21:45 10.03.2021
1636 Rain 2 1014 87 10000 8.75 40 21:44 10.03.2021
1637 Rain 2 1014 87 10000 8.75 40 21:44 10.03.2021
1638 Rain 2 1014 87 10000 8.23 40 21:21 10.03.2021
1639 Rain 2 1014 87 10000 7.72 40 20:45 10.03.2021
1640 Rain 2 1014 87 10000 7.2 50 20:27 10.03.2021
1641 Rain 2 1014 93 10000 6.69 50 19:42 10.03.2021
1642 Rain 2 1014 87 10000 6.69 60 19:23 10.03.2021
1643 Rain 3 1014 87 10000 8.23 60 18:44 10.03.2021
1644 Rain 3 1014 87 10000 7.72 50 18:24 10.03.2021
1645 Rain 3 1014 87 10000 7.72 50 18:24 10.03.2021
1646 Rain 3 1013 87 10000 7.72 50 17:46 10.03.2021
1647 Rain 3 1013 87 10000 8.23 50 17:21 10.03.2021
1648 Rain 3 1013 87 10000 6.69 60 16:57 10.03.2021
1649 Rain 4 1013 87 10000 6.69 60 16:37 10.03.2021
1650 Rain 4 1013 87 10000 6.69 70 16:19 10.03.2021
1651 Rain 4 1013 87 9000 6.69 60 15:41 10.03.2021
1652 Rain 5 1014 87 10000 7.72 70 15:21 10.03.2021
1653 Rain 5 1014 87 10000 7.72 80 14:41 10.03.2021
1654 Rain 5 1014 87 10000 7.72 80 14:41 10.03.2021
1655 Rain 5 1014 87 10000 7.72 80 14:41 10.03.2021
1656 Rain 5 1014 87 10000 7.72 80 14:19 10.03.2021
1657 Rain 5 1014 87 9000 7.2 80 13:46 10.03.2021
1658 Rain 5 1015 87 10000 6.17 90 13:24 10.03.2021
1659 Rain 5 1015 87 7000 6.17 90 12:44 10.03.2021
1660 Rain 6 1015 81 10000 8.23 100 12:18 10.03.2021
1661 Rain 6 1016 81 10000 7.72 100 11:32 10.03.2021
1662 Rain 6 1016 81 10000 7.72 100 11:32 10.03.2021
1663 Clouds 5 1016 81 10000 8.75 110 10:57 10.03.2021
1664 Clouds 5 1016 81 10000 7.72 100 10:34 10.03.2021
1665 Rain 5 1016 81 10000 7.2 110 09:59 10.03.2021
1666 Clouds 5 1016 81 10000 7.2 110 09:41 10.03.2021
1667 Clouds 5 1017 81 10000 8.75 100 09:21 10.03.2021
1668 Clouds 5 1017 81 10000 8.75 100 08:46 10.03.2021
1669 Clouds 4 1017 87 10000 8.23 100 08:28 10.03.2021
1670 Clouds 4 1017 87 10000 7.72 100 07:55 10.03.2021
1671 Clouds 4 1017 87 10000 7.2 100 07:29 10.03.2021
1672 Clouds 4 1017 87 10000 8.75 100 06:54 10.03.2021
1673 Clouds 4 1017 87 10000 6.69 100 05:59 10.03.2021
1674 Clouds 5 1019 75 10000 6.17 110 00:48 10.03.2021
1675 Clouds 5 1020 81 10000 4.63 100 23:49 09.03.2021
1676 Clouds 5 1020 81 10000 5.66 90 22:58 09.03.2021
1677 Clouds 5 1020 81 10000 5.14 90 22:38 09.03.2021
1678 Clouds 5 1020 81 10000 5.14 90 22:18 09.03.2021
1679 Clouds 4 1020 87 10000 5.14 80 21:44 09.03.2021
1680 Clouds 4 1020 87 10000 5.66 70 21:24 09.03.2021
1681 Clouds 4 1020 81 10000 4.63 70 20:56 09.03.2021
1682 Clouds 4 1020 81 10000 5.14 60 20:37 09.03.2021
1683 Clouds 3 1020 81 10000 5.14 60 20:19 09.03.2021
1684 Clouds 3 1020 81 10000 5.14 60 20:19 09.03.2021
1685 Clouds 3 1020 87 10000 3.6 80 19:43 09.03.2021
1686 Clouds 3 1020 81 10000 2.57 90 19:25 09.03.2021
1687 Clouds 3 1020 81 10000 2.06 150 18:42 09.03.2021
1688 Clouds 3 1020 81 10000 3.09 70 18:20 09.03.2021
1689 Clouds 3 1020 81 10000 3.6 90 17:47 09.03.2021
1690 Clouds 3 1020 75 10000 3.6 80 17:27 09.03.2021
1691 Clouds 5 1019 65 10000 4.63 70 16:41 09.03.2021
1692 Clouds 5 1019 65 10000 4.63 70 16:22 09.03.2021
1693 Clear 6 1019 65 10000 6.17 70 15:56 09.03.2021
1694 Clouds 6 1019 65 10000 2.57 0 15:28 09.03.2021
1695 Clouds 6 1019 65 10000 2.57 0 14:52 09.03.2021
1696 Clouds 7 1019 61 10000 5.14 80 14:26 09.03.2021
1697 Clouds 6 1019 65 10000 5.66 70 13:43 09.03.2021
1698 Clouds 7 1020 61 10000 6.17 90 13:21 09.03.2021
1699 Clouds 6 1020 65 10000 4.12 90 12:54 09.03.2021
1700 Clouds 6 1020 65 10000 4.12 90 12:54 09.03.2021
1701 Clouds 6 1020 61 10000 2.06 100 12:36 09.03.2021
1702 Clouds 7 1020 61 10000 2.06 80 11:45 09.03.2021
1703 Clouds 6 1020 65 10000 3.09 50 11:22 09.03.2021
1704 Clouds 6 1020 65 10000 2.57 70 10:59 09.03.2021
1705 Clouds 5 1020 70 10000 2.06 0 10:39 09.03.2021
1706 Clouds 5 1020 70 10000 2.06 0 10:20 09.03.2021
1707 Clouds 4 1020 70 10000 3.09 40 09:46 09.03.2021
1708 Clear 4 1020 65 10000 4.12 20 09:26 09.03.2021
1709 Clouds 3 1020 70 10000 3.09 30 08:49 09.03.2021
1710 Clear 3 1020 70 10000 2.06 250 08:30 09.03.2021
1711 Clear 2 1019 75 10000 2.57 0 07:46 09.03.2021
1712 Clear 1 1019 80 10000 3.09 200 07:23 09.03.2021
1713 Clear 0 1018 80 10000 2.06 190 06:44 09.03.2021
1714 Clear 0 1018 74 10000 4.63 350 05:48 09.03.2021
1715 Clear 1 1015 75 10000 1.03 0 00:59 09.03.2021
1716 Clear 1 1015 80 10000 1.03 0 23:45 08.03.2021
1717 Clear 1 1015 80 10000 1.54 230 23:27 08.03.2021
1718 Clear 2 1015 80 10000 1.54 310 22:58 08.03.2021
1719 Clear 2 1015 75 10000 2.06 350 22:40 08.03.2021
1720 Clear 2 1015 75 10000 2.06 350 22:21 08.03.2021
1721 Clear 1 1015 75 10000 2.06 10 21:43 08.03.2021
1722 Clear 2 1015 69 10000 1.54 350 21:24 08.03.2021
1723 Clear 2 1015 69 10000 1.54 10 20:39 08.03.2021
1724 Clear 2 1015 69 10000 1.54 10 20:19 08.03.2021
1725 Clear 3 1014 65 10000 1.54 50 19:38 08.03.2021
1726 Clear 4 1014 70 10000 2.06 90 18:49 08.03.2021
1727 Clear 6 1014 65 10000 3.6 110 18:23 08.03.2021
1728 Clear 7 1014 70 10000 3.6 100 17:59 08.03.2021
1729 Clear 8 1013 70 10000 3.09 90 17:39 08.03.2021
1730 Clear 8 1013 71 10000 4.63 100 17:00 08.03.2021
1731 Clear 10 1013 53 10000 6.69 110 16:40 08.03.2021
1732 Clear 11 1013 53 10000 6.69 110 16:21 08.03.2021
1733 Clear 11 1013 43 10000 3.6 0 15:38 08.03.2021
1734 Clear 11 1013 43 10000 3.6 0 15:20 08.03.2021
1735 Clear 12 1013 26 10000 5.66 290 14:21 08.03.2021
1736 Clear 12 1014 26 10000 6.17 280 13:48 08.03.2021
1737 Clear 12 1014 32 10000 3.09 200 13:23 08.03.2021
1738 Clear 11 1014 35 10000 3.6 0 12:56 08.03.2021
1739 Clear 11 1015 37 10000 3.6 250 12:29 08.03.2021
1740 Clear 10 1015 37 10000 3.09 250 11:45 08.03.2021
1741 Clear 10 1016 43 10000 3.09 230 11:22 08.03.2021
1742 Clear 9 1016 43 10000 3.09 230 10:47 08.03.2021
1743 Clear 9 1016 46 10000 1.54 0 10:28 08.03.2021
1744 Clear 7 1016 49 10000 3.09 270 09:50 08.03.2021
1745 Clear 7 1017 52 10000 3.6 240 09:25 08.03.2021
1746 Clear 4 1017 70 10000 1.54 270 08:32 08.03.2021
1747 Clear 2 1017 75 10000 1.54 270 07:51 08.03.2021
1748 Clear 1 1017 75 10000 2.16 248 07:21 08.03.2021
1749 Clear -3 1017 93 10000 2.06 350 05:20 08.03.2021
1750 Clear -2 1019 86 10000 2.82 221 01:45 08.03.2021
1751 Clear -2 1019 86 10000 1.03 0 00:42 08.03.2021
1752 Clear -1 1019 74 10000 3.3 206 23:53 07.03.2021
1753 Clear 0 1020 69 10000 0.51 0 23:21 07.03.2021
1754 Clear 0 1020 74 10000 1.03 0 22:47 07.03.2021
1755 Clear -1 1021 80 10000 1.03 0 22:26 07.03.2021
1756 Clear 1 1021 69 10000 1.54 80 21:49 07.03.2021
1757 Clear 0 1021 74 10000 2.06 80 21:31 07.03.2021
1758 Clear 1 1022 69 10000 1.54 70 20:56 07.03.2021
1759 Clear 1 1022 60 10000 1.03 0 20:37 07.03.2021
1760 Clear 1 1022 60 10000 1.03 0 20:18 07.03.2021
1761 Clear 2 1022 56 10000 1.03 0 19:39 07.03.2021
1762 Clear 2 1022 56 10000 1.03 0 19:21 07.03.2021
1763 Clear 2 1023 56 10000 2.57 160 18:48 07.03.2021
1764 Clear 2 1023 56 10000 3.09 150 18:20 07.03.2021
1765 Clear 3 1023 56 10000 2.57 120 17:45 07.03.2021
1766 Clear 4 1023 52 10000 3.6 140 17:21 07.03.2021
1767 Clear 4 1023 48 10000 4.63 140 16:59 07.03.2021
1768 Clear 5 1023 45 10000 5.14 150 16:39 07.03.2021
1769 Clear 6 1023 45 10000 5.14 150 16:20 07.03.2021
1770 Clear 6 1023 45 10000 5.14 150 16:20 07.03.2021
1771 Clear 6 1024 39 10000 5.14 130 15:46 07.03.2021
1772 Clear 7 1024 36 10000 6.17 120 15:28 07.03.2021
1773 Clouds 7 1024 39 10000 4.63 140 14:39 07.03.2021
1774 Clouds 7 1024 39 10000 4.63 140 14:21 07.03.2021
1775 Clouds 8 1025 39 10000 5.14 120 13:42 07.03.2021
1776 Clouds 7 1025 42 10000 5.14 120 13:23 07.03.2021
1777 Clouds 8 1026 42 10000 3.6 120 12:47 07.03.2021
1778 Clouds 7 1026 39 10000 2.06 150 12:29 07.03.2021
1779 Clouds 8 1027 29 10000 2.06 0 11:49 07.03.2021
1780 Clouds 7 1028 31 10000 2.06 180 11:22 07.03.2021
1781 Clouds 6 1028 39 10000 2.06 0 10:49 07.03.2021
1782 Clouds 5 1029 42 10000 1.03 0 10:30 07.03.2021
1783 Clear 4 1029 52 10000 2.06 190 09:46 07.03.2021
1784 Clear 4 1029 56 10000 1.54 0 09:25 07.03.2021
1785 Clear 4 1030 60 10000 2.06 280 08:46 07.03.2021
1786 Clear 2 1030 69 10000 1.54 250 08:25 07.03.2021
1787 Clear 1 1030 75 10000 1.54 260 07:51 07.03.2021
1788 Clear 0 1030 69 10000 1.54 0 02:43 07.03.2021
1789 Clear 1 1030 64 10000 3.6 20 01:42 07.03.2021
1790 Clear 1 1030 80 10000 3.09 360 23:54 06.03.2021
1791 Clear 1 1030 93 10000 2.06 360 23:35 06.03.2021
1792 Clear 1 1030 87 10000 1.54 350 22:48 06.03.2021
1793 Clear 1 1030 87 10000 1.54 330 22:29 06.03.2021
1794 Clear 1 1030 93 10000 1.03 310 21:59 06.03.2021
1795 Clear 1 1030 93 10000 2.68 30 21:24 06.03.2021
1796 Clear 2 1029 87 10000 1.54 250 20:54 06.03.2021
1797 Clear 2 1029 81 10000 1.54 260 20:34 06.03.2021
1798 Clouds 2 1029 81 10000 1.54 0 19:50 06.03.2021
1799 Clouds 2 1028 81 10000 1.54 320 19:23 06.03.2021
1800 Clouds 2 1028 81 10000 3.16 47 18:56 06.03.2021
1801 Clouds 2 1028 81 10000 3.16 47 18:56 06.03.2021
1802 Clouds 2 1028 81 10000 0.51 0 18:38 06.03.2021
1803 Clouds 3 1028 81 10000 0.51 0 18:18 06.03.2021
1804 Clouds 3 1027 81 10000 1.03 0 17:44 06.03.2021
1805 Clouds 3 1027 87 10000 3.6 30 17:24 06.03.2021
1806 Clouds 3 1026 87 10000 4.12 30 16:52 06.03.2021
1807 Clouds 2 1026 87 10000 5.66 10 16:29 06.03.2021
1808 Clouds 2 1025 87 10000 6.69 10 15:54 06.03.2021
1809 Clouds 2 1025 87 10000 6.69 10 15:32 06.03.2021
1810 Clouds 2 1025 87 10000 6.69 10 15:32 06.03.2021
1811 Clouds 2 1025 87 10000 7.72 10 14:54 06.03.2021
1812 Rain 2 1024 87 10000 6.69 360 14:30 06.03.2021
1813 Rain 2 1024 87 10000 6.69 360 14:30 06.03.2021
1814 Clouds 3 1024 81 10000 5.66 360 13:42 06.03.2021
1815 Clouds 5 1024 70 10000 5.14 360 13:21 06.03.2021
1816 Clouds 5 1023 70 10000 6.17 350 12:44 06.03.2021
1817 Clouds 5 1023 65 10000 6.17 350 12:20 06.03.2021
1818 Clouds 6 1023 61 10000 5.14 350 11:55 06.03.2021
1819 Clouds 6 1023 61 10000 5.14 360 11:22 06.03.2021
1820 Clouds 6 1023 61 10000 5.14 10 10:49 06.03.2021
1821 Clouds 6 1023 65 10000 5.14 340 10:24 06.03.2021
1822 Clouds 6 1022 65 10000 2.57 0 09:49 06.03.2021
1823 Clear 6 1022 65 10000 4.63 360 09:20 06.03.2021
1824 Clear 5 1022 65 10000 3.09 360 08:51 06.03.2021
1825 Clouds 5 1021 70 10000 4.12 290 07:59 06.03.2021
1826 Clear 5 1020 70 10000 2.57 320 07:41 06.03.2021
1827 Clear 5 1020 70 10000 2.57 320 07:20 06.03.2021
1828 Clear 5 1017 70 10000 3.09 290 05:38 06.03.2021
1829 Clear 10 1015 46 10000 3.09 300 02:39 06.03.2021
1830 Clear 9 1015 53 10000 3.09 290 01:20 06.03.2021
1831 Clear 9 1015 61 10000 1.54 310 00:36 06.03.2021
1832 Clear 10 1015 57 10000 2.06 290 23:31 05.03.2021
1833 Clear 9 1015 57 10000 1.03 0 22:49 05.03.2021
1834 Clear 9 1014 53 10000 2.06 310 22:25 05.03.2021
1835 Clear 9 1014 61 10000 2.06 280 21:54 05.03.2021
1836 Clear 10 1014 54 10000 3.09 340 21:36 05.03.2021
1837 Clear 8 1014 57 10000 2.57 360 20:58 05.03.2021
1838 Clear 8 1014 61 10000 2.06 360 20:40 05.03.2021
1839 Clear 9 1014 61 10000 2.06 360 20:22 05.03.2021
1840 Clear 10 1013 53 10000 1.03 360 19:41 05.03.2021
1841 Clear 10 1013 50 10000 1.54 350 19:20 05.03.2021
1842 Clear 12 1013 41 10000 1.54 300 18:43 05.03.2021
1843 Clear 13 1013 41 10000 2.69 242 18:25 05.03.2021
1844 Clear 15 1013 38 10000 1.03 0 17:37 05.03.2021
1845 Clear 16 1012 39 10000 2.06 60 17:19 05.03.2021
1846 Clear 18 1012 29 10000 2.57 0 16:41 05.03.2021
1847 Clear 18 1012 29 10000 2.57 0 16:22 05.03.2021
1848 Clear 20 1012 21 10000 3.09 280 15:52 05.03.2021
1849 Clear 18 1012 19 10000 5.14 270 15:23 05.03.2021
1850 Clear 18 1012 19 10000 5.14 280 14:39 05.03.2021
1851 Clear 18 1012 19 10000 5.14 280 14:18 05.03.2021
1852 Clear 18 1012 21 10000 6.69 280 13:22 05.03.2021
1853 Clear 18 1012 21 10000 7.72 270 13:00 05.03.2021
1854 Clear 18 1013 24 10000 7.2 270 12:27 05.03.2021
1855 Clear 16 1013 27 10000 6.17 270 11:37 05.03.2021
1856 Clear 16 1013 27 10000 6.17 270 11:18 05.03.2021
1857 Clear 16 1013 29 10000 6.69 260 10:42 05.03.2021
1858 Clear 14 1013 31 10000 6.17 260 10:23 05.03.2021
1859 Clear 15 1014 31 10000 6.69 270 09:50 05.03.2021
1860 Clear 12 1014 54 7000 2.57 250 09:27 05.03.2021
1861 Haze 12 1014 62 4300 2.06 250 08:46 05.03.2021
1862 Clear 8 1014 71 8000 1.03 0 08:27 05.03.2021
1863 Clear 9 1014 81 10000 0.51 0 07:55 05.03.2021
1864 Clear 8 1014 81 10000 3.41 264 07:28 05.03.2021
1865 Clear 6 1013 81 10000 1.54 270 06:33 05.03.2021
1866 Clear 6 1013 70 10000 3.09 350 03:34 05.03.2021
1867 Clear 7 1014 75 10000 1.54 330 00:49 05.03.2021
1868 Clear 8 1014 66 10000 2.06 350 23:43 04.03.2021
1869 Clear 7 1015 81 10000 1.54 350 22:55 04.03.2021
1870 Clear 7 1015 81 10000 1.54 350 22:26 04.03.2021
1871 Clear 7 1015 81 10000 2.39 248 21:51 04.03.2021
1872 Clear 7 1015 81 10000 2.41 231 21:29 04.03.2021
1873 Clear 8 1015 75 10000 0.51 0 20:42 04.03.2021
1874 Clear 8 1016 76 10000 1.03 20 20:23 04.03.2021
1875 Clear 8 1016 76 10000 0.51 0 19:58 04.03.2021
1876 Clear 8 1016 76 10000 0.51 0 19:39 04.03.2021
1877 Clear 8 1016 76 10000 1.54 120 19:19 04.03.2021
1878 Clear 9 1016 71 10000 1.03 0 18:41 04.03.2021
1879 Clear 10 1016 62 10000 2.57 80 18:20 04.03.2021
1880 Clear 10 1016 62 10000 3.09 90 17:43 04.03.2021
1881 Clear 11 1016 66 10000 3.09 110 17:22 04.03.2021
1882 Clear 11 1016 62 10000 3.09 120 16:45 04.03.2021
1883 Clear 12 1016 62 10000 3.09 110 16:24 04.03.2021
1884 Clear 12 1017 58 10000 3.6 110 15:49 04.03.2021
1885 Clear 13 1017 54 10000 3.6 120 15:31 04.03.2021
1886 Clear 12 1017 58 10000 3.09 130 14:46 04.03.2021
1887 Clear 14 1018 58 10000 3.6 130 14:25 04.03.2021
1888 Clear 13 1018 51 10000 3.09 120 13:46 04.03.2021
1889 Clear 13 1018 47 10000 2.57 130 13:25 04.03.2021
1890 Clear 12 1019 51 10000 2.57 130 12:45 04.03.2021
1891 Clear 12 1020 51 10000 1.54 0 12:25 04.03.2021
1892 Clear 11 1021 54 10000 4.72 188 11:43 04.03.2021
1893 Clear 11 1021 58 10000 1.54 0 11:22 04.03.2021
1894 Clear 9 1022 62 9000 1.54 0 10:46 04.03.2021
1895 Clear 8 1022 71 9000 0.51 0 10:25 04.03.2021
1896 Clouds 6 1022 100 10000 0.51 0 09:36 04.03.2021
1897 Fog 3 1023 100 200 1.03 0 08:56 04.03.2021
1898 Fog 4 1024 100 200 1.54 260 08:32 04.03.2021
1899 Fog 3 1024 100 150 2.06 300 07:49 04.03.2021
1900 Fog 1 1024 100 300 1.54 310 06:52 04.03.2021
1901 Fog 0 1024 100 250 1.96 198 06:23 04.03.2021
1902 Clear 1 1026 100 6000 2.06 60 02:39 04.03.2021
1903 Clear 2 1028 93 6000 2.06 70 00:41 04.03.2021
1904 Clouds 3 1029 93 6000 1.54 130 22:41 03.03.2021
1905 Clouds 3 1029 93 6000 1.54 110 22:23 03.03.2021
1906 Clouds 3 1029 93 6000 1.54 100 21:43 03.03.2021
1907 Clouds 3 1029 93 6000 1.54 70 21:24 03.03.2021
1908 Clouds 3 1029 93 6000 1.54 70 20:56 03.03.2021
1909 Clouds 3 1029 93 6000 1.54 40 20:37 03.03.2021
1910 Clouds 3 1029 93 6000 1.54 40 19:57 03.03.2021
1911 Clear 3 1029 93 6000 2.06 30 19:38 03.03.2021
1912 Clear 3 1029 93 6000 2.06 30 19:18 03.03.2021
1913 Clouds 3 1030 93 7000 1.54 70 18:41 03.03.2021
1914 Clouds 5 1029 87 7000 3.09 120 17:59 03.03.2021
1915 Clouds 6 1029 81 8000 4.12 120 17:36 03.03.2021
1916 Clear 6 1029 81 8000 4.12 120 17:18 03.03.2021
1917 Clear 6 1029 76 9000 6.17 120 16:39 03.03.2021
1918 Clear 7 1029 76 9000 6.17 120 16:21 03.03.2021
1919 Clear 9 1029 66 10000 5.66 110 15:33 03.03.2021
1920 Clear 10 1029 66 10000 5.66 110 14:52 03.03.2021
1921 Clear 11 1030 66 10000 6.17 120 14:28 03.03.2021
1922 Clear 10 1030 66 10000 5.66 130 13:52 03.03.2021
1923 Clouds 10 1030 62 10000 6.17 130 13:30 03.03.2021
1924 Clouds 11 1030 66 10000 5.66 130 12:44 03.03.2021
1925 Clear 13 1030 47 10000 4.63 20 12:24 03.03.2021
1926 Clouds 12 1030 50 10000 5.14 10 11:46 03.03.2021
1927 Clear 12 1030 47 10000 4.12 20 11:27 03.03.2021
1928 Clear 11 1030 54 10000 5.66 10 10:46 03.03.2021
1929 Clear 11 1030 54 10000 5.66 10 10:23 03.03.2021
1930 Clear 10 1030 53 10000 5.66 360 09:45 03.03.2021
1931 Clear 9 1030 57 10000 1.54 240 08:57 03.03.2021
1932 Clear 9 1030 70 10000 2.57 250 08:39 03.03.2021
1933 Clear 7 1030 70 10000 2.57 250 08:18 03.03.2021
1934 Clear 5 1030 75 10000 2.06 240 07:39 03.03.2021
1935 Clear 4 1029 70 10000 0.51 0 06:47 03.03.2021
1936 Clear 3 1029 75 10000 2.06 240 05:45 03.03.2021
1937 Clear 4 1028 75 10000 3.09 260 04:50 03.03.2021
1938 Clear 4 1028 75 10000 3.09 260 04:24 03.03.2021
1939 Mist 1 1028 93 5000 1.54 280 00:44 03.03.2021
1940 Clouds 1 1028 100 7000 1.54 290 23:53 02.03.2021
1941 Clouds 2 1028 93 7000 1.03 290 22:58 02.03.2021
1942 Clouds 2 1028 93 7000 1.54 320 22:40 02.03.2021
1943 Clouds 2 1028 93 7000 1.54 320 22:18 02.03.2021
1944 Clouds 2 1028 93 8000 2.06 20 21:38 02.03.2021
1945 Clouds 2 1028 93 8000 2.06 20 21:18 02.03.2021
1946 Clouds 2 1029 93 8000 2.06 360 20:44 02.03.2021
1947 Clouds 2 1029 93 8000 1.54 30 20:21 02.03.2021
1948 Clouds 1 1029 86 8000 2.06 30 19:49 02.03.2021
1949 Clouds 2 1029 87 8000 2.57 20 19:30 02.03.2021
1950 Clouds 2 1029 93 8000 2.06 10 18:55 02.03.2021
1951 Clouds 2 1029 87 10000 1.54 10 18:36 02.03.2021
1952 Clouds 3 1029 87 10000 1.54 10 18:18 02.03.2021
1953 Clouds 5 1029 75 10000 0.51 0 17:39 02.03.2021
1954 Clouds 5 1029 70 10000 1.03 0 17:20 02.03.2021
1955 Clouds 6 1030 70 10000 2.57 220 16:47 02.03.2021
1956 Clouds 7 1030 65 10000 2.06 260 15:55 02.03.2021
1957 Clouds 7 1030 70 10000 2.57 280 15:27 02.03.2021
1958 Clouds 7 1030 70 10000 2.57 280 15:27 02.03.2021
1959 Clouds 7 1030 70 10000 2.57 280 15:27 02.03.2021
1960 Clouds 6 1031 70 10000 4.12 310 14:53 02.03.2021
1961 Clouds 6 1031 70 10000 5.14 300 14:20 02.03.2021
1962 Clouds 6 1031 70 10000 4.63 310 13:47 02.03.2021
1963 Clouds 6 1031 61 10000 4.12 300 13:25 02.03.2021
1964 Clouds 6 1032 61 10000 4.12 310 12:47 02.03.2021
1965 Clouds 6 1032 61 10000 4.63 330 12:25 02.03.2021
1966 Clouds 6 1032 61 10000 3.6 330 11:47 02.03.2021
1967 Clouds 6 1033 61 10000 4.12 360 11:23 02.03.2021
1968 Clouds 6 1033 61 10000 4.12 330 10:53 02.03.2021
1969 Clouds 6 1033 56 10000 3.6 360 10:29 02.03.2021
1970 Clouds 6 1033 60 10000 4.12 10 09:43 02.03.2021
1971 Clouds 4 1033 65 10000 4.12 350 09:24 02.03.2021
1972 Clouds 4 1033 65 10000 2.57 10 08:44 02.03.2021
1973 Clouds 3 1033 75 10000 3.09 330 08:26 02.03.2021
1974 Clouds 3 1033 75 10000 2.57 330 07:43 02.03.2021
1975 Clouds 2 1033 81 10000 2.57 320 06:37 02.03.2021
1976 Clear 2 1033 81 10000 1.54 310 05:48 02.03.2021
1977 Clear 2 1033 81 10000 2.06 310 05:30 02.03.2021
1978 Clouds 3 1032 75 10000 2.57 350 03:29 02.03.2021
1979 Clouds 3 1033 75 10000 4.12 10 01:42 02.03.2021
1980 Clouds 3 1033 75 10000 4.12 10 01:42 02.03.2021
1981 Clouds 3 1032 75 10000 6.17 10 01:18 02.03.2021
1982 Clouds 3 1032 81 10000 5.66 10 23:29 01.03.2021
1983 Clouds 3 1031 87 10000 4.63 10 22:43 01.03.2021
1984 Clouds 3 1031 87 10000 4.12 10 22:24 01.03.2021
1985 Clouds 3 1031 87 10000 4.63 10 21:52 01.03.2021
1986 Clouds 4 1031 87 10000 3.6 360 21:24 01.03.2021
1987 Clouds 3 1031 87 10000 4.63 350 20:55 01.03.2021
1988 Clouds 4 1031 81 10000 4.63 350 20:37 01.03.2021
1989 Clouds 4 1031 81 10000 4.63 350 20:18 01.03.2021
1990 Clouds 4 1030 81 10000 3.6 350 19:41 01.03.2021
1991 Clouds 4 1030 75 10000 4.63 360 19:18 01.03.2021
1992 Clouds 4 1030 75 10000 4.12 360 18:37 01.03.2021
1993 Clouds 4 1030 75 10000 4.12 360 18:19 01.03.2021
1994 Clouds 4 1029 81 10000 4.12 350 17:42 01.03.2021
1995 Clouds 4 1029 81 10000 3.09 350 17:19 01.03.2021
1996 Clouds 4 1029 81 10000 1.54 330 16:44 01.03.2021
1997 Clouds 5 1028 81 10000 2.57 340 16:26 01.03.2021
1998 Clouds 5 1028 75 10000 3.6 350 15:42 01.03.2021
1999 Clouds 5 1028 81 10000 3.6 340 15:21 01.03.2021
2000 Clouds 6 1028 75 10000 5.14 340 14:48 01.03.2021
2001 Clouds 6 1028 75 10000 5.14 330 14:29 01.03.2021
2002 Clouds 6 1027 70 10000 5.14 360 13:43 01.03.2021
2003 Clouds 6 1027 75 10000 5.66 350 13:24 01.03.2021
2004 Clouds 6 1027 70 10000 5.14 360 12:55 01.03.2021
2005 Clouds 6 1027 81 10000 4.12 340 12:36 01.03.2021
2006 Clouds 6 1027 81 10000 4.12 340 12:18 01.03.2021
2007 Clouds 6 1027 81 10000 6.17 330 11:40 01.03.2021
2008 Clouds 5 1026 81 10000 6.17 330 10:45 01.03.2021
2009 Clouds 5 1026 81 10000 5.66 330 10:23 01.03.2021
2010 Rain 5 1026 81 10000 6.69 330 09:58 01.03.2021
2011 Clouds 6 1026 75 10000 7.2 320 09:40 01.03.2021
2012 Clouds 5 1026 75 10000 7.2 320 09:21 01.03.2021
2013 Clouds 4 1026 65 10000 2.57 240 08:48 01.03.2021
2014 Clear 3 1026 81 10000 3.09 250 07:50 01.03.2021
2015 Clear 3 1025 80 10000 0.51 0 06:52 01.03.2021
2016 Clear 2 1025 86 10000 2.57 330 03:24 01.03.2021
2017 Clear 1 1026 93 10000 3.14 296 00:44 01.03.2021
2018 Clear 2 1027 86 10000 2.57 360 23:26 28.02.2021
2019 Clear 2 1027 86 10000 0.51 0 22:45 28.02.2021
2020 Clear 2 1027 87 10000 2.41 284 22:21 28.02.2021
2021 Clear 3 1027 81 10000 1.54 360 21:49 28.02.2021
2022 Clear 3 1027 81 10000 2.06 350 21:27 28.02.2021
2023 Clear 3 1027 81 10000 2.57 360 20:55 28.02.2021
2024 Clear 2 1027 87 10000 2.06 350 20:35 28.02.2021
2025 Clear 3 1027 75 10000 1.03 0 19:47 28.02.2021
2026 Clear 4 1027 70 10000 2.57 270 19:28 28.02.2021
2027 Clear 5 1027 65 10000 1.03 0 18:49 28.02.2021
2028 Clouds 5 1028 65 10000 0.51 0 18:28 28.02.2021
2029 Clouds 6 1028 61 10000 2.06 320 17:59 28.02.2021
2030 Clouds 7 1028 57 10000 4.12 300 17:40 28.02.2021
2031 Clouds 7 1028 57 10000 4.12 300 17:21 28.02.2021
2032 Clouds 8 1027 49 10000 5.14 300 16:48 28.02.2021
2033 Clear 9 1027 50 10000 5.14 300 16:30 28.02.2021
2034 Clouds 8 1027 57 10000 6.69 310 15:52 28.02.2021
2035 Clouds 9 1027 43 10000 5.14 340 15:28 28.02.2021
2036 Clouds 11 1028 43 10000 5.14 320 14:58 28.02.2021
2037 Clouds 11 1028 43 10000 5.14 320 14:39 28.02.2021
2038 Clouds 11 1028 46 10000 5.66 360 13:59 28.02.2021
2039 Clouds 10 1028 50 10000 6.17 320 13:38 28.02.2021
2040 Clouds 10 1028 50 10000 6.17 320 13:19 28.02.2021
2041 Clouds 10 1028 53 10000 6.69 320 12:53 28.02.2021
2042 Clouds 9 1028 57 10000 8.23 320 12:35 28.02.2021
2043 Clouds 8 1028 57 10000 6.69 320 11:58 28.02.2021
2044 Clouds 8 1028 57 10000 6.69 320 11:40 28.02.2021
2045 Clouds 9 1029 66 10000 7.2 330 11:21 28.02.2021
2046 Clouds 9 1029 66 10000 7.2 320 10:43 28.02.2021
2047 Clouds 8 1029 66 10000 6.17 320 10:25 28.02.2021
2048 Clouds 6 1029 75 10000 9.26 330 09:40 28.02.2021
2049 Clouds 6 1029 75 10000 9.26 330 09:20 28.02.2021
2050 Clear 7 1028 70 10000 6.69 320 08:45 28.02.2021
2051 Clear 5 1028 75 10000 5.66 330 08:25 28.02.2021
2052 Clear 5 1028 75 10000 6.69 340 07:46 28.02.2021
2053 Clear 4 1028 75 10000 5.14 10 07:25 28.02.2021
2054 Clouds 3 1028 87 10000 2.57 340 06:24 28.02.2021
2055 Clear 3 1028 87 10000 2.57 330 05:21 28.02.2021
2056 Clear 4 1026 93 10000 3.6 250 02:29 28.02.2021
2057 Rain 4 1026 87 10000 2.57 240 01:35 28.02.2021
2058 Clouds 4 1026 93 10000 2.57 240 00:42 28.02.2021
2059 Rain 4 1026 87 10000 2.06 0 23:58 27.02.2021
2060 Rain 4 1025 87 10000 6.17 20 23:39 27.02.2021
2061 Rain 4 1025 87 10000 6.17 20 23:18 27.02.2021
2062 Clouds 4 1024 81 9000 8.75 10 22:42 27.02.2021
2063 Clouds 5 1024 75 10000 9.26 10 22:18 27.02.2021
2064 Clouds 6 1023 70 10000 9.77 10 21:38 27.02.2021
2065 Clouds 6 1022 70 10000 8.75 10 21:18 27.02.2021
2066 Clouds 7 1022 66 10000 7.2 10 20:46 27.02.2021
2067 Clouds 7 1022 66 10000 5.14 20 20:25 27.02.2021
2068 Clouds 9 1022 66 10000 2.57 0 19:43 27.02.2021
2069 Clouds 9 1021 66 10000 1.54 0 19:24 27.02.2021
2070 Clouds 10 1021 66 10000 3.6 100 18:42 27.02.2021
2071 Clouds 10 1020 66 10000 2.57 80 18:21 27.02.2021
2072 Clouds 10 1020 71 10000 2.57 190 17:45 27.02.2021
2073 Clouds 10 1019 76 10000 2.57 140 17:21 27.02.2021
2074 Clear 11 1019 76 10000 3.6 140 16:56 27.02.2021
2075 Clear 12 1018 76 10000 5.66 130 16:36 27.02.2021
2076 Clear 12 1018 76 10000 5.66 130 16:18 27.02.2021
2077 Clear 13 1018 76 10000 6.69 140 15:38 27.02.2021
2078 Clear 18 1018 39 10000 3.09 0 14:50 27.02.2021
2079 Clear 19 1018 39 10000 3.09 0 14:32 27.02.2021
2080 Clear 19 1017 40 10000 4.63 340 13:53 27.02.2021
2081 Clear 18 1017 40 10000 5.14 320 13:27 27.02.2021
2082 Clear 19 1018 40 10000 5.14 300 12:56 27.02.2021
2083 Clear 19 1018 37 10000 5.14 330 12:30 27.02.2021
2084 Clear 19 1018 34 10000 4.63 330 11:57 27.02.2021
2085 Clear 19 1018 34 10000 4.63 330 11:38 27.02.2021
2086 Clear 19 1018 39 10000 5.14 310 11:19 27.02.2021
2087 Clear 18 1018 45 10000 2.06 0 10:42 27.02.2021
2088 Clear 16 1018 55 10000 2.06 240 10:19 27.02.2021
2089 Clear 13 1019 67 6000 2.06 260 09:44 27.02.2021
2090 Clear 10 1019 81 6000 2.57 240 09:25 27.02.2021
2091 Mist 11 1019 87 5000 2.06 270 08:39 27.02.2021
2092 Mist 8 1019 100 1800 1.54 260 08:20 27.02.2021
2093 Mist 8 1019 100 1000 1.54 250 07:36 27.02.2021
2094 Clear 4 1020 93 8000 1.39 232 03:28 27.02.2021
2095 Clear 5 1021 93 8000 1.54 206 00:37 27.02.2021
2096 Clear 5 1022 93 9000 1.48 200 23:51 26.02.2021
2097 Clear 5 1022 87 10000 1.76 196 23:26 26.02.2021
2098 Clear 5 1022 93 10000 1.76 196 22:44 26.02.2021
2099 Clear 6 1022 93 10000 2.15 188 22:23 26.02.2021
2100 Clear 6 1022 87 10000 1.03 0 21:39 26.02.2021
2101 Clear 6 1023 87 10000 2.29 182 21:18 26.02.2021
2102 Clear 7 1023 81 10000 2.57 130 20:43 26.02.2021
2103 Clear 7 1023 87 10000 3.09 110 20:20 26.02.2021
2104 Clear 8 1023 81 10000 2.57 100 19:41 26.02.2021
2105 Clear 8 1023 81 8000 2.06 110 19:18 26.02.2021
2106 Clear 9 1024 87 8000 2.06 130 18:41 26.02.2021
2107 Clear 8 1024 87 8000 3.09 110 18:21 26.02.2021
2108 Clear 10 1024 76 10000 2.06 140 17:39 26.02.2021
2109 Clear 11 1024 71 10000 3.09 110 17:21 26.02.2021
2110 Clear 12 1024 66 10000 4.63 110 16:50 26.02.2021
2111 Clear 12 1024 62 10000 4.63 110 16:31 26.02.2021
2112 Clear 13 1024 58 10000 5.66 100 15:56 26.02.2021
2113 Clear 14 1025 55 10000 5.14 110 15:36 26.02.2021
2114 Clear 14 1025 55 10000 5.14 110 15:18 26.02.2021
2115 Clear 15 1025 51 10000 5.14 110 14:42 26.02.2021
2116 Clear 15 1025 55 10000 4.63 120 14:24 26.02.2021
2117 Clear 13 1026 55 10000 4.63 120 13:39 26.02.2021
2118 Clear 13 1026 55 10000 4.63 120 13:20 26.02.2021
2119 Clear 13 1026 58 9000 4.12 130 12:34 26.02.2021
2120 Clear 14 1027 55 9000 3.6 140 11:50 26.02.2021
2121 Clear 14 1027 55 9000 3.6 140 11:32 26.02.2021
2122 Clear 14 1028 55 9000 2.06 260 10:45 26.02.2021
2123 Clear 13 1028 66 6000 1.54 240 09:50 26.02.2021
2124 Clear 10 1029 76 6000 1.54 260 09:30 26.02.2021
2125 Mist 10 1029 87 3500 1.03 0 08:53 26.02.2021
2126 Mist 7 1029 100 1600 1.28 265 08:19 26.02.2021
2127 Mist 5 1029 100 1600 0.51 0 07:48 26.02.2021
2128 Fog 3 1029 100 1300 1.21 266 06:36 26.02.2021
2129 Fog 3 1030 100 1100 1.54 290 05:26 26.02.2021
2130 Fog 3 1030 100 2000 1.23 283 03:46 26.02.2021
2131 Mist 3 1031 100 4500 1.2 268 01:37 26.02.2021
2132 Mist 3 1031 100 4900 1.08 227 23:49 25.02.2021
2133 Mist 3 1032 100 5000 1.31 205 23:28 25.02.2021
2134 Mist 3 1032 93 5000 1.31 205 22:49 25.02.2021
2135 Mist 4 1032 93 4900 1.03 350 21:59 25.02.2021
2136 Mist 4 1032 87 5000 1.54 330 21:38 25.02.2021
2137 Mist 4 1032 87 5000 1.54 330 21:19 25.02.2021
2138 Mist 5 1032 87 5000 1.17 188 20:40 25.02.2021
2139 Clear 5 1032 87 6000 1.39 198 20:22 25.02.2021
2140 Clear 5 1032 87 6000 2.06 90 19:51 25.02.2021
2141 Clouds 5 1032 87 6000 2.57 110 19:21 25.02.2021
2142 Clouds 6 1032 75 7000 2.06 120 18:56 25.02.2021
2143 Clouds 6 1032 75 8000 2.57 110 18:20 25.02.2021
2144 Clouds 6 1032 75 8000 2.57 110 18:20 25.02.2021
2145 Clouds 7 1032 76 8000 2.57 110 17:46 25.02.2021
2146 Clouds 7 1032 70 9000 3.6 90 17:25 25.02.2021
2147 Clouds 8 1032 71 9000 4.12 100 16:43 25.02.2021
2148 Clouds 8 1032 66 8000 4.63 100 16:24 25.02.2021
2149 Clouds 9 1032 66 7000 5.66 100 15:30 25.02.2021
2150 Clouds 10 1032 71 7000 5.66 110 14:49 25.02.2021
2151 Clouds 11 1033 66 6000 5.66 120 14:22 25.02.2021
2152 Clouds 9 1033 66 6000 5.66 120 13:50 25.02.2021
2153 Clouds 10 1033 62 6000 4.12 120 13:25 25.02.2021
2154 Clouds 12 1033 54 8000 3.6 160 12:50 25.02.2021
2155 Clouds 11 1033 58 8000 1.54 0 12:21 25.02.2021
2156 Clouds 12 1034 62 7000 1.54 0 11:45 25.02.2021
2157 Clouds 9 1034 71 6000 2.06 220 11:19 25.02.2021
2158 Mist 8 1035 76 3900 1.54 260 10:38 25.02.2021
2159 Mist 6 1035 87 4100 2.06 300 09:58 25.02.2021
2160 Mist 8 1035 87 4100 2.06 300 09:38 25.02.2021
2161 Mist 4 1035 100 1100 2.06 290 08:50 25.02.2021
2162 Fog 3 1036 100 650 1.41 222 08:22 25.02.2021
2163 Fog 3 1036 100 600 1.54 320 07:50 25.02.2021
2164 Fog 2 1035 100 600 1.45 202 07:19 25.02.2021
2165 Fog 2 1035 100 500 0.51 0 06:35 25.02.2021
2166 Clouds 2 1035 93 7000 1.54 340 01:52 25.02.2021
2167 Clouds 2 1035 93 7000 1.54 340 01:34 25.02.2021
2168 Clouds 2 1036 93 6000 1.54 30 00:38 25.02.2021
2169 Clouds 2 1036 93 6000 1.54 360 23:46 24.02.2021
2170 Clouds 3 1036 87 8000 2.06 10 22:59 24.02.2021
2171 Clouds 3 1036 87 8000 1.54 10 22:31 24.02.2021
2172 Clouds 3 1036 87 8000 1.54 10 22:31 24.02.2021
2173 Clouds 3 1036 93 6000 1.22 347 21:57 24.02.2021
2174 Clouds 3 1036 93 6000 2.06 300 21:36 24.02.2021
2175 Clouds 3 1036 93 6000 2.57 300 20:52 24.02.2021
2176 Clouds 3 1036 93 6000 3.6 350 20:29 24.02.2021
2177 Clouds 3 1036 93 6000 3.6 40 19:54 24.02.2021
2178 Clouds 3 1036 93 6000 3.09 350 19:26 24.02.2021
2179 Clouds 3 1035 93 6000 2.06 20 18:55 24.02.2021
2180 Clouds 3 1035 93 6000 2.06 40 18:33 24.02.2021
2181 Clouds 5 1035 87 7000 3.6 360 17:45 24.02.2021
2182 Clouds 5 1034 87 6000 2.57 360 17:25 24.02.2021
2183 Clouds 5 1035 81 7000 3.09 360 16:49 24.02.2021
2184 Clouds 6 1034 81 8000 4.12 30 16:22 24.02.2021
2185 Clouds 6 1034 81 9000 2.57 20 15:56 24.02.2021
2186 Clouds 6 1034 76 8000 2.57 340 15:35 24.02.2021
2187 Clouds 6 1035 81 8000 3.6 360 14:52 24.02.2021
2188 Clouds 6 1035 81 8000 3.6 360 14:31 24.02.2021
2189 Clouds 6 1035 76 7000 4.12 320 13:55 24.02.2021
2190 Clouds 6 1035 81 8000 3.6 330 13:37 24.02.2021
2191 Clouds 6 1035 81 8000 3.6 330 13:19 24.02.2021
2192 Clouds 7 1035 76 8000 2.57 240 12:42 24.02.2021
2193 Clouds 7 1035 76 8000 2.57 240 12:42 24.02.2021
2194 Clouds 6 1035 81 9000 1.54 220 12:23 24.02.2021
2195 Clouds 6 1036 81 10000 1.54 270 11:39 24.02.2021
2196 Clouds 5 1036 87 9000 1.54 0 10:47 24.02.2021
2197 Clouds 5 1036 87 10000 2.06 260 10:26 24.02.2021
2198 Clouds 4 1036 87 10000 2.06 320 09:30 24.02.2021
2199 Clouds 3 1036 87 10000 4.12 20 08:52 24.02.2021
2200 Clouds 2 1036 93 10000 1.54 60 08:33 24.02.2021
2201 Clouds 2 1035 93 10000 2.06 10 07:42 24.02.2021
2202 Clouds 2 1035 87 9000 2.57 20 07:18 24.02.2021
2203 Clouds 1 1034 93 7000 4.18 13 05:49 24.02.2021
2204 Mist 2 1033 100 5000 2.57 20 02:35 24.02.2021
2205 Fog 3 1033 100 350 1.54 300 23:39 23.02.2021
2206 Fog 3 1033 100 350 1.54 350 22:51 23.02.2021
2207 Fog 3 1033 100 300 1.03 0 22:23 23.02.2021
2208 Fog 3 1032 100 300 1.03 0 21:49 23.02.2021
2209 Fog 4 1032 100 350 1.54 300 21:27 23.02.2021
2210 Fog 4 1032 100 300 1.07 21 20:59 23.02.2021
2211 Fog 4 1032 100 350 1.07 21 20:39 23.02.2021
2212 Fog 4 1032 100 350 1.08 39 20:20 23.02.2021
2213 Fog 4 1032 100 350 1.54 150 19:46 23.02.2021
2214 Fog 4 1032 100 500 1.54 110 19:26 23.02.2021
2215 Fog 6 1032 100 750 2.06 130 18:44 23.02.2021
2216 Fog 6 1031 100 1000 1.54 130 18:26 23.02.2021
2217 Mist 5 1031 100 1200 2.06 120 17:53 23.02.2021
2218 Fog 6 1031 100 1000 3.6 120 17:27 23.02.2021
2219 Mist 5 1031 100 1200 5.66 110 16:46 23.02.2021
2220 Fog 8 1030 93 900 6.17 120 16:24 23.02.2021
2221 Mist 8 1030 100 3700 7.2 120 15:50 23.02.2021
2222 Clouds 10 1030 76 8000 6.17 120 15:31 23.02.2021
2223 Clouds 12 1030 66 10000 6.69 120 14:55 23.02.2021
2224 Clear 13 1030 62 10000 6.69 120 14:37 23.02.2021
2225 Clear 13 1030 62 10000 6.69 120 14:19 23.02.2021
2226 Clear 13 1030 50 10000 5.66 120 13:38 23.02.2021
2227 Clear 13 1030 47 10000 4.63 130 12:59 23.02.2021
2228 Clear 14 1030 44 10000 3.09 170 12:41 23.02.2021
2229 Clear 14 1030 44 10000 3.09 170 12:18 23.02.2021
2230 Clear 13 1030 41 10000 2.06 200 11:45 23.02.2021
2231 Clear 13 1030 41 10000 1.54 230 11:18 23.02.2021
2232 Clear 12 1030 58 9000 1.54 270 10:38 23.02.2021
2233 Clear 9 1030 71 6000 2.06 260 09:59 23.02.2021
2234 Clear 8 1030 81 5000 1.54 270 09:41 23.02.2021
2235 Clear 8 1030 81 5000 1.54 270 09:20 23.02.2021
2236 Clear 5 1030 87 5000 1.54 240 08:45 23.02.2021
2237 Mist 4 1030 100 3400 0.51 0 08:20 23.02.2021
2238 Fog 2 1030 100 750 0.51 0 06:56 23.02.2021
2239 Fog 0 1029 100 350 0.51 0 05:25 23.02.2021
2240 Fog 0 1030 100 3500 1.43 300 02:37 23.02.2021
2241 Fog 0 1029 100 200 1.31 278 02:19 23.02.2021
2242 Clear 1 1029 100 7000 1.03 340 00:19 23.02.2021
2243 Clear 1 1029 93 7000 1.03 340 23:30 22.02.2021
2244 Clear 2 1029 93 7000 0.51 20 22:43 22.02.2021
2245 Clear 2 1029 93 8000 1.27 214 22:22 22.02.2021
2246 Clear 2 1029 87 8000 1.27 214 21:57 22.02.2021
2247 Clear 2 1029 93 7000 1.27 214 21:38 22.02.2021
2248 Clear 2 1029 93 7000 1.35 197 21:19 22.02.2021
2249 Clear 2 1029 87 7000 1.03 20 20:44 22.02.2021
2250 Clear 3 1029 87 7000 1.03 40 20:24 22.02.2021
2251 Clear 3 1029 81 6000 2.06 30 19:44 22.02.2021
2252 Clear 3 1029 81 7000 1.54 70 19:26 22.02.2021
2253 Clear 4 1029 81 8000 1.54 100 18:47 22.02.2021
2254 Clear 5 1029 75 9000 1.65 180 18:29 22.02.2021
2255 Clear 6 1029 75 10000 3.09 110 17:48 22.02.2021
2256 Clear 6 1029 75 10000 5.14 100 17:19 22.02.2021
2257 Clear 7 1029 70 10000 4.12 110 16:48 22.02.2021
2258 Clear 8 1029 66 10000 4.63 110 16:25 22.02.2021
2259 Clear 9 1029 66 10000 4.63 130 15:31 22.02.2021
2260 Clear 9 1029 62 10000 4.63 130 14:50 22.02.2021
2261 Clear 9 1029 58 10000 3.6 130 14:32 22.02.2021
2262 Clear 10 1029 47 10000 1.54 0 13:51 22.02.2021
2263 Clear 10 1029 47 10000 2.06 0 13:29 22.02.2021
2264 Clear 9 1029 54 10000 2.06 0 12:45 22.02.2021
2265 Clear 8 1030 53 10000 2.06 0 12:22 22.02.2021
2266 Clear 8 1030 53 10000 2.06 0 12:22 22.02.2021
2267 Clear 9 1030 57 10000 1.54 0 11:48 22.02.2021
2268 Clear 7 1030 61 10000 1.54 240 11:28 22.02.2021
2269 Clear 6 1031 61 10000 1.54 0 10:50 22.02.2021
2270 Clear 5 1031 65 10000 1.03 0 10:31 22.02.2021
2271 Clouds 5 1031 75 8000 1.03 0 09:52 22.02.2021
2272 Mist 4 1031 81 5000 2.06 250 09:32 22.02.2021
2273 Clouds 3 1031 87 6000 1.03 0 08:58 22.02.2021
2274 Clouds 3 1031 87 6000 1.03 0 08:39 22.02.2021
2275 Mist 1 1031 100 2000 1.26 218 07:59 22.02.2021
2276 Mist -1 1031 93 2100 0.51 260 07:27 22.02.2021
2277 Mist -1 1031 100 4300 0.81 276 06:46 22.02.2021
2278 Mist -2 1030 100 6000 1.03 320 05:46 22.02.2021
2279 Mist -2 1030 100 5000 0.51 0 03:44 22.02.2021
2280 Clear -1 1030 93 8000 1.45 258 02:51 22.02.2021
2281 Clouds -1 1031 100 9000 1.03 310 00:46 22.02.2021
2282 Clear 0 1031 93 10000 1.03 300 00:23 22.02.2021
2283 Clear -1 1031 93 10000 2.06 20 23:33 21.02.2021
2284 Clear -1 1031 93 10000 1.54 20 22:54 21.02.2021
2285 Clouds 0 1031 86 9000 1.84 198 22:24 21.02.2021
2286 Clouds 0 1031 93 9000 1.84 198 21:45 21.02.2021
2287 Clouds 0 1031 86 9000 1.54 20 21:27 21.02.2021
2288 Clouds 0 1031 86 9000 2.06 20 20:44 21.02.2021
2289 Clouds 1 1031 86 9000 1.54 30 20:20 21.02.2021
2290 Clouds 0 1031 86 9000 2.06 20 19:53 21.02.2021
2291 Clouds 0 1031 86 9000 2.06 20 19:33 21.02.2021
2292 Clear 2 1031 75 10000 1.54 80 18:52 21.02.2021
2293 Clear 2 1031 75 10000 1.54 130 18:26 21.02.2021
2294 Clear 2 1031 75 10000 1.54 130 18:26 21.02.2021
2295 Clear 3 1031 75 10000 2.06 120 17:33 21.02.2021
2296 Clear 4 1031 70 10000 3.6 120 16:59 21.02.2021
2297 Clear 5 1031 70 10000 3.6 120 16:39 21.02.2021
2298 Clouds 6 1031 65 10000 4.12 110 16:20 21.02.2021
2299 Clouds 7 1031 61 10000 4.63 110 15:23 21.02.2021
2300 Clouds 8 1031 53 10000 1.54 140 14:56 21.02.2021
2301 Clouds 8 1031 53 10000 1.54 140 14:37 21.02.2021
2302 Clouds 8 1032 53 10000 2.57 300 13:49 21.02.2021
2303 Clouds 8 1032 57 10000 1.03 0 13:28 21.02.2021
2304 Clouds 8 1032 57 10000 2.06 350 12:32 21.02.2021
2305 Clouds 7 1032 57 10000 3.09 270 11:59 21.02.2021
2306 Clouds 7 1032 57 10000 3.09 270 11:40 21.02.2021
2307 Clouds 6 1032 61 10000 2.06 260 10:40 21.02.2021
2308 Clouds 6 1033 61 10000 2.06 180 10:21 21.02.2021
2309 Clouds 6 1033 56 10000 2.06 260 09:43 21.02.2021
2310 Clouds 6 1033 61 10000 2.57 260 09:24 21.02.2021
2311 Clouds 5 1033 56 10000 1.54 0 08:34 21.02.2021
2312 Clouds 3 1033 70 10000 0.45 338 07:45 21.02.2021
2313 Clouds 2 1033 75 10000 0.55 31 07:22 21.02.2021
2314 Clouds 2 1032 75 10000 0.76 57 05:59 21.02.2021
2315 Clouds 3 1033 65 10000 1.54 70 02:40 21.02.2021
2316 Clouds 3 1031 75 10000 2.06 50 00:59 21.02.2021
2317 Clouds 3 1031 75 10000 2.06 90 00:21 21.02.2021
2318 Clouds 3 1031 75 10000 2.06 80 23:38 20.02.2021
2319 Clouds 3 1031 75 10000 3.09 110 22:55 20.02.2021
2320 Clouds 3 1031 75 10000 3.09 110 22:31 20.02.2021
2321 Clouds 4 1031 70 10000 3.6 120 21:47 20.02.2021
2322 Clouds 4 1031 70 10000 3.09 120 21:29 20.02.2021
2323 Clouds 4 1030 70 10000 3.6 120 20:56 20.02.2021
2324 Clouds 4 1030 70 10000 3.6 120 20:36 20.02.2021
2325 Clouds 4 1030 75 10000 2.06 120 19:59 20.02.2021
2326 Clouds 4 1030 75 10000 2.06 120 19:40 20.02.2021
2327 Clouds 4 1029 75 10000 4.12 140 18:48 20.02.2021
2328 Clouds 4 1029 75 10000 3.09 130 18:29 20.02.2021
2329 Clouds 4 1028 75 10000 3.09 130 17:45 20.02.2021
2330 Clouds 4 1028 75 10000 2.57 140 17:26 20.02.2021
2331 Clouds 5 1028 75 10000 3.09 140 16:48 20.02.2021
2332 Clouds 5 1028 65 10000 3.09 140 16:22 20.02.2021
2333 Clouds 6 1027 65 10000 5.14 130 15:40 20.02.2021
2334 Clouds 6 1027 65 10000 5.66 130 14:51 20.02.2021
2335 Clouds 6 1027 57 10000 5.66 130 14:25 20.02.2021
2336 Clouds 7 1027 61 10000 6.17 130 13:53 20.02.2021
2337 Clouds 7 1027 61 10000 6.17 130 13:28 20.02.2021
2338 Clouds 7 1027 61 10000 5.14 140 12:56 20.02.2021
2339 Clouds 7 1027 61 10000 5.14 140 12:33 20.02.2021
2340 Clouds 7 1027 61 10000 4.12 180 11:49 20.02.2021
2341 Clouds 6 1027 61 10000 4.63 170 11:30 20.02.2021
2342 Clouds 6 1027 61 10000 3.6 170 10:50 20.02.2021
2343 Clouds 6 1027 61 10000 3.6 170 10:50 20.02.2021
2344 Clouds 5 1027 65 10000 4.63 170 10:21 20.02.2021
2345 Clouds 4 1027 65 10000 4.12 160 09:45 20.02.2021
2346 Clouds 3 1027 70 10000 2.57 170 08:51 20.02.2021
2347 Clouds 2 1027 75 10000 2.57 160 08:23 20.02.2021
2348 Clouds 0 1027 86 10000 2.57 120 04:37 20.02.2021
2349 Clouds -1 1027 86 10000 1.03 100 02:32 20.02.2021
2350 Clouds 0 1028 80 10000 2.06 120 01:54 20.02.2021
2351 Clouds 0 1028 80 10000 1.54 110 00:49 20.02.2021
2352 Clouds 0 1029 80 10000 1.03 110 00:30 20.02.2021
2353 Clouds 0 1029 80 10000 3.15 179 23:24 19.02.2021
2354 Clouds 0 1029 75 10000 1.03 70 22:42 19.02.2021
2355 Clouds 0 1029 80 10000 2.06 100 22:19 19.02.2021
2356 Clouds -1 1029 80 10000 1.54 120 21:39 19.02.2021
2357 Clouds -1 1029 80 10000 1.54 120 21:39 19.02.2021
2358 Clouds -1 1029 80 10000 1.54 120 21:20 19.02.2021
2359 Clouds -1 1030 74 10000 1.54 160 20:40 19.02.2021
2360 Clouds -1 1030 74 10000 1.54 160 20:22 19.02.2021
2361 Clouds -2 1030 80 10000 2.06 130 19:43 19.02.2021
2362 Clear -2 1030 80 10000 2.57 120 19:20 19.02.2021
2363 Clear -2 1030 80 10000 2.06 120 18:43 19.02.2021
2364 Clear -2 1030 74 10000 2.57 110 18:23 19.02.2021
2365 Clear -2 1030 69 10000 3.09 120 17:24 19.02.2021
2366 Clear -1 1030 59 10000 4.12 120 16:40 19.02.2021
2367 Clear 0 1030 59 10000 4.12 120 16:21 19.02.2021
2368 Clear 0 1030 51 10000 4.63 120 15:49 19.02.2021
2369 Clear 1 1030 51 10000 4.63 120 15:27 19.02.2021
2370 Clouds 1 1030 51 10000 4.12 120 14:44 19.02.2021
2371 Clouds 1 1030 55 10000 4.12 120 14:26 19.02.2021
2372 Clouds 1 1031 51 10000 3.09 110 13:53 19.02.2021
2373 Clouds 1 1031 51 10000 3.09 130 13:25 19.02.2021
2374 Clouds 1 1031 47 10000 2.57 150 12:52 19.02.2021
2375 Clouds 1 1031 40 10000 1.54 130 12:24 19.02.2021
2376 Clouds 0 1031 40 10000 2.07 94 11:53 19.02.2021
2377 Clouds -1 1032 47 10000 1.54 210 11:26 19.02.2021
2378 Clouds -2 1031 51 10000 1.54 200 10:54 19.02.2021
2379 Clouds -2 1031 51 10000 1.54 180 10:31 19.02.2021
2380 Clouds -2 1031 51 10000 1.54 0 09:51 19.02.2021
2381 Clouds -2 1031 51 10000 2.06 130 09:26 19.02.2021
2382 Clouds -2 1031 50 10000 0.51 0 08:54 19.02.2021
2383 Clouds -2 1031 59 10000 1.03 0 08:25 19.02.2021
2384 Clouds -3 1031 59 10000 0.51 0 07:49 19.02.2021
2385 Clouds -3 1030 59 10000 2.83 19 07:30 19.02.2021
2386 Clouds -3 1030 63 10000 2.83 10 06:54 19.02.2021
2387 Clouds -2 1029 59 10000 2.57 70 05:30 19.02.2021
2388 Clouds -2 1029 64 10000 3.09 60 04:41 19.02.2021
2389 Clouds -1 1027 64 10000 2.06 0 01:48 19.02.2021
2390 Clouds 0 1026 64 10000 4.63 30 00:37 19.02.2021
2391 Clouds 1 1025 75 10000 4.12 40 23:56 18.02.2021
2392 Clouds 0 1025 75 10000 4.12 40 23:35 18.02.2021
2393 Clouds 1 1024 69 10000 3.09 40 22:50 18.02.2021
2394 Clouds 1 1024 69 10000 3.09 40 22:30 18.02.2021
2395 Clouds 2 1024 65 10000 3.09 0 21:51 18.02.2021
2396 Clouds 2 1023 65 10000 3.09 40 21:25 18.02.2021
2397 Clouds 2 1023 75 10000 2.06 270 20:44 18.02.2021
2398 Clouds 2 1022 75 10000 1.54 290 20:24 18.02.2021
2399 Clouds 2 1022 75 10000 2.57 350 19:47 18.02.2021
2400 Clouds 2 1021 75 10000 3.09 340 19:28 18.02.2021
2401 Clouds 1 1021 80 10000 2.57 290 18:54 18.02.2021
2402 Clear 1 1021 80 10000 3.09 270 18:31 18.02.2021
2403 Clear 2 1020 75 10000 2.06 310 17:53 18.02.2021
2404 Clouds 2 1020 70 10000 2.57 290 17:28 18.02.2021
2405 Clouds 2 1019 70 10000 3.09 320 16:59 18.02.2021
2406 Clouds 3 1019 70 10000 5.66 340 16:40 18.02.2021
2407 Clouds 3 1019 70 10000 5.66 340 16:19 18.02.2021
2408 Clouds 4 1019 65 10000 5.14 340 15:38 18.02.2021
2409 Clouds 4 1018 61 10000 6.17 320 15:20 18.02.2021
2410 Clouds 4 1018 65 10000 7.72 330 14:48 18.02.2021
2411 Clouds 4 1018 65 10000 4.63 310 14:29 18.02.2021
2412 Clouds 3 1018 75 10000 5.14 300 13:45 18.02.2021
2413 Clouds 3 1018 75 10000 5.66 310 13:19 18.02.2021
2414 Clouds 2 1017 81 10000 4.63 310 12:45 18.02.2021
2415 Clouds 2 1017 81 10000 5.14 320 12:22 18.02.2021
2416 Clouds 1 1017 87 10000 5.66 300 11:46 18.02.2021
2417 Clouds 1 1017 87 10000 6.69 310 11:26 18.02.2021
2418 Clouds 1 1017 87 10000 4.63 320 10:45 18.02.2021
2419 Clouds 1 1017 87 10000 5.14 320 10:27 18.02.2021
2420 Clouds 1 1016 87 8000 5.66 320 09:46 18.02.2021
2421 Clouds 1 1016 87 8000 5.14 310 09:24 18.02.2021
2422 Mist 1 1016 93 4200 1.54 310 08:41 18.02.2021
2423 Snow 0 1015 100 3000 1.54 320 08:23 18.02.2021
2424 Snow 0 1015 100 3400 1.03 20 07:32 18.02.2021
2425 Mist 0 1014 100 3000 1.54 180 06:50 18.02.2021
2426 Snow -1 1015 74 10000 1.54 10 02:33 18.02.2021
2427 Clear -2 1016 74 10000 0.51 0 23:55 17.02.2021
2428 Clear -2 1016 74 10000 1.54 20 23:22 17.02.2021
2429 Clouds -1 1017 80 8000 2.06 10 22:51 17.02.2021
2430 Clear -1 1017 74 10000 1.03 20 22:26 17.02.2021
2431 Clear 0 1017 69 10000 1.54 80 21:54 17.02.2021
2432 Clear 0 1017 64 10000 2.88 221 21:22 17.02.2021
2433 Clear 0 1017 64 10000 1.54 100 20:48 17.02.2021
2434 Clear 0 1017 64 10000 1.03 0 20:29 17.02.2021
2435 Clear -1 1018 64 10000 1.54 140 19:49 17.02.2021
2436 Clear -1 1018 74 10000 2.06 80 19:30 17.02.2021
2437 Clear -1 1018 74 10000 0.51 120 18:45 17.02.2021
2438 Clear 0 1018 69 10000 2.06 60 18:25 17.02.2021
2439 Clear 0 1018 69 10000 2.06 60 17:41 17.02.2021
2440 Clear 0 1018 69 10000 2.06 60 17:41 17.02.2021
2441 Clear -1 1018 69 10000 3.09 90 17:19 17.02.2021
2442 Clear 0 1018 64 10000 4.63 100 16:46 17.02.2021
2443 Clear 1 1018 60 10000 4.63 100 16:25 17.02.2021
2444 Clear 2 1019 55 10000 5.66 100 15:44 17.02.2021
2445 Clear 2 1019 48 10000 4.12 120 15:25 17.02.2021
2446 Clear 3 1019 38 10000 2.06 270 14:48 17.02.2021
2447 Clear 3 1019 38 10000 2.57 260 14:29 17.02.2021
2448 Clear 2 1020 41 10000 2.57 230 13:48 17.02.2021
2449 Clear 2 1020 44 10000 3.6 230 13:29 17.02.2021
2450 Clear 2 1020 44 10000 2.57 220 12:47 17.02.2021
2451 Clear 2 1021 41 10000 3.09 230 12:24 17.02.2021
2452 Clear 1 1022 44 10000 2.57 240 11:44 17.02.2021
2453 Clear -1 1022 51 10000 3.09 260 11:22 17.02.2021
2454 Clear -1 1023 59 10000 2.06 270 10:49 17.02.2021
2455 Clear -1 1023 55 10000 2.06 250 10:31 17.02.2021
2456 Clear -2 1023 59 10000 2.06 230 09:52 17.02.2021
2457 Clear -5 1023 63 10000 1.03 0 09:29 17.02.2021
2458 Clear -5 1023 74 10000 0.51 0 08:45 17.02.2021
2459 Clear -6 1024 73 10000 1.03 0 08:22 17.02.2021
2460 Clear -8 1024 79 10000 1.03 0 07:34 17.02.2021
2461 Clear -10 1024 79 10000 1.54 270 06:35 17.02.2021
2462 Clear -9 1025 79 10000 2.06 270 03:40 17.02.2021
2463 Clear -8 1025 73 10000 4.12 290 02:30 17.02.2021
2464 Clear -9 1025 79 10000 3.09 250 01:30 17.02.2021
2465 Clear -8 1026 73 10000 2.57 270 00:24 17.02.2021
2466 Clear -8 1026 73 10000 2.06 240 23:38 16.02.2021
2467 Clear -9 1027 73 10000 1.54 340 22:45 16.02.2021
2468 Clear -8 1027 73 10000 1.03 0 22:26 16.02.2021
2469 Clear -8 1027 73 10000 5.04 356 21:58 16.02.2021
2470 Clear -7 1028 73 10000 1.03 0 21:39 16.02.2021
2471 Clear -7 1028 73 10000 1.03 0 21:20 16.02.2021
2472 Clear -7 1028 73 10000 1.54 350 20:45 16.02.2021
2473 Clear -7 1028 68 10000 2.06 360 20:21 16.02.2021
2474 Clear -6 1027 68 10000 4.12 30 19:47 16.02.2021
2475 Clear -6 1027 63 10000 3.09 20 19:27 16.02.2021
2476 Clear -6 1027 63 10000 4.12 10 18:42 16.02.2021
2477 Clear -6 1028 68 10000 3.6 10 18:23 16.02.2021
2478 Clear -5 1027 68 10000 3.6 30 17:53 16.02.2021
2479 Clouds -5 1026 63 10000 7.72 10 17:27 16.02.2021
2480 Clouds -4 1026 63 10000 7.2 10 16:52 16.02.2021
2481 Clouds -3 1026 59 10000 8.75 10 16:30 16.02.2021
2482 Clouds -3 1026 59 10000 8.75 10 16:30 16.02.2021
2483 Clouds -3 1026 59 10000 8.75 10 16:30 16.02.2021
2484 Clouds -3 1026 63 10000 7.72 10 15:56 16.02.2021
2485 Clouds -3 1026 59 10000 7.2 360 15:33 16.02.2021
2486 Clouds -3 1026 59 10000 7.2 360 15:33 16.02.2021
2487 Clouds -3 1026 59 10000 6.69 360 14:58 16.02.2021
2488 Clouds -2 1026 54 10000 8.23 360 14:38 16.02.2021
2489 Clouds -2 1026 54 10000 8.23 360 14:19 16.02.2021
2490 Clouds -2 1028 54 10000 8.23 360 13:40 16.02.2021
2491 Clouds -2 1027 54 10000 7.2 360 12:53 16.02.2021
2492 Clouds -2 1027 54 10000 6.17 10 12:30 16.02.2021
2493 Clouds -2 1027 54 10000 7.2 10 11:58 16.02.2021
2494 Clouds -2 1027 54 10000 7.2 10 11:39 16.02.2021
2495 Clouds -2 1027 59 10000 7.2 360 11:19 16.02.2021
2496 Clouds -2 1027 54 10000 7.2 10 10:45 16.02.2021
2497 Clouds -3 1027 59 10000 7.2 350 10:27 16.02.2021
2498 Clouds -3 1027 55 10000 6.69 360 09:52 16.02.2021
2499 Clouds -3 1027 59 10000 5.66 360 09:26 16.02.2021
2500 Clouds -4 1027 68 10000 4.63 350 08:51 16.02.2021
2501 Clouds -4 1027 74 10000 4.63 340 08:28 16.02.2021
2502 Clouds -5 1027 80 10000 4.12 360 07:44 16.02.2021
2503 Clouds -6 1027 80 10000 2.57 330 06:51 16.02.2021
2504 Clear -5 1027 74 10000 4.12 360 02:40 16.02.2021
2505 Clear -4 1027 80 10000 4.63 350 23:55 15.02.2021
2506 Clear -3 1027 69 10000 4.63 10 23:29 15.02.2021
2507 Clear -3 1027 74 10000 5.14 360 22:50 15.02.2021
2508 Clear -3 1027 74 10000 4.12 350 22:27 15.02.2021
2509 Clear -2 1027 74 10000 5.66 10 21:44 15.02.2021
2510 Clear -2 1027 74 10000 5.14 10 21:24 15.02.2021
2511 Clouds -2 1027 74 10000 6.17 10 20:54 15.02.2021
2512 Clouds -2 1027 74 10000 6.17 10 20:36 15.02.2021
2513 Clouds -2 1027 80 10000 7.2 350 19:51 15.02.2021
2514 Snow -2 1027 69 10000 3.09 360 19:26 15.02.2021
2515 Clear -3 1027 74 10000 2.57 350 18:54 15.02.2021
2516 Clear -1 1027 74 10000 2.06 340 18:27 15.02.2021
2517 Clear -1 1027 64 10000 1.54 290 17:57 15.02.2021
2518 Clear -1 1027 59 10000 2.06 360 17:39 15.02.2021
2519 Clear -1 1027 59 10000 2.06 360 17:20 15.02.2021
2520 Clear 1 1027 47 10000 3.6 360 16:37 15.02.2021
2521 Clouds 1 1027 51 10000 5.14 350 16:18 15.02.2021
2522 Clouds 1 1027 48 10000 5.14 10 15:41 15.02.2021
2523 Clouds 1 1027 48 10000 5.14 10 15:19 15.02.2021
2524 Clouds 2 1027 45 10000 5.14 340 14:43 15.02.2021
2525 Clouds 2 1027 44 10000 5.14 350 14:20 15.02.2021
2526 Clouds 1 1027 48 10000 4.63 350 13:48 15.02.2021
2527 Clouds 1 1027 48 10000 6.69 350 13:20 15.02.2021
2528 Clouds 2 1028 48 10000 6.69 350 12:45 15.02.2021
2529 Clouds 1 1028 55 10000 6.69 360 12:25 15.02.2021
2530 Clouds 1 1028 55 10000 8.23 360 11:50 15.02.2021
2531 Clouds 1 1028 55 10000 7.72 360 11:23 15.02.2021
2532 Clouds 0 1028 60 10000 7.72 360 10:50 15.02.2021
2533 Clouds 1 1028 60 10000 8.23 350 10:25 15.02.2021
2534 Clouds -1 1028 69 10000 9.26 360 09:56 15.02.2021
2535 Clouds 0 1028 69 10000 9.26 360 09:36 15.02.2021
2536 Clouds -1 1028 80 10000 8.23 350 08:57 15.02.2021
2537 Clouds -3 1028 86 10000 7.2 360 07:55 15.02.2021
2538 Snow -4 1028 86 10000 6.69 340 06:59 15.02.2021
2539 Clouds -4 1028 93 10000 5.66 340 06:40 15.02.2021
2540 Clear -4 1029 80 10000 2.06 300 02:34 15.02.2021
2541 Clear -4 1029 80 10000 3.09 250 01:27 15.02.2021
2542 Clear -4 1029 80 10000 2.57 240 23:58 14.02.2021
2543 Clear -4 1029 80 10000 2.06 230 23:23 14.02.2021
2544 Clear -4 1029 86 10000 3.09 320 22:40 14.02.2021
2545 Clear -4 1029 86 10000 3.09 320 22:40 14.02.2021
2546 Clear -4 1029 86 10000 3.09 320 22:21 14.02.2021
2547 Clouds -4 1029 80 10000 2.57 310 21:48 14.02.2021
2548 Clear -4 1029 74 10000 2.57 320 21:29 14.02.2021
2549 Clear -3 1029 74 10000 3.09 300 20:52 14.02.2021
2550 Clear -3 1029 74 10000 4.12 310 20:27 14.02.2021
2551 Clear -3 1028 74 10000 3.6 310 19:48 14.02.2021
2552 Clear -3 1028 74 10000 4.63 320 18:56 14.02.2021
2553 Clear -3 1028 74 10000 4.63 320 18:37 14.02.2021
2554 Clear -3 1029 64 10000 2.06 350 17:57 14.02.2021
2555 Clear -3 1029 64 10000 2.06 350 17:36 14.02.2021
2556 Clear -3 1028 69 10000 3.6 360 16:55 14.02.2021
2557 Clouds -2 1027 64 10000 4.63 350 16:29 14.02.2021
2558 Clouds -1 1027 59 10000 5.14 360 15:49 14.02.2021
2559 Clouds -1 1027 59 10000 5.14 360 15:31 14.02.2021
2560 Clear -1 1028 59 10000 5.14 360 14:48 14.02.2021
2561 Clouds -1 1028 59 10000 5.66 360 14:27 14.02.2021
2562 Clouds -1 1028 59 10000 4.63 360 13:49 14.02.2021
2563 Clouds -1 1028 55 10000 5.66 340 13:27 14.02.2021
2564 Clouds -2 1028 59 10000 6.17 350 12:38 14.02.2021
2565 Snow -2 1028 64 10000 6.17 350 12:19 14.02.2021
2566 Snow -3 1028 74 6000 6.69 350 11:49 14.02.2021
2567 Snow -3 1029 74 7000 5.14 360 11:21 14.02.2021
2568 Snow -3 1029 63 10000 4.63 360 10:35 14.02.2021
2569 Snow -4 1029 59 10000 4.63 360 09:55 14.02.2021
2570 Snow -4 1029 59 10000 4.63 360 09:37 14.02.2021
2571 Snow -4 1029 58 10000 5.66 360 09:19 14.02.2021
2572 Clouds -4 1028 58 10000 4.12 360 08:25 14.02.2021
2573 Snow -5 1029 63 10000 5.14 360 07:48 14.02.2021
2574 Snow -5 1028 58 10000 5.14 10 06:37 14.02.2021
2575 Snow -5 1028 54 10000 1.54 240 04:35 14.02.2021
2576 Snow -6 1028 54 10000 1.54 0 02:50 14.02.2021
2577 Clear -5 1029 54 10000 3.09 340 01:33 14.02.2021
2578 Snow -5 1029 50 10000 2.57 0 00:45 14.02.2021
2579 Clear -5 1029 54 10000 5.14 360 23:58 13.02.2021
2580 Clear -4 1029 59 10000 3.6 290 23:25 13.02.2021
2581 Clear -4 1029 59 10000 3.09 300 22:59 13.02.2021
2582 Clear -4 1029 59 10000 3.6 290 22:26 13.02.2021
2583 Snow -4 1029 63 10000 3.09 300 21:49 13.02.2021
2584 Clear -4 1029 59 10000 3.6 290 21:27 13.02.2021
2585 Clear -4 1029 59 10000 3.09 290 20:45 13.02.2021
2586 Clear -4 1029 59 10000 1.54 280 20:26 13.02.2021
2587 Clear -4 1028 63 10000 3.6 310 19:48 13.02.2021
2588 Snow -4 1028 59 10000 3.09 300 19:24 13.02.2021
2589 Clear -4 1028 59 10000 3.6 330 18:50 13.02.2021
2590 Clouds -4 1028 59 10000 4.12 320 18:27 13.02.2021
2591 Clear -4 1028 59 10000 3.09 310 17:44 13.02.2021
2592 Clear -4 1027 59 10000 4.12 310 17:25 13.02.2021
2593 Clear -3 1027 54 10000 5.66 300 16:53 13.02.2021
2594 Clear -3 1027 54 10000 5.66 300 16:35 13.02.2021
2595 Clear -2 1027 50 10000 6.69 290 15:43 13.02.2021
2596 Clear -1 1027 46 10000 7.2 280 15:25 13.02.2021
2597 Clear -1 1027 47 10000 8.75 280 14:40 13.02.2021
2598 Clear -1 1027 50 10000 8.75 290 13:49 13.02.2021
2599 Clear -1 1027 50 10000 9.77 290 13:27 13.02.2021
2600 Clear -2 1027 46 10000 9.77 290 12:52 13.02.2021
2601 Clouds -2 1027 50 10000 9.26 300 12:21 13.02.2021
2602 Clear -2 1027 46 10000 8.75 290 11:55 13.02.2021
2603 Clear -2 1028 50 10000 7.2 290 11:22 13.02.2021
2604 Clouds -3 1028 54 10000 8.75 270 10:59 13.02.2021
2605 Clouds -3 1028 54 10000 8.75 270 10:41 13.02.2021
2606 Clouds -4 1028 58 10000 7.72 270 10:21 13.02.2021
2607 Clear -3 1028 58 10000 7.72 260 09:45 13.02.2021
2608 Clear -5 1028 63 10000 7.72 270 09:23 13.02.2021
2609 Clear -4 1028 63 10000 8.23 260 08:46 13.02.2021
2610 Clear -5 1028 68 10000 6.69 260 08:18 13.02.2021
2611 Clear -8 1027 73 10000 2.57 310 06:50 13.02.2021
2612 Clouds -8 1027 73 10000 1.54 180 06:22 13.02.2021
2613 Clear -9 1027 62 10000 2.57 290 04:27 13.02.2021
2614 Clear -8 1026 79 10000 4.12 290 02:25 13.02.2021
2615 Clear -6 1025 68 10000 6.69 290 00:54 13.02.2021
2616 Clear -6 1025 68 10000 6.69 290 00:54 13.02.2021
2617 Clear -6 1024 68 10000 7.72 290 23:55 12.02.2021
2618 Clear -6 1024 68 10000 7.72 290 23:34 12.02.2021
2619 Clear -6 1023 68 10000 9.26 280 22:59 12.02.2021
2620 Clear -6 1023 68 10000 7.72 280 22:30 12.02.2021
2621 Clear -6 1023 68 10000 8.75 280 21:54 12.02.2021
2622 Clear -5 1023 63 10000 8.75 290 21:35 12.02.2021
2623 Clear -5 1022 63 10000 8.23 270 20:59 12.02.2021
2624 Clear -5 1022 63 10000 8.23 270 20:39 12.02.2021
2625 Clear -4 1022 68 10000 7.2 290 20:19 12.02.2021
2626 Clear -4 1022 59 10000 9.26 290 19:48 12.02.2021
2627 Clear -4 1022 63 10000 8.75 290 19:26 12.02.2021
2628 Clouds -4 1022 63 10000 8.23 270 18:30 12.02.2021
2629 Clouds -3 1021 64 10000 9.77 280 17:49 12.02.2021
2630 Clouds -2 1021 64 10000 9.26 270 17:29 12.02.2021
2631 Clouds -1 1021 59 10000 10.29 270 16:39 12.02.2021
2632 Clouds 0 1020 59 10000 10.29 280 15:47 12.02.2021
2633 Clouds 0 1020 59 10000 10.29 280 15:21 12.02.2021
2634 Clouds 0 1020 59 10000 9.77 270 14:53 12.02.2021
2635 Clouds 0 1020 59 10000 11.83 280 14:30 12.02.2021
2636 Clouds 0 1020 59 10000 11.83 280 14:30 12.02.2021
2637 Clouds 0 1019 59 10000 10.8 280 13:41 12.02.2021
2638 Clouds 0 1019 59 10000 10.8 280 13:22 12.02.2021
2639 Clouds 0 1019 59 10000 11.32 290 12:49 12.02.2021
2640 Clouds 0 1019 59 10000 11.32 290 12:31 12.02.2021
2641 Clouds -2 1019 64 10000 11.83 290 11:43 12.02.2021
2642 Clouds -2 1018 64 10000 8.75 280 11:20 12.02.2021
2643 Clouds -1 1018 64 10000 10.29 290 10:46 12.02.2021
2644 Clouds -2 1018 64 10000 11.32 290 09:52 12.02.2021
2645 Clouds -2 1017 68 10000 11.83 290 09:29 12.02.2021
2646 Clouds -3 1017 63 10000 8.75 290 08:51 12.02.2021
2647 Clouds -4 1017 63 10000 9.26 290 08:29 12.02.2021
2648 Clouds -4 1017 63 10000 9.26 290 08:29 12.02.2021
2649 Clouds -3 1017 68 10000 10.29 280 07:58 12.02.2021
2650 Clouds -4 1017 68 10000 10.29 280 07:35 12.02.2021
2651 Clouds -4 1016 68 10000 12.86 290 06:55 12.02.2021
2652 Clouds -4 1014 68 10000 12.86 290 05:49 12.02.2021
2653 Snow -4 1014 74 10000 10.8 290 05:23 12.02.2021
2654 Snow -4 1014 74 10000 10.8 290 05:23 12.02.2021
2655 Snow -1 1010 86 3400 13.89 290 01:56 12.02.2021
2656 Snow 0 1008 100 2000 9.77 280 23:44 11.02.2021
2657 Rain 1 1008 93 7000 9.26 280 23:22 11.02.2021
2658 Rain 1 1007 93 6000 10.29 280 22:58 11.02.2021
2659 Rain 2 1007 93 6000 10.29 280 22:39 11.02.2021
2660 Rain 2 1006 93 7000 12.35 280 22:20 11.02.2021
2661 Rain 3 1006 93 6000 9.77 280 21:39 11.02.2021
2662 Rain 4 1006 87 10000 9.26 290 21:19 11.02.2021
2663 Clouds 5 1006 93 10000 9.26 260 20:46 11.02.2021
2664 Rain 8 1004 93 10000 10.29 270 20:22 11.02.2021
2665 Rain 11 1003 87 10000 5.66 310 19:49 11.02.2021
2666 Rain 11 1003 87 10000 5.66 310 19:31 11.02.2021
2667 Rain 14 1003 63 10000 4.12 210 18:55 11.02.2021
2668 Clouds 15 1003 67 10000 4.63 200 18:29 11.02.2021
2669 Clouds 15 1003 63 10000 3.6 210 17:54 11.02.2021
2670 Clouds 15 1003 63 10000 3.6 210 17:22 11.02.2021
2671 Clouds 15 1003 63 10000 3.6 210 17:22 11.02.2021
2672 Clouds 16 1003 63 10000 6.17 210 16:58 11.02.2021
2673 Clouds 16 1003 63 10000 6.17 210 16:40 11.02.2021
2674 Clouds 16 1003 59 10000 5.66 220 16:21 11.02.2021
2675 Rain 16 1003 59 10000 4.12 220 15:42 11.02.2021
2676 Rain 17 1003 55 10000 4.63 240 15:24 11.02.2021
2677 Clear 17 1003 59 10000 3.09 260 14:44 11.02.2021
2678 Clouds 17 1003 55 10000 4.12 230 14:25 11.02.2021
2679 Clouds 17 1003 55 10000 5.14 230 13:41 11.02.2021
2680 Clouds 16 1003 59 10000 7.2 230 13:19 11.02.2021
2681 Clouds 16 1004 59 10000 7.72 220 12:47 11.02.2021
2682 Clouds 16 1004 59 10000 5.14 230 12:23 11.02.2021
2683 Clouds 15 1004 59 10000 4.63 240 11:45 11.02.2021
2684 Clouds 15 1004 67 10000 5.66 240 11:21 11.02.2021
2685 Clear 15 1005 67 10000 4.12 250 10:44 11.02.2021
2686 Clouds 15 1005 67 10000 3.09 250 10:25 11.02.2021
2687 Clouds 14 1005 67 10000 4.63 260 09:53 11.02.2021
2688 Clear 13 1005 67 10000 1.54 0 09:22 11.02.2021
2689 Clear 13 1005 67 10000 1.54 0 08:50 11.02.2021
2690 Clear 12 1005 71 10000 0.51 0 08:18 11.02.2021
2691 Clear 11 1005 76 10000 8.36 225 06:52 11.02.2021
2692 Clear 11 1005 71 10000 1.03 0 06:33 11.02.2021
2693 Clear 11 1006 66 10000 1.54 0 04:55 11.02.2021
2694 Clear 10 1007 71 10000 1.54 310 02:28 11.02.2021
2695 Clear 9 1007 76 10000 1.54 80 00:46 11.02.2021
2696 Clear 9 1007 76 10000 1.54 60 00:19 11.02.2021
2697 Clear 9 1007 76 10000 1.54 130 23:39 10.02.2021
2698 Clear 10 1008 76 10000 3.6 90 22:51 10.02.2021
2699 Clear 10 1008 76 10000 4.12 100 22:27 10.02.2021
2700 Clear 10 1008 76 10000 3.6 100 21:55 10.02.2021
2701 Clear 10 1008 76 10000 3.09 100 21:37 10.02.2021
2702 Clear 10 1008 76 10000 3.09 100 21:18 10.02.2021
2703 Clear 10 1008 71 10000 0.51 0 20:40 10.02.2021
2704 Clear 10 1008 71 10000 0.51 0 20:20 10.02.2021
2705 Clear 11 1008 66 10000 2.06 140 19:43 10.02.2021
2706 Clear 11 1008 66 10000 1.54 160 19:22 10.02.2021
2707 Clear 12 1008 62 10000 2.57 130 18:40 10.02.2021
2708 Clear 12 1008 62 10000 2.57 130 18:21 10.02.2021
2709 Clear 12 1008 58 10000 3.59 171 17:50 10.02.2021
2710 Clear 13 1008 51 10000 1.54 230 17:22 10.02.2021
2711 Clear 14 1008 48 10000 2.57 220 16:50 10.02.2021
2712 Clear 15 1008 45 10000 3.6 230 16:29 10.02.2021
2713 Clear 16 1008 42 10000 3.09 230 15:44 10.02.2021
2714 Clear 16 1008 42 10000 4.63 220 15:21 10.02.2021
2715 Clear 17 1008 39 10000 4.63 250 14:41 10.02.2021
2716 Clouds 18 1009 39 10000 4.63 210 14:18 10.02.2021
2717 Clouds 18 1008 37 10000 5.14 240 13:40 10.02.2021
2718 Clouds 18 1008 37 10000 5.14 240 13:21 10.02.2021
2719 Clouds 18 1009 39 10000 6.69 260 12:44 10.02.2021
2720 Clouds 18 1009 42 10000 7.2 290 12:26 10.02.2021
2721 Clear 17 1009 42 10000 7.2 290 11:41 10.02.2021
2722 Clear 17 1009 42 10000 7.2 290 11:41 10.02.2021
2723 Clear 17 1009 42 10000 7.2 270 11:23 10.02.2021
2724 Clear 16 1009 51 10000 5.14 250 10:43 10.02.2021
2725 Clear 15 1009 51 10000 5.66 250 10:19 10.02.2021
2726 Clear 15 1009 51 10000 5.14 250 09:43 10.02.2021
2727 Clear 14 1008 62 10000 3.6 250 09:21 10.02.2021
2728 Clear 13 1008 67 10000 0.51 0 08:43 10.02.2021
2729 Clear 11 1008 76 10000 1.03 0 07:55 10.02.2021
2730 Clear 10 1008 76 10000 2.92 247 07:18 10.02.2021
2731 Clear 11 1006 82 10000 1.54 290 03:45 10.02.2021
2732 Clear 12 1006 76 10000 2.06 300 00:51 10.02.2021
2733 Clear 12 1006 76 10000 1.03 0 23:36 09.02.2021
2734 Clouds 13 1006 72 10000 1.03 0 22:55 09.02.2021
2735 Clear 12 1006 76 10000 1.54 90 22:25 09.02.2021
2736 Rain 13 1006 72 10000 1.54 0 21:53 09.02.2021
2737 Clear 13 1006 67 10000 0.51 0 21:34 09.02.2021
2738 Clear 12 1006 71 10000 1.03 0 20:50 09.02.2021
2739 Clear 13 1006 67 10000 2.06 0 20:27 09.02.2021
2740 Clear 12 1006 71 10000 2.57 120 19:59 09.02.2021
2741 Clear 11 1007 76 10000 3.09 110 19:39 09.02.2021
2742 Clear 11 1007 67 10000 4.12 120 19:00 09.02.2021
2743 Clear 11 1007 67 10000 4.12 120 18:39 09.02.2021
2744 Clouds 12 1007 67 10000 5.66 100 17:58 09.02.2021
2745 Clouds 12 1007 71 10000 5.66 100 17:40 09.02.2021
2746 Clouds 12 1007 71 10000 5.66 100 17:21 09.02.2021
2747 Clear 13 1007 71 10000 5.14 100 16:42 09.02.2021
2748 Clear 14 1007 67 10000 5.14 100 16:19 09.02.2021
2749 Clear 14 1007 67 10000 5.14 110 15:50 09.02.2021
2750 Clear 15 1008 59 10000 3.6 100 15:26 09.02.2021
2751 Clear 15 1008 63 10000 5.14 100 14:55 09.02.2021
2752 Clear 16 1008 55 10000 5.14 100 14:28 09.02.2021
2753 Clear 17 1008 55 10000 4.63 120 13:52 09.02.2021
2754 Clear 18 1008 48 10000 2.06 130 13:26 09.02.2021
2755 Clear 17 1008 48 10000 3.09 120 12:54 09.02.2021
2756 Clear 17 1008 48 10000 3.09 120 12:36 09.02.2021
2757 Clear 17 1009 55 10000 2.57 120 11:57 09.02.2021
2758 Clear 16 1009 51 10000 1.54 320 11:38 09.02.2021
2759 Clear 16 1009 51 10000 1.54 320 11:20 09.02.2021
2760 Clear 16 1010 51 10000 2.06 320 10:49 09.02.2021
2761 Clear 15 1009 62 10000 2.57 290 10:18 09.02.2021
2762 Clear 14 1009 58 10000 2.57 260 09:43 09.02.2021
2763 Clear 13 1009 62 10000 2.06 300 09:24 09.02.2021
2764 Clear 12 1009 66 10000 2.57 300 08:44 09.02.2021
2765 Clear 11 1009 71 10000 3.09 310 08:25 09.02.2021
2766 Clear 8 1007 81 10000 3.6 280 06:20 09.02.2021
2767 Clear 8 1005 81 10000 7.72 260 04:18 09.02.2021
2768 Clear 9 1005 81 10000 6.69 260 03:34 09.02.2021
2769 Clouds 10 1001 93 10000 4.12 300 00:33 09.02.2021
2770 Rain 10 1000 93 10000 2.06 280 23:57 08.02.2021
2771 Rain 10 999 82 10000 1.03 0 23:21 08.02.2021
2772 Rain 10 998 82 10000 2.57 250 22:44 08.02.2021
2773 Clouds 11 998 82 10000 3.6 200 22:24 08.02.2021
2774 Clouds 11 998 82 10000 3.6 200 22:24 08.02.2021
2775 Clouds 11 998 76 10000 4.63 200 21:55 08.02.2021
2776 Rain 12 998 76 10000 4.63 200 21:32 08.02.2021
2777 Rain 12 999 82 10000 7.72 200 20:59 08.02.2021
2778 Rain 13 999 82 10000 7.72 200 20:39 08.02.2021
2779 Rain 13 998 67 10000 4.12 120 20:20 08.02.2021
2780 Clouds 14 998 72 10000 3.6 130 19:42 08.02.2021
2781 Clouds 14 999 67 10000 2.57 140 19:22 08.02.2021
2782 Clouds 15 999 63 10000 2.06 130 18:48 08.02.2021
2783 Clouds 15 1000 59 10000 1.03 0 18:23 08.02.2021
2784 Clouds 16 1000 59 10000 6.17 200 17:45 08.02.2021
2785 Clouds 16 1000 55 10000 9.26 210 17:25 08.02.2021
2786 Clouds 16 1000 59 10000 8.75 210 16:44 08.02.2021
2787 Clouds 15 1000 55 10000 8.75 210 16:21 08.02.2021
2788 Clouds 16 1001 55 10000 8.23 210 15:43 08.02.2021
2789 Clouds 16 1001 52 10000 7.72 200 15:20 08.02.2021
2790 Clouds 16 1001 48 10000 7.72 190 14:52 08.02.2021
2791 Clouds 16 1001 48 10000 7.72 190 14:52 08.02.2021
2792 Clouds 16 1001 48 10000 7.72 190 14:32 08.02.2021
2793 Clouds 16 1002 55 10000 7.2 200 13:57 08.02.2021
2794 Clouds 16 1002 59 10000 7.72 220 13:33 08.02.2021
2795 Clouds 16 1002 59 10000 7.72 220 13:33 08.02.2021
2796 Clouds 15 1003 67 10000 3.09 0 12:55 08.02.2021
2797 Clouds 16 1003 67 10000 3.09 0 12:37 08.02.2021
2798 Clouds 13 1004 88 7000 3.09 120 11:49 08.02.2021
2799 Mist 12 1005 94 2500 3.09 120 11:22 08.02.2021
2800 Clouds 13 1005 94 8000 1.54 90 10:45 08.02.2021
2801 Mist 11 1006 100 4600 1.54 0 10:24 08.02.2021
2802 Rain 11 1006 100 5000 1.54 310 09:53 08.02.2021
2803 Mist 11 1006 100 5000 1.54 310 09:35 08.02.2021
2804 Rain 10 1006 100 1100 4.08 223 08:47 08.02.2021
2805 Rain 9 1006 100 3800 1.03 0 08:21 08.02.2021
2806 Mist 9 1006 100 3100 1.03 0 07:34 08.02.2021
2807 Fog 8 1006 100 450 1.54 90 06:25 08.02.2021
2808 Fog 8 1007 100 600 2.06 90 02:29 08.02.2021
2809 Fog 8 1007 100 500 3.6 100 01:47 08.02.2021
2810 Fog 8 1007 100 500 6.17 110 00:21 08.02.2021
2811 Fog 8 1008 100 450 6.17 120 23:49 07.02.2021
2812 Fog 8 1008 100 400 6.17 120 23:20 07.02.2021
2813 Fog 8 1008 100 550 6.17 120 22:45 07.02.2021
2814 Fog 8 1009 100 800 6.69 120 22:26 07.02.2021
2815 Fog 8 1009 100 600 6.17 120 21:53 07.02.2021
2816 Fog 8 1010 100 600 6.17 120 21:28 07.02.2021
2817 Fog 7 1010 100 700 5.14 120 20:56 07.02.2021
2818 Mist 7 1011 100 2300 4.12 120 20:35 07.02.2021
2819 Mist 7 1011 100 4200 4.12 120 19:55 07.02.2021
2820 Mist 7 1011 100 4200 4.12 120 19:31 07.02.2021
2821 Clouds 7 1011 93 7000 4.63 120 18:57 07.02.2021
2822 Clouds 7 1011 93 7000 4.63 120 18:37 07.02.2021
2823 Clouds 7 1011 93 7000 4.63 120 18:37 07.02.2021
2824 Clouds 7 1011 93 7000 4.12 120 18:18 07.02.2021
2825 Clouds 7 1012 93 8000 4.12 120 17:44 07.02.2021
2826 Clouds 7 1012 93 8000 4.12 120 17:20 07.02.2021
2827 Clouds 7 1012 93 7000 4.12 110 16:48 07.02.2021
2828 Clouds 7 1012 93 10000 4.63 130 16:29 07.02.2021
2829 Clouds 7 1012 93 10000 4.63 120 15:58 07.02.2021
2830 Clouds 7 1012 93 10000 4.63 120 15:40 07.02.2021
2831 Clouds 8 1012 93 10000 4.63 120 15:21 07.02.2021
2832 Clouds 8 1013 87 10000 4.63 120 14:39 07.02.2021
2833 Clouds 8 1013 93 9000 4.63 130 14:21 07.02.2021
2834 Clouds 8 1013 93 8000 4.63 120 13:36 07.02.2021
2835 Clouds 8 1014 87 10000 4.12 130 12:59 07.02.2021
2836 Clouds 8 1014 87 10000 4.12 130 12:38 07.02.2021
2837 Clouds 8 1014 93 10000 4.63 130 12:19 07.02.2021
2838 Clouds 7 1015 93 10000 3.09 140 11:28 07.02.2021
2839 Clouds 7 1015 87 10000 3.6 130 10:58 07.02.2021
2840 Clouds 7 1015 93 10000 2.57 140 10:28 07.02.2021
2841 Clouds 7 1016 93 10000 2.06 160 09:51 07.02.2021
2842 Clouds 7 1015 93 10000 2.06 150 09:25 07.02.2021
2843 Clouds 6 1016 93 10000 2.06 110 08:38 07.02.2021
2844 Clouds 6 1016 93 10000 2.06 90 07:47 07.02.2021
2845 Clouds 5 1015 100 7000 0.51 0 05:58 07.02.2021
2846 Clouds 5 1015 100 7000 0.51 0 05:58 07.02.2021
2847 Clouds 5 1015 100 8000 1.54 60 03:59 07.02.2021
2848 Fog 5 1015 100 700 2.06 150 01:51 07.02.2021
2849 Mist 5 1014 100 3200 1.03 0 00:36 07.02.2021
2850 Mist 5 1015 100 4100 1.54 110 23:48 06.02.2021
2851 Mist 6 1015 100 1700 2.57 130 22:50 06.02.2021
2852 Mist 6 1015 100 2900 3.09 110 21:45 06.02.2021
2853 Mist 6 1015 100 3300 3.09 120 21:24 06.02.2021
2854 Mist 6 1014 100 2800 3.6 120 20:53 06.02.2021
2855 Mist 6 1014 100 2000 3.09 120 20:26 06.02.2021
2856 Mist 6 1014 100 2500 3.09 130 19:59 06.02.2021
2857 Mist 6 1014 100 2500 3.09 130 19:35 06.02.2021
2858 Mist 7 1014 100 4900 1.68 91 18:59 06.02.2021
2859 Mist 7 1014 100 4900 1.68 91 18:41 06.02.2021
2860 Mist 7 1014 100 3500 1.03 0 18:20 06.02.2021
2861 Mist 7 1014 100 2000 2.57 110 17:40 06.02.2021
2862 Fog 6 1014 100 800 4.63 130 17:20 06.02.2021
2863 Mist 7 1013 100 2400 5.66 120 16:42 06.02.2021
2864 Clouds 8 1013 93 8000 5.66 120 16:24 06.02.2021
2865 Clear 9 1013 81 10000 6.69 130 15:50 06.02.2021
2866 Clear 10 1013 76 10000 6.69 120 15:29 06.02.2021
2867 Clear 13 1013 66 10000 7.2 120 14:47 06.02.2021
2868 Clear 13 1013 62 10000 5.66 120 14:28 06.02.2021
2869 Clear 15 1013 62 10000 4.63 130 13:55 06.02.2021
2870 Clear 14 1013 62 10000 4.63 130 13:36 06.02.2021
2871 Clear 16 1013 55 10000 1.54 0 12:23 06.02.2021
2872 Clear 16 1014 59 10000 1.07 216 11:58 06.02.2021
2873 Clear 16 1014 59 10000 1.07 216 11:39 06.02.2021
2874 Clear 12 1014 71 10000 1.54 0 11:19 06.02.2021
2875 Clear 12 1014 71 10000 1.54 0 10:47 06.02.2021
2876 Clouds 10 1015 81 9000 1.54 300 10:25 06.02.2021
2877 Clouds 11 1015 87 7000 1.03 0 09:37 06.02.2021
2878 Mist 9 1015 100 5000 1.03 0 09:18 06.02.2021
2879 Mist 9 1015 100 3800 1.54 320 08:49 06.02.2021
2880 Mist 7 1015 100 2200 1.49 301 08:28 06.02.2021
2881 Fog 3 1015 100 150 1.56 312 06:40 06.02.2021
2882 Fog 3 1014 100 150 1.03 0 05:33 06.02.2021
2883 Fog 4 1015 100 300 1.25 285 02:43 06.02.2021
2884 Fog 5 1016 100 350 2.06 10 00:49 06.02.2021
2885 Fog 5 1017 100 300 2.06 50 00:21 06.02.2021
2886 Fog 5 1017 100 350 1.54 80 23:59 05.02.2021
2887 Fog 5 1017 100 500 2.06 130 23:29 05.02.2021
2888 Mist 5 1017 100 2300 2.57 110 22:49 05.02.2021
2889 Mist 5 1017 93 5000 1.54 110 22:24 05.02.2021
2890 Clear 5 1017 93 10000 1.03 0 21:52 05.02.2021
2891 Clear 5 1018 93 10000 1.54 40 21:30 05.02.2021
2892 Clouds 6 1018 100 7000 1.54 40 20:48 05.02.2021
2893 Clouds 6 1018 93 10000 1.54 50 19:57 05.02.2021
2894 Clouds 7 1019 93 10000 0.51 0 19:22 05.02.2021
2895 Clouds 7 1019 93 10000 2.06 150 18:55 05.02.2021
2896 Clouds 7 1019 93 10000 2.57 150 18:28 05.02.2021
2897 Clouds 7 1019 93 10000 2.06 140 17:56 05.02.2021
2898 Clouds 7 1019 93 10000 2.06 140 17:33 05.02.2021
2899 Clouds 8 1019 87 10000 3.09 130 16:57 05.02.2021
2900 Clouds 8 1019 87 10000 3.09 130 16:37 05.02.2021
2901 Clouds 9 1019 81 10000 4.63 120 16:19 05.02.2021
2902 Clear 10 1019 76 10000 5.66 130 15:29 05.02.2021
2903 Clear 10 1020 76 10000 6.17 130 14:57 05.02.2021
2904 Clear 10 1020 76 10000 6.17 130 14:37 05.02.2021
2905 Clear 11 1020 71 10000 6.69 120 14:18 05.02.2021
2906 Clear 10 1020 71 10000 6.17 120 13:39 05.02.2021
2907 Clear 10 1020 76 10000 6.17 130 13:18 05.02.2021
2908 Clear 10 1020 76 10000 5.66 120 12:40 05.02.2021
2909 Clear 11 1020 71 10000 4.12 130 11:58 05.02.2021
2910 Clear 11 1020 71 10000 4.12 130 11:37 05.02.2021
2911 Clear 11 1021 71 10000 4.63 130 11:18 05.02.2021
2912 Clear 11 1021 76 10000 4.12 130 10:41 05.02.2021
2913 Clear 10 1021 71 10000 4.63 120 10:21 05.02.2021
2914 Clear 9 1021 71 10000 5.14 130 09:41 05.02.2021
2915 Clear 10 1021 71 10000 4.12 120 09:21 05.02.2021
2916 Clear 10 1022 81 10000 1.54 80 08:36 05.02.2021
2917 Clear 7 1020 81 10000 1.03 0 07:39 05.02.2021
2918 Clear 6 1019 87 10000 3.6 250 06:58 05.02.2021
2919 Clear 6 1019 100 10000 1.03 0 05:40 05.02.2021
2920 Clear 6 1018 87 10000 2.57 310 04:50 05.02.2021
2921 Clear 8 1017 87 10000 2.06 270 02:25 05.02.2021
2922 Clear 7 1016 87 10000 3.09 90 00:41 05.02.2021
2923 Clear 8 1015 87 10000 2.06 30 00:21 05.02.2021
2924 Clear 8 1015 87 10000 3.6 270 23:59 04.02.2021
2925 Clear 8 1015 87 10000 3.6 270 23:40 04.02.2021
2926 Clear 8 1015 87 10000 3.6 270 23:40 04.02.2021
2927 Clear 8 1015 87 10000 1.54 300 23:21 04.02.2021
2928 Clear 8 1015 81 10000 2.57 280 22:52 04.02.2021
2929 Clear 8 1015 87 10000 1.03 0 22:28 04.02.2021
2930 Clear 9 1014 76 10000 2.06 70 21:42 04.02.2021
2931 Clear 10 1014 76 10000 2.57 240 21:22 04.02.2021
2932 Clear 10 1013 71 10000 2.57 250 20:53 04.02.2021
2933 Clear 11 1015 71 10000 2.57 250 20:34 04.02.2021
2934 Clear 11 1013 71 10000 2.57 280 19:48 04.02.2021
2935 Clear 11 1012 71 10000 4.12 270 19:19 04.02.2021
2936 Clear 11 1012 71 10000 4.63 270 18:37 04.02.2021
2937 Clear 12 1012 66 10000 3.09 250 18:18 04.02.2021
2938 Clear 12 1012 66 10000 3.6 260 17:42 04.02.2021
2939 Clear 12 1012 62 10000 3.6 260 17:20 04.02.2021
2940 Clear 13 1011 58 10000 5.66 270 16:46 04.02.2021
2941 Clear 14 1011 55 10000 9.77 260 16:19 04.02.2021
2942 Clear 15 1011 51 10000 10.8 280 15:40 04.02.2021
2943 Clear 15 1010 45 10000 12.35 280 15:21 04.02.2021
2944 Clouds 16 1010 48 10000 11.32 280 14:49 04.02.2021
2945 Clouds 16 1010 45 10000 11.32 270 14:21 04.02.2021
2946 Clouds 18 1010 42 10000 9.77 270 13:49 04.02.2021
2947 Clear 17 1011 45 10000 10.29 280 13:28 04.02.2021
2948 Clear 17 1011 42 10000 10.29 280 12:54 04.02.2021
2949 Clear 16 1012 48 10000 7.72 270 11:58 04.02.2021
2950 Clear 16 1012 48 10000 7.72 270 11:37 04.02.2021
2951 Clear 15 1012 58 10000 6.69 270 11:18 04.02.2021
2952 Clear 13 1012 71 10000 2.57 250 10:36 04.02.2021
2953 Mist 10 1013 100 1800 1.54 0 09:46 04.02.2021
2954 Fog 10 1013 100 200 1.54 260 09:23 04.02.2021
2955 Fog 7 1012 100 150 2.57 280 08:58 04.02.2021
2956 Fog 6 1012 100 150 3.09 300 08:27 04.02.2021
2957 Fog 7 1012 100 100 2.06 280 07:58 04.02.2021
2958 Fog 5 1012 100 150 1.54 290 07:35 04.02.2021
2959 Fog 5 1012 100 1000 2.06 310 06:53 04.02.2021
2960 Fog 5 1012 100 1000 2.06 310 06:34 04.02.2021
2961 Fog 5 1013 100 500 1.03 260 02:41 04.02.2021
2962 Fog 4 1013 100 650 1.83 189 02:23 04.02.2021
2963 Fog 5 1014 100 550 1.03 0 00:29 04.02.2021
2964 Fog 5 1014 100 2400 1.54 330 23:34 03.02.2021
2965 Mist 6 1015 100 2500 1.54 350 22:40 03.02.2021
2966 Mist 6 1015 100 2500 1.54 350 22:21 03.02.2021
2967 Fog 6 1015 100 800 1.5 227 21:55 03.02.2021
2968 Fog 6 1015 100 900 1.58 218 21:25 03.02.2021
2969 Fog 6 1015 100 1300 0.51 310 20:57 03.02.2021
2970 Fog 7 1015 100 2300 1.54 350 20:36 03.02.2021
2971 Mist 7 1015 100 3600 1.81 222 19:57 03.02.2021
2972 Mist 7 1015 100 3000 2.57 30 19:28 03.02.2021
2973 Mist 8 1015 100 4100 2.06 10 18:59 03.02.2021
2974 Mist 8 1015 100 4100 2.06 10 18:39 03.02.2021
2975 Mist 8 1015 100 4100 2.06 10 18:39 03.02.2021
2976 Mist 8 1015 100 5000 2.57 360 18:19 03.02.2021
2977 Clouds 9 1015 93 6000 1.03 0 17:46 03.02.2021
2978 Clouds 9 1015 93 6000 1.54 100 17:26 03.02.2021
2979 Clear 11 1015 87 10000 0.51 0 16:43 03.02.2021
2980 Clear 11 1015 82 10000 1.03 310 16:23 03.02.2021
2981 Clear 11 1015 87 10000 1.03 300 15:41 03.02.2021
2982 Clear 11 1015 87 10000 1.03 300 15:41 03.02.2021
2983 Clear 11 1014 82 10000 2.57 320 15:22 03.02.2021
2984 Clouds 11 1014 87 8000 2.57 330 14:47 03.02.2021
2985 Clouds 11 1015 87 6000 2.57 310 14:23 03.02.2021
2986 Mist 10 1015 87 4000 2.57 300 13:48 03.02.2021
2987 Mist 11 1015 87 4000 2.57 240 13:21 03.02.2021
2988 Clouds 10 1015 93 6000 4.12 270 12:45 03.02.2021
2989 Clouds 10 1016 93 8000 5.14 270 12:21 03.02.2021
2990 Clouds 9 1016 100 7000 1.54 290 11:43 03.02.2021
2991 Clouds 9 1016 100 6000 2.37 207 11:24 03.02.2021
2992 Mist 8 1016 100 5000 2.37 207 10:42 03.02.2021
2993 Mist 8 1016 100 4000 2.18 211 10:20 03.02.2021
2994 Mist 7 1016 100 3000 2.18 211 09:43 03.02.2021
2995 Mist 7 1017 100 1800 1.85 204 09:20 03.02.2021
2996 Mist 7 1017 100 1200 1.03 120 08:48 03.02.2021
2997 Fog 7 1017 100 400 1.03 0 07:58 03.02.2021
2998 Fog 6 1016 100 350 0.37 154 07:19 03.02.2021
2999 Fog 6 1016 100 500 2.06 130 06:38 03.02.2021
3000 Fog 6 1015 100 550 2.57 110 04:49 03.02.2021
3001 Fog 6 1015 100 350 2.57 130 03:53 03.02.2021
3002 Fog 6 1015 100 450 1.54 130 02:42 03.02.2021
3003 Fog 7 1015 100 650 1.18 317 01:48 03.02.2021
3004 Fog 7 1015 100 800 1.15 25 00:24 03.02.2021
3005 Fog 7 1015 100 1000 0.51 260 23:44 02.02.2021
3006 Fog 7 1015 100 550 1.54 220 23:26 02.02.2021
3007 Fog 7 1015 100 450 1.03 0 22:47 02.02.2021
3008 Fog 7 1015 100 400 1.54 290 22:21 02.02.2021
3009 Fog 7 1015 100 450 1.48 51 21:46 02.02.2021
3010 Fog 7 1015 100 650 1.78 63 21:27 02.02.2021
3011 Fog 7 1015 100 550 1.78 63 20:49 02.02.2021
3012 Fog 7 1015 100 700 1.68 67 20:23 02.02.2021
3013 Fog 7 1015 100 600 1.03 0 19:55 02.02.2021
3014 Fog 7 1015 100 400 1.03 0 19:37 02.02.2021
3015 Fog 7 1015 100 400 1.03 0 19:18 02.02.2021
3016 Fog 8 1014 100 350 1.62 79 18:41 02.02.2021
3017 Fog 8 1014 100 350 1.8 79 18:22 02.02.2021
3018 Fog 8 1014 100 450 1.54 150 17:39 02.02.2021
3019 Fog 8 1014 100 450 0.51 130 17:21 02.02.2021
3020 Fog 9 1014 100 450 2.06 150 16:48 02.02.2021
3021 Fog 9 1013 100 400 3.09 110 16:27 02.02.2021
3022 Fog 9 1013 100 350 4.63 120 15:56 02.02.2021
3023 Fog 9 1013 100 800 4.63 130 15:30 02.02.2021
3024 Mist 10 1013 93 4300 5.14 130 14:53 02.02.2021
3025 Clouds 10 1013 93 8000 4.63 130 14:34 02.02.2021
3026 Clouds 11 1012 93 10000 5.66 130 13:58 02.02.2021
3027 Clouds 12 1012 87 10000 4.63 130 13:40 02.02.2021
3028 Clouds 12 1012 87 10000 4.63 130 13:22 02.02.2021
3029 Clouds 11 1012 93 9000 4.63 130 12:47 02.02.2021
3030 Clouds 11 1012 87 10000 4.12 120 11:46 02.02.2021
3031 Clouds 10 1012 87 10000 2.57 120 11:25 02.02.2021
3032 Clouds 10 1012 87 9000 3.09 110 10:56 02.02.2021
3033 Clouds 10 1012 87 9000 3.09 110 10:37 02.02.2021
3034 Clouds 9 1012 87 9000 3.09 120 10:19 02.02.2021
3035 Clouds 10 1012 93 8000 2.06 130 09:39 02.02.2021
3036 Mist 10 1012 93 5000 1.03 0 09:19 02.02.2021
3037 Mist 9 1012 100 5000 2.06 120 08:34 02.02.2021
3038 Mist 8 1011 100 2700 2.57 130 07:42 02.02.2021
3039 Mist 8 1010 100 2600 0.51 0 06:46 02.02.2021
3040 Mist 8 1010 100 4100 2.36 285 06:27 02.02.2021
3041 Mist 8 1009 100 4100 1.03 0 05:47 02.02.2021
3042 Mist 8 1008 93 2600 2.06 120 02:46 02.02.2021
3043 Mist 8 1008 100 4300 2.64 202 02:23 02.02.2021
3044 Clouds 8 1007 100 10000 3.15 193 00:37 02.02.2021
3045 Clouds 8 1007 100 10000 2.57 90 23:37 01.02.2021
3046 Clouds 8 1006 93 10000 2.06 110 22:51 01.02.2021
3047 Clouds 8 1006 93 10000 3.6 110 22:33 01.02.2021
3048 Clear 8 1006 93 10000 2.06 110 21:53 01.02.2021
3049 Clear 8 1006 87 10000 1.54 140 21:34 01.02.2021
3050 Clear 9 1006 93 10000 2.57 80 20:57 01.02.2021
3051 Clear 10 1006 82 10000 2.57 130 20:38 01.02.2021
3052 Clear 10 1006 82 10000 2.57 130 20:19 01.02.2021
3053 Clear 10 1005 82 10000 3.09 100 19:39 01.02.2021
3054 Clouds 10 1006 82 10000 2.57 160 19:20 01.02.2021
3055 Clouds 10 1006 87 10000 2.06 180 18:49 01.02.2021
3056 Clouds 10 1005 87 10000 2.57 190 18:27 01.02.2021
3057 Rain 11 1005 87 10000 2.57 160 17:47 01.02.2021
3058 Clouds 11 1005 87 10000 1.54 190 17:24 01.02.2021
3059 Rain 11 1004 87 10000 2.06 120 16:55 01.02.2021
3060 Rain 11 1004 87 10000 3.09 140 16:29 01.02.2021
3061 Rain 11 1004 87 10000 4.63 110 15:44 01.02.2021
3062 Clouds 11 1004 87 10000 4.12 90 15:19 01.02.2021
3063 Rain 11 1004 82 10000 3.09 130 14:52 01.02.2021
3064 Clouds 11 1004 82 10000 3.09 130 14:33 01.02.2021
3065 Rain 11 1003 82 10000 3.09 120 13:49 01.02.2021
3066 Rain 11 1003 82 10000 3.09 170 13:26 01.02.2021
3067 Rain 11 1003 76 10000 3.6 220 12:45 01.02.2021
3068 Rain 11 1003 82 10000 3.6 210 12:25 01.02.2021
3069 Rain 11 1003 82 10000 3.6 230 11:51 01.02.2021
3070 Rain 11 1003 87 10000 2.57 170 11:22 01.02.2021
3071 Rain 11 1003 87 10000 3.09 230 10:53 01.02.2021
3072 Rain 11 1003 87 10000 2.57 160 10:27 01.02.2021
3073 Rain 11 1003 87 10000 2.06 100 09:55 01.02.2021
3074 Rain 11 1003 87 10000 2.06 100 09:36 01.02.2021
3075 Rain 11 1001 71 10000 2.57 130 08:56 01.02.2021
3076 Clouds 11 1001 66 10000 4.12 110 08:27 01.02.2021
3077 Clouds 11 1002 66 10000 5.14 130 07:32 01.02.2021
3078 Rain 9 1001 76 10000 4.12 110 05:20 01.02.2021
3079 Clear 9 1002 81 10000 5.14 110 02:40 01.02.2021
3080 Rain 9 1004 87 10000 3.6 120 00:25 01.02.2021
3081 Clear 10 1003 76 10000 3.6 130 23:21 31.01.2021
3082 Rain 9 1004 81 10000 3.6 100 22:38 31.01.2021
3083 Rain 9 1004 81 10000 4.12 110 22:19 31.01.2021
3084 Clear 9 1004 81 10000 4.63 110 21:47 31.01.2021
3085 Clear 9 1004 81 10000 4.63 110 21:47 31.01.2021
3086 Clear 9 1004 81 10000 4.63 120 21:21 31.01.2021
3087 Rain 9 1004 81 10000 4.63 130 20:43 31.01.2021
3088 Clear 9 1004 81 10000 4.63 140 20:21 31.01.2021
3089 Clear 9 1004 87 10000 3.09 150 19:40 31.01.2021
3090 Clear 9 1004 87 10000 3.09 150 19:40 31.01.2021
3091 Clouds 9 1004 87 10000 2.57 120 19:22 31.01.2021
3092 Clear 9 1004 81 10000 3.6 120 18:56 31.01.2021
3093 Clear 9 1004 81 10000 3.6 120 18:38 31.01.2021
3094 Clear 9 1004 81 10000 4.63 120 18:18 31.01.2021
3095 Rain 9 1004 87 10000 3.6 120 17:41 31.01.2021
3096 Rain 9 1004 81 10000 4.12 100 17:21 31.01.2021
3097 Clouds 9 1005 87 10000 4.12 100 16:42 31.01.2021
3098 Clouds 9 1005 87 10000 4.63 100 16:20 31.01.2021
3099 Rain 11 1005 76 10000 5.14 110 15:50 31.01.2021
3100 Clear 11 1005 71 10000 2.06 230 15:26 31.01.2021
3101 Clear 12 1005 66 10000 3.09 220 14:39 31.01.2021
3102 Clear 12 1005 62 10000 4.12 210 14:18 31.01.2021
3103 Clear 13 1005 54 10000 5.66 220 13:44 31.01.2021
3104 Clear 13 1005 54 10000 4.63 210 13:19 31.01.2021
3105 Clear 13 1005 58 10000 4.63 190 12:46 31.01.2021
3106 Clear 12 1005 54 10000 3.09 180 12:20 31.01.2021
3107 Clear 12 1006 54 10000 2.06 150 11:40 31.01.2021
3108 Clear 11 1006 54 10000 2.06 150 11:20 31.01.2021
3109 Clear 10 1006 58 10000 4.62 194 10:46 31.01.2021
3110 Clear 10 1006 66 10000 1.54 120 10:27 31.01.2021
3111 Clear 9 1006 76 10000 1.03 0 09:47 31.01.2021
3112 Clear 5 1005 87 10000 2.89 202 08:55 31.01.2021
3113 Clear 5 1005 87 10000 2.89 202 08:31 31.01.2021
3114 Clear 1 1005 93 10000 0.51 0 06:51 31.01.2021
3115 Clear 2 1004 100 10000 3.6 360 04:55 31.01.2021
3116 Clear 3 1003 87 10000 1.54 0 00:38 31.01.2021
3117 Clear 3 1003 87 10000 1.54 0 00:38 31.01.2021
3118 Clear 3 1002 87 10000 3.6 250 00:20 31.01.2021
3119 Clear 4 1003 87 10000 4.63 280 23:28 30.01.2021
3120 Clear 4 1002 87 10000 3.09 300 22:45 30.01.2021
3121 Clear 4 1002 93 10000 3.6 310 22:23 30.01.2021
3122 Clear 4 1002 93 10000 2.57 270 21:39 30.01.2021
3123 Clouds 3 1002 93 9000 1.54 340 21:20 30.01.2021
3124 Clear 4 1001 93 10000 1.54 290 20:43 30.01.2021
3125 Clear 3 1001 100 10000 3.6 290 20:24 30.01.2021
3126 Clear 4 1001 87 10000 3.6 270 19:42 30.01.2021
3127 Clear 4 1000 87 10000 4.63 290 19:24 30.01.2021
3128 Clear 4 1000 93 10000 5.14 260 18:40 30.01.2021
3129 Clear 4 1000 93 10000 4.63 260 18:21 30.01.2021
3130 Clouds 4 999 93 10000 7.2 260 17:53 30.01.2021
3131 Clouds 4 999 87 10000 4.12 270 17:19 30.01.2021
3132 Clouds 5 998 81 10000 4.12 280 16:43 30.01.2021
3133 Clear 5 998 81 10000 5.66 290 16:23 30.01.2021
3134 Clouds 6 998 76 10000 5.14 280 15:50 30.01.2021
3135 Clouds 6 998 81 10000 6.69 290 15:25 30.01.2021
3136 Clouds 6 998 76 10000 6.69 300 14:58 30.01.2021
3137 Clouds 6 998 76 10000 6.69 300 14:39 30.01.2021
3138 Clouds 6 997 76 10000 5.66 280 14:18 30.01.2021
3139 Clouds 6 997 87 8000 6.17 270 13:24 30.01.2021
3140 Clouds 6 997 93 7000 4.63 260 12:46 30.01.2021
3141 Mist 6 997 100 1900 3.09 240 12:28 30.01.2021
3142 Mist 6 997 100 2100 2.06 260 11:53 30.01.2021
3143 Mist 6 997 100 1300 2.06 290 11:21 30.01.2021
3144 Drizzle 5 997 100 1700 1.03 0 10:29 30.01.2021
3145 Fog 4 997 100 2400 2.11 192 09:43 30.01.2021
3146 Mist 4 997 100 2900 2.06 100 09:24 30.01.2021
3147 Rain 4 997 100 3700 1.9 162 08:45 30.01.2021
3148 Clouds 4 998 100 4000 0.51 0 07:44 30.01.2021
3149 Clouds 3 998 93 10000 1.54 60 06:33 30.01.2021
3150 Clear 3 1000 80 10000 2.06 100 03:53 30.01.2021
3151 Clear 2 1000 80 10000 2.06 100 03:31 30.01.2021
3152 Clear 3 1001 81 10000 1.03 330 02:22 30.01.2021
3153 Clear 4 1002 70 10000 1.54 20 00:56 30.01.2021
3154 Clear 4 1003 70 10000 2.06 10 00:27 30.01.2021
3155 Clear 4 1003 70 10000 2.57 350 23:54 29.01.2021
3156 Clear 4 1003 60 10000 1.54 330 23:28 29.01.2021
3157 Clear 4 1004 65 10000 1.54 320 22:47 29.01.2021
3158 Clear 4 1004 65 10000 1.54 320 22:28 29.01.2021
3159 Clear 3 1004 70 10000 2.57 320 21:58 29.01.2021
3160 Clouds 3 1004 75 10000 3.09 340 21:27 29.01.2021
3161 Clouds 3 1004 75 10000 3.09 340 20:43 29.01.2021
3162 Clouds 2 1005 80 10000 3.09 340 20:22 29.01.2021
3163 Clouds 3 1005 75 10000 2.06 340 19:40 29.01.2021
3164 Clouds 2 1005 80 10000 2.57 330 19:21 29.01.2021
3165 Clouds 2 1005 75 10000 2.57 340 18:53 29.01.2021
3166 Clouds 3 1005 70 10000 2.06 350 17:48 29.01.2021
3167 Clouds 2 1005 75 10000 2.06 350 17:23 29.01.2021
3168 Clouds 2 1005 70 10000 1.03 360 16:52 29.01.2021
3169 Clouds 3 1004 65 10000 2.06 10 16:24 29.01.2021
3170 Clouds 3 1005 60 10000 1.03 10 15:55 29.01.2021
3171 Clouds 3 1004 70 10000 1.03 330 15:36 29.01.2021
3172 Clouds 3 1004 70 10000 1.03 330 15:18 29.01.2021
3173 Clouds 3 1005 60 10000 2.06 280 14:22 29.01.2021
3174 Clouds 3 1005 60 10000 2.57 270 13:46 29.01.2021
3175 Clouds 4 1006 60 10000 3.09 270 13:27 29.01.2021
3176 Clouds 4 1006 60 10000 5.14 260 12:36 29.01.2021
3177 Clear 4 1006 60 10000 4.12 260 12:18 29.01.2021
3178 Clear 4 1006 60 10000 1.54 280 11:41 29.01.2021
3179 Clouds 3 1007 60 10000 1.54 270 11:18 29.01.2021
3180 Clouds 3 1007 60 10000 2.06 310 10:42 29.01.2021
3181 Clouds 2 1008 60 10000 2.06 300 10:19 29.01.2021
3182 Clear 1 1008 64 10000 2.06 360 09:37 29.01.2021
3183 Clear 0 1008 74 10000 1.54 330 08:50 29.01.2021
3184 Clear -1 1008 86 10000 1.54 360 08:26 29.01.2021
3185 Clear -2 1008 86 10000 1.54 340 07:44 29.01.2021
3186 Clear -2 1008 86 10000 1.54 20 07:26 29.01.2021
3187 Clear -3 1008 86 10000 2.57 20 06:38 29.01.2021
3188 Clear -4 1009 80 10000 2.06 360 04:42 29.01.2021
3189 Clear -3 1010 93 10000 2.06 340 00:51 29.01.2021
3190 Clear -3 1010 86 10000 2.06 360 00:23 29.01.2021
3191 Clear -3 1010 86 10000 1.54 330 23:55 28.01.2021
3192 Clear -3 1010 86 10000 1.54 330 23:36 28.01.2021
3193 Clear -3 1010 80 10000 2.06 320 23:18 28.01.2021
3194 Clear -2 1010 80 10000 2.06 330 22:41 28.01.2021
3195 Clear -3 1010 86 10000 1.54 340 22:21 28.01.2021
3196 Clear -2 1010 80 10000 1.03 0 21:42 28.01.2021
3197 Clear -2 1010 80 10000 0.51 0 21:23 28.01.2021
3198 Clear -2 1011 86 10000 1.54 350 20:46 28.01.2021
3199 Clouds -2 1011 86 10000 5.55 254 20:19 28.01.2021
3200 Clear -1 1011 80 10000 2.06 320 19:52 28.01.2021
3201 Clear -1 1011 80 10000 3.09 270 19:29 28.01.2021
3202 Clear -1 1011 74 10000 3.6 260 18:50 28.01.2021
3203 Clear -1 1011 74 10000 3.6 260 18:31 28.01.2021
3204 Clear -1 1011 80 10000 2.57 280 17:54 28.01.2021
3205 Clear -1 1011 80 10000 2.57 280 17:35 28.01.2021
3206 Clear 0 1011 75 10000 5.14 280 16:59 28.01.2021
3207 Clear 0 1011 75 10000 5.14 280 16:40 28.01.2021
3208 Clear 0 1010 75 10000 4.12 280 16:20 28.01.2021
3209 Clear 1 1010 69 10000 5.66 280 15:32 28.01.2021
3210 Clear 2 1010 69 10000 6.69 270 14:49 28.01.2021
3211 Clear 2 1010 64 10000 6.69 280 14:26 28.01.2021
3212 Clear 2 1010 69 10000 6.69 270 13:59 28.01.2021
3213 Clear 2 1010 69 10000 7.2 270 13:25 28.01.2021
3214 Clear 2 1010 69 10000 6.69 280 12:50 28.01.2021
3215 Clear 2 1010 69 10000 6.69 280 12:32 28.01.2021
3216 Clear 1 1010 75 10000 6.17 280 11:57 28.01.2021
3217 Clear 1 1010 75 10000 5.14 260 11:39 28.01.2021
3218 Clear 1 1010 75 10000 5.14 260 11:18 28.01.2021
3219 Clear 1 1010 75 10000 6.69 270 10:48 28.01.2021
3220 Clear 0 1010 75 10000 6.69 280 10:24 28.01.2021
3221 Clear -1 1010 80 10000 5.66 260 09:39 28.01.2021
3222 Clear -1 1010 80 10000 5.66 260 09:19 28.01.2021
3223 Clouds -1 1010 86 10000 5.14 260 08:44 28.01.2021
3224 Clouds -2 1010 86 10000 3.6 280 07:50 28.01.2021
3225 Clear -2 1009 86 10000 5.14 290 07:21 28.01.2021
3226 Clear -2 1009 86 10000 5.66 280 06:48 28.01.2021
3227 Clear -2 1008 93 10000 5.66 280 04:30 28.01.2021
3228 Clear -1 1008 93 10000 5.14 260 02:45 28.01.2021
3229 Snow -1 1007 86 10000 6.69 280 00:35 28.01.2021
3230 Snow -1 1006 93 9000 5.14 260 23:25 27.01.2021
3231 Snow -1 1006 100 7000 3.6 250 22:44 27.01.2021
3232 Snow -1 1006 93 3600 3.09 240 22:26 27.01.2021
3233 Snow -1 1006 100 3400 3.09 240 21:59 27.01.2021
3234 Snow -1 1006 93 3700 4.12 300 21:41 27.01.2021
3235 Snow -1 1006 93 3700 4.12 300 21:22 27.01.2021
3236 Snow -1 1006 86 8000 6.17 320 20:41 27.01.2021
3237 Snow -1 1006 80 10000 6.69 330 19:59 27.01.2021
3238 Snow -1 1006 80 10000 6.69 330 19:41 27.01.2021
3239 Snow -1 1005 80 10000 8.23 320 19:21 27.01.2021
3240 Snow 0 1005 80 10000 7.72 310 18:43 27.01.2021
3241 Snow -1 1005 86 10000 7.72 320 18:23 27.01.2021
3242 Snow 0 1005 80 10000 7.72 310 17:46 27.01.2021
3243 Clouds 0 1005 80 10000 7.72 300 17:26 27.01.2021
3244 Clouds -1 1004 86 10000 10.29 300 16:48 27.01.2021
3245 Snow -1 1003 86 6000 8.75 300 16:28 27.01.2021
3246 Snow 0 1003 80 5000 10.29 300 15:51 27.01.2021
3247 Snow 0 1002 80 6000 12.35 330 15:32 27.01.2021
3248 Snow 0 1001 86 6000 12.35 340 14:45 27.01.2021
3249 Snow 0 1001 86 1100 12.35 340 14:22 27.01.2021
3250 Snow 0 1002 86 1500 11.32 330 13:45 27.01.2021
3251 Snow 0 1002 86 1500 11.32 330 13:45 27.01.2021
3252 Snow 0 1001 86 3100 14.4 340 12:58 27.01.2021
3253 Snow 0 999 86 1300 13.89 340 12:38 27.01.2021
3254 Snow 0 999 86 1300 13.89 340 12:18 27.01.2021
3255 Snow 0 999 86 10000 13.38 350 11:41 27.01.2021
3256 Snow 0 999 86 10000 13.38 350 11:21 27.01.2021
3257 Snow 0 999 80 10000 13.38 360 10:38 27.01.2021
3258 Snow 0 999 80 10000 13.38 360 10:19 27.01.2021
3259 Snow 0 999 86 6000 13.38 350 09:40 27.01.2021
3260 Snow 0 1000 86 3400 12.86 350 08:57 27.01.2021
3261 Snow 0 1000 86 1600 11.83 350 07:59 27.01.2021
3262 Snow 0 1001 86 1300 12.35 350 07:40 27.01.2021
3263 Snow 0 1001 93 2000 10.8 360 06:50 27.01.2021
3264 Snow 0 1000 93 3100 11.32 360 06:18 27.01.2021
3265 Snow 0 1000 100 2600 11.32 360 05:35 27.01.2021
3266 Snow 0 1001 100 1800 9.77 360 02:47 27.01.2021
3267 Snow 1 1001 93 2200 9.77 360 02:23 27.01.2021
3268 Snow 1 1001 93 2900 11.32 10 01:47 27.01.2021
3269 Snow 1 1002 93 3000 8.75 360 00:32 27.01.2021
3270 Snow 1 1003 93 3100 8.23 360 23:48 26.01.2021
3271 Snow 1 1004 93 4300 7.2 350 23:26 26.01.2021
3272 Snow 1 1004 93 5000 3.09 320 22:46 26.01.2021
3273 Snow 1 1004 93 3100 4.12 260 22:22 26.01.2021
3274 Snow 1 1004 93 6000 4.12 260 21:53 26.01.2021
3275 Snow 2 1004 87 10000 3.6 250 21:28 26.01.2021
3276 Rain 2 1005 87 10000 3.09 260 20:58 26.01.2021
3277 Rain 2 1005 87 10000 3.09 260 20:38 26.01.2021
3278 Snow 2 1005 93 10000 3.6 250 20:20 26.01.2021
3279 Rain 2 1005 93 10000 3.6 260 19:43 26.01.2021
3280 Rain 2 1005 93 10000 4.63 260 19:20 26.01.2021
3281 Rain 2 1005 93 10000 4.63 260 19:20 26.01.2021
3282 Rain 2 1005 93 10000 5.14 280 18:46 26.01.2021
3283 Rain 2 1005 93 10000 4.12 310 18:24 26.01.2021
3284 Rain 2 1006 87 10000 3.6 290 17:48 26.01.2021
3285 Rain 2 1005 87 10000 5.66 340 17:27 26.01.2021
3286 Rain 2 1005 93 10000 6.69 330 16:54 26.01.2021
3287 Rain 3 1004 87 10000 7.72 330 16:22 26.01.2021
3288 Rain 5 1004 70 10000 7.2 340 15:58 26.01.2021
3289 Clouds 6 1004 70 10000 7.2 340 15:39 26.01.2021
3290 Clouds 7 1004 70 10000 6.17 330 15:18 26.01.2021
3291 Clouds 7 1004 70 10000 6.17 330 15:18 26.01.2021
3292 Clouds 9 1003 66 10000 5.66 320 14:34 26.01.2021
3293 Clouds 10 1003 62 10000 4.63 320 13:59 26.01.2021
3294 Clouds 12 1003 54 10000 3.09 290 13:30 26.01.2021
3295 Clouds 12 1003 58 10000 3.09 270 12:55 26.01.2021
3296 Clouds 12 1003 58 10000 3.09 270 12:37 26.01.2021
3297 Clouds 12 1003 71 10000 0.51 0 12:19 26.01.2021
3298 Clouds 11 1003 71 10000 1.54 310 11:43 26.01.2021
3299 Clouds 10 1004 71 10000 1.03 0 10:59 26.01.2021
3300 Clouds 10 1004 66 10000 4.9 231 10:34 26.01.2021
3301 Clouds 8 1004 81 10000 4.97 215 09:51 26.01.2021
3302 Clouds 7 1004 87 10000 1.03 0 09:32 26.01.2021
3303 Clouds 6 1004 100 10000 3.37 208 08:56 26.01.2021
3304 Clouds 6 1004 100 10000 3.37 208 08:38 26.01.2021
3305 Clouds 4 1004 100 10000 3.19 205 07:54 26.01.2021
3306 Clouds 4 1004 93 10000 1.03 0 06:56 26.01.2021
3307 Clear 3 1003 93 10000 2.57 120 05:46 26.01.2021
3308 Clear 4 1003 93 10000 2.06 110 05:24 26.01.2021
3309 Clear 3 1005 86 10000 1.03 340 02:58 26.01.2021
3310 Clear 1 1006 93 10000 2.57 110 00:58 26.01.2021
3311 Clear 1 1007 93 10000 2.06 40 23:44 25.01.2021
3312 Clear 2 1007 87 10000 3.09 10 23:25 25.01.2021
3313 Clear 2 1007 86 10000 2.06 90 22:40 25.01.2021
3314 Clear 2 1007 87 10000 3.6 360 22:18 25.01.2021
3315 Clear 2 1007 87 10000 2.06 340 21:39 25.01.2021
3316 Clear 3 1006 75 10000 2.57 320 20:53 25.01.2021
3317 Clear 3 1006 75 10000 2.57 320 20:34 25.01.2021
3318 Clear 3 1005 81 10000 2.57 200 19:58 25.01.2021
3319 Clear 3 1005 81 10000 2.57 200 19:40 25.01.2021
3320 Clear 3 1005 81 10000 3.09 310 19:20 25.01.2021
3321 Clear 3 1005 81 10000 6.93 266 18:42 25.01.2021
3322 Clear 3 1004 87 10000 2.57 280 18:22 25.01.2021
3323 Clear 3 1004 87 10000 2.57 270 17:43 25.01.2021
3324 Clear 3 1003 87 10000 2.06 250 17:24 25.01.2021
3325 Clouds 4 1002 81 10000 5.14 280 16:43 25.01.2021
3326 Clouds 4 1002 75 10000 5.66 280 16:24 25.01.2021
3327 Rain 4 1001 75 10000 8.75 280 15:54 25.01.2021
3328 Rain 4 1001 75 10000 8.75 280 15:34 25.01.2021
3329 Rain 5 1001 87 10000 8.23 270 14:53 25.01.2021
3330 Rain 5 1001 87 10000 8.75 270 14:20 25.01.2021
3331 Rain 6 1000 87 10000 12.35 280 13:56 25.01.2021
3332 Rain 6 1000 87 10000 12.35 280 13:36 25.01.2021
3333 Rain 9 997 87 10000 12.35 230 12:49 25.01.2021
3334 Rain 10 997 87 10000 3.6 110 12:25 25.01.2021
3335 Rain 10 997 93 10000 4.12 110 11:58 25.01.2021
3336 Clouds 10 998 82 10000 4.12 140 11:22 25.01.2021
3337 Clouds 11 998 71 10000 5.14 170 10:44 25.01.2021
3338 Clouds 11 998 71 10000 4.12 180 10:21 25.01.2021
3339 Clouds 11 998 76 10000 3.09 160 09:47 25.01.2021
3340 Clouds 11 999 76 10000 3.09 150 09:28 25.01.2021
3341 Clouds 11 999 82 10000 3.6 140 08:33 25.01.2021
3342 Clouds 10 1000 87 10000 3.6 160 07:46 25.01.2021
3343 Rain 10 1000 87 10000 4.12 170 07:27 25.01.2021
3344 Clouds 11 1000 76 10000 5.14 160 06:23 25.01.2021
3345 Clouds 9 1003 81 10000 5.14 90 01:35 25.01.2021
3346 Clouds 9 1004 76 10000 5.66 120 00:31 25.01.2021
3347 Clear 9 1005 76 10000 0.51 0 23:20 24.01.2021
3348 Clear 9 1006 71 10000 2.57 200 22:46 24.01.2021
3349 Clear 9 1005 71 10000 4.12 150 22:27 24.01.2021
3350 Clear 9 1005 71 10000 4.12 150 22:27 24.01.2021
3351 Clear 9 1005 71 10000 4.12 150 22:26 24.01.2021
3352 Clear 8 1006 71 10000 2.57 110 21:51 24.01.2021
3353 Clear 9 1006 66 10000 1.54 160 21:27 24.01.2021
3354 Clear 8 1006 76 10000 1.54 120 20:46 24.01.2021
3355 Clear 8 1006 76 10000 4.28 199 20:23 24.01.2021
3356 Clear 8 1006 71 10000 4.28 199 19:56 24.01.2021
3357 Clear 8 1006 71 10000 0.51 0 19:28 24.01.2021
3358 Clear 8 1006 71 10000 0.51 0 19:28 24.01.2021
3359 Clear 7 1006 93 10000 1.03 0 18:59 24.01.2021
3360 Clear 8 1006 93 10000 1.03 0 18:40 24.01.2021
3361 Clouds 7 1006 100 9000 2.79 220 18:21 24.01.2021
3362 Clear 8 1006 100 10000 0.51 0 17:51 24.01.2021
3363 Clear 9 1005 93 10000 2.06 120 17:31 24.01.2021
3364 Clear 10 1005 87 10000 2.57 120 16:59 24.01.2021
3365 Clear 10 1005 87 10000 2.57 120 16:40 24.01.2021
3366 Clouds 10 1005 87 10000 3.6 110 16:20 24.01.2021
3367 Clouds 11 1005 87 10000 3.6 110 15:45 24.01.2021
3368 Clouds 13 1005 82 10000 2.57 140 15:20 24.01.2021
3369 Clouds 13 1005 77 10000 1.03 0 14:45 24.01.2021
3370 Clouds 13 1005 76 10000 1.03 0 14:24 24.01.2021
3371 Clouds 13 1005 82 10000 0.51 0 13:34 24.01.2021
3372 Clouds 11 1005 93 10000 1.03 0 12:51 24.01.2021
3373 Clouds 10 1005 93 10000 2.57 290 12:22 24.01.2021
3374 Rain 10 1005 93 10000 4.12 280 11:54 24.01.2021
3375 Rain 10 1005 71 10000 4.63 230 11:25 24.01.2021
3376 Clouds 11 1005 71 10000 4.12 200 10:59 24.01.2021
3377 Clouds 11 1005 76 10000 5.14 200 10:30 24.01.2021
3378 Clouds 11 1005 82 10000 5.66 190 09:47 24.01.2021
3379 Clouds 10 1005 82 10000 5.14 190 09:19 24.01.2021
3380 Rain 10 1005 82 10000 3.09 190 08:37 24.01.2021
3381 Rain 9 1006 81 10000 2.06 100 03:50 24.01.2021
3382 Clouds 10 1006 76 10000 4.63 130 02:19 24.01.2021
3383 Clouds 10 1007 87 10000 4.63 90 00:39 24.01.2021
3384 Clouds 10 1007 87 10000 4.63 90 00:19 24.01.2021
3385 Clouds 10 1008 87 10000 3.09 110 23:33 23.01.2021
3386 Clouds 10 1008 81 10000 5.14 100 22:58 23.01.2021
3387 Clouds 10 1008 81 10000 5.14 100 22:40 23.01.2021
3388 Clear 11 1009 76 10000 4.12 90 21:59 23.01.2021
3389 Clouds 11 1009 76 10000 3.09 130 21:23 23.01.2021
3390 Clouds 11 1009 71 10000 3.09 90 20:53 23.01.2021
3391 Clouds 11 1009 71 10000 3.09 90 20:33 23.01.2021
3392 Clouds 12 1010 67 10000 3.09 160 19:56 23.01.2021
3393 Clouds 12 1010 67 10000 3.09 160 19:38 23.01.2021
3394 Clouds 12 1010 67 10000 3.6 200 19:20 23.01.2021
3395 Clouds 12 1010 67 10000 4.12 210 18:42 23.01.2021
3396 Clouds 12 1010 67 10000 3.09 180 18:20 23.01.2021
3397 Clear 12 1010 62 10000 3.6 200 17:36 23.01.2021
3398 Clouds 12 1010 62 10000 3.6 180 17:18 23.01.2021
3399 Clouds 13 1010 58 10000 4.12 190 16:42 23.01.2021
3400 Clouds 13 1010 62 10000 4.63 180 15:56 23.01.2021
3401 Clouds 14 1010 58 10000 4.12 210 15:29 23.01.2021
3402 Clouds 14 1010 58 10000 5.66 210 14:45 23.01.2021
3403 Clouds 14 1010 63 10000 6.17 210 14:24 23.01.2021
3404 Clouds 15 1010 63 10000 5.66 210 13:43 23.01.2021
3405 Clouds 15 1011 63 10000 8.23 220 13:24 23.01.2021
3406 Clouds 15 1011 59 10000 6.17 230 12:44 23.01.2021
3407 Clouds 16 1011 55 10000 10.29 210 12:24 23.01.2021
3408 Clouds 16 1011 59 10000 6.69 230 11:40 23.01.2021
3409 Clouds 15 1012 63 10000 4.12 220 10:58 23.01.2021
3410 Clouds 14 1012 72 10000 1.03 0 10:26 23.01.2021
3411 Clouds 14 1013 76 10000 1.03 0 09:53 23.01.2021
3412 Clouds 12 1013 76 10000 2.57 150 09:28 23.01.2021
3413 Clouds 12 1013 82 10000 0.51 0 08:43 23.01.2021
3414 Clear 8 1013 93 10000 1.54 90 07:48 23.01.2021
3415 Clear 6 1013 93 10000 2.06 110 06:50 23.01.2021
3416 Clear 6 1014 93 10000 2.57 350 02:30 23.01.2021
3417 Clear 6 1015 93 10000 3.91 223 00:32 23.01.2021
3418 Clear 7 1015 93 10000 2.57 120 23:36 22.01.2021
3419 Clear 8 1015 76 10000 3.32 235 22:44 22.01.2021
3420 Clear 8 1015 81 10000 1.03 0 22:20 22.01.2021
3421 Clear 7 1015 87 10000 3.42 232 21:39 22.01.2021
3422 Clear 8 1015 93 10000 3.51 219 21:21 22.01.2021
3423 Clear 8 1015 93 10000 2.06 90 20:46 22.01.2021
3424 Clear 7 1016 93 10000 0.51 0 20:26 22.01.2021
3425 Clear 7 1016 81 10000 1.54 10 19:47 22.01.2021
3426 Clear 7 1016 87 10000 3.31 203 19:19 22.01.2021
3427 Clear 7 1016 87 10000 1.54 50 18:45 22.01.2021
3428 Clear 8 1016 81 10000 2.06 30 18:26 22.01.2021
3429 Clear 9 1016 76 10000 1.54 60 17:48 22.01.2021
3430 Clear 9 1016 76 10000 1.54 100 17:29 22.01.2021
3431 Clouds 9 1016 66 10000 1.03 10 16:54 22.01.2021
3432 Clouds 11 1016 58 10000 1.54 280 16:30 22.01.2021
3433 Clear 11 1016 62 10000 2.57 310 15:45 22.01.2021
3434 Clear 11 1016 62 10000 3.09 270 15:20 22.01.2021
3435 Clear 11 1016 62 10000 3.09 240 14:31 22.01.2021
3436 Clear 11 1017 58 10000 2.06 330 13:52 22.01.2021
3437 Clear 11 1017 58 10000 2.06 330 13:32 22.01.2021
3438 Clear 10 1017 62 10000 2.06 310 12:55 22.01.2021
3439 Clear 10 1018 58 10000 3.09 300 12:26 22.01.2021
3440 Clear 10 1018 58 10000 2.57 270 11:48 22.01.2021
3441 Clear 9 1019 57 10000 1.03 0 11:30 22.01.2021
3442 Clear 9 1019 57 10000 2.57 280 10:46 22.01.2021
3443 Clear 9 1019 57 10000 2.57 300 10:22 22.01.2021
3444 Clear 9 1019 57 10000 1.54 300 09:39 22.01.2021
3445 Clear 7 1020 61 10000 1.54 330 08:51 22.01.2021
3446 Clear 5 1020 75 10000 1.54 350 08:30 22.01.2021
3447 Clear 3 1020 75 10000 1.54 320 07:40 22.01.2021
3448 Clear 4 1020 70 10000 2.57 360 03:41 22.01.2021
3449 Clear 3 1021 80 10000 1.03 0 00:54 22.01.2021
3450 Clear 3 1021 75 10000 1.03 320 23:56 21.01.2021
3451 Clear 3 1021 75 10000 1.03 320 23:38 21.01.2021
3452 Clear 3 1022 75 10000 1.54 20 22:57 21.01.2021
3453 Clear 3 1022 70 10000 1.54 70 22:38 21.01.2021
3454 Clear 3 1022 75 10000 2.08 251 21:44 21.01.2021
3455 Clear 3 1022 75 10000 1.03 0 21:22 21.01.2021
3456 Clear 4 1022 70 10000 2.57 360 20:55 21.01.2021
3457 Clear 4 1022 70 10000 2.57 360 20:36 21.01.2021
3458 Clear 4 1022 60 10000 3.09 360 20:18 21.01.2021
3459 Clear 5 1022 60 10000 3.09 360 19:44 21.01.2021
3460 Clear 4 1022 65 10000 2.57 10 19:23 21.01.2021
3461 Clear 5 1022 60 10000 3.09 350 18:41 21.01.2021
3462 Clear 5 1022 65 10000 2.06 20 18:21 21.01.2021
3463 Clear 5 1022 60 10000 1.54 10 17:57 21.01.2021
3464 Clear 7 1022 53 10000 2.06 310 17:21 21.01.2021
3465 Clear 7 1022 53 10000 2.57 310 16:54 21.01.2021
3466 Clear 7 1022 53 10000 2.57 310 16:36 21.01.2021
3467 Clear 9 1021 46 10000 3.09 250 16:18 21.01.2021
3468 Clear 10 1021 43 10000 2.06 220 15:39 21.01.2021
3469 Clear 10 1021 43 10000 2.06 220 15:21 21.01.2021
3470 Clear 11 1021 40 10000 3.6 220 14:37 21.01.2021
3471 Clear 11 1021 40 10000 5.66 220 13:52 21.01.2021
3472 Clear 11 1021 40 10000 5.66 220 13:52 21.01.2021
3473 Clear 11 1021 40 10000 5.66 220 13:33 21.01.2021
3474 Clear 11 1021 40 10000 4.12 250 12:58 21.01.2021
3475 Clear 11 1021 40 10000 4.12 250 12:39 21.01.2021
3476 Clear 10 1022 43 10000 2.57 240 12:21 21.01.2021
3477 Clear 10 1023 43 10000 2.57 270 11:48 21.01.2021
3478 Clear 10 1023 43 10000 2.06 270 11:25 21.01.2021
3479 Clear 9 1023 46 10000 3.6 290 10:51 21.01.2021
3480 Clear 8 1024 49 10000 4.12 280 10:30 21.01.2021
3481 Clear 8 1024 49 10000 3.09 300 09:44 21.01.2021
3482 Clear 7 1024 53 10000 3.09 320 09:25 21.01.2021
3483 Clear 6 1024 56 10000 2.57 310 08:44 21.01.2021
3484 Clear 4 1024 80 10000 1.03 0 08:23 21.01.2021
3485 Clear 1 1023 86 10000 1.87 253 07:27 21.01.2021
3486 Clear 1 1023 86 10000 1.87 253 06:53 21.01.2021
3487 Clear 1 1023 93 10000 0.51 0 05:20 21.01.2021
3488 Clear 2 1023 75 10000 1.03 0 02:27 21.01.2021
3489 Clear 2 1023 69 10000 1.54 280 00:47 21.01.2021
3490 Clear 2 1023 69 10000 3.41 260 23:53 20.01.2021
3491 Clear 1 1023 69 10000 3.41 260 23:32 20.01.2021
3492 Clear 2 1023 60 10000 1.54 270 22:58 20.01.2021
3493 Clear 2 1022 64 10000 1.03 0 22:36 20.01.2021
3494 Clear 2 1022 60 10000 2.06 300 21:56 20.01.2021
3495 Clear 2 1022 60 10000 2.06 300 21:24 20.01.2021
3496 Clear 2 1022 60 10000 0.51 0 20:58 20.01.2021
3497 Clear 2 1022 60 10000 0.51 0 20:38 20.01.2021
3498 Clear 3 1022 56 10000 1.54 310 20:18 20.01.2021
3499 Clear 2 1022 60 10000 3.6 310 19:41 20.01.2021
3500 Clear 2 1022 60 10000 2.06 310 19:22 20.01.2021
3501 Clear 3 1022 56 10000 2.57 290 18:42 20.01.2021
3502 Clear 3 1022 56 10000 1.03 0 17:57 20.01.2021
3503 Clear 3 1022 56 10000 1.03 0 17:39 20.01.2021
3504 Clear 4 1022 52 10000 2.57 200 16:57 20.01.2021
3505 Clear 5 1022 52 10000 2.57 200 16:38 20.01.2021
3506 Clear 6 1021 49 10000 3.18 213 15:52 20.01.2021
3507 Clear 6 1021 49 10000 1.03 0 15:34 20.01.2021
3508 Clear 6 1021 49 10000 1.54 280 14:50 20.01.2021
3509 Clear 6 1021 49 10000 2.06 250 14:23 20.01.2021
3510 Clear 7 1021 45 10000 3.09 230 13:42 20.01.2021
3511 Clear 7 1021 45 10000 3.09 240 13:24 20.01.2021
3512 Clear 6 1022 49 10000 3.6 250 12:39 20.01.2021
3513 Clear 5 1022 45 10000 4.12 260 11:57 20.01.2021
3514 Clear 4 1022 48 10000 4.12 280 11:37 20.01.2021
3515 Clear 4 1023 56 10000 3.09 300 10:56 20.01.2021
3516 Clear 4 1023 60 10000 3.09 280 10:32 20.01.2021
3517 Clear 2 1023 64 10000 2.57 300 09:54 20.01.2021
3518 Clear 1 1023 69 10000 3.6 290 09:26 20.01.2021
3519 Clear 0 1023 74 10000 3.6 300 08:55 20.01.2021
3520 Clear 0 1023 80 10000 3.09 300 08:29 20.01.2021
3521 Clear -1 1023 80 10000 3.09 300 07:56 20.01.2021
3522 Clear -1 1023 80 10000 3.6 300 07:25 20.01.2021
3523 Clear -1 1023 80 10000 3.6 300 07:25 20.01.2021
3524 Clouds -3 1022 86 9000 1.54 300 05:51 20.01.2021
3525 Clear -4 1022 93 10000 1.54 300 03:28 20.01.2021
3526 Clear -4 1022 93 10000 1.54 320 01:18 20.01.2021
3527 Clear -4 1022 86 10000 1.54 310 00:45 20.01.2021
3528 Clear -4 1023 86 10000 2.57 310 23:48 19.01.2021
3529 Clear -4 1023 80 10000 1.54 290 23:20 19.01.2021
3530 Clear -4 1023 86 10000 3.09 310 22:43 19.01.2021
3531 Clear -4 1023 80 10000 2.57 300 22:22 19.01.2021
3532 Clear -4 1023 80 10000 1.54 280 21:59 19.01.2021
3533 Clear -4 1023 80 10000 2.57 290 21:41 19.01.2021
3534 Clear -4 1023 80 10000 2.57 290 21:22 19.01.2021
3535 Clear -4 1023 74 10000 3.09 290 20:43 19.01.2021
3536 Clear -4 1023 74 10000 2.57 300 20:22 19.01.2021
3537 Clear -4 1023 80 10000 3.6 300 19:42 19.01.2021
3538 Clear -4 1023 80 10000 3.6 300 19:42 19.01.2021
3539 Clear -4 1023 80 10000 3.6 300 19:42 19.01.2021
3540 Clear -4 1023 80 10000 2.06 280 19:23 19.01.2021
3541 Clear -4 1023 74 10000 3.09 290 18:43 19.01.2021
3542 Clear -3 1023 74 10000 2.57 290 18:25 19.01.2021
3543 Clear -3 1023 74 10000 4.12 300 17:45 19.01.2021
3544 Clear -3 1023 68 10000 2.57 270 17:24 19.01.2021
3545 Clear -2 1023 69 10000 3.6 280 16:48 19.01.2021
3546 Clear -1 1023 64 10000 4.63 280 16:25 19.01.2021
3547 Clear 0 1023 64 10000 6.69 280 15:57 19.01.2021
3548 Clouds 0 1023 55 10000 8.23 270 15:35 19.01.2021
3549 Clouds 1 1022 47 10000 8.75 270 14:51 19.01.2021
3550 Clouds 1 1022 47 10000 8.75 260 14:31 19.01.2021
3551 Clouds 1 1022 47 10000 8.75 260 13:56 19.01.2021
3552 Clouds 0 1022 51 10000 8.75 270 13:37 19.01.2021
3553 Clouds 1 1022 51 10000 8.75 270 13:19 19.01.2021
3554 Clouds 0 1023 47 10000 6.17 280 12:36 19.01.2021
3555 Clouds 0 1023 47 10000 6.17 280 12:36 19.01.2021
3556 Clouds 0 1023 47 10000 6.17 280 12:18 19.01.2021
3557 Clouds 0 1023 51 10000 4.63 270 11:43 19.01.2021
3558 Clear -1 1024 64 10000 5.14 270 11:22 19.01.2021
3559 Clear -2 1024 64 10000 4.12 280 10:50 19.01.2021
3560 Clear -3 1025 69 10000 5.14 290 10:29 19.01.2021
3561 Clear -3 1025 64 10000 5.14 300 09:51 19.01.2021
3562 Clear -4 1024 68 10000 4.63 280 09:20 19.01.2021
3563 Clear -5 1024 80 10000 1.54 300 08:35 19.01.2021
3564 Clear -6 1024 79 10000 3.6 300 07:53 19.01.2021
3565 Clear -7 1024 86 10000 3.6 310 07:19 19.01.2021
3566 Clear -7 1023 79 10000 4.12 300 04:49 19.01.2021
3567 Clear -6 1023 79 10000 3.6 290 02:23 19.01.2021
3568 Clear -5 1023 80 10000 5.66 290 00:41 19.01.2021
3569 Clouds -5 1023 80 10000 2.57 280 23:55 18.01.2021
3570 Clouds -5 1023 74 10000 3.6 280 23:27 18.01.2021
3571 Clouds -5 1023 80 10000 3.09 260 22:44 18.01.2021
3572 Clouds -5 1023 80 10000 2.57 280 22:22 18.01.2021
3573 Clouds -5 1022 80 10000 3.6 290 21:47 18.01.2021
3574 Clouds -5 1022 74 10000 3.6 310 21:23 18.01.2021
3575 Clear -4 1022 74 10000 3.09 300 20:57 18.01.2021
3576 Clear -4 1022 74 10000 3.09 300 20:34 18.01.2021
3577 Clouds -4 1022 74 10000 3.6 280 19:54 18.01.2021
3578 Clouds -4 1022 74 10000 3.6 280 19:35 18.01.2021
3579 Clouds -4 1022 68 10000 3.09 260 18:48 18.01.2021
3580 Clouds -4 1022 68 10000 3.6 260 18:27 18.01.2021
3581 Clouds -3 1021 68 10000 4.63 280 17:47 18.01.2021
3582 Clouds -3 1021 64 10000 5.14 270 17:29 18.01.2021
3583 Clouds -2 1021 64 10000 6.17 270 16:51 18.01.2021
3584 Clouds -2 1021 64 10000 8.75 280 16:27 18.01.2021
3585 Clouds -2 1020 59 10000 7.2 280 15:54 18.01.2021
3586 Clouds -2 1020 59 10000 9.26 290 15:29 18.01.2021
3587 Clouds -1 1020 59 10000 8.75 280 14:58 18.01.2021
3588 Clouds -1 1020 51 10000 9.77 270 14:38 18.01.2021
3589 Clouds -1 1020 51 10000 9.77 270 14:20 18.01.2021
3590 Clouds 0 1020 51 10000 9.77 280 13:44 18.01.2021
3591 Clouds 0 1019 51 10000 11.32 280 13:20 18.01.2021
3592 Clouds -1 1019 59 10000 8.23 270 12:46 18.01.2021
3593 Clouds 0 1019 59 10000 7.72 260 12:19 18.01.2021
3594 Clouds -1 1020 55 10000 8.23 260 11:46 18.01.2021
3595 Clouds -1 1020 64 10000 9.26 260 11:25 18.01.2021
3596 Clouds -1 1021 69 10000 8.23 260 10:47 18.01.2021
3597 Clouds -1 1021 69 10000 8.23 260 10:47 18.01.2021
3598 Clear -2 1021 64 10000 8.23 270 10:26 18.01.2021
3599 Clear -4 1021 74 10000 5.66 260 09:39 18.01.2021
3600 Clear -4 1021 74 10000 5.66 260 09:18 18.01.2021
3601 Clear -5 1020 74 10000 4.12 260 08:26 18.01.2021
3602 Clear -6 1020 79 10000 1.54 330 07:54 18.01.2021
3603 Clear -7 1020 86 10000 4.12 260 06:35 18.01.2021
3604 Clear -6 1019 74 10000 3.6 230 04:43 18.01.2021
3605 Clear -6 1019 74 10000 4.12 220 04:24 18.01.2021
3606 Clear -5 1019 74 10000 4.63 240 03:47 18.01.2021
3607 Clear -5 1019 74 10000 4.63 250 03:26 18.01.2021
3608 Clear -5 1019 74 10000 4.12 250 02:54 18.01.2021
3609 Clear -6 1019 80 10000 3.09 270 02:19 18.01.2021
3610 Clear -6 1018 79 10000 3.09 290 00:41 18.01.2021
3611 Clear -6 1018 79 10000 2.57 280 23:51 17.01.2021
3612 Clear -6 1018 79 10000 2.06 250 23:25 17.01.2021
3613 Clear -6 1018 74 10000 2.57 280 22:50 17.01.2021
3614 Clear -5 1018 68 10000 3.09 310 22:22 17.01.2021
3615 Clear -5 1018 68 10000 3.09 310 22:22 17.01.2021
3616 Clear -6 1018 80 10000 4.12 320 21:43 17.01.2021
3617 Clear -6 1018 80 10000 4.12 320 21:24 17.01.2021
3618 Clear -6 1018 80 10000 5.14 330 20:51 17.01.2021
3619 Clear -6 1017 80 10000 5.66 330 20:32 17.01.2021
3620 Clouds -6 1017 80 10000 5.14 330 19:52 17.01.2021
3621 Clear -6 1017 80 10000 4.12 320 19:31 17.01.2021
3622 Clear -5 1017 68 10000 4.63 310 18:53 17.01.2021
3623 Clear -5 1017 68 10000 4.63 320 18:28 17.01.2021
3624 Clear -5 1016 68 10000 3.6 320 17:50 17.01.2021
3625 Clear -5 1016 68 10000 4.12 330 17:28 17.01.2021
3626 Clear -5 1016 63 10000 5.14 320 16:45 17.01.2021
3627 Clear -5 1016 63 10000 5.14 320 16:25 17.01.2021
3628 Clear -4 1015 63 10000 6.69 310 15:45 17.01.2021
3629 Clear -4 1015 63 10000 6.69 310 15:45 17.01.2021
3630 Clear -4 1015 63 10000 6.69 310 15:45 17.01.2021
3631 Clouds -4 1015 59 10000 7.2 310 15:26 17.01.2021
3632 Clouds -3 1015 59 10000 7.2 310 14:55 17.01.2021
3633 Clouds -3 1015 59 10000 6.17 310 14:27 17.01.2021
3634 Clouds -3 1015 59 10000 5.66 320 13:58 17.01.2021
3635 Clouds -3 1015 59 10000 6.17 340 13:40 17.01.2021
3636 Clouds -3 1015 59 10000 6.17 340 13:21 17.01.2021
3637 Clear -3 1015 54 10000 6.17 340 12:41 17.01.2021
3638 Clear -3 1015 54 10000 6.17 340 12:22 17.01.2021
3639 Clear -2 1015 54 10000 6.69 320 11:25 17.01.2021
3640 Clear -3 1015 59 10000 5.66 330 10:51 17.01.2021
3641 Clear -4 1015 63 10000 4.12 330 10:24 17.01.2021
3642 Clear -5 1016 63 10000 3.6 300 09:48 17.01.2021
3643 Clear -6 1016 79 10000 4.12 300 08:49 17.01.2021
3644 Clear -7 1016 79 10000 4.12 280 08:26 17.01.2021
3645 Clear -6 1014 68 10000 4.12 270 04:29 17.01.2021
3646 Clouds -6 1013 74 10000 3.09 270 02:50 17.01.2021
3647 Clear -5 1013 74 10000 2.57 0 00:54 17.01.2021
3648 Clouds -5 1013 80 10000 2.06 0 00:21 17.01.2021
3649 Clouds -4 1013 74 10000 2.06 0 23:52 16.01.2021
3650 Clouds -4 1013 80 10000 4.12 310 23:21 16.01.2021
3651 Clouds -3 1013 86 10000 5.14 300 22:52 16.01.2021
3652 Clouds -3 1013 80 10000 5.66 330 22:18 16.01.2021
3653 Clouds -3 1013 86 10000 5.66 330 21:43 16.01.2021
3654 Clouds -3 1013 86 10000 6.17 320 21:22 16.01.2021
3655 Clouds -2 1013 86 10000 5.66 330 20:47 16.01.2021
3656 Clouds -2 1013 80 10000 5.66 310 20:23 16.01.2021
3657 Clouds -2 1013 80 10000 4.12 340 19:48 16.01.2021
3658 Clouds -2 1013 80 10000 5.66 350 19:29 16.01.2021
3659 Clouds -2 1012 80 10000 5.14 350 18:45 16.01.2021
3660 Clouds -1 1012 80 10000 4.63 330 18:26 16.01.2021
3661 Clear -1 1012 80 10000 4.63 330 17:50 16.01.2021
3662 Clouds -1 1012 80 10000 5.14 330 17:30 16.01.2021
3663 Clear 0 1012 74 10000 5.14 320 16:50 16.01.2021
3664 Clear 0 1012 74 10000 4.12 320 16:31 16.01.2021
3665 Clear 0 1011 75 10000 3.6 320 15:54 16.01.2021
3666 Clouds 0 1012 69 10000 5.66 320 15:33 16.01.2021
3667 Clouds 1 1011 64 10000 6.69 310 14:30 16.01.2021
3668 Clouds 1 1011 64 10000 6.69 310 14:30 16.01.2021
3669 Clouds 1 1011 64 10000 6.69 310 14:30 16.01.2021
3670 Clouds 1 1011 64 10000 6.17 320 13:50 16.01.2021
3671 Clouds 2 1012 56 10000 6.17 310 13:29 16.01.2021
3672 Clouds 2 1012 60 10000 6.17 310 12:46 16.01.2021
3673 Clouds 2 1012 64 10000 5.66 300 12:21 16.01.2021
3674 Clouds 2 1013 69 10000 4.12 300 11:52 16.01.2021
3675 Clouds 2 1013 75 10000 4.12 270 11:25 16.01.2021
3676 Snow 1 1014 80 10000 3.09 250 10:50 16.01.2021
3677 Clouds 1 1014 80 10000 1.54 230 10:28 16.01.2021
3678 Clouds 1 1014 80 10000 1.03 210 09:40 16.01.2021
3679 Clouds 0 1014 80 10000 1.03 210 09:19 16.01.2021
3680 Clouds -1 1014 86 10000 3.43 315 07:51 16.01.2021
3681 Clear -1 1014 86 10000 2.06 160 06:44 16.01.2021
3682 Clear -2 1014 86 10000 1.54 250 04:40 16.01.2021
3683 Clear -2 1015 86 10000 1.03 350 02:56 16.01.2021
3684 Clear -3 1015 86 10000 2.22 308 01:44 16.01.2021
3685 Clear -2 1015 93 10000 1.03 320 00:38 16.01.2021
3686 Clear -2 1016 93 10000 1.54 300 00:19 16.01.2021
3687 Clear -3 1016 93 10000 1.54 330 23:24 15.01.2021
3688 Clear -2 1016 86 10000 1.54 320 22:26 15.01.2021
3689 Clear -2 1016 86 10000 1.54 350 21:47 15.01.2021
3690 Clear -2 1016 86 10000 2.06 330 21:22 15.01.2021
3691 Clear -2 1016 86 10000 2.06 10 20:42 15.01.2021
3692 Clear -2 1016 80 10000 2.06 350 20:22 15.01.2021
3693 Clear -1 1016 86 10000 1.03 0 19:41 15.01.2021
3694 Clear -1 1016 86 10000 1.03 0 19:23 15.01.2021
3695 Clear -1 1016 80 10000 1.54 350 18:44 15.01.2021
3696 Clear -1 1016 80 10000 1.54 350 18:44 15.01.2021
3697 Clear -1 1016 74 10000 3.35 296 18:19 15.01.2021
3698 Clear 0 1016 80 10000 1.03 260 17:52 15.01.2021
3699 Clear 0 1015 80 10000 2.57 270 17:26 15.01.2021
3700 Clear 1 1015 69 10000 4.63 280 16:55 15.01.2021
3701 Clear 1 1015 69 10000 4.63 290 16:26 15.01.2021
3702 Clear 2 1015 60 10000 6.17 280 15:44 15.01.2021
3703 Clear 2 1014 56 10000 6.17 290 15:23 15.01.2021
3704 Clear 3 1014 52 10000 7.2 280 14:56 15.01.2021
3705 Clear 3 1014 56 10000 6.69 270 14:37 15.01.2021
3706 Clear 3 1014 56 10000 6.69 270 14:18 15.01.2021
3707 Clear 4 1014 60 10000 7.2 270 13:40 15.01.2021
3708 Clear 4 1014 56 10000 5.66 280 13:19 15.01.2021
3709 Clear 3 1014 60 10000 5.66 270 12:37 15.01.2021
3710 Clear 3 1014 60 10000 5.66 270 12:19 15.01.2021
3711 Clear 3 1014 65 10000 5.66 280 11:42 15.01.2021
3712 Clear 3 1014 70 10000 5.66 270 10:59 15.01.2021
3713 Clear 3 1014 70 10000 5.66 270 10:41 15.01.2021
3714 Clear 2 1014 70 10000 4.63 240 10:21 15.01.2021
3715 Clear 1 1014 69 10000 5.66 280 09:47 15.01.2021
3716 Clear 0 1013 75 10000 5.66 300 09:27 15.01.2021
3717 Clouds -1 1013 80 10000 5.14 260 08:27 15.01.2021
3718 Clear -1 1012 86 10000 4.63 280 07:44 15.01.2021
3719 Clouds -2 1012 86 10000 5.66 290 07:22 15.01.2021
3720 Clouds -1 1011 80 10000 4.63 290 06:28 15.01.2021
3721 Clouds 0 1009 100 6000 3.09 270 02:28 15.01.2021
3722 Snow 0 1009 93 4200 2.57 240 00:37 15.01.2021
3723 Snow 0 1008 86 10000 2.57 290 23:30 14.01.2021
3724 Snow 0 1009 86 10000 2.06 320 22:52 14.01.2021
3725 Snow 0 1008 80 10000 2.06 310 22:28 14.01.2021
3726 Rain 0 1008 86 10000 3.04 277 21:58 14.01.2021
3727 Clouds 0 1008 86 10000 1.03 290 21:39 14.01.2021
3728 Clouds 0 1008 86 10000 1.03 290 21:20 14.01.2021
3729 Clouds 0 1008 86 10000 1.54 360 20:43 14.01.2021
3730 Clear 0 1008 80 10000 1.54 60 19:57 14.01.2021
3731 Clouds 0 1008 80 10000 2.75 288 19:36 14.01.2021
3732 Clouds 0 1008 80 10000 1.54 220 18:58 14.01.2021
3733 Clouds 0 1008 75 10000 1.54 280 18:39 14.01.2021
3734 Clear 1 1008 75 10000 2.06 310 17:57 14.01.2021
3735 Clear 1 1007 75 10000 3.09 320 17:30 14.01.2021
3736 Clouds 1 1007 75 10000 2.57 310 16:54 14.01.2021
3737 Clouds 1 1007 75 10000 2.57 310 16:31 14.01.2021
3738 Clouds 2 1007 65 10000 3.6 270 15:54 14.01.2021
3739 Clouds 2 1007 56 10000 4.63 270 15:30 14.01.2021
3740 Clouds 3 1006 60 10000 4.63 260 14:44 14.01.2021
3741 Clouds 3 1006 56 10000 4.63 270 14:24 14.01.2021
3742 Clouds 3 1006 60 10000 6.17 280 13:55 14.01.2021
3743 Clouds 4 1007 60 10000 6.69 290 13:24 14.01.2021
3744 Clouds 4 1007 60 10000 6.69 280 12:56 14.01.2021
3745 Clouds 4 1008 60 10000 6.69 280 12:21 14.01.2021
3746 Clouds 4 1008 65 10000 6.17 280 11:55 14.01.2021
3747 Clouds 3 1009 65 10000 6.17 270 11:28 14.01.2021
3748 Clouds 3 1009 70 10000 5.66 260 10:58 14.01.2021
3749 Clouds 3 1009 70 10000 5.66 260 10:40 14.01.2021
3750 Clouds 3 1009 70 10000 5.66 260 10:40 14.01.2021
3751 Clouds 2 1009 75 10000 6.17 260 10:18 14.01.2021
3752 Clear 1 1009 69 10000 5.66 250 09:42 14.01.2021
3753 Clear 0 1009 75 10000 5.14 260 09:20 14.01.2021
3754 Clouds 0 1009 80 10000 2.57 220 08:30 14.01.2021
3755 Clouds -1 1009 80 10000 4.12 250 07:57 14.01.2021
3756 Clouds -1 1009 80 10000 4.12 250 07:30 14.01.2021
3757 Clear -1 1009 86 10000 5.14 300 06:33 14.01.2021
3758 Clouds 0 1009 80 10000 4.63 290 04:56 14.01.2021
3759 Clouds 1 1008 80 10000 7.2 280 23:59 13.01.2021
3760 Clouds 1 1008 75 10000 8.75 280 23:27 13.01.2021
3761 Clouds 1 1009 80 10000 7.72 280 22:48 13.01.2021
3762 Clouds 1 1008 75 10000 9.77 280 22:20 13.01.2021
3763 Clouds 1 1008 75 10000 9.77 280 22:20 13.01.2021
3764 Clouds 1 1008 80 10000 6.69 270 21:43 13.01.2021
3765 Clouds 2 1008 75 10000 8.23 270 21:20 13.01.2021
3766 Clouds 2 1008 81 10000 7.72 280 20:48 13.01.2021
3767 Clouds 2 1008 81 10000 7.72 280 20:22 13.01.2021
3768 Clouds 2 1008 81 10000 7.2 280 19:47 13.01.2021
3769 Clouds 2 1008 81 10000 6.69 280 19:23 13.01.2021
3770 Clouds 2 1008 81 10000 7.2 290 18:45 13.01.2021
3771 Clouds 2 1008 81 10000 6.69 290 18:23 13.01.2021
3772 Clouds 2 1008 81 10000 6.69 290 17:41 13.01.2021
3773 Clouds 2 1007 81 10000 6.69 290 17:18 13.01.2021
3774 Clouds 2 1007 81 10000 7.2 290 16:42 13.01.2021
3775 Clouds 2 1007 81 10000 6.69 300 16:21 13.01.2021
3776 Clouds 3 1007 81 10000 8.23 290 15:41 13.01.2021
3777 Clouds 3 1007 81 10000 8.75 290 15:20 13.01.2021
3778 Clouds 3 1006 87 10000 8.23 270 14:28 13.01.2021
3779 Clouds 3 1006 81 10000 6.17 270 13:46 13.01.2021
3780 Clouds 3 1006 87 10000 6.17 270 13:21 13.01.2021
3781 Clouds 3 1006 81 10000 6.17 260 12:45 13.01.2021
3782 Clouds 3 1006 93 10000 5.66 250 12:24 13.01.2021
3783 Clouds 2 1007 87 10000 4.63 250 11:50 13.01.2021
3784 Clouds 2 1007 87 10000 6.17 270 11:32 13.01.2021
3785 Clouds 2 1007 81 10000 5.66 290 10:48 13.01.2021
3786 Clouds 2 1007 87 10000 6.17 290 10:27 13.01.2021
3787 Clouds 1 1007 87 10000 4.63 290 09:40 13.01.2021
3788 Clouds 1 1007 87 10000 4.12 290 08:59 13.01.2021
3789 Snow 1 1007 87 10000 4.63 290 08:40 13.01.2021
3790 Snow 1 1007 87 10000 4.63 290 08:20 13.01.2021
3791 Rain 1 1006 93 10000 4.63 290 07:28 13.01.2021
3792 Snow 1 1006 93 10000 6.17 290 05:52 13.01.2021
3793 Rain 1 1006 87 10000 6.69 300 04:18 13.01.2021
3794 Rain 1 1005 87 10000 6.17 300 03:43 13.01.2021
3795 Rain 1 1006 87 10000 6.17 290 03:21 13.01.2021
3796 Rain 2 1005 93 8000 5.14 270 00:47 13.01.2021
3797 Clouds 2 1005 87 10000 5.14 280 23:40 12.01.2021
3798 Clouds 2 1006 93 8000 4.63 280 22:57 12.01.2021
3799 Clouds 2 1006 93 10000 6.17 270 22:36 12.01.2021
3800 Rain 2 1006 93 10000 6.17 270 22:18 12.01.2021
3801 Clouds 3 1006 100 8000 4.63 290 21:42 12.01.2021
3802 Rain 3 1006 100 8000 7.2 260 21:23 12.01.2021
3803 Rain 4 1005 100 6000 5.14 270 20:46 12.01.2021
3804 Mist 4 1005 100 3700 4.63 310 20:26 12.01.2021
3805 Mist 4 1005 100 3700 4.63 310 20:26 12.01.2021
3806 Drizzle 4 1006 100 3500 7.2 250 19:43 12.01.2021
3807 Drizzle 5 1006 100 2700 5.14 270 18:54 12.01.2021
3808 Drizzle 7 1006 93 9000 2.57 280 18:26 12.01.2021
3809 Clouds 7 1004 93 10000 5.66 60 17:58 12.01.2021
3810 Clouds 7 1005 93 10000 5.66 70 17:33 12.01.2021
3811 Rain 7 1006 93 10000 0.51 0 16:45 12.01.2021
3812 Rain 7 1006 93 10000 1.54 140 16:27 12.01.2021
3813 Rain 7 1007 93 10000 2.57 50 15:50 12.01.2021
3814 Rain 7 1007 93 7000 1.03 0 15:27 12.01.2021
3815 Rain 7 1008 93 8000 1.54 90 14:50 12.01.2021
3816 Rain 7 1007 93 6000 1.03 0 14:30 12.01.2021
3817 Rain 7 1008 93 10000 1.03 0 13:56 12.01.2021
3818 Rain 7 1008 93 10000 1.03 0 13:37 12.01.2021
3819 Rain 7 1009 93 10000 4.12 50 12:38 12.01.2021
3820 Rain 7 1010 93 10000 4.12 60 11:45 12.01.2021
3821 Rain 7 1010 93 10000 4.12 60 11:45 12.01.2021
3822 Rain 7 1010 93 10000 3.6 100 11:27 12.01.2021
3823 Rain 7 1010 87 10000 5.66 110 10:44 12.01.2021
3824 Rain 7 1012 93 10000 3.6 110 10:20 12.01.2021
3825 Rain 7 1013 87 10000 5.14 90 09:52 12.01.2021
3826 Rain 7 1013 87 10000 4.63 90 09:23 12.01.2021
3827 Rain 6 1014 93 10000 5.14 90 08:27 12.01.2021
3828 Rain 6 1014 93 10000 4.12 90 07:52 12.01.2021
3829 Rain 6 1013 93 10000 5.14 80 07:32 12.01.2021
3830 Rain 6 1014 93 10000 6.17 90 05:45 12.01.2021
3831 Rain 6 1015 93 10000 4.63 80 03:46 12.01.2021
3832 Rain 6 1015 93 8000 5.14 70 03:22 12.01.2021
3833 Rain 6 1017 93 10000 4.12 80 01:51 12.01.2021
3834 Clouds 6 1017 93 10000 4.12 70 00:33 12.01.2021
3835 Clouds 6 1017 93 10000 5.66 90 23:41 11.01.2021
3836 Clouds 6 1017 93 8000 6.17 90 23:20 11.01.2021
3837 Clouds 6 1017 93 10000 4.63 70 22:46 11.01.2021
3838 Clouds 6 1018 93 10000 3.09 80 22:27 11.01.2021
3839 Clouds 6 1017 93 8000 3.6 70 21:46 11.01.2021
3840 Clouds 6 1018 93 10000 4.12 90 21:25 11.01.2021
3841 Clouds 6 1018 93 10000 3.6 60 20:58 11.01.2021
3842 Clouds 6 1017 93 10000 4.63 80 20:37 11.01.2021
3843 Clouds 6 1017 93 10000 4.63 80 20:19 11.01.2021
3844 Clouds 6 1018 93 10000 4.12 90 19:42 11.01.2021
3845 Clouds 6 1017 93 10000 5.66 80 19:21 11.01.2021
3846 Clouds 6 1017 93 10000 5.66 80 18:42 11.01.2021
3847 Clouds 6 1017 93 7000 5.66 80 18:23 11.01.2021
3848 Clouds 6 1017 93 10000 5.14 90 17:42 11.01.2021
3849 Clouds 6 1016 87 10000 5.14 90 17:24 11.01.2021
3850 Clouds 6 1016 87 10000 5.66 80 16:48 11.01.2021
3851 Clouds 6 1016 87 10000 4.12 80 16:29 11.01.2021
3852 Clouds 6 1017 87 10000 4.63 90 15:54 11.01.2021
3853 Clouds 6 1016 93 8000 5.14 100 15:34 11.01.2021
3854 Clouds 6 1016 87 10000 5.14 80 14:51 11.01.2021
3855 Rain 6 1016 87 10000 5.14 80 14:32 11.01.2021
3856 Clouds 6 1016 93 10000 5.14 90 13:45 11.01.2021
3857 Clouds 6 1015 93 10000 4.63 100 13:22 11.01.2021
3858 Clouds 6 1015 93 10000 4.63 90 12:42 11.01.2021
3859 Clouds 6 1015 93 9000 5.14 100 12:24 11.01.2021
3860 Clouds 6 1016 93 10000 6.17 90 11:45 11.01.2021
3861 Clouds 6 1015 93 10000 7.2 100 10:58 11.01.2021
3862 Clouds 6 1015 93 10000 8.75 90 10:38 11.01.2021
3863 Rain 6 1015 93 10000 7.2 80 09:54 11.01.2021
3864 Clouds 6 1014 93 7000 9.26 100 09:36 11.01.2021
3865 Rain 6 1015 93 6000 8.23 90 08:52 11.01.2021
3866 Rain 6 1016 93 8000 5.66 80 08:33 11.01.2021
3867 Rain 5 1015 93 9000 6.69 70 07:45 11.01.2021
3868 Rain 5 1015 93 10000 5.66 50 07:25 11.01.2021
3869 Rain 5 1015 93 9000 6.17 80 06:49 11.01.2021
3870 Rain 4 1016 93 10000 8.23 90 02:30 11.01.2021
3871 Rain 3 1018 93 10000 6.17 80 00:41 11.01.2021
3872 Rain 4 1019 87 10000 6.17 80 23:48 10.01.2021
3873 Rain 5 1018 93 9000 7.2 90 22:57 10.01.2021
3874 Rain 5 1018 93 10000 7.2 90 22:38 10.01.2021
3875 Rain 5 1018 93 10000 7.2 90 22:18 10.01.2021
3876 Rain 5 1019 93 7000 6.69 80 21:40 10.01.2021
3877 Rain 5 1019 93 7000 6.69 80 21:18 10.01.2021
3878 Rain 5 1018 93 10000 8.23 90 20:47 10.01.2021
3879 Clouds 5 1018 93 10000 7.72 100 20:27 10.01.2021
3880 Clouds 5 1020 93 10000 6.17 100 19:40 10.01.2021
3881 Rain 5 1020 93 10000 6.17 100 19:22 10.01.2021
3882 Rain 5 1020 93 8000 6.17 90 18:45 10.01.2021
3883 Rain 5 1020 93 6000 5.14 90 18:20 10.01.2021
3884 Clouds 5 1020 87 10000 4.12 90 17:26 10.01.2021
3885 Clouds 5 1021 87 10000 4.63 80 16:50 10.01.2021
3886 Clouds 5 1020 87 10000 5.14 90 16:30 10.01.2021
3887 Clouds 5 1021 87 10000 3.6 90 15:41 10.01.2021
3888 Clouds 5 1021 87 10000 4.63 80 15:22 10.01.2021
3889 Clouds 5 1021 87 10000 5.14 80 14:41 10.01.2021
3890 Clouds 5 1020 87 10000 5.66 90 14:22 10.01.2021
3891 Clouds 4 1021 93 9000 4.12 80 13:43 10.01.2021
3892 Clouds 5 1021 87 9000 4.63 90 13:24 10.01.2021
3893 Clouds 4 1021 93 10000 4.12 90 12:56 10.01.2021
3894 Clouds 4 1021 87 10000 4.12 80 12:38 10.01.2021
3895 Clouds 4 1021 87 10000 4.63 80 11:56 10.01.2021
3896 Clouds 4 1021 87 10000 4.12 70 11:20 10.01.2021
3897 Clouds 4 1022 87 10000 3.6 70 10:51 10.01.2021
3898 Clouds 4 1022 87 10000 4.12 50 10:24 10.01.2021
3899 Clouds 3 1022 93 10000 5.14 50 09:45 10.01.2021
3900 Clouds 2 1022 93 10000 3.6 50 08:27 10.01.2021
3901 Clouds 2 1021 93 10000 4.12 50 07:38 10.01.2021
3902 Rain 2 1021 87 10000 2.06 50 06:21 10.01.2021
3903 Rain 2 1021 87 10000 1.54 60 05:45 10.01.2021
3904 Rain 2 1020 87 10000 1.54 0 05:27 10.01.2021
3905 Rain 1 1020 93 10000 5.14 40 01:42 10.01.2021
3906 Rain 2 1020 87 10000 7.2 40 00:19 10.01.2021
3907 Rain 2 1020 87 10000 5.66 20 23:41 09.01.2021
3908 Rain 2 1020 87 10000 5.66 20 22:59 09.01.2021
3909 Rain 2 1020 87 10000 5.66 20 22:20 09.01.2021
3910 Rain 2 1020 87 10000 5.14 20 21:58 09.01.2021
3911 Rain 2 1021 87 10000 1.03 0 21:39 09.01.2021
3912 Rain 2 1021 87 10000 1.03 0 21:20 09.01.2021
3913 Clouds 2 1020 87 10000 1.54 0 20:47 09.01.2021
3914 Clouds 2 1020 87 10000 1.54 130 20:28 09.01.2021
3915 Clouds 2 1020 87 10000 1.03 0 19:39 09.01.2021
3916 Clouds 2 1020 87 10000 1.03 0 19:20 09.01.2021
3917 Clouds 2 1021 87 10000 2.57 310 18:37 09.01.2021
3918 Snow 1 1020 93 10000 1.03 0 17:53 09.01.2021
3919 Clouds 1 1020 93 10000 1.54 260 17:33 09.01.2021
3920 Clouds 1 1020 93 10000 1.54 350 16:56 09.01.2021
3921 Clouds 1 1020 93 10000 3.09 340 16:22 09.01.2021
3922 Clouds 1 1020 93 10000 3.09 330 15:41 09.01.2021
3923 Rain 1 1020 93 10000 2.06 300 15:19 09.01.2021
3924 Rain 2 1019 87 10000 3.6 330 14:37 09.01.2021
3925 Rain 2 1019 87 10000 3.6 330 14:37 09.01.2021
3926 Rain 2 1019 87 10000 3.6 330 14:18 09.01.2021
3927 Clouds 2 1019 87 10000 2.57 10 13:43 09.01.2021
3928 Rain 2 1018 87 10000 2.57 20 13:24 09.01.2021
3929 Snow 1 1018 93 10000 1.03 0 12:28 09.01.2021
3930 Snow 1 1018 100 8000 2.57 250 11:58 09.01.2021
3931 Snow 1 1018 100 8000 2.57 260 11:37 09.01.2021
3932 Rain 1 1018 100 8000 2.57 260 11:18 09.01.2021
3933 Snow 1 1018 100 4000 2.06 240 10:42 09.01.2021
3934 Snow 1 1019 100 5000 2.57 250 10:22 09.01.2021
3935 Snow 1 1018 93 8000 2.06 280 09:43 09.01.2021
3936 Rain 1 1018 93 8000 1.54 320 09:20 09.01.2021
3937 Rain 1 1016 93 8000 3.09 300 07:49 09.01.2021
3938 Rain 2 1015 93 8000 3.09 270 06:53 09.01.2021
3939 Rain 2 1015 93 8000 3.09 270 06:33 09.01.2021
3940 Rain 3 1013 87 10000 6.17 350 03:53 09.01.2021
3941 Clouds 3 1012 93 8000 5.66 350 02:41 09.01.2021
3942 Clouds 3 1012 93 9000 2.57 300 02:23 09.01.2021
3943 Clouds 4 1012 87 7000 2.06 0 01:24 09.01.2021
3944 Clouds 4 1011 93 10000 3.6 320 00:33 09.01.2021
3945 Rain 4 1011 93 10000 4.63 350 23:45 08.01.2021
3946 Clouds 5 1010 87 10000 7.72 360 22:43 08.01.2021
3947 Clouds 6 1009 93 10000 3.09 330 21:52 08.01.2021
3948 Mist 7 1009 100 3500 1.6 301 20:59 08.01.2021
3949 Mist 7 1008 100 3700 1.6 301 20:35 08.01.2021
3950 Mist 8 1008 100 3200 0.13 250 19:57 08.01.2021
3951 Mist 7 1008 100 4000 1.54 170 19:24 08.01.2021
3952 Clouds 7 1008 100 10000 0.51 0 18:54 08.01.2021
3953 Clouds 8 1008 100 10000 0.51 0 18:32 08.01.2021
3954 Clouds 8 1008 100 10000 1.03 0 17:53 08.01.2021
3955 Clouds 8 1008 100 10000 2.06 290 17:25 08.01.2021
3956 Clouds 8 1008 100 10000 1.54 280 16:47 08.01.2021
3957 Clouds 8 1007 93 10000 1.03 0 15:48 08.01.2021
3958 Clouds 8 1008 93 8000 1.54 40 15:27 08.01.2021
3959 Clouds 8 1008 93 10000 1.77 89 14:37 08.01.2021
3960 Clouds 7 1008 100 10000 1.89 67 13:48 08.01.2021
3961 Clouds 7 1008 93 10000 2.06 80 13:21 08.01.2021
3962 Clouds 7 1009 93 10000 2.57 50 12:50 08.01.2021
3963 Clouds 7 1009 93 10000 1.54 70 12:20 08.01.2021
3964 Clouds 7 1010 100 10000 3.13 84 11:46 08.01.2021
3965 Clouds 7 1011 93 7000 3.95 80 11:28 08.01.2021
3966 Clouds 6 1011 100 9000 3.95 80 10:53 08.01.2021
3967 Clouds 6 1011 100 9000 3.95 80 10:35 08.01.2021
3968 Clouds 6 1013 100 10000 2.57 90 09:53 08.01.2021
3969 Clouds 6 1013 93 10000 2.06 80 09:31 08.01.2021
3970 Clouds 5 1013 93 10000 3.6 70 08:39 08.01.2021
3971 Clouds 5 1014 100 10000 1.54 120 07:29 08.01.2021
3972 Rain 5 1014 100 5000 2.06 90 06:21 08.01.2021
3973 Rain 6 1016 87 10000 2.06 110 00:22 08.01.2021
3974 Clouds 6 1016 87 10000 1.54 300 23:41 07.01.2021
3975 Clouds 7 1016 76 10000 3.09 280 22:47 07.01.2021
3976 Rain 7 1016 71 10000 2.57 270 22:26 07.01.2021
3977 Rain 7 1016 71 10000 2.57 270 22:26 07.01.2021
3978 Rain 7 1016 71 10000 1.54 280 21:46 07.01.2021
3979 Rain 7 1016 71 10000 2.57 290 21:27 07.01.2021
3980 Clouds 7 1016 76 10000 4.63 280 20:47 07.01.2021
3981 Clouds 8 1016 71 10000 6.17 290 20:29 07.01.2021
3982 Clouds 7 1016 81 10000 4.12 300 19:45 07.01.2021
3983 Clouds 8 1016 71 10000 5.66 290 19:23 07.01.2021
3984 Clouds 8 1016 71 10000 7.72 270 18:31 07.01.2021
3985 Clear 8 1016 66 10000 7.2 280 17:58 07.01.2021
3986 Clear 8 1015 66 10000 8.75 270 17:28 07.01.2021
3987 Clouds 9 1015 66 10000 5.66 240 16:53 07.01.2021
3988 Clouds 9 1015 66 10000 4.12 250 16:30 07.01.2021
3989 Clouds 9 1015 66 10000 4.12 250 16:30 07.01.2021
3990 Clouds 10 1015 62 10000 6.17 260 15:47 07.01.2021
3991 Clouds 11 1014 71 10000 5.14 260 15:29 07.01.2021
3992 Clouds 11 1014 71 10000 5.14 260 15:29 07.01.2021
3993 Clouds 13 1013 62 10000 6.69 290 14:27 07.01.2021
3994 Clouds 13 1012 62 10000 8.23 300 13:47 07.01.2021
3995 Clouds 14 1012 62 10000 10.8 280 13:19 07.01.2021
3996 Clouds 15 1011 59 10000 8.23 240 12:47 07.01.2021
3997 Clear 14 1011 62 10000 6.2 240 11:57 07.01.2021
3998 Clouds 14 1012 67 10000 6.2 250 11:37 07.01.2021
3999 Clouds 15 1012 67 10000 6.7 250 10:51 07.01.2021
4000 Clear 13 1012 67 10000 1.5 330 10:32 07.01.2021
4001 Clear 13 1013 71 10000 2.6 270 09:48 07.01.2021
4002 Clear 12 1012 76 10000 1.5 210 09:20 07.01.2021
4003 Clouds 10 1013 81 10000 2.1 140 08:29 07.01.2021
4004 Clouds 10 1013 87 10000 2.1 100 07:53 07.01.2021
4005 Clouds 9 1013 87 10000 1.5 70 07:30 07.01.2021
4006 Clouds 10 1013 87 10000 3.6 120 05:26 07.01.2021
4007 Rain 9 1016 87 10000 3.6 120 00:31 07.01.2021
4008 Rain 8 1016 93 10000 4.1 110 23:49 06.01.2021
4009 Clear 8 1017 93 10000 1.5 70 22:44 06.01.2021
4010 Clear 8 1017 93 10000 1 0 21:47 06.01.2021
4011 Clear 7 1017 93 10000 1 0 21:23 06.01.2021
4012 Clear 7 1017 93 10000 1.5 0 20:58 06.01.2021
4013 Clear 8 1017 87 10000 3.1 110 20:36 06.01.2021
4014 Clear 8 1018 87 10000 2.6 40 20:18 06.01.2021
4015 Clear 8 1018 87 10000 2.6 120 19:38 06.01.2021
4016 Clear 8 1018 87 10000 2.6 120 19:19 06.01.2021
4017 Clear 8 1018 81 10000 2.1 140 18:42 06.01.2021
4018 Clear 10 1018 71 10000 1 0 18:23 06.01.2021
4019 Clear 10 1017 71 10000 2.1 140 17:42 06.01.2021
4020 Clear 10 1017 71 10000 2.1 140 17:24 06.01.2021
4021 Clear 10 1018 76 10000 4.09 187 16:42 06.01.2021
4022 Clear 11 1018 76 10000 4.31 187 16:19 06.01.2021
4023 Clear 12 1018 66 10000 3.1 220 15:52 06.01.2021
4024 Clear 11 1018 62 10000 5.7 220 15:31 06.01.2021
4025 Clear 12 1017 62 10000 6.7 210 14:48 06.01.2021
4026 Clouds 12 1017 71 10000 3.1 140 14:20 06.01.2021
4027 Clear 12 1018 71 10000 3.1 110 13:42 06.01.2021
4028 Clear 12 1018 71 10000 3.1 110 13:22 06.01.2021
4029 Clear 13 1018 66 10000 2.6 110 12:48 06.01.2021
4030 Clear 10 1019 76 10000 3.1 130 11:54 06.01.2021
4031 Clear 10 1019 81 10000 3.1 110 11:26 06.01.2021
4032 Clouds 10 1019 81 7000 1 0 10:58 06.01.2021
4033 Mist 8 1020 100 4200 2.89 170 10:20 06.01.2021
4034 Clouds 6 1020 93 5000 1 0 09:49 06.01.2021
4035 Clouds 5 1020 100 7000 1.95 167 08:57 06.01.2021
4036 Clouds 4 1019 100 5000 1 360 08:30 06.01.2021
4037 Mist 2 1019 79 5000 0.5 0 07:54 06.01.2021
4038 Fog 1 1019 100 350 1.5 300 06:46 06.01.2021
4039 Fog 1 1019 100 7000 1.5 290 05:33 06.01.2021
4040 Fog 2 1018 100 8000 1.06 234 04:34 06.01.2021
4041 Clear 3 1018 100 6000 1.45 247 02:46 06.01.2021
4042 Mist 3 1018 100 6000 1.46 244 02:23 06.01.2021
4043 Clear 4 1017 100 10000 1 320 00:31 06.01.2021
4044 Clear 4 1017 93 10000 1 360 23:28 05.01.2021
4045 Clear 4 1017 93 10000 1.5 10 22:41 05.01.2021
4046 Clear 5 1017 93 10000 1.5 10 22:20 05.01.2021
4047 Clear 4 1017 100 10000 2.6 10 21:52 05.01.2021
4048 Clear 5 1016 93 10000 2.1 340 20:41 05.01.2021
4049 Clear 5 1016 93 10000 2.1 340 20:41 05.01.2021
4050 Clear 5 1016 93 10000 2.1 340 20:23 05.01.2021
4051 Clear 6 1015 93 10000 1.5 360 19:42 05.01.2021
4052 Clear 6 1015 93 10000 1.5 360 19:21 05.01.2021
4053 Clear 6 1015 87 10000 2.6 110 18:43 05.01.2021
4054 Clear 6 1015 87 10000 2.6 110 18:24 05.01.2021
4055 Clear 7 1015 87 10000 2.1 20 17:49 05.01.2021
4056 Clouds 7 1014 81 10000 1.5 10 17:27 05.01.2021
4057 Clear 8 1014 81 10000 1.5 340 16:52 05.01.2021
4058 Clear 9 1014 76 10000 2.1 240 16:21 05.01.2021
4059 Clear 10 1013 71 10000 3.1 240 15:50 05.01.2021
4060 Clouds 11 1013 66 10000 6.2 250 14:57 05.01.2021
4061 Clouds 11 1012 66 10000 4.1 260 14:38 05.01.2021
4062 Clouds 11 1012 66 10000 6.7 280 13:50 05.01.2021
4063 Clouds 11 1011 66 10000 7.7 280 13:26 05.01.2021
4064 Clouds 11 1011 71 10000 7.7 270 12:49 05.01.2021
4065 Clouds 11 1011 71 10000 7.7 270 12:26 05.01.2021
4066 Clouds 10 1011 81 10000 7.2 270 11:39 05.01.2021
4067 Clouds 10 1011 76 10000 7.2 270 10:55 05.01.2021
4068 Clouds 9 1011 76 10000 7.7 270 10:36 05.01.2021
4069 Clouds 10 1010 81 10000 5.7 210 09:50 05.01.2021
4070 Clouds 11 1010 81 10000 4.1 220 09:29 05.01.2021
4071 Clouds 10 1009 87 10000 0.5 0 08:27 05.01.2021
4072 Clouds 9 1009 93 10000 1.5 100 07:45 05.01.2021
4073 Clouds 9 1008 93 9000 5.1 110 04:55 05.01.2021
4074 Rain 9 1011 93 9000 4.6 140 00:51 05.01.2021
4075 Clear 9 1010 87 10000 6.2 110 23:46 04.01.2021
4076 Rain 9 1010 81 10000 7.2 100 23:26 04.01.2021
4077 Clouds 9 1011 81 10000 7.2 100 22:54 04.01.2021
4078 Clouds 8 1011 93 10000 6.7 110 22:34 04.01.2021
4079 Clouds 9 1012 87 10000 5.7 110 21:49 04.01.2021
4080 Clouds 8 1012 87 10000 6.2 100 21:31 04.01.2021
4081 Clear 9 1012 81 10000 6.7 100 20:44 04.01.2021
4082 Clear 9 1012 81 10000 6.7 100 20:25 04.01.2021
4083 Clear 9 1012 71 10000 7.2 110 19:52 04.01.2021
4084 Clear 10 1012 71 10000 7.7 100 19:25 04.01.2021
4085 Clear 10 1013 76 10000 6.2 100 18:54 04.01.2021
4086 Clear 10 1013 71 10000 6.7 100 18:24 04.01.2021
4087 Clear 9 1013 76 10000 5.7 100 17:42 04.01.2021
4088 Clear 9 1013 76 10000 5.7 100 17:24 04.01.2021
4089 Clear 9 1014 76 10000 4.1 110 16:46 04.01.2021
4090 Clear 10 1014 76 10000 4.1 110 16:27 04.01.2021
4091 Clear 10 1014 71 10000 5.7 110 15:49 04.01.2021
4092 Clear 11 1014 71 9000 5.1 110 15:27 04.01.2021
4093 Clear 11 1014 71 9000 5.1 110 15:27 04.01.2021
4094 Clear 11 1014 76 9000 5.1 120 14:34 04.01.2021
4095 Clear 12 1015 81 9000 5.1 130 13:46 04.01.2021
4096 Clouds 12 1015 76 9000 5.1 130 13:23 04.01.2021
4097 Clouds 12 1016 93 9000 4.6 120 12:38 04.01.2021
4098 Clouds 13 1016 87 8000 4.1 120 11:58 04.01.2021
4099 Clouds 13 1017 100 7000 2.6 120 11:22 04.01.2021
4100 Mist 12 1017 100 1800 2.6 110 10:48 04.01.2021
4101 Fog 11 1017 100 300 3.1 120 10:27 04.01.2021
4102 Fog 9 1018 100 150 2.1 120 09:51 04.01.2021
4103 Fog 9 1018 100 150 1 0 09:19 04.01.2021
4104 Fog 8 1018 100 150 2.1 50 08:42 04.01.2021
4105 Fog 7 1018 100 150 1.5 40 07:54 04.01.2021
4106 Fog 7 1018 100 200 1.5 30 07:27 04.01.2021
4107 Fog 7 1018 100 250 1.5 110 05:31 04.01.2021
4108 Fog 7 1019 100 200 1 0 02:35 04.01.2021
4109 Fog 8 1019 100 450 1.53 173 00:34 04.01.2021
4110 Fog 8 1020 100 200 1 360 23:47 03.01.2021
4111 Fog 8 1020 100 200 2.1 130 23:19 03.01.2021
4112 Fog 8 1020 100 350 1.5 130 22:49 03.01.2021
4113 Fog 8 1019 100 900 2.1 120 22:30 03.01.2021
4114 Mist 8 1019 100 2400 2.1 110 21:47 03.01.2021
4115 Mist 9 1020 100 3200 1 0 21:25 03.01.2021
4116 Mist 9 1020 100 4300 2.6 150 20:43 03.01.2021
4117 Mist 9 1020 100 4300 2.6 150 20:23 03.01.2021
4118 Mist 9 1020 93 5000 1 90 19:54 03.01.2021
4119 Mist 9 1020 93 5000 1.5 110 19:34 03.01.2021
4120 Rain 9 1020 100 4900 1 0 18:52 03.01.2021
4121 Mist 9 1020 100 3900 2.1 110 18:34 03.01.2021
4122 Mist 9 1020 100 4500 2.6 100 17:53 03.01.2021
4123 Mist 9 1020 93 5000 1 140 17:30 03.01.2021
4124 Clouds 9 1020 100 6000 2.6 120 16:57 03.01.2021
4125 Rain 10 1020 100 5000 1.5 130 16:39 03.01.2021
4126 Rain 10 1020 100 5000 1.5 130 16:19 03.01.2021
4127 Rain 10 1020 100 8000 3.1 130 15:41 03.01.2021
4128 Clouds 10 1020 100 8000 3.1 130 15:19 03.01.2021
4129 Clouds 11 1020 87 10000 4.1 140 14:41 03.01.2021
4130 Rain 11 1019 87 10000 4.1 110 13:55 03.01.2021
4131 Clouds 11 1019 87 10000 4.6 110 13:26 03.01.2021
4132 Clouds 11 1020 87 10000 4.1 120 12:58 03.01.2021
4133 Clouds 11 1021 87 10000 4.1 120 11:46 03.01.2021
4134 Clouds 11 1021 87 10000 4.1 120 11:27 03.01.2021
4135 Clouds 11 1021 93 10000 4.1 120 10:57 03.01.2021
4136 Clouds 11 1021 93 10000 6.2 100 10:32 03.01.2021
4137 Clouds 10 1021 100 7000 5.7 100 09:45 03.01.2021
4138 Clouds 9 1021 100 6000 5.1 110 09:24 03.01.2021
4139 Clouds 9 1021 93 10000 5.7 100 07:59 03.01.2021
4140 Clouds 9 1021 93 10000 4.1 110 06:51 03.01.2021
4141 Clouds 8 1022 93 10000 4.1 100 02:59 03.01.2021
4142 Clouds 9 1022 100 10000 4.1 80 02:22 03.01.2021
4143 Clouds 9 1023 93 10000 4.6 110 00:25 03.01.2021
4144 Clouds 8 1023 100 6000 3.1 110 23:33 02.01.2021
4145 Mist 8 1023 93 4600 1.5 140 22:59 02.01.2021
4146 Mist 7 1023 100 5000 1.5 40 22:33 02.01.2021
4147 Clouds 8 1024 93 7000 3.1 120 21:59 02.01.2021
4148 Clouds 8 1023 100 6000 2.1 60 21:37 02.01.2021
4149 Clouds 7 1023 100 6000 2.1 60 21:19 02.01.2021
4150 Mist 7 1023 100 5000 4.6 110 20:40 02.01.2021
4151 Mist 7 1023 100 5000 4.6 110 20:20 02.01.2021
4152 Mist 7 1023 100 2600 3.6 100 19:43 02.01.2021
4153 Mist 7 1023 100 2600 3.6 100 19:19 02.01.2021
4154 Mist 8 1024 100 5000 4.1 110 18:42 02.01.2021
4155 Mist 8 1024 100 5000 4.1 110 18:24 02.01.2021
4156 Mist 8 1024 100 3600 3.6 120 17:45 02.01.2021
4157 Mist 8 1023 100 4700 4.1 110 17:22 02.01.2021
4158 Clouds 7 1023 100 8000 3.6 100 16:38 02.01.2021
4159 Clouds 7 1023 100 8000 3.6 100 16:19 02.01.2021
4160 Clouds 8 1023 93 10000 5.1 120 15:41 02.01.2021
4161 Clouds 8 1023 93 10000 5.1 120 15:21 02.01.2021
4162 Clouds 10 1023 93 10000 6.2 120 14:37 02.01.2021
4163 Clouds 11 1023 93 10000 5.7 120 13:58 02.01.2021
4164 Clouds 12 1022 81 10000 4.6 130 13:32 02.01.2021
4165 Clouds 12 1022 81 10000 5.1 120 12:53 02.01.2021
4166 Clouds 12 1023 81 10000 4.1 120 12:32 02.01.2021
4167 Clouds 12 1023 81 10000 4.1 120 12:32 02.01.2021
4168 Clouds 12 1023 81 10000 3.1 120 11:45 02.01.2021
4169 Clouds 11 1023 93 10000 3.6 120 11:22 02.01.2021
4170 Clouds 10 1024 87 9000 4.1 120 10:49 02.01.2021
4171 Clouds 10 1024 87 10000 2.1 130 10:28 02.01.2021
4172 Clear 8 1024 93 10000 3.3 110 09:45 02.01.2021
4173 Clear 8 1024 93 10000 3.03 97 09:23 02.01.2021
4174 Clear 7 1024 93 10000 3.03 97 08:50 02.01.2021
4175 Clear 5 1023 100 10000 2.57 87 08:25 02.01.2021
4176 Clear 4 1023 100 10000 2.57 87 07:44 02.01.2021
4177 Clear 2 1023 79 7000 2.47 83 07:21 02.01.2021
4178 Clear 2 1022 100 10000 2.49 82 06:40 02.01.2021
4179 Clear 1 1022 76 9000 1.99 79 05:28 02.01.2021
4180 Clear 3 1020 93 10000 1.5 340 00:56 02.01.2021
4181 Clear 3 1020 93 10000 0.84 129 00:35 02.01.2021
4182 Clear 3 1020 93 10000 0.31 112 23:51 01.01.2021
4183 Clear 3 1020 93 10000 0.19 331 23:20 01.01.2021
4184 Clear 4 1020 86 10000 1 330 22:47 01.01.2021
4185 Clear 4 1019 86 10000 1 20 22:24 01.01.2021
4186 Clear 4 1019 86 10000 1.5 320 21:44 01.01.2021
4187 Clear 4 1019 86 10000 1.5 320 21:22 01.01.2021
4188 Clear 4 1019 86 10000 1 0 20:53 01.01.2021
4189 Clear 4 1018 93 10000 1 0 20:22 01.01.2021
4190 Clear 4 1018 80 10000 2.6 10 19:43 01.01.2021
4191 Clear 5 1018 80 10000 2.6 10 19:24 01.01.2021
4192 Clear 5 1018 86 10000 1.5 20 18:57 01.01.2021
4193 Clear 6 1017 81 10000 0.5 10 18:39 01.01.2021
4194 Clear 6 1017 81 10000 0.5 10 18:19 01.01.2021
4195 Clear 8 1017 66 10000 1.94 309 17:41 01.01.2021
4196 Clear 8 1017 66 10000 2.36 303 17:18 01.01.2021
4197 Clear 9 1016 66 10000 2.1 340 16:38 01.01.2021
4198 Clear 10 1016 62 10000 3.6 310 15:56 01.01.2021
4199 Clear 11 1015 58 10000 4.1 300 15:36 01.01.2021
4200 Clear 12 1015 54 10000 5.1 280 14:41 01.01.2021
4201 Clear 13 1015 50 10000 5.7 270 13:54 01.01.2021
4202 Clear 13 1014 50 10000 4.6 280 13:36 01.01.2021
4203 Clear 14 1014 58 10000 4.6 290 12:47 01.01.2021
4204 Clear 13 1014 58 10000 5.7 270 12:25 01.01.2021
4205 Clear 12 1014 66 10000 3.6 260 11:39 01.01.2021
4206 Clear 12 1014 66 10000 3.6 260 11:18 01.01.2021
4207 Clouds 11 1014 76 10000 2.6 250 10:50 01.01.2021
4208 Clouds 10 1014 81 10000 2.6 250 09:51 01.01.2021
4209 Clear 9 1014 87 10000 2.1 230 09:23 01.01.2021
4210 Clear 8 1013 100 10000 3.1 280 08:30 01.01.2021
4211 Clouds 6 1011 100 6000 0.5 0 05:50 01.01.2021
4212 Clear 6 1011 93 6000 2.6 260 04:47 01.01.2021
4213 Clear 7 1009 100 7000 2.1 10 01:39 01.01.2021
4214 Mist 8 1010 93 2200 2.1 20 00:32 01.01.2021
4215 Clear 8 1010 93 10000 2.6 20 23:38 31.12.2020
4216 Clear 8 1010 93 10000 2.6 20 23:20 31.12.2020
4217 Rain 9 1010 93 10000 4.21 207 22:41 31.12.2020
4218 Clear 9 1010 93 10000 4.74 186 22:21 31.12.2020
4219 Clear 10 1010 87 10000 2.6 270 21:50 31.12.2020
4220 Clouds 11 1010 81 10000 3.6 250 21:31 31.12.2020
4221 Clouds 11 1010 93 10000 3.6 300 20:57 31.12.2020
4222 Clouds 11 1009 87 10000 1.5 250 20:24 31.12.2020
4223 Rain 12 1009 87 5000 7.2 250 19:49 31.12.2020
4224 Clouds 12 1009 71 10000 4.1 190 19:31 31.12.2020
4225 Clouds 13 1009 71 10000 3.1 160 18:50 31.12.2020
4226 Clouds 12 1009 76 10000 2.6 120 18:25 31.12.2020
4227 Clouds 12 1009 81 10000 4.1 160 17:46 31.12.2020
4228 Clouds 12 1009 87 10000 3.1 110 17:25 31.12.2020
4229 Clouds 12 1009 87 10000 5.7 100 16:44 31.12.2020
4230 Clouds 12 1009 87 10000 5.7 100 16:26 31.12.2020
4231 Clouds 13 1009 76 10000 4.1 100 15:55 31.12.2020
4232 Clouds 14 1009 71 10000 4.6 120 15:36 31.12.2020
4233 Clouds 14 1009 71 10000 4.6 120 15:18 31.12.2020
4234 Clouds 16 1009 59 10000 4.6 190 14:39 31.12.2020
4235 Clouds 15 1009 59 10000 4.6 190 14:21 31.12.2020
4236 Clouds 16 1009 59 10000 5.1 210 13:42 31.12.2020
4237 Clouds 16 1009 59 10000 5.1 210 13:24 31.12.2020
4238 Clouds 16 1009 51 10000 6.2 200 12:55 31.12.2020
4239 Clouds 16 1009 51 10000 6.2 200 12:55 31.12.2020
4240 Clouds 15 1010 67 10000 5.1 110 12:36 31.12.2020
4241 Clouds 16 1010 67 10000 4.1 130 11:53 31.12.2020
4242 Clouds 16 1010 63 10000 4.6 160 11:32 31.12.2020
4243 Clouds 15 1011 63 10000 4.6 190 10:50 31.12.2020
4244 Clouds 15 1011 67 10000 4.6 180 10:30 31.12.2020
4245 Clouds 14 1012 76 10000 3.1 140 09:58 31.12.2020
4246 Clouds 13 1012 87 10000 2.1 130 09:39 31.12.2020
4247 Clouds 12 1012 87 10000 2.1 130 09:20 31.12.2020
4248 Clouds 11 1012 87 10000 2.6 110 08:45 31.12.2020
4249 Clouds 10 1012 93 10000 3.1 100 08:27 31.12.2020
4250 Clouds 11 1012 87 10000 2.1 180 07:51 31.12.2020
4251 Clear 9 1012 93 10000 0.5 0 06:46 31.12.2020
4252 Clear 10 1012 87 10000 4.37 189 05:29 31.12.2020
4253 Clouds 11 1013 81 10000 2.6 160 02:59 31.12.2020
4254 Clear 10 1013 87 10000 4.1 160 02:26 31.12.2020
4255 Clear 10 1013 87 10000 2.1 170 01:49 31.12.2020
4256 Clear 10 1013 87 10000 2.1 120 01:31 31.12.2020
4257 Clouds 11 1013 81 10000 2.1 200 00:51 31.12.2020
4258 Clouds 11 1013 81 10000 2.1 180 23:55 30.12.2020
4259 Clear 11 1013 81 10000 2.6 150 23:20 30.12.2020
4260 Clear 11 1013 81 10000 2.1 130 22:52 30.12.2020
4261 Clear 11 1013 81 10000 2.1 140 22:32 30.12.2020
4262 Clear 11 1013 76 10000 2.1 130 21:48 30.12.2020
4263 Clouds 12 1012 71 10000 2.6 160 21:25 30.12.2020
4264 Clear 12 1012 71 10000 3.6 180 20:52 30.12.2020
4265 Clear 12 1012 71 10000 3.6 190 20:24 30.12.2020
4266 Clear 13 1012 71 10000 2.6 140 19:42 30.12.2020
4267 Clear 13 1012 71 10000 2.6 140 19:23 30.12.2020
4268 Clear 13 1012 71 10000 3.6 180 18:56 30.12.2020
4269 Clear 13 1012 71 10000 4.1 170 18:37 30.12.2020
4270 Clear 13 1012 71 10000 4.1 170 18:18 30.12.2020
4271 Clear 13 1012 67 10000 3.1 160 17:41 30.12.2020
4272 Clear 14 1012 67 10000 3.1 160 17:20 30.12.2020
4273 Clear 14 1012 67 10000 3.1 160 17:20 30.12.2020
4274 Clouds 14 1012 67 10000 4.1 180 16:37 30.12.2020
4275 Clouds 15 1012 63 10000 5.7 190 15:49 30.12.2020
4276 Clouds 15 1012 67 10000 4.6 180 15:26 30.12.2020
4277 Clouds 16 1012 59 10000 5.7 210 14:45 30.12.2020
4278 Clouds 16 1012 59 10000 5.7 210 14:26 30.12.2020
4279 Clouds 17 1012 55 10000 5.7 210 13:52 30.12.2020
4280 Clouds 15 1012 55 10000 6.7 200 12:47 30.12.2020
4281 Clouds 15 1012 63 10000 6.7 210 12:22 30.12.2020
4282 Clouds 15 1013 67 10000 5.7 200 11:39 30.12.2020
4283 Clouds 15 1013 67 10000 5.7 200 11:20 30.12.2020
4284 Clouds 14 1013 67 10000 7.2 190 10:49 30.12.2020
4285 Clouds 14 1013 67 10000 7.2 190 10:49 30.12.2020
4286 Clouds 14 1014 67 10000 6.2 200 10:29 30.12.2020
4287 Clouds 13 1014 76 10000 5.1 190 09:50 30.12.2020
4288 Clouds 12 1014 76 10000 1.5 120 09:30 30.12.2020
4289 Clouds 11 1014 81 10000 3.1 150 08:35 30.12.2020
4290 Clear 10 1014 87 10000 1.5 120 07:31 30.12.2020
4291 Clouds 11 1014 87 10000 2.1 110 06:53 30.12.2020
4292 Clouds 11 1014 87 10000 1.5 0 06:32 30.12.2020
4293 Clouds 11 1014 87 10000 2.6 0 05:44 30.12.2020
4294 Clouds 11 1014 87 10000 2.6 0 05:25 30.12.2020
4295 Clear 9 1014 93 10000 1 0 03:28 30.12.2020
4296 Clear 10 1014 87 10000 2.1 150 02:43 30.12.2020
4297 Clear 10 1014 87 10000 2.6 80 01:58 30.12.2020
4298 Clear 9 1014 93 10000 2.6 90 01:33 30.12.2020
4299 Clear 9 1014 87 10000 1.5 0 00:50 30.12.2020
4300 Clear 9 1014 87 10000 2.1 160 00:30 30.12.2020
4301 Clear 9 1014 87 10000 1.5 130 23:56 29.12.2020
4302 Clear 9 1014 87 10000 2.6 160 23:37 29.12.2020
4303 Clear 10 1014 87 10000 2.6 160 23:18 29.12.2020
4304 Clear 10 1014 81 10000 4.1 140 22:40 29.12.2020
4305 Clear 10 1014 81 10000 4.1 140 22:20 29.12.2020
4306 Clear 11 1014 81 10000 4.1 140 21:46 29.12.2020
4307 Clear 11 1014 81 10000 3.6 140 21:25 29.12.2020
4308 Clear 11 1014 81 10000 3.6 160 20:46 29.12.2020
4309 Clear 11 1014 76 10000 2.6 160 20:26 29.12.2020
4310 Clear 11 1014 76 10000 2.6 160 20:26 29.12.2020
4311 Clear 12 1013 71 10000 2.6 190 19:49 29.12.2020
4312 Clear 12 1013 71 10000 2.6 190 19:24 29.12.2020
4313 Clear 12 1013 67 10000 2.6 180 18:54 29.12.2020
4314 Clear 12 1013 71 10000 3.1 150 18:32 29.12.2020
4315 Clear 11 1012 71 10000 3.1 130 17:57 29.12.2020
4316 Clear 13 1012 67 10000 2.1 150 17:37 29.12.2020
4317 Clear 13 1012 67 10000 2.1 150 17:18 29.12.2020
4318 Clear 14 1011 62 10000 2.6 220 16:35 29.12.2020
4319 Clear 14 1011 59 10000 3.6 220 15:53 29.12.2020
4320 Clear 15 1011 55 10000 4.1 240 15:34 29.12.2020
4321 Clear 15 1011 55 10000 5.1 220 14:56 29.12.2020
4322 Clouds 15 1011 55 10000 6.2 220 14:36 29.12.2020
4323 Clouds 15 1011 55 10000 6.2 220 14:18 29.12.2020
4324 Clouds 15 1010 55 10000 6.7 220 13:26 29.12.2020
4325 Clouds 15 1010 59 10000 6.7 220 12:59 29.12.2020
4326 Clouds 16 1010 59 10000 7.7 220 12:36 29.12.2020
4327 Clouds 16 1010 59 10000 7.7 220 12:18 29.12.2020
4328 Clouds 16 1010 55 10000 5.7 220 11:49 29.12.2020
4329 Clouds 15 1010 59 10000 7.2 210 11:27 29.12.2020
4330 Clear 14 1010 59 10000 4.1 220 10:22 29.12.2020
4331 Clouds 13 1010 67 10000 4.6 210 09:41 29.12.2020
4332 Clouds 13 1010 71 10000 6.2 190 09:19 29.12.2020
4333 Clouds 13 1010 67 10000 4.6 210 09:19 29.12.2020
4334 Clouds 13 1010 71 10000 6.2 190 09:19 29.12.2020
4335 Clouds 13 1010 71 10000 6.2 190 08:49 29.12.2020
4336 Clouds 11 1010 76 10000 4.1 170 07:41 29.12.2020
4337 Clouds 11 1010 76 10000 4.1 170 07:20 29.12.2020
4338 Clouds 11 1009 71 10000 8.7 190 05:50 29.12.2020
4339 Clear 10 1010 76 10000 4.6 140 02:41 29.12.2020
4340 Clear 9 1010 76 10000 3.1 180 00:43 29.12.2020
4341 Clear 9 1010 76 10000 2.1 150 23:39 28.12.2020
4342 Clear 8 1010 87 10000 3.1 120 22:56 28.12.2020
4343 Clear 9 1010 81 10000 3.1 150 22:20 28.12.2020
4344 Clear 9 1010 93 10000 2.6 130 21:41 28.12.2020
4345 Clear 9 1010 93 10000 2.6 130 21:20 28.12.2020
4346 Clear 9 1010 81 10000 1 0 20:40 28.12.2020
4347 Clear 9 1010 81 10000 1 0 20:21 28.12.2020
4348 Clear 9 1010 87 10000 3.1 120 19:42 28.12.2020
4349 Clear 9 1010 87 10000 3.1 120 19:22 28.12.2020
4350 Clear 9 1010 76 10000 3.1 140 18:49 28.12.2020
4351 Clear 9 1010 81 10000 4.1 110 18:28 28.12.2020
4352 Clouds 10 1010 76 10000 3.1 140 17:41 28.12.2020
4353 Clouds 10 1010 76 10000 3.1 140 17:18 28.12.2020
4354 Clouds 11 1009 76 10000 2.6 160 16:33 28.12.2020
4355 Clouds 12 1010 71 10000 2.6 170 15:59 28.12.2020
4356 Clouds 13 1009 71 10000 4.1 170 15:41 28.12.2020
4357 Clouds 13 1009 71 10000 4.6 150 14:49 28.12.2020
4358 Clouds 13 1010 82 10000 4.1 120 13:51 28.12.2020
4359 Rain 13 1009 82 10000 4.6 120 13:24 28.12.2020
4360 Clouds 15 1010 67 10000 4.6 150 12:40 28.12.2020
4361 Clouds 15 1010 67 10000 4.6 150 12:20 28.12.2020
4362 Clouds 15 1010 72 10000 3.6 150 11:45 28.12.2020
4363 Rain 14 1010 72 10000 3.6 180 11:22 28.12.2020
4364 Rain 13 1011 82 10000 4.1 130 10:43 28.12.2020
4365 Clouds 13 1011 82 10000 4.1 130 10:25 28.12.2020
4366 Clouds 13 1011 82 10000 3.6 130 09:45 28.12.2020
4367 Clouds 12 1011 82 10000 2.6 110 09:18 28.12.2020
4368 Clouds 10 1011 87 10000 5.1 100 07:21 28.12.2020
4369 Clouds 10 1010 87 10000 3.1 100 06:43 28.12.2020
4370 Rain 10 1011 93 7000 3.6 90 04:22 28.12.2020
4371 Clouds 10 1013 93 8000 5.7 110 01:57 28.12.2020
4372 Clouds 10 1014 93 9000 2.6 130 00:30 28.12.2020
4373 Clouds 10 1014 93 9000 2.6 130 00:30 28.12.2020
4374 Clouds 9 1014 100 9000 4.6 100 23:45 27.12.2020
4375 Rain 9 1014 100 8000 4.6 100 23:18 27.12.2020
4376 Rain 9 1015 100 5000 6.2 110 21:56 27.12.2020
4377 Clouds 9 1015 100 6000 6.2 110 21:25 27.12.2020
4378 Mist 9 1015 100 3200 7.2 100 20:42 27.12.2020
4379 Mist 9 1016 100 2100 6.7 90 19:25 27.12.2020
4380 Mist 9 1016 100 2400 7.2 100 18:54 27.12.2020
4381 Mist 9 1017 100 2900 7.2 100 18:36 27.12.2020
4382 Mist 9 1017 100 2900 7.2 100 18:18 27.12.2020
4383 Mist 8 1017 100 3600 7.2 100 17:42 27.12.2020
4384 Mist 8 1017 100 3600 7.2 100 17:21 27.12.2020
4385 Drizzle 8 1017 100 3600 7.2 90 16:26 27.12.2020
4386 Drizzle 8 1018 100 3100 6.7 90 15:37 27.12.2020
4387 Drizzle 8 1018 100 3200 6.2 90 14:57 27.12.2020
4388 Drizzle 8 1018 93 2800 6.7 90 14:38 27.12.2020
4389 Mist 7 1019 100 5000 5.1 90 13:42 27.12.2020
4390 Clouds 7 1019 100 6000 5.7 90 12:59 27.12.2020
4391 Clouds 7 1019 100 6000 6.7 90 12:38 27.12.2020
4392 Mist 7 1020 93 4600 6.2 90 11:43 27.12.2020
4393 Mist 7 1020 93 4600 6.2 90 11:23 27.12.2020
4394 Clouds 7 1021 93 6000 5.7 100 10:49 27.12.2020
4395 Clouds 6 1021 93 10000 5.7 90 10:23 27.12.2020
4396 Clouds 6 1021 93 10000 5.7 80 09:39 27.12.2020
4397 Rain 5 1022 93 10000 2.1 50 08:29 27.12.2020
4398 Rain 5 1021 87 10000 4.1 60 07:47 27.12.2020
4399 Rain 5 1021 87 10000 4.1 0 07:18 27.12.2020
4400 Rain 4 1021 93 10000 2.6 0 05:39 27.12.2020
4401 Clouds 3 1020 93 10000 1.5 0 03:26 27.12.2020
4402 Clouds 3 1020 93 10000 4.6 20 02:30 27.12.2020
4403 Clouds 3 1020 93 10000 5.7 360 00:58 27.12.2020
4404 Clouds 3 1019 93 10000 6.2 360 23:44 26.12.2020
4405 Clouds 4 1019 86 10000 6.7 10 23:26 26.12.2020
4406 Clouds 4 1019 86 10000 6.7 360 22:46 26.12.2020
4407 Clouds 4 1019 93 10000 5.7 350 22:20 26.12.2020
4408 Clouds 4 1018 93 10000 6.2 360 21:54 26.12.2020
4409 Clouds 5 1018 87 10000 5.1 360 21:31 26.12.2020
4410 Clouds 5 1018 87 10000 5.1 360 21:31 26.12.2020
4411 Clouds 6 1018 87 10000 5.7 360 20:48 26.12.2020
4412 Clouds 6 1017 93 10000 3.6 340 20:27 26.12.2020
4413 Clouds 7 1017 93 10000 0.5 0 19:57 26.12.2020
4414 Clouds 7 1017 93 10000 1 0 19:24 26.12.2020
4415 Drizzle 7 1016 93 7000 2.1 40 18:37 26.12.2020
4416 Clouds 7 1016 93 9000 2.6 60 17:59 26.12.2020
4417 Clouds 7 1015 93 10000 2.76 55 17:39 26.12.2020
4418 Clouds 7 1015 93 9000 3.1 50 17:18 26.12.2020
4419 Clouds 7 1015 93 9000 2.1 70 16:31 26.12.2020
4420 Clouds 7 1015 93 9000 2.1 90 15:25 26.12.2020
4421 Clouds 7 1015 93 9000 1.5 80 14:46 26.12.2020
4422 Clouds 7 1014 87 9000 3.1 100 14:22 26.12.2020
4423 Clouds 7 1014 93 8000 3.1 130 13:42 26.12.2020
4424 Clouds 7 1014 93 8000 3.1 130 13:42 26.12.2020
4425 Clouds 7 1014 93 8000 3.1 130 13:23 26.12.2020
4426 Clouds 8 1014 87 10000 1.5 70 12:44 26.12.2020
4427 Clouds 8 1014 87 9000 2.6 50 12:20 26.12.2020
4428 Clouds 9 1015 87 8000 2.6 50 11:51 26.12.2020
4429 Clouds 9 1015 81 10000 2.1 90 11:21 26.12.2020
4430 Clouds 9 1015 81 10000 1 0 10:51 26.12.2020
4431 Clouds 8 1015 81 10000 2.6 20 10:27 26.12.2020
4432 Clouds 8 1015 87 10000 4.1 360 09:49 26.12.2020
4433 Clouds 8 1014 87 10000 3.6 360 09:24 26.12.2020
4434 Clear 8 1014 81 10000 1 0 08:20 26.12.2020
4435 Clouds 8 1013 87 10000 4.1 300 07:33 26.12.2020
4436 Clear 8 1012 87 10000 2.6 190 06:19 26.12.2020
4437 Clear 9 1010 87 10000 1.5 360 02:48 26.12.2020
4438 Clear 10 1010 81 10000 3.1 350 00:42 26.12.2020
4439 Clear 10 1010 87 10000 2.1 340 23:58 25.12.2020
4440 Clear 10 1010 81 10000 2.1 350 23:38 25.12.2020
4441 Clear 10 1010 81 10000 2.1 350 23:20 25.12.2020
4442 Clear 10 1010 93 10000 2.1 350 22:28 25.12.2020
4443 Clear 10 1010 87 10000 2.1 10 21:46 25.12.2020
4444 Clear 9 1010 93 10000 2.1 10 21:28 25.12.2020
4445 Clear 9 1010 93 10000 2.1 10 20:47 25.12.2020
4446 Clear 9 1010 87 10000 2.6 10 20:27 25.12.2020
4447 Clear 10 1010 87 10000 2.1 360 19:43 25.12.2020
4448 Clear 10 1010 81 10000 1.5 10 18:55 25.12.2020
4449 Clear 10 1010 76 10000 2.6 360 18:35 25.12.2020
4450 Clear 10 1010 81 10000 2.6 360 17:35 25.12.2020
4451 Clear 11 1010 76 10000 1.5 310 16:56 25.12.2020
4452 Clear 11 1010 76 10000 1.5 360 16:25 25.12.2020
4453 Clear 11 1010 71 10000 1 360 15:51 25.12.2020
4454 Clear 11 1010 71 10000 1 360 15:51 25.12.2020
4455 Clear 12 1010 71 10000 1 0 15:32 25.12.2020
4456 Clear 13 1010 67 10000 4.45 216 14:38 25.12.2020
4457 Clear 13 1010 67 10000 2.6 210 14:19 25.12.2020
4458 Clear 14 1010 67 10000 1.5 300 13:43 25.12.2020
4459 Clear 14 1010 67 10000 1.5 300 13:24 25.12.2020
4460 Clear 14 1010 62 10000 1.5 300 12:28 25.12.2020
4461 Clear 14 1010 62 10000 2.6 270 11:50 25.12.2020
4462 Clear 14 1011 66 10000 2.6 270 11:25 25.12.2020
4463 Clear 14 1011 66 10000 2.6 280 10:49 25.12.2020
4464 Clear 13 1012 71 10000 2.6 280 10:21 25.12.2020
4465 Clouds 11 1012 81 9000 3.1 310 09:26 25.12.2020
4466 Clouds 7 1012 93 8000 2.6 280 08:40 25.12.2020
4467 Clouds 7 1011 93 7000 1 0 07:35 25.12.2020
4468 Clouds 7 1011 87 8000 3.1 340 06:44 25.12.2020
4469 Clouds 6 1012 100 7000 2.1 330 02:36 25.12.2020
4470 Mist 6 1012 100 3800 1.5 310 00:35 25.12.2020
4471 Mist 6 1012 93 5000 2.21 261 23:32 24.12.2020
4472 Mist 6 1013 100 5000 2.09 247 22:56 24.12.2020
4473 Mist 6 1013 93 5000 0.5 0 22:26 24.12.2020
4474 Clouds 7 1013 87 8000 2.1 360 21:53 24.12.2020
4475 Clouds 8 1013 81 8000 2.6 360 21:25 24.12.2020
4476 Mist 8 1014 93 5000 1.5 330 19:56 24.12.2020
4477 Mist 7 1014 87 5000 1.38 210 18:22 24.12.2020
4478 Clouds 8 1014 87 6000 2.1 100 17:42 24.12.2020
4479 Clouds 8 1014 87 6000 2.1 100 17:21 24.12.2020
4480 Clouds 9 1014 81 8000 2.6 100 16:25 24.12.2020
4481 Clear 11 1015 76 10000 2.1 140 15:49 24.12.2020
4482 Clear 12 1015 71 10000 1.46 173 15:26 24.12.2020
4483 Clear 13 1015 71 10000 1.46 173 14:57 24.12.2020
4484 Clear 13 1015 71 10000 1.46 173 14:57 24.12.2020
4485 Clear 13 1015 71 10000 1 0 14:38 24.12.2020
4486 Clear 13 1015 71 10000 1 0 14:19 24.12.2020
4487 Clouds 13 1015 71 7000 1.5 230 13:39 24.12.2020
4488 Clouds 13 1015 71 7000 1.5 230 13:18 24.12.2020
4489 Clear 13 1016 71 10000 1.5 250 12:40 24.12.2020
4490 Clear 13 1016 71 10000 1.5 250 12:18 24.12.2020
4491 Clouds 12 1017 81 7000 1.5 300 11:38 24.12.2020
4492 Clouds 12 1017 81 7000 1.5 300 11:19 24.12.2020
4493 Mist 11 1018 81 5000 1 0 10:43 24.12.2020
4494 Mist 10 1018 81 5000 1 0 10:20 24.12.2020
4495 Mist 10 1018 87 3900 1.31 230 09:50 24.12.2020
4496 Mist 7 1018 93 4400 1.01 247 08:50 24.12.2020
4497 Mist 5 1018 100 4600 0.82 262 07:55 24.12.2020
4498 Mist 5 1018 100 4500 0.5 360 07:37 24.12.2020
4499 Clouds 5 1018 93 6000 1.12 252 06:27 24.12.2020
4500 Clouds 5 1018 93 7000 1.26 259 03:50 24.12.2020
4501 Clouds 5 1019 100 6000 1 280 01:51 24.12.2020
4502 Clouds 5 1019 93 6000 0.87 287 01:20 24.12.2020
4503 Clouds 5 1019 93 6000 0.87 273 00:31 24.12.2020
4504 Clouds 4 1019 100 7000 2.1 90 00:00 24.12.2020
4505 Clouds 4 1019 93 8000 0.87 237 23:39 23.12.2020
4506 Clouds 5 1019 93 8000 1.11 217 23:20 23.12.2020
4507 Clouds 4 1019 93 9000 1.11 217 22:43 23.12.2020
4508 Clouds 4 1019 93 9000 1.21 207 22:23 23.12.2020
4509 Clouds 4 1020 93 9000 1.5 40 21:43 23.12.2020
4510 Clouds 4 1020 93 9000 1.5 40 21:21 23.12.2020
4511 Clouds 5 1020 87 9000 1.38 218 20:45 23.12.2020
4512 Clouds 5 1020 87 9000 1.83 216 20:25 23.12.2020
4513 Clouds 6 1020 81 9000 1 10 19:45 23.12.2020
4514 Clouds 6 1020 81 9000 1 10 19:23 23.12.2020
4515 Clouds 6 1020 81 8000 1.79 198 18:56 23.12.2020
4516 Clouds 6 1021 81 8000 1.79 198 18:35 23.12.2020
4517 Clouds 6 1021 81 9000 1.35 204 17:44 23.12.2020
4518 Clouds 6 1021 81 9000 1.68 235 17:25 23.12.2020
4519 Clouds 6 1021 81 9000 1.68 235 16:56 23.12.2020
4520 Clouds 6 1021 81 8000 1.68 235 16:37 23.12.2020
4521 Clouds 6 1021 81 8000 1 0 16:18 23.12.2020
4522 Clouds 6 1021 75 10000 1.5 210 15:40 23.12.2020
4523 Clouds 6 1021 75 10000 1.5 210 15:40 23.12.2020
4524 Clouds 6 1021 75 10000 1.5 210 15:22 23.12.2020
4525 Clouds 7 1021 75 10000 2.6 240 14:51 23.12.2020
4526 Clouds 7 1021 75 10000 3.1 230 14:25 23.12.2020
4527 Clouds 7 1021 75 10000 3.6 250 13:47 23.12.2020
4528 Clouds 7 1021 75 10000 3.1 260 13:21 23.12.2020
4529 Clouds 7 1021 70 10000 2.6 240 12:59 23.12.2020
4530 Clouds 7 1022 70 10000 2.6 260 12:38 23.12.2020
4531 Clouds 7 1022 70 10000 2.6 260 12:18 23.12.2020
4532 Clouds 7 1022 75 10000 3.1 250 11:45 23.12.2020
4533 Clouds 6 1022 75 10000 2.6 260 10:57 23.12.2020
4534 Clouds 6 1023 75 10000 2.6 260 10:39 23.12.2020
4535 Clouds 6 1023 75 10000 2.6 260 10:19 23.12.2020
4536 Clouds 5 1023 80 10000 2.6 290 09:26 23.12.2020
4537 Clouds 4 1023 86 10000 2.1 300 08:42 23.12.2020
4538 Clouds 4 1023 86 10000 0.5 0 07:51 23.12.2020
4539 Clouds 4 1023 86 10000 2.1 330 06:59 23.12.2020
4540 Clouds 4 1022 93 10000 2.6 260 06:37 23.12.2020
4541 Clouds 4 1022 93 10000 1.65 250 05:25 23.12.2020
4542 Clouds 4 1023 86 10000 1.93 212 03:56 23.12.2020
4543 Clouds 4 1024 86 10000 1 0 00:33 23.12.2020
4544 Clouds 4 1024 86 10000 1 40 23:45 22.12.2020
4545 Clouds 4 1024 93 9000 1.5 30 23:25 22.12.2020
4546 Clouds 4 1025 86 10000 1.98 175 22:43 22.12.2020
4547 Clouds 4 1025 86 10000 2.19 159 22:25 22.12.2020
4548 Clouds 4 1025 93 10000 2.19 159 21:54 22.12.2020
4549 Clouds 4 1025 93 10000 2.62 145 21:22 22.12.2020
4550 Clouds 4 1025 93 10000 2.62 145 20:56 22.12.2020
4551 Clouds 4 1026 93 10000 2.62 145 20:37 22.12.2020
4552 Clouds 4 1026 93 10000 2.07 130 20:18 22.12.2020
4553 Clouds 4 1026 86 10000 2.07 130 19:41 22.12.2020
4554 Clouds 4 1026 86 10000 1.82 112 19:20 22.12.2020
4555 Clouds 4 1026 86 10000 1.82 112 18:47 22.12.2020
4556 Clouds 4 1026 86 10000 2.06 125 18:27 22.12.2020
4557 Clouds 4 1026 80 10000 1.5 100 17:45 22.12.2020
4558 Clouds 4 1026 80 10000 1.5 100 17:18 22.12.2020
4559 Clouds 5 1026 75 10000 2.1 140 16:48 22.12.2020
4560 Clouds 5 1026 75 10000 2.1 140 16:22 22.12.2020
4561 Clouds 5 1026 75 10000 1.5 150 15:49 22.12.2020
4562 Clouds 5 1027 75 10000 1.7 102 15:31 22.12.2020
4563 Clouds 5 1027 75 10000 1.9 94 14:58 22.12.2020
4564 Clouds 5 1027 75 10000 1.9 94 14:40 22.12.2020
4565 Clouds 5 1027 75 10000 2.23 88 14:21 22.12.2020
4566 Clouds 5 1027 70 10000 2.23 88 13:45 22.12.2020
4567 Clouds 6 1027 75 10000 2.08 70 13:19 22.12.2020
4568 Clouds 5 1027 75 10000 2.08 70 12:53 22.12.2020
4569 Clouds 6 1027 75 10000 1.74 84 12:34 22.12.2020
4570 Clouds 5 1027 75 10000 1 270 11:58 22.12.2020
4571 Clouds 5 1027 75 10000 1 270 11:58 22.12.2020
4572 Clouds 5 1028 75 10000 1.5 250 11:39 22.12.2020
4573 Clouds 5 1028 75 10000 1.5 250 11:20 22.12.2020
4574 Clouds 5 1028 75 10000 1 0 10:53 22.12.2020
4575 Clouds 5 1028 75 10000 1 0 10:24 22.12.2020
4576 Clouds 4 1028 80 10000 2.1 360 09:57 22.12.2020
4577 Clouds 4 1029 80 10000 1.67 39 09:24 22.12.2020
4578 Clouds 4 1029 80 10000 1.5 360 08:53 22.12.2020
4579 Clouds 3 1028 86 10000 2.6 360 08:32 22.12.2020
4580 Clear 3 1029 86 10000 3.1 350 07:55 22.12.2020
4581 Clear 3 1029 86 10000 3.1 350 07:55 22.12.2020
4582 Clear 3 1028 86 10000 3.6 340 06:58 22.12.2020
4583 Clear 3 1028 86 10000 2.6 320 05:48 22.12.2020
4584 Clear 3 1028 86 10000 1 0 03:46 22.12.2020
4585 Clear 3 1028 86 10000 0.5 0 01:35 22.12.2020
4586 Clear 4 1028 75 10000 2.6 80 23:55 21.12.2020
4587 Clear 4 1029 80 10000 2.1 60 23:37 21.12.2020
4588 Clear 4 1029 80 10000 3.6 60 22:39 21.12.2020
4589 Clear 4 1029 80 10000 3.6 60 22:39 21.12.2020
4590 Clear 4 1029 80 10000 3.6 60 22:20 21.12.2020
4591 Clear 4 1029 75 10000 3.6 40 21:59 21.12.2020
4592 Clouds 4 1029 75 10000 3.1 40 21:40 21.12.2020
4593 Clouds 5 1029 75 10000 3.1 40 21:22 21.12.2020
4594 Clouds 4 1029 86 10000 1.5 30 20:36 21.12.2020
4595 Clouds 4 1029 86 10000 1.5 30 20:18 21.12.2020
4596 Clouds 4 1029 86 10000 1.5 30 20:18 21.12.2020
4597 Clouds 4 1029 80 10000 2.1 60 19:44 21.12.2020
4598 Clouds 5 1029 80 10000 2.1 60 19:19 21.12.2020
4599 Clouds 5 1029 75 10000 2.1 60 18:52 21.12.2020
4600 Clouds 5 1029 75 10000 3.1 50 18:34 21.12.2020
4601 Clouds 5 1029 75 10000 2.1 80 17:43 21.12.2020
4602 Clouds 5 1029 75 10000 2.1 80 17:24 21.12.2020
4603 Clouds 5 1029 75 10000 2.1 90 16:47 21.12.2020
4604 Clouds 5 1029 81 10000 2.6 60 16:27 21.12.2020
4605 Clouds 5 1029 75 10000 3.1 90 15:54 21.12.2020
4606 Clouds 6 1029 70 10000 1.5 60 15:35 21.12.2020
4607 Clouds 6 1029 81 10000 3.1 80 14:57 21.12.2020
4608 Clouds 6 1029 75 10000 3.6 80 14:21 21.12.2020
4609 Clouds 6 1029 75 10000 3.6 60 13:44 21.12.2020
4610 Clouds 6 1029 75 10000 3.6 60 13:26 21.12.2020
4611 Clouds 6 1029 75 10000 3.1 70 12:45 21.12.2020
4612 Clouds 6 1029 75 10000 3.1 70 12:25 21.12.2020
4613 Clouds 6 1029 75 10000 3.1 60 11:58 21.12.2020
4614 Clouds 6 1029 75 10000 3.6 70 11:39 21.12.2020
4615 Clouds 6 1029 75 10000 3.6 70 11:20 21.12.2020
4616 Clouds 6 1030 75 10000 3.1 60 10:42 21.12.2020
4617 Clouds 6 1030 75 10000 3.1 60 10:24 21.12.2020
4618 Clouds 5 1030 81 10000 2.6 80 09:46 21.12.2020
4619 Clouds 5 1030 81 10000 1.5 330 09:25 21.12.2020
4620 Clouds 4 1030 86 10000 3.6 30 08:52 21.12.2020
4621 Clouds 4 1030 86 10000 4.1 50 07:52 21.12.2020
4622 Clouds 4 1029 86 10000 5.1 30 06:43 21.12.2020
4623 Clouds 4 1029 86 10000 5.1 40 04:46 21.12.2020
4624 Clouds 3 1030 93 10000 3.6 20 01:25 21.12.2020
4625 Clouds 3 1030 93 10000 2.1 250 00:31 21.12.2020
4626 Clouds 3 1030 93 10000 2.1 310 23:34 20.12.2020
4627 Clouds 3 1031 86 6000 0.5 0 22:59 20.12.2020
4628 Clouds 3 1031 86 10000 3.5 15 22:40 20.12.2020
4629 Clouds 3 1031 86 10000 3.47 20 22:21 20.12.2020
4630 Clouds 3 1031 86 10000 3.47 20 22:21 20.12.2020
4631 Clouds 3 1031 86 10000 3.1 270 21:39 20.12.2020
4632 Clouds 3 1031 86 10000 3.1 270 21:20 20.12.2020
4633 Clouds 3 1031 86 10000 1 0 20:50 20.12.2020
4634 Clouds 3 1030 86 10000 3.1 30 20:23 20.12.2020
4635 Clouds 3 1030 86 10000 4.1 30 19:46 20.12.2020
4636 Clouds 3 1030 86 10000 4.1 30 19:27 20.12.2020
4637 Clouds 3 1030 86 10000 4.6 20 18:57 20.12.2020
4638 Clouds 3 1030 86 10000 3.6 10 18:38 20.12.2020
4639 Clouds 3 1030 86 10000 3.6 10 18:19 20.12.2020
4640 Clouds 3 1030 80 10000 3.1 10 17:43 20.12.2020
4641 Clouds 3 1030 80 10000 3.1 10 17:22 20.12.2020
4642 Clouds 3 1030 80 10000 4.1 30 16:44 20.12.2020
4643 Clouds 3 1030 80 10000 4.1 30 16:25 20.12.2020
4644 Clouds 3 1030 80 10000 4.6 20 15:45 20.12.2020
4645 Clouds 4 1029 86 10000 3.6 20 15:24 20.12.2020
4646 Clouds 4 1029 80 10000 3.1 20 14:49 20.12.2020
4647 Clouds 4 1029 80 10000 3.1 20 14:30 20.12.2020
4648 Clouds 4 1029 80 10000 3.1 20 14:30 20.12.2020
4649 Clouds 4 1029 80 10000 3.6 10 13:46 20.12.2020
4650 Clouds 4 1029 80 10000 3.6 10 13:24 20.12.2020
4651 Clouds 4 1029 80 10000 3.6 10 12:54 20.12.2020
4652 Clouds 4 1029 80 10000 4.6 10 12:36 20.12.2020
4653 Clouds 4 1029 80 10000 4.6 10 12:18 20.12.2020
4654 Clouds 4 1030 75 10000 3.1 20 11:42 20.12.2020
4655 Clouds 4 1030 75 10000 3.1 20 10:55 20.12.2020
4656 Clouds 3 1030 80 10000 3.6 10 10:37 20.12.2020
4657 Clouds 3 1030 80 10000 3.6 10 10:19 20.12.2020
4658 Clouds 4 1030 75 10000 4.1 20 09:42 20.12.2020
4659 Clouds 4 1030 75 10000 4.1 20 09:24 20.12.2020
4660 Clouds 3 1030 80 10000 3.6 20 08:50 20.12.2020
4661 Clouds 4 1030 75 10000 3.6 10 08:32 20.12.2020
4662 Clouds 3 1029 75 10000 4.1 10 07:23 20.12.2020
4663 Clouds 3 1028 80 10000 5.1 10 05:44 20.12.2020
4664 Clouds 2 1029 86 10000 1.5 260 01:32 20.12.2020
4665 Clouds 2 1029 86 10000 2.1 290 00:22 20.12.2020
4666 Clouds 2 1029 86 10000 2.1 270 23:19 19.12.2020
4667 Clouds 2 1029 86 10000 3.1 270 22:46 19.12.2020
4668 Clouds 2 1030 86 10000 2.1 260 22:25 19.12.2020
4669 Clouds 3 1030 80 10000 1.5 280 21:59 19.12.2020
4670 Clouds 3 1029 80 10000 2.6 360 21:41 19.12.2020
4671 Clouds 3 1029 80 10000 2.6 360 21:22 19.12.2020
4672 Clouds 2 1030 86 10000 2.6 10 20:41 19.12.2020
4673 Clouds 2 1030 86 10000 2.6 10 20:18 19.12.2020
4674 Clouds 2 1030 86 10000 3.6 320 19:50 19.12.2020
4675 Clouds 3 1030 80 10000 3.1 310 19:29 19.12.2020
4676 Clouds 3 1030 86 10000 2.6 310 18:38 19.12.2020
4677 Clouds 3 1030 86 10000 2.6 310 18:20 19.12.2020
4678 Clouds 3 1029 80 10000 2.1 330 17:45 19.12.2020
4679 Clouds 3 1029 80 10000 2.1 330 17:23 19.12.2020
4680 Clouds 3 1029 80 10000 2.6 320 16:44 19.12.2020
4681 Clouds 3 1029 80 10000 2.6 320 16:26 19.12.2020
4682 Clouds 3 1029 80 10000 2.6 300 15:55 19.12.2020
4683 Clouds 4 1029 80 10000 3.1 290 15:34 19.12.2020
4684 Clouds 4 1029 80 10000 3.6 270 14:41 19.12.2020
4685 Clouds 4 1029 80 10000 3.6 270 14:21 19.12.2020
4686 Clouds 5 1029 80 10000 4.6 270 13:41 19.12.2020
4687 Clouds 5 1029 80 10000 4.6 270 13:20 19.12.2020
4688 Clouds 5 1029 80 10000 3.6 260 12:44 19.12.2020
4689 Clouds 5 1029 80 10000 3.6 260 12:25 19.12.2020
4690 Clouds 5 1029 80 10000 3.1 280 11:57 19.12.2020
4691 Clouds 5 1029 80 10000 3.1 280 11:57 19.12.2020
4692 Clouds 5 1029 80 10000 3.6 300 11:35 19.12.2020
4693 Clouds 5 1030 80 10000 4.1 270 10:43 19.12.2020
4694 Clouds 5 1030 80 10000 4.1 270 10:24 19.12.2020
4695 Clouds 4 1030 80 10000 4.1 270 09:47 19.12.2020
4696 Clouds 4 1030 80 10000 4.1 270 09:47 19.12.2020
4697 Clouds 4 1031 80 10000 3.6 260 09:29 19.12.2020
4698 Clouds 4 1030 86 10000 2.1 300 08:32 19.12.2020
4699 Clouds 3 1030 86 10000 1 0 07:24 19.12.2020
4700 Clouds 3 1030 86 10000 2.1 330 06:52 19.12.2020
4701 Clouds 3 1030 86 10000 3.1 330 06:20 19.12.2020
4702 Clouds 3 1029 86 10000 3.6 330 05:18 19.12.2020
4703 Clouds 2 1029 93 10000 2.1 320 03:19 19.12.2020
4704 Clouds 3 1029 86 10000 2.1 280 00:37 19.12.2020
4705 Clouds 3 1029 86 10000 2.1 280 00:18 19.12.2020
4706 Clouds 3 1029 86 10000 2.1 250 23:47 18.12.2020
4707 Clouds 3 1029 86 10000 2.1 250 23:23 18.12.2020
4708 Clouds 3 1029 86 10000 2.6 300 22:46 18.12.2020
4709 Clouds 3 1029 86 10000 2.6 280 22:22 18.12.2020
4710 Clouds 3 1029 86 10000 2.6 270 21:50 18.12.2020
4711 Clouds 3 1029 86 10000 2.1 320 21:31 18.12.2020
4712 Clouds 3 1029 86 10000 3.1 320 20:41 18.12.2020
4713 Clouds 3 1029 86 10000 3.1 320 20:21 18.12.2020
4714 Clouds 4 1029 80 10000 2.1 340 19:44 18.12.2020
4715 Clouds 4 1029 80 10000 2.1 340 19:20 18.12.2020
4716 Clouds 5 1028 75 10000 3.1 360 18:41 18.12.2020
4717 Clouds 5 1028 75 10000 3.1 360 18:23 18.12.2020
4718 Clouds 5 1028 81 10000 4.1 330 17:24 18.12.2020
4719 Clouds 5 1028 75 10000 1.72 348 16:53 18.12.2020
4720 Clouds 5 1028 75 10000 1.5 250 16:28 18.12.2020
4721 Clouds 5 1028 75 10000 3.6 350 16:00 18.12.2020
4722 Clouds 5 1028 81 10000 2.1 360 15:41 18.12.2020
4723 Clouds 5 1028 81 10000 2.1 360 15:22 18.12.2020
4724 Clouds 5 1028 75 10000 3.6 360 14:54 18.12.2020
4725 Clouds 5 1027 81 10000 4.1 350 14:21 18.12.2020
4726 Clouds 5 1027 81 10000 4.1 360 13:50 18.12.2020
4727 Clouds 5 1027 81 10000 4.6 360 13:30 18.12.2020
4728 Clouds 5 1027 75 10000 4.6 360 12:49 18.12.2020
4729 Clouds 5 1027 75 10000 4.1 350 12:21 18.12.2020
4730 Clouds 5 1028 75 10000 4.1 350 11:23 18.12.2020
4731 Clouds 5 1028 80 10000 3.1 320 10:40 18.12.2020
4732 Clouds 5 1028 80 10000 3.1 320 10:40 18.12.2020
4733 Clouds 4 1028 80 10000 3.1 320 10:20 18.12.2020
4734 Clouds 4 1028 80 10000 3.1 290 09:39 18.12.2020
4735 Clouds 4 1028 80 10000 3.1 290 09:21 18.12.2020
4736 Clouds 4 1028 80 10000 3.1 290 08:54 18.12.2020
4737 Clouds 4 1028 80 10000 2.6 300 08:30 18.12.2020
4738 Clouds 3 1028 93 10000 3.1 290 07:39 18.12.2020
4739 Clouds 3 1028 93 10000 3.1 290 07:18 18.12.2020
4740 Clouds 3 1027 93 10000 4.1 290 06:49 18.12.2020
4741 Clouds 3 1027 93 9000 3.1 300 05:41 18.12.2020
4742 Clouds 4 1027 93 8000 3.1 300 04:51 18.12.2020
4743 Clouds 4 1027 93 7000 3.1 320 01:58 18.12.2020
4744 Clouds 4 1027 87 7000 2.6 320 01:39 18.12.2020
4745 Clouds 5 1027 93 8000 2.6 330 23:59 17.12.2020
4746 Clouds 6 1027 87 9000 2.1 290 23:25 17.12.2020
4747 Clouds 6 1027 87 10000 2.1 300 22:58 17.12.2020
4748 Clouds 6 1027 87 10000 2.1 300 22:58 17.12.2020
4749 Clouds 6 1027 87 10000 1.5 300 22:40 17.12.2020
4750 Clouds 6 1027 87 10000 1.5 300 22:40 17.12.2020
4751 Clouds 6 1027 87 10000 1.5 300 22:22 17.12.2020
4752 Clouds 6 1027 87 10000 1.5 290 21:42 17.12.2020
4753 Clouds 6 1027 87 10000 1.5 290 21:42 17.12.2020
4754 Clouds 6 1027 87 10000 1.5 290 21:19 17.12.2020
4755 Clouds 6 1027 87 10000 1 0 20:41 17.12.2020
4756 Clouds 6 1027 87 10000 1 330 20:19 17.12.2020
4757 Clouds 6 1027 87 10000 2.1 270 19:48 17.12.2020
4758 Clouds 6 1027 87 10000 2.1 270 19:24 17.12.2020
4759 Clouds 7 1027 81 10000 2.1 280 18:42 17.12.2020
4760 Clouds 7 1027 81 10000 2.1 280 18:23 17.12.2020
4761 Clouds 7 1027 81 10000 2.1 280 18:23 17.12.2020
4762 Clouds 7 1026 81 10000 2.1 270 17:54 17.12.2020
4763 Clouds 7 1026 81 10000 2.1 280 17:33 17.12.2020
4764 Clouds 7 1026 81 10000 2.1 240 16:46 17.12.2020
4765 Clouds 8 1026 70 10000 0.5 0 16:27 17.12.2020
4766 Clouds 8 1026 76 10000 1.5 200 15:56 17.12.2020
4767 Clouds 8 1026 70 10000 1.5 150 15:34 17.12.2020
4768 Clouds 8 1026 76 10000 1.5 240 14:55 17.12.2020
4769 Clouds 9 1026 61 10000 1 0 14:35 17.12.2020
4770 Clouds 9 1026 61 10000 1 0 13:58 17.12.2020
4771 Clouds 9 1026 61 10000 1 0 13:39 17.12.2020
4772 Clouds 9 1026 57 10000 2.1 250 12:49 17.12.2020
4773 Clouds 9 1026 61 10000 1.5 280 12:27 17.12.2020
4774 Clouds 9 1026 76 10000 1.5 210 11:46 17.12.2020
4775 Clouds 9 1026 70 10000 1 0 11:26 17.12.2020
4776 Clouds 9 1026 70 10000 1 0 10:56 17.12.2020
4777 Clouds 8 1026 81 7000 2.1 290 10:30 17.12.2020
4778 Clouds 7 1027 87 6000 3.1 280 09:35 17.12.2020
4779 Mist 6 1027 93 4000 0.5 0 08:37 17.12.2020
4780 Mist 6 1026 93 5000 1.5 260 07:40 17.12.2020
4781 Mist 5 1026 93 5000 1.5 260 07:18 17.12.2020
4782 Clouds 6 1026 93 8000 1 0 06:44 17.12.2020
4783 Clouds 6 1026 93 8000 1 0 06:26 17.12.2020
4784 Clouds 5 1026 93 8000 0.5 340 01:40 17.12.2020
4785 Clouds 6 1026 93 8000 1.12 188 23:57 16.12.2020
4786 Clouds 6 1026 93 9000 1 50 23:22 16.12.2020
4787 Clouds 6 1026 93 9000 1 30 22:57 16.12.2020
4788 Clouds 6 1027 93 9000 1.5 40 22:36 16.12.2020
4789 Clouds 6 1026 93 9000 1 30 21:54 16.12.2020
4790 Clouds 6 1027 93 8000 1.5 260 21:36 16.12.2020
4791 Clouds 6 1026 93 8000 2.1 280 20:56 16.12.2020
4792 Clouds 6 1026 87 10000 1.5 60 20:37 16.12.2020
4793 Clouds 6 1026 87 10000 1.5 60 20:18 16.12.2020
4794 Clouds 6 1026 87 8000 0.5 0 19:20 16.12.2020
4795 Clouds 6 1026 93 10000 1 350 18:54 16.12.2020
4796 Clouds 6 1026 87 8000 1.5 270 18:29 16.12.2020
4797 Clouds 6 1026 87 10000 0.5 0 17:47 16.12.2020
4798 Clouds 6 1026 87 10000 1.83 111 17:28 16.12.2020
4799 Clouds 6 1026 87 10000 1.83 111 16:40 16.12.2020
4800 Clouds 6 1026 87 10000 0.5 0 16:21 16.12.2020
4801 Clouds 6 1026 87 10000 0.5 0 15:51 16.12.2020
4802 Clouds 6 1026 87 10000 1.5 200 15:28 16.12.2020
4803 Clouds 7 1026 87 10000 2.1 220 14:47 16.12.2020
4804 Clouds 7 1026 87 10000 2.1 220 14:28 16.12.2020
4805 Clouds 7 1026 87 10000 2.1 220 14:28 16.12.2020
4806 Clouds 7 1026 81 10000 2.1 230 13:49 16.12.2020
4807 Clouds 7 1026 81 10000 2.1 240 13:30 16.12.2020
4808 Clouds 6 1026 87 10000 2.6 250 12:56 16.12.2020
4809 Clouds 6 1026 81 10000 2.6 270 12:35 16.12.2020
4810 Clouds 6 1027 81 10000 1.5 270 11:40 16.12.2020
4811 Clouds 6 1027 81 10000 1.5 270 11:22 16.12.2020
4812 Clouds 5 1027 87 10000 1.5 280 10:49 16.12.2020
4813 Clouds 5 1027 87 10000 2.6 340 10:25 16.12.2020
4814 Clouds 5 1027 87 10000 2.6 350 09:43 16.12.2020
4815 Clouds 4 1027 86 10000 1 0 08:42 16.12.2020
4816 Clouds 4 1026 93 10000 2.6 290 07:57 16.12.2020
4817 Drizzle 4 1026 93 10000 1.5 300 07:38 16.12.2020
4818 Drizzle 4 1026 86 10000 1.5 360 06:52 16.12.2020
4819 Clouds 4 1025 93 10000 1.5 350 02:26 16.12.2020
4820 Clouds 5 1025 87 10000 2.6 350 00:26 16.12.2020
4821 Clouds 5 1025 81 10000 4.1 340 23:44 15.12.2020
4822 Clouds 5 1025 81 10000 1.5 0 22:47 15.12.2020
4823 Clouds 5 1025 87 10000 2.1 0 22:25 15.12.2020
4824 Clouds 5 1025 86 10000 2.1 340 21:57 15.12.2020
4825 Clouds 5 1024 86 10000 3.1 330 21:37 15.12.2020
4826 Rain 5 1024 93 10000 2.1 330 21:19 15.12.2020
4827 Clouds 5 1024 81 10000 3.6 340 20:42 15.12.2020
4828 Clouds 5 1024 81 10000 3.6 340 20:23 15.12.2020
4829 Clouds 5 1023 87 10000 7.2 330 19:42 15.12.2020
4830 Clouds 5 1023 87 10000 7.2 330 19:23 15.12.2020
4831 Clouds 5 1023 81 10000 4.6 330 18:39 15.12.2020
4832 Clouds 5 1023 81 10000 4.6 330 18:21 15.12.2020
4833 Clouds 5 1023 81 10000 4.6 300 17:44 15.12.2020
4834 Clouds 5 1023 81 10000 4.6 300 17:23 15.12.2020
4835 Clouds 5 1023 86 10000 4.6 310 16:38 15.12.2020
4836 Clouds 5 1023 86 10000 4.6 310 16:19 15.12.2020
4837 Clouds 5 1022 86 10000 4.6 310 15:37 15.12.2020
4838 Clouds 5 1022 86 10000 4.6 310 15:18 15.12.2020
4839 Clouds 5 1022 81 10000 5.7 320 14:41 15.12.2020
4840 Clouds 5 1021 81 10000 6.2 310 14:19 15.12.2020
4841 Clouds 5 1021 86 10000 6.2 310 13:48 15.12.2020
4842 Clouds 5 1021 86 10000 6.2 310 13:23 15.12.2020
4843 Clouds 5 1021 81 10000 5.1 310 12:45 15.12.2020
4844 Clouds 5 1021 81 10000 6.2 280 12:19 15.12.2020
4845 Clouds 5 1021 81 10000 6.7 280 11:50 15.12.2020
4846 Clouds 5 1021 86 10000 6.2 300 11:22 15.12.2020
4847 Clouds 5 1022 81 10000 6.2 310 10:47 15.12.2020
4848 Clouds 5 1022 81 10000 5.1 310 10:20 15.12.2020
4849 Clouds 5 1021 86 10000 5.1 300 09:42 15.12.2020
4850 Clouds 5 1021 86 10000 5.1 300 09:23 15.12.2020
4851 Clouds 4 1021 80 10000 6.2 300 08:40 15.12.2020
4852 Clouds 4 1021 80 10000 6.2 300 08:21 15.12.2020
4853 Clouds 4 1020 80 10000 5.1 290 07:43 15.12.2020
4854 Clouds 4 1019 80 10000 8.7 310 06:53 15.12.2020
4855 Clouds 3 1019 93 10000 6.2 270 05:34 15.12.2020
4856 Clouds 4 1017 93 10000 6.2 280 00:39 15.12.2020
4857 Clouds 4 1017 93 10000 5.7 270 23:48 14.12.2020
4858 Clouds 4 1017 93 10000 5.7 260 23:19 14.12.2020
4859 Clouds 5 1016 87 10000 5.7 300 22:40 14.12.2020
4860 Clouds 5 1017 87 10000 5.7 280 21:56 14.12.2020
4861 Clouds 5 1016 87 10000 5.1 300 21:36 14.12.2020
4862 Clouds 5 1016 87 10000 4.1 280 21:18 14.12.2020
4863 Clouds 5 1016 87 10000 4.6 290 20:43 14.12.2020
4864 Clouds 5 1016 87 10000 4.6 290 20:24 14.12.2020
4865 Clouds 5 1015 93 10000 3.6 280 19:39 14.12.2020
4866 Clouds 5 1015 93 10000 3.6 280 19:21 14.12.2020
4867 Clouds 5 1015 93 10000 2.6 290 18:42 14.12.2020
4868 Clouds 5 1015 93 10000 2.6 290 18:22 14.12.2020
4869 Clouds 5 1014 87 10000 5.1 290 17:34 14.12.2020
4870 Clouds 5 1014 93 10000 4.6 280 16:57 14.12.2020
4871 Clouds 5 1014 93 10000 4.6 280 16:38 14.12.2020
4872 Clouds 5 1014 87 10000 3.6 300 16:18 14.12.2020
4873 Clouds 5 1013 93 10000 4.1 260 15:33 14.12.2020
4874 Clouds 5 1012 87 10000 5.7 280 14:48 14.12.2020
4875 Clouds 5 1012 93 10000 4.1 260 14:29 14.12.2020
4876 Clouds 5 1012 87 10000 4.1 290 13:55 14.12.2020
4877 Clouds 5 1012 87 10000 5.1 280 13:34 14.12.2020
4878 Clouds 5 1012 93 10000 4.6 260 12:56 14.12.2020
4879 Clouds 6 1012 93 10000 5.1 260 12:31 14.12.2020
4880 Clouds 6 1012 93 10000 5.7 270 11:54 14.12.2020
4881 Drizzle 6 1012 93 10000 6.2 260 11:23 14.12.2020
4882 Drizzle 5 1012 87 10000 5.1 280 10:27 14.12.2020
4883 Clouds 5 1012 87 10000 5.1 270 09:52 14.12.2020
4884 Clouds 5 1012 87 10000 6.2 270 08:56 14.12.2020
4885 Clouds 5 1011 93 10000 5.7 280 08:38 14.12.2020
4886 Rain 5 1012 87 10000 5.7 280 07:53 14.12.2020
4887 Rain 5 1011 87 10000 4.6 280 07:19 14.12.2020
4888 Rain 5 1011 87 10000 5.1 290 06:33 14.12.2020
4889 Clouds 5 1010 93 10000 5.1 300 03:55 14.12.2020
4890 Clouds 5 1009 87 10000 5.7 310 00:57 14.12.2020
4891 Clouds 5 1009 87 10000 6.2 310 00:37 14.12.2020
4892 Clouds 5 1009 87 10000 6.2 310 00:18 14.12.2020
4893 Clouds 5 1010 87 10000 4.1 290 23:42 13.12.2020
4894 Clouds 5 1010 87 10000 4.1 290 22:52 13.12.2020
4895 Clouds 5 1010 87 10000 3.6 260 22:21 13.12.2020
4896 Clouds 5 1010 87 10000 3.6 280 21:56 13.12.2020
4897 Clouds 5 1010 87 10000 4.1 280 21:36 13.12.2020
4898 Clouds 5 1010 87 10000 3.1 270 20:50 13.12.2020
4899 Clouds 5 1009 93 10000 3.6 280 20:25 13.12.2020
4900 Clouds 5 1009 87 10000 4.6 300 19:46 13.12.2020
4901 Clouds 6 1009 87 10000 4.6 300 19:23 13.12.2020
4902 Clouds 6 1009 87 10000 3.1 270 18:54 13.12.2020
4903 Clouds 6 1009 87 10000 3.1 290 18:36 13.12.2020
4904 Clouds 5 1009 87 10000 3.1 290 18:18 13.12.2020
4905 Clouds 5 1008 93 10000 2.1 0 17:43 13.12.2020
4906 Clouds 5 1008 93 10000 2.1 0 17:18 13.12.2020
4907 Clouds 5 1008 93 5000 3.1 270 16:44 13.12.2020
4908 Clouds 5 1008 93 5000 3.1 270 16:21 13.12.2020
4909 Mist 5 1008 93 3700 1.5 0 15:45 13.12.2020
4910 Mist 5 1008 93 3700 1.5 0 15:45 13.12.2020
4911 Clouds 5 1008 87 10000 1.5 0 15:45 13.12.2020
4912 Mist 5 1008 93 3700 1.5 0 15:45 13.12.2020
4913 Clouds 5 1008 87 10000 1.5 0 15:45 13.12.2020
4914 Clouds 6 1008 87 10000 1.5 0 15:25 13.12.2020
4915 Clouds 6 1007 93 10000 1.5 280 14:45 13.12.2020
4916 Rain 6 1007 93 8000 1.5 280 14:27 13.12.2020
4917 Rain 6 1007 87 10000 1 0 13:46 13.12.2020
4918 Rain 6 1006 93 10000 1.5 0 13:27 13.12.2020
4919 Rain 6 1006 93 9000 2.6 280 12:55 13.12.2020
4920 Rain 7 1006 93 8000 3.1 350 12:24 13.12.2020
4921 Rain 7 1006 93 7000 3.1 340 11:51 13.12.2020
4922 Rain 7 1006 93 8000 3.1 350 11:23 13.12.2020
4923 Rain 7 1007 100 10000 1.5 240 10:41 13.12.2020
4924 Rain 7 1007 100 10000 1.5 240 10:18 13.12.2020
4925 Clouds 7 1007 93 10000 2.6 260 09:31 13.12.2020
4926 Clouds 6 1006 100 10000 2.1 300 08:36 13.12.2020
4927 Clouds 6 1006 100 10000 3.1 300 07:52 13.12.2020
4928 Mist 6 1006 100 4600 1.5 340 05:49 13.12.2020
4929 Fog 6 1005 100 250 1.5 310 02:43 13.12.2020
4930 Fog 7 1005 100 350 1 0 01:58 13.12.2020
4931 Fog 7 1004 100 3500 0.58 221 01:33 13.12.2020
4932 Clouds 8 1004 100 10000 1 330 00:33 13.12.2020
4933 Clouds 8 1004 100 10000 2.6 120 23:33 12.12.2020
4934 Clouds 8 1004 100 10000 2.1 40 22:58 12.12.2020
4935 Clouds 9 1003 93 9000 2.1 40 22:27 12.12.2020
4936 Clouds 9 1003 100 9000 1 0 21:45 12.12.2020
4937 Clouds 9 1003 100 10000 2.6 80 21:18 12.12.2020
4938 Clouds 9 1003 93 10000 2.6 40 20:43 12.12.2020
4939 Clouds 9 1003 93 10000 2.6 40 20:19 12.12.2020
4940 Clouds 10 1003 93 10000 2.6 160 19:47 12.12.2020
4941 Clouds 10 1003 93 10000 3.1 100 19:29 12.12.2020
4942 Clouds 10 1002 93 10000 4.1 110 18:48 12.12.2020
4943 Clouds 11 1002 87 10000 4.6 120 18:30 12.12.2020
4944 Clouds 11 1002 87 10000 5.7 110 17:51 12.12.2020
4945 Clouds 11 1002 93 10000 5.1 110 17:32 12.12.2020
4946 Clouds 10 1002 93 10000 6.2 100 16:24 12.12.2020
4947 Clouds 10 1002 93 10000 7.2 100 15:52 12.12.2020
4948 Clouds 10 1002 93 10000 7.2 110 15:34 12.12.2020
4949 Rain 10 1002 93 9000 8.2 100 14:50 12.12.2020
4950 Clouds 10 1002 93 8000 7.2 110 13:58 12.12.2020
4951 Clouds 10 1002 93 8000 6.2 100 13:38 12.12.2020
4952 Rain 10 1002 93 8000 6.2 100 13:19 12.12.2020
4953 Rain 10 1002 93 8000 7.2 100 12:29 12.12.2020
4954 Rain 11 1003 87 10000 4.1 100 10:56 12.12.2020
4955 Rain 9 1004 93 10000 3.6 100 09:50 12.12.2020
4956 Rain 9 1005 100 8000 2.1 110 08:57 12.12.2020
4957 Clouds 7 1006 100 7000 2.13 112 03:33 12.12.2020
4958 Mist 4 1008 100 5000 0.5 0 00:28 12.12.2020
4959 Clear 4 1008 100 6000 1 10 22:47 11.12.2020
4960 Clear 4 1008 100 6000 2.1 350 20:51 11.12.2020
4961 Clouds 5 1008 100 6000 1.5 330 18:46 11.12.2020
4962 Clear 7 1008 93 10000 2.1 280 16:34 11.12.2020
4963 Clouds 9 1007 93 10000 3.6 290 14:19 11.12.2020
4964 Clouds 9 1007 93 10000 3.6 300 13:25 11.12.2020
4965 Clouds 9 1007 93 10000 3.1 270 12:20 11.12.2020
4966 Drizzle 10 1007 93 8000 4.6 260 11:52 11.12.2020
4967 Clouds 11 1007 93 10000 1.5 130 10:55 11.12.2020
4968 Rain 11 1007 93 10000 1.5 350 09:41 11.12.2020
4969 Clouds 10 1006 87 10000 2.6 90 05:59 11.12.2020
4970 Clouds 11 1006 87 10000 4.1 80 05:18 11.12.2020
4971 Clear 11 1007 81 10000 3.1 110 02:28 11.12.2020
4972 Clear 11 1008 87 10000 4.6 90 00:31 11.12.2020
4973 Clear 11 1009 87 10000 6.2 100 22:55 10.12.2020
4974 Clear 11 1009 87 10000 4.6 100 21:36 10.12.2020
4975 Clear 11 1009 87 10000 6.2 100 20:46 10.12.2020
4976 Clear 11 1009 87 10000 3.6 100 19:44 10.12.2020
4977 Clear 11 1009 81 10000 4.6 90 18:57 10.12.2020
4978 Clear 11 1009 81 10000 4.6 90 18:21 10.12.2020
4979 Clouds 12 1010 81 10000 4.1 110 16:32 10.12.2020
4980 Clouds 12 1010 71 10000 5.1 140 15:27 10.12.2020
4981 Clouds 12 1010 76 10000 4.6 130 14:51 10.12.2020
4982 Clouds 13 1010 76 10000 5.1 140 14:28 10.12.2020
4983 Clouds 13 1010 76 10000 5.1 140 12:54 10.12.2020
4984 Clouds 12 1011 82 10000 4.1 130 11:39 10.12.2020
4985 Rain 12 1012 93 8000 4.1 100 08:52 10.12.2020
4986 Clouds 11 1011 87 10000 4.6 90 07:48 10.12.2020
4987 Rain 11 1011 87 10000 5.1 90 06:41 10.12.2020
4988 Clouds 11 1013 93 10000 7.2 100 02:56 10.12.2020
4989 Clouds 11 1013 93 9000 5.7 120 02:23 10.12.2020
4990 Clouds 9 1014 93 10000 7.2 100 00:22 10.12.2020
4991 Rain 7 1016 100 9000 7.2 100 21:58 09.12.2020
4992 Rain 6 1017 93 9000 6.2 100 20:28 09.12.2020
4993 Rain 5 1017 100 9000 4.1 100 19:21 09.12.2020
4994 Rain 4 1018 100 10000 2.6 110 17:43 09.12.2020
4995 Rain 4 1018 100 10000 5.1 100 16:44 09.12.2020
4996 Rain 4 1018 100 10000 5.1 100 16:20 09.12.2020
4997 Clouds 5 1018 87 10000 3.6 100 15:18 09.12.2020
4998 Clouds 5 1018 87 10000 3.6 110 14:27 09.12.2020
4999 Clouds 5 1018 87 10000 3.6 120 13:58 09.12.2020
5000 Clouds 5 1018 87 10000 4.1 110 13:19 09.12.2020
5001 Clouds 4 1019 93 8000 3.1 140 12:44 09.12.2020
5002 Clouds 5 1019 93 10000 2.6 140 11:49 09.12.2020
5003 Clouds 3 1020 93 10000 1.5 130 10:39 09.12.2020
5004 Clouds 1 1020 93 6000 2.6 300 08:46 09.12.2020
5005 Clouds 1 1019 86 10000 1 0 07:43 09.12.2020
5006 Clouds 0 1019 88 10000 3.1 300 05:48 09.12.2020
5007 Clouds 0 1019 86 10000 4.6 310 03:21 09.12.2020
5008 Clouds 0 1019 85 10000 4.1 290 01:49 09.12.2020
5009 Clouds 1 1018 87 10000 5.1 290 23:41 08.12.2020
5010 Clouds 1 1018 86 10000 5.7 270 22:43 08.12.2020
5011 Clouds 1 1018 86 10000 6.7 280 20:54 08.12.2020
5012 Clouds 2 1017 86 10000 7.2 280 19:32 08.12.2020
5013 Clouds 2 1017 87 10000 6.7 280 18:57 08.12.2020
5014 Clouds 2 1016 85 10000 6.2 270 17:31 08.12.2020
5015 Clouds 3 1014 86 7000 6.7 280 15:43 08.12.2020
5016 Rain 3 1014 86 9000 8.2 280 14:18 08.12.2020
5017 Clouds 3 1013 93 10000 9.3 300 13:24 08.12.2020
5018 Clouds 3 1013 86 10000 7.7 280 12:24 08.12.2020
5019 Clouds 3 1013 93 10000 6.7 270 11:39 08.12.2020
5020 Clouds 3 1013 93 10000 6.2 270 10:43 08.12.2020
5021 Drizzle 3 1013 93 10000 5.7 270 09:47 08.12.2020
5022 Clouds 3 1013 93 10000 3.6 290 07:59 08.12.2020
5023 Rain 4 1012 86 10000 4.6 350 06:33 08.12.2020
5024 Clouds 2 1012 93 10000 7.7 20 03:23 08.12.2020
5025 Clouds 5 1013 86 10000 6.7 20 00:46 08.12.2020
5026 Rain 5 1013 93 10000 7.2 40 23:50 07.12.2020
5027 Rain 5 1014 87 10000 7.7 40 22:33 07.12.2020
5028 Rain 5 1014 81 10000 9.3 40 21:49 07.12.2020
5029 Clouds 5 1015 87 10000 8.7 60 19:46 07.12.2020
5030 Clouds 5 1016 87 10000 8.7 50 18:20 07.12.2020
5031 Drizzle 5 1016 93 10000 8.7 50 17:26 07.12.2020
5032 Clouds 6 1016 87 10000 7.7 50 16:48 07.12.2020
5033 Clouds 6 1015 87 8000 8.2 60 15:26 07.12.2020
5034 Clouds 6 1016 87 7000 7.2 70 14:44 07.12.2020
5035 Clouds 7 1016 81 10000 7.2 70 13:44 07.12.2020
5036 Clouds 7 1016 76 10000 3.1 90 12:35 07.12.2020
5037 Clouds 8 1017 70 10000 2.6 130 11:43 07.12.2020
5038 Clouds 7 1018 81 10000 2.1 0 10:44 07.12.2020
5039 Clouds 7 1018 81 10000 2.6 0 09:40 07.12.2020
5040 Clouds 5 1018 81 10000 8.2 40 07:51 07.12.2020
5041 Clouds 5 1019 81 10000 2.1 70 05:34 07.12.2020
5042 Clouds 5 1019 81 10000 1.5 0 04:46 07.12.2020
5043 Clouds 6 1019 81 10000 8.7 40 01:47 07.12.2020
5044 Clouds 6 1020 81 10000 9.8 50 22:53 06.12.2020
5045 Clouds 6 1020 81 10000 8.2 50 22:19 06.12.2020
5046 Clouds 6 1020 81 10000 6.7 60 20:52 06.12.2020
5047 Clouds 6 1020 81 10000 5.1 60 20:34 06.12.2020
5048 Clouds 6 1020 81 10000 6.2 50 19:43 06.12.2020
5049 Clouds 6 1020 81 10000 6.2 50 17:54 06.12.2020
5050 Clouds 7 1021 87 10000 5.7 50 16:39 06.12.2020
5051 Clouds 8 1021 81 10000 6.2 50 14:50 06.12.2020
5052 Clouds 9 1021 76 10000 3.6 70 13:30 06.12.2020
5053 Clouds 9 1021 76 10000 2.6 0 12:36 06.12.2020
5054 Clouds 9 1022 76 10000 4.1 110 11:54 06.12.2020
5055 Clouds 9 1022 76 10000 3.6 90 11:28 06.12.2020
5056 Clouds 8 1022 81 10000 3.1 70 10:39 06.12.2020
5057 Clouds 7 1023 87 10000 2.6 130 09:38 06.12.2020
5058 Clouds 7 1022 87 10000 2.1 0 07:52 06.12.2020
5059 Clouds 8 1022 87 10000 4.6 70 05:18 06.12.2020
5060 Clouds 9 1022 81 10000 3.1 40 00:46 06.12.2020
5061 Clouds 9 1022 87 10000 3.1 40 00:27 06.12.2020
5062 Clouds 9 1022 81 10000 3.1 50 23:57 05.12.2020
5063 Clouds 9 1022 81 10000 3.1 50 22:25 05.12.2020
5064 Clouds 10 1022 71 10000 5.1 70 21:55 05.12.2020
5065 Clouds 10 1022 76 10000 4.1 70 21:30 05.12.2020
5066 Clouds 10 1022 81 10000 5.1 70 19:54 05.12.2020
5067 Clouds 11 1021 76 10000 5.1 70 18:46 05.12.2020
5068 Clouds 11 1021 76 10000 5.7 70 17:55 05.12.2020
5069 Clouds 11 1021 81 10000 6.2 80 16:45 05.12.2020
5070 Clouds 11 1021 81 10000 4.6 70 16:26 05.12.2020
5071 Clouds 11 1020 81 10000 5.1 90 14:52 05.12.2020
5072 Clouds 12 1020 76 10000 6.2 80 12:36 05.12.2020
5073 Clouds 12 1020 76 10000 7.2 90 11:50 05.12.2020
5074 Clouds 12 1020 76 10000 6.7 90 10:35 05.12.2020
5075 Clouds 12 1020 82 10000 5.7 80 08:40 05.12.2020
5076 Clouds 11 1020 81 10000 5.1 90 07:47 05.12.2020
5077 Clouds 11 1019 87 10000 4.1 90 05:33 05.12.2020
5078 Clouds 11 1019 87 10000 4.1 90 05:33 05.12.2020
5079 Clouds 10 1018 93 7000 2.6 90 00:40 05.12.2020
5080 Clouds 10 1018 93 7000 1.5 40 23:23 04.12.2020
5081 Clouds 9 1018 100 7000 1 50 21:34 04.12.2020
5082 Clouds 9 1017 93 9000 1.5 110 19:21 04.12.2020
5083 Clouds 9 1017 93 9000 1 0 18:30 04.12.2020
5084 Clouds 10 1017 87 10000 2.1 70 17:44 04.12.2020
5085 Clouds 11 1017 81 10000 3.1 100 16:32 04.12.2020
5086 Clouds 12 1017 87 10000 3.1 120 15:23 04.12.2020
5087 Clouds 13 1016 76 10000 4.6 130 13:36 04.12.2020
5088 Clouds 13 1016 82 10000 3.6 120 13:18 04.12.2020
5089 Clouds 13 1017 82 10000 3.6 110 12:20 04.12.2020
5090 Clouds 11 1018 81 10000 2.6 130 10:37 04.12.2020
5091 Clouds 10 1018 93 7000 3.1 120 08:29 04.12.2020
5092 Clouds 10 1017 93 10000 3.6 120 06:40 04.12.2020
5093 Clouds 9 1018 93 10000 2.6 130 04:53 04.12.2020
5094 Clouds 9 1018 93 10000 2.1 160 01:53 04.12.2020
5095 Clouds 6 1018 93 10000 1 0 22:49 03.12.2020
5096 Clouds 6 1019 93 9000 1 0 21:23 03.12.2020
5097 Clouds 6 1019 87 10000 5.2 118 20:46 03.12.2020
5098 Clouds 6 1020 87 10000 0.5 360 19:23 03.12.2020
5099 Clouds 6 1021 87 10000 3.66 117 18:41 03.12.2020
5100 Clouds 6 1021 87 10000 2.1 90 17:21 03.12.2020
5101 Clouds 6 1021 87 10000 2.6 120 15:59 03.12.2020
5102 Clouds 6 1021 87 10000 3.6 120 15:32 03.12.2020
5103 Clouds 6 1021 87 10000 3.6 120 14:48 03.12.2020
5104 Clouds 6 1021 81 10000 3.6 120 13:55 03.12.2020
5105 Clouds 5 1022 81 10000 2.6 130 12:44 03.12.2020
5106 Clouds 5 1022 87 9000 1.5 130 12:22 03.12.2020
5107 Clouds 4 1023 86 6000 1.5 50 10:40 03.12.2020
5108 Mist 2 1023 93 3900 1 0 08:41 03.12.2020
5109 Clouds 1 1023 93 7000 1.5 230 03:45 03.12.2020
5110 Clouds 1 1024 100 7000 2.1 270 01:46 03.12.2020
5111 Clouds 1 1024 89 7000 2.6 280 23:56 02.12.2020
5112 Clouds 1 1024 89 6000 2.6 250 22:45 02.12.2020
5113 Clouds 1 1024 88 7000 3.1 260 21:43 02.12.2020
5114 Clouds 1 1024 88 8000 2.6 260 20:49 02.12.2020
5115 Clouds 1 1024 88 8000 2.6 260 20:31 02.12.2020
5116 Clouds 1 1024 88 9000 2.6 270 19:40 02.12.2020
5117 Clouds 1 1023 88 6000 3.1 270 17:49 02.12.2020
5118 Clouds 1 1023 88 6000 3.1 270 17:30 02.12.2020
5119 Mist 1 1023 88 4800 3.6 280 15:43 02.12.2020
5120 Clouds 1 1023 84 6000 5.1 280 13:26 02.12.2020
5121 Clouds 0 1023 86 6000 4.6 290 11:30 02.12.2020
5122 Clouds 0 1023 86 8000 5.1 300 10:24 02.12.2020
5123 Snow -1 1023 90 6000 5.1 280 07:46 02.12.2020
5124 Clouds -1 1023 95 8000 4.1 270 23:30 01.12.2020
5125 Clouds -1 1023 95 9000 3.1 290 22:20 01.12.2020
5126 Snow 0 1022 80 8000 3.6 270 19:36 01.12.2020
5127 Snow 0 1022 80 8000 3.6 270 19:36 01.12.2020
5128 Snow 0 1022 80 8000 3.6 270 18:56 01.12.2020
5129 Clouds 0 1022 80 10000 4.1 270 16:47 01.12.2020
5130 Clouds 1 1021 80 10000 5.7 290 14:53 01.12.2020
5131 Clouds 1 1022 74 10000 7.2 330 12:45 01.12.2020
5132 Clouds 2 1022 74 10000 5.7 280 11:29 01.12.2020
5133 Clouds 1 1022 74 10000 4.6 0 10:52 01.12.2020
5134 Clouds 0 1023 80 10000 5.7 280 10:26 01.12.2020
5135 Clouds 1 1023 80 10000 4.1 0 07:40 01.12.2020
5136 Snow 1 1022 80 10000 7.2 350 02:57 01.12.2020
5137 Snow 1 1022 80 10000 7.2 350 02:57 01.12.2020
5138 Rain 1 1023 80 10000 5.1 340 00:57 01.12.2020
5139 Rain 1 1023 89 10000 8.2 340 23:49 30.11.2020
5140 Rain 1 1022 91 10000 8.2 350 23:18 30.11.2020
5141 Rain 1 1023 91 10000 6.2 340 22:36 30.11.2020
5142 Rain 1 1023 91 10000 6.2 340 22:18 30.11.2020
5143 Rain 1 1022 91 8000 8.2 350 19:46 30.11.2020
5144 Rain 1 1022 92 8000 9.3 340 18:44 30.11.2020
5145 Rain 1 1022 91 8000 9.3 340 18:21 30.11.2020
5146 Rain 1 1021 91 10000 9.8 350 17:43 30.11.2020
5147 Rain 1 1021 91 10000 9.8 350 17:43 30.11.2020
5148 Clouds 1 1021 89 10000 7.2 340 16:44 30.11.2020
5149 Rain 1 1021 88 8000 6.2 320 14:47 30.11.2020
5150 Clouds 1 1021 86 10000 6.7 330 13:55 30.11.2020
5151 Clouds 1 1021 86 10000 4.6 290 12:40 30.11.2020
5152 Rain 1 1021 85 10000 4.6 290 12:20 30.11.2020
5153 Clouds 2 1021 86 10000 5.1 280 10:32 30.11.2020
5154 Clouds 2 1021 86 10000 5.7 290 09:52 30.11.2020
5155 Clouds 2 1020 86 10000 5.1 300 07:58 30.11.2020
5156 Rain 3 1020 93 10000 5.1 300 01:21 30.11.2020
5157 Clouds 5 1019 93 7000 4.1 330 22:22 29.11.2020
5158 Clouds 5 1019 93 7000 3.1 350 21:44 29.11.2020
5159 Rain 5 1019 93 6000 2.1 10 21:25 29.11.2020
5160 Clouds 7 1019 75 8000 3.6 60 18:31 29.11.2020
5161 Clouds 7 1018 87 7000 3.6 90 16:59 29.11.2020
5162 Mist 10 1018 81 5000 4.1 120 13:35 29.11.2020
5163 Mist 11 1018 76 4800 1.5 110 12:34 29.11.2020
5164 Mist 10 1019 87 3600 1.5 310 11:22 29.11.2020
5165 Mist 6 1019 93 4700 2.1 270 08:52 29.11.2020
5166 Mist 5 1019 93 5000 1 0 08:34 29.11.2020
5167 Clouds 6 1018 93 6000 1 0 01:43 29.11.2020
5168 Fog 3 1018 100 4800 0.5 50 22:57 28.11.2020
5169 Clouds 4 1018 86 8000 1 0 21:20 28.11.2020
5170 Clear 5 1018 80 10000 1.5 10 19:53 28.11.2020
5171 Clear 5 1018 80 10000 0.7 129 19:25 28.11.2020
5172 Clouds 5 1018 81 9000 1 60 18:52 28.11.2020
5173 Clouds 6 1018 81 9000 0.82 187 17:52 28.11.2020
5174 Clear 7 1017 75 10000 3.1 100 16:52 28.11.2020
5175 Clear 12 1017 50 10000 2.6 140 14:58 28.11.2020
5176 Clear 14 1017 35 10000 1.5 240 13:30 28.11.2020
5177 Clear 12 1018 40 10000 1.5 260 11:23 28.11.2020
5178 Mist 4 1019 56 5000 1.64 293 07:55 28.11.2020
5179 Clear 1 1018 63 10000 1.5 330 03:33 28.11.2020
5180 Clear 2 1019 61 10000 2.02 282 01:51 28.11.2020
5181 Clear 2 1019 59 10000 1.88 230 23:19 27.11.2020
5182 Clear 3 1020 69 10000 1.5 40 21:51 27.11.2020
5183 Clear 4 1020 60 10000 1 0 20:37 27.11.2020
5184 Clear 4 1020 60 10000 1 60 19:30 27.11.2020
5185 Clear 5 1020 56 10000 2.1 60 18:51 27.11.2020
5186 Clear 11 1019 48 10000 4.1 100 15:21 27.11.2020
5187 Clear 14 1020 28 10000 1 0 13:57 27.11.2020
5188 Clear 14 1020 30 10000 1 0 12:48 27.11.2020
5189 Clear 13 1021 30 10000 0.5 0 11:55 27.11.2020
5190 Clear 12 1022 34 10000 0.5 0 10:51 27.11.2020
5191 Clear 10 1022 49 10000 1 0 10:25 27.11.2020
5192 Clear 4 1017 99 10000 1.72 230 07:30 27.11.2020
5193 Clear 1 1019 99 10000 1.1 225 22:43 26.11.2020
5194 Clear 6 1025 60 10000 1.02 224 22:22 26.11.2020
5195 Clear 2 1024 74 10000 2.1 340 21:39 26.11.2020
5196 Clear 3 1024 74 10000 2.1 20 19:41 26.11.2020
5197 Clear 3 1024 69 10000 2.1 20 18:31 26.11.2020
5198 Clear 7 1024 56 10000 3.1 100 16:32 26.11.2020
5199 Clear 12 1024 43 10000 1.5 0 13:43 26.11.2020
5200 Clear 12 1024 43 10000 1.5 0 13:43 26.11.2020
5201 Clear 12 1024 46 10000 1.5 270 12:45 26.11.2020
5202 Clear 11 1024 50 10000 2.1 270 12:23 26.11.2020
5203 Clear 9 1025 70 8000 2.1 240 10:38 26.11.2020
5204 Clear 8 1026 75 6000 1.5 250 09:59 26.11.2020
5205 Clear 6 1026 75 8000 0.5 0 09:31 26.11.2020
5206 Mist 4 1026 55 2500 2.1 250 08:40 26.11.2020
5207 Mist 0 1025 100 2600 2.1 310 06:56 26.11.2020
5208 Clear 1 1025 68 8000 2.25 314 00:46 26.11.2020
5209 Clear 1 1026 67 10000 0.5 0 21:29 25.11.2020
5210 Clear 2 1025 66 10000 0.5 0 19:58 25.11.2020
5211 Clear 3 1025 65 10000 1 320 18:50 25.11.2020
5212 Clear 6 1025 70 10000 2.1 10 17:24 25.11.2020
5213 Clear 9 1025 57 10000 3.1 250 15:42 25.11.2020
5214 Clear 10 1025 53 10000 3.6 300 14:19 25.11.2020
5215 Clear 10 1026 53 10000 3.6 240 13:43 25.11.2020
5216 Clear 10 1026 57 10000 3.6 220 12:26 25.11.2020
5217 Clear 9 1027 57 10000 3.1 240 11:20 25.11.2020
5218 Clear 5 1029 80 8000 1.5 270 09:19 25.11.2020
5219 Clear 4 1029 65 7000 1.5 270 08:47 25.11.2020
5220 Clear -1 1028 92 10000 2.92 346 05:20 25.11.2020
5221 Clear 0 1028 92 10000 3.1 260 03:31 25.11.2020
5222 Clear 0 1029 80 10000 1 0 00:48 25.11.2020
5223 Clear 1 1029 74 10000 2.1 300 23:55 24.11.2020
5224 Clear 0 1029 86 10000 2.6 280 23:34 24.11.2020
5225 Clear 1 1029 80 10000 2.1 320 21:52 24.11.2020
5226 Clear 2 1029 74 10000 2.6 350 21:31 24.11.2020
5227 Clear 1 1028 80 10000 1.5 360 20:45 24.11.2020
5228 Clear 2 1028 80 10000 0.5 0 18:57 24.11.2020
5229 Clear 4 1028 69 10000 1.5 340 17:31 24.11.2020
5230 Clear 5 1028 64 10000 3.1 340 16:54 24.11.2020
5231 Clear 6 1027 70 10000 3.1 330 16:35 24.11.2020
5232 Clear 7 1027 61 10000 1.5 320 15:54 24.11.2020
5233 Clear 8 1027 57 10000 3.1 360 15:19 24.11.2020
5234 Clear 8 1027 57 10000 3.1 30 14:43 24.11.2020
5235 Clear 9 1026 57 10000 4.6 10 12:55 24.11.2020
5236 Clear 9 1026 57 10000 5.1 10 12:22 24.11.2020
5237 Clear 8 1026 53 10000 4.6 10 11:53 24.11.2020
5238 Clear 7 1027 61 10000 5.1 360 10:46 24.11.2020
5239 Clear 7 1027 61 10000 4.1 10 10:24 24.11.2020
5240 Clear 6 1026 65 10000 4.1 20 09:35 24.11.2020
5241 Clear 4 1026 75 10000 2.6 300 07:58 24.11.2020
5242 Clear 3 1024 80 10000 3.6 310 04:21 24.11.2020
5243 Clear 2 1024 65 10000 0.5 310 22:34 23.11.2020
5244 Clear 1 1024 80 10000 1 290 21:37 23.11.2020
5245 Clear 2 1024 80 10000 1 340 20:50 23.11.2020
5246 Clear 2 1024 80 10000 1.5 10 20:26 23.11.2020
5247 Clear 3 1025 74 10000 1.5 360 19:20 23.11.2020
5248 Clear 4 1025 69 10000 0.5 0 17:25 23.11.2020
5249 Clear 7 1025 56 10000 1 0 16:28 23.11.2020
5250 Clear 10 1025 54 10000 2.6 250 14:48 23.11.2020
5251 Clear 11 1026 50 10000 3.1 230 13:20 23.11.2020
5252 Clear 10 1026 50 10000 2.6 230 12:37 23.11.2020
5253 Clear 10 1027 53 10000 2.1 230 11:48 23.11.2020
5254 Clear 10 1027 53 10000 1.5 250 11:19 23.11.2020
5255 Clear 5 1029 56 10000 2.1 290 09:31 23.11.2020
5256 Clear 3 1029 61 9000 2.1 270 08:47 23.11.2020
5257 Clear 0 1029 92 6000 0.5 0 07:27 23.11.2020
5258 Clear 0 1031 86 10000 1.5 340 00:34 23.11.2020
5259 Clear 0 1031 86 10000 1 20 23:35 22.11.2020
5260 Clear 0 1031 68 10000 1.5 360 22:18 22.11.2020
5261 Clear 0 1032 68 10000 2.1 360 20:53 22.11.2020
5262 Clear 0 1032 67 10000 1.73 216 19:55 22.11.2020
5263 Clear 1 1032 80 10000 2.1 20 18:53 22.11.2020
5264 Clear 3 1032 64 10000 1.5 350 16:54 22.11.2020
5265 Clear 5 1032 56 10000 2.6 240 15:51 22.11.2020
5266 Clear 7 1033 52 10000 3.1 230 14:34 22.11.2020
5267 Clear 9 1033 52 10000 3.1 250 12:50 22.11.2020
5268 Clear 8 1034 52 10000 2.1 280 11:57 22.11.2020
5269 Clear 7 1035 56 10000 1 0 11:20 22.11.2020
5270 Clear 7 1035 56 10000 1 0 10:45 22.11.2020
5271 Clear 5 1035 61 10000 2.6 340 09:32 22.11.2020
5272 Clear 1 1033 80 10000 1.5 0 01:48 22.11.2020
5273 Clear 2 1032 78 10000 6.7 360 23:39 21.11.2020
5274 Clear 4 1031 75 10000 5.7 360 21:57 21.11.2020
5275 Clouds 4 1032 75 10000 6.2 360 21:24 21.11.2020
5276 Clouds 4 1031 76 10000 6.2 10 20:34 21.11.2020
5277 Clouds 5 1031 76 10000 5.7 10 19:54 21.11.2020
5278 Clouds 5 1031 70 10000 5.7 10 19:27 21.11.2020
5279 Clouds 5 1031 75 10000 2.1 0 17:57 21.11.2020
5280 Drizzle 5 1030 75 10000 2.6 0 16:48 21.11.2020
5281 Clouds 5 1030 75 10000 3.6 40 15:52 21.11.2020
5282 Clouds 5 1029 75 10000 5.7 10 15:22 21.11.2020
5283 Clouds 5 1029 75 10000 5.7 10 14:43 21.11.2020
5284 Clouds 6 1029 75 10000 6.2 360 13:58 21.11.2020
5285 Clouds 6 1028 75 10000 7.2 10 12:27 21.11.2020
5286 Clouds 6 1028 75 10000 6.2 360 11:56 21.11.2020
5287 Clouds 6 1028 75 10000 5.1 360 10:39 21.11.2020
5288 Clouds 6 1027 81 10000 5.1 10 09:32 21.11.2020
5289 Clouds 5 1027 81 10000 6.7 360 08:51 21.11.2020
5290 Clouds 5 1025 81 10000 6.2 10 05:47 21.11.2020
5291 Clouds 5 1024 87 10000 1.5 0 04:27 21.11.2020
5292 Clear 5 1022 86 10000 6.2 320 00:27 21.11.2020
5293 Clear 5 1023 80 10000 4.1 260 23:25 20.11.2020
5294 Clouds 6 1022 70 10000 4.1 360 21:48 20.11.2020
5295 Clouds 6 1021 70 10000 5.7 10 21:27 20.11.2020
5296 Clouds 6 1021 70 10000 5.1 10 20:55 20.11.2020
5297 Clear 7 1021 65 10000 5.7 10 19:43 20.11.2020
5298 Clouds 7 1020 65 10000 6.2 360 18:32 20.11.2020
5299 Clouds 7 1020 65 10000 5.7 10 17:42 20.11.2020
5300 Clouds 7 1020 65 10000 5.7 10 17:23 20.11.2020
5301 Clouds 8 1020 66 10000 4.6 10 16:37 20.11.2020
5302 Clouds 8 1019 66 10000 5.1 360 15:51 20.11.2020
5303 Clouds 8 1019 66 10000 5.1 360 14:30 20.11.2020
5304 Clouds 9 1019 61 10000 7.2 360 13:43 20.11.2020
5305 Clouds 9 1019 61 10000 6.7 350 12:59 20.11.2020
5306 Clouds 9 1019 61 10000 7.2 350 12:28 20.11.2020
5307 Clouds 9 1019 66 10000 7.7 360 11:36 20.11.2020
5308 Clouds 8 1020 66 10000 6.7 10 09:56 20.11.2020
5309 Clouds 7 1020 70 10000 3.1 240 08:35 20.11.2020
5310 Clouds 7 1020 70 10000 1.5 220 07:52 20.11.2020
5311 Clouds 6 1020 75 10000 5.1 360 05:19 20.11.2020
5312 Clouds 6 1022 75 10000 5.1 10 00:41 20.11.2020
5313 Clouds 6 1023 75 10000 6.2 10 22:31 19.11.2020
5314 Clouds 6 1024 70 10000 6.2 10 21:54 19.11.2020
5315 Clouds 6 1024 70 10000 5.1 10 20:58 19.11.2020
5316 Clouds 6 1025 70 10000 5.1 10 20:21 19.11.2020
5317 Clouds 7 1025 70 10000 4.1 10 19:27 19.11.2020
5318 Clouds 7 1025 70 10000 4.1 10 18:54 19.11.2020
5319 Clouds 7 1026 75 10000 4.6 10 17:35 19.11.2020
5320 Clouds 7 1027 75 10000 4.1 10 16:33 19.11.2020
5321 Clouds 7 1027 81 10000 3.1 20 15:31 19.11.2020
5322 Clouds 8 1028 70 10000 3.1 10 13:55 19.11.2020
5323 Clouds 8 1028 70 10000 3.1 30 13:36 19.11.2020
5324 Clouds 8 1028 61 10000 4.6 50 12:54 19.11.2020
5325 Clouds 8 1028 61 10000 6.7 30 12:33 19.11.2020
5326 Clouds 9 1029 61 10000 6.7 30 11:40 19.11.2020
5327 Clouds 9 1029 61 10000 6.7 30 11:21 19.11.2020
5328 Clouds 8 1030 70 10000 5.1 10 10:31 19.11.2020
5329 Clouds 7 1030 75 10000 4.6 20 09:47 19.11.2020
5330 Clouds 8 1030 70 10000 5.7 30 09:27 19.11.2020
5331 Clouds 7 1031 75 10000 5.7 10 08:24 19.11.2020
5332 Clouds 6 1031 81 10000 5.1 10 07:35 19.11.2020
5333 Clouds 7 1031 81 10000 5.1 10 01:47 19.11.2020
5334 Clouds 7 1031 81 10000 5.1 10 00:32 19.11.2020
5335 Clouds 8 1031 76 10000 3.1 20 23:31 18.11.2020
5336 Clouds 8 1031 76 10000 4.6 40 22:58 18.11.2020
5337 Clouds 8 1031 76 10000 5.7 50 22:27 18.11.2020
5338 Clouds 9 1031 81 10000 6.2 40 21:43 18.11.2020
5339 Clouds 9 1031 81 10000 6.2 40 21:24 18.11.2020
5340 Clouds 8 1030 87 10000 8.2 40 20:31 18.11.2020
5341 Clouds 9 1030 81 10000 7.7 50 19:37 18.11.2020
5342 Clouds 9 1030 87 10000 9.8 40 18:58 18.11.2020
5343 Clouds 9 1030 93 10000 7.2 50 18:39 18.11.2020
5344 Rain 10 1030 87 10000 5.1 60 17:41 18.11.2020
5345 Clouds 10 1029 87 10000 5.1 50 16:25 18.11.2020
5346 Clouds 10 1029 87 5000 5.1 60 15:57 18.11.2020
5347 Clouds 10 1029 81 10000 3.1 290 14:41 18.11.2020
5348 Clouds 10 1029 87 9000 4.6 330 13:46 18.11.2020
5349 Clouds 10 1029 87 9000 4.6 330 13:21 18.11.2020
5350 Clouds 10 1029 87 9000 2.6 310 12:42 18.11.2020
5351 Clouds 9 1029 87 9000 3.1 300 11:41 18.11.2020
5352 Clouds 9 1030 87 10000 2.6 310 10:36 18.11.2020
5353 Clouds 9 1030 87 10000 2.6 310 10:18 18.11.2020
5354 Drizzle 8 1030 87 4400 3.1 290 07:58 18.11.2020
5355 Clouds 7 1029 93 6000 3.1 280 06:35 18.11.2020
5356 Clouds 7 1028 93 8000 3.1 300 00:33 18.11.2020
5357 Clouds 7 1028 93 8000 4.6 310 23:37 17.11.2020
5358 Clouds 7 1028 93 7000 3.6 250 22:53 17.11.2020
5359 Clouds 8 1027 93 7000 1.5 250 22:29 17.11.2020
5360 Clouds 8 1027 93 8000 1.5 250 21:50 17.11.2020
5361 Clouds 9 1028 87 7000 3.1 270 21:30 17.11.2020
5362 Clouds 9 1027 87 6000 2.1 270 20:50 17.11.2020
5363 Mist 9 1027 93 5000 0.5 0 20:26 17.11.2020
5364 Mist 9 1027 87 5000 1.5 260 19:54 17.11.2020
5365 Mist 9 1027 93 5000 0.5 0 18:25 17.11.2020
5366 Clouds 9 1026 93 6000 2.1 280 17:44 17.11.2020
5367 Clouds 9 1026 87 6000 1 0 16:54 17.11.2020
5368 Mist 10 1026 87 5000 1.5 260 16:18 17.11.2020
5369 Mist 10 1026 87 5000 1.5 260 16:18 17.11.2020
5370 Clouds 11 1026 76 7000 1.5 250 15:40 17.11.2020
5371 Clouds 11 1026 76 7000 1.5 250 15:22 17.11.2020
5372 Clouds 11 1026 81 7000 1.5 260 14:54 17.11.2020
5373 Clouds 12 1026 76 7000 1.84 127 13:59 17.11.2020
5374 Clouds 12 1026 76 7000 1 0 13:30 17.11.2020
5375 Mist 12 1025 76 4900 1 0 12:43 17.11.2020
5376 Mist 12 1025 81 4700 0.5 0 11:46 17.11.2020
5377 Mist 11 1026 87 5000 1.5 250 11:28 17.11.2020
5378 Mist 10 1026 100 2600 0.5 0 10:39 17.11.2020
5379 Mist 10 1026 100 2600 0.5 0 10:20 17.11.2020
5380 Mist 10 1026 100 2200 2.1 260 09:43 17.11.2020
5381 Fog 8 1025 100 100 0.5 0 08:46 17.11.2020
5382 Fog 5 1025 100 50 1.5 310 07:59 17.11.2020
5383 Fog 5 1024 100 50 1 0 07:32 17.11.2020
5384 Mist 5 1023 100 4500 1 270 04:31 17.11.2020
5385 Mist 5 1023 100 7000 0.5 350 03:25 17.11.2020
5386 Clear 5 1023 100 6000 1 0 02:29 17.11.2020
5387 Clouds 5 1023 93 8000 0.5 0 00:56 17.11.2020
5388 Clear 6 1022 93 10000 2.1 30 23:54 16.11.2020
5389 Clear 6 1022 93 10000 2.1 30 23:31 16.11.2020
5390 Clouds 6 1022 93 9000 2.1 30 22:55 16.11.2020
5391 Clouds 6 1022 93 8000 2.1 50 22:23 16.11.2020
5392 Clouds 6 1022 93 7000 1.5 10 21:56 16.11.2020
5393 Clouds 6 1022 93 8000 1.5 50 21:37 16.11.2020
5394 Clouds 6 1022 93 8000 1.5 50 21:18 16.11.2020
5395 Clouds 6 1022 93 9000 2.6 30 20:26 16.11.2020
5396 Clouds 6 1022 93 9000 2.1 10 19:50 16.11.2020
5397 Clouds 7 1021 93 8000 1.5 20 19:28 16.11.2020
5398 Clouds 7 1022 87 9000 2.1 30 18:48 16.11.2020
5399 Clouds 8 1022 87 9000 2.1 10 17:57 16.11.2020
5400 Clear 8 1021 81 10000 1.5 20 17:26 16.11.2020
5401 Clear 9 1021 81 10000 1.5 70 16:57 16.11.2020
5402 Clear 10 1021 76 10000 2.6 130 16:38 16.11.2020
5403 Clear 10 1021 76 10000 2.6 130 16:18 16.11.2020
5404 Clear 12 1021 71 10000 4.1 130 15:41 16.11.2020
5405 Clear 12 1021 71 10000 4.1 130 15:22 16.11.2020
5406 Clouds 13 1021 62 10000 4.1 130 14:42 16.11.2020
5407 Clouds 13 1021 62 10000 2.6 130 13:35 16.11.2020
5408 Clouds 13 1021 58 10000 1.5 0 12:34 16.11.2020
5409 Clouds 12 1021 58 10000 0.5 0 11:55 16.11.2020
5410 Clouds 13 1022 54 10000 1 0 11:37 16.11.2020
5411 Clouds 13 1022 54 10000 1 0 11:18 16.11.2020
5412 Clouds 11 1022 71 10000 0.5 0 10:40 16.11.2020
5413 Clouds 11 1022 71 10000 0.5 0 10:22 16.11.2020
5414 Mist 8 1023 87 5000 1 0 09:41 16.11.2020
5415 Clouds 7 1023 87 7000 2.1 290 08:59 16.11.2020
5416 Mist 7 1023 93 4300 2.1 250 08:38 16.11.2020
5417 Mist 6 1022 93 3900 0.09 64 07:44 16.11.2020
5418 Mist 6 1022 93 4500 1.5 0 06:47 16.11.2020
5419 Clouds 5 1022 87 10000 0.5 0 05:55 16.11.2020
5420 Clouds 5 1022 93 10000 0.75 342 04:37 16.11.2020
5421 Clouds 7 1023 81 10000 0.67 335 01:49 16.11.2020
5422 Clouds 7 1023 81 10000 1 0 01:27 16.11.2020
5423 Clouds 8 1023 81 10000 0.84 269 23:49 15.11.2020
5424 Clouds 8 1023 81 10000 0.5 0 23:22 15.11.2020
5425 Clouds 8 1023 81 10000 0.5 0 23:22 15.11.2020
5426 Clouds 8 1024 81 10000 1 0 22:40 15.11.2020
5427 Clouds 8 1024 81 10000 1 0 22:18 15.11.2020
5428 Clouds 8 1024 76 10000 1.5 260 21:43 15.11.2020
5429 Clouds 8 1024 76 10000 1.5 260 21:22 15.11.2020
5430 Clouds 9 1024 71 10000 1 0 20:41 15.11.2020
5431 Clouds 9 1024 71 10000 1 0 20:18 15.11.2020
5432 Clouds 9 1024 76 10000 0.25 192 19:47 15.11.2020
5433 Clouds 9 1024 71 10000 0.5 0 19:22 15.11.2020
5434 Clouds 9 1024 71 10000 1.5 200 18:56 15.11.2020
5435 Clouds 10 1024 66 10000 0.5 0 18:37 15.11.2020
5436 Clouds 10 1024 66 10000 0.5 0 18:19 15.11.2020
5437 Clouds 10 1024 62 10000 2.6 320 17:43 15.11.2020
5438 Clouds 10 1024 62 10000 2.6 320 17:23 15.11.2020
5439 Clouds 10 1024 76 10000 2.1 240 16:45 15.11.2020
5440 Clouds 10 1024 71 10000 3.1 300 16:20 15.11.2020
5441 Clouds 11 1024 71 10000 3.1 280 15:49 15.11.2020
5442 Clouds 11 1024 58 10000 3.6 310 15:26 15.11.2020
5443 Clouds 12 1024 58 10000 3.6 310 14:55 15.11.2020
5444 Clouds 11 1024 54 10000 3.6 310 14:28 15.11.2020
5445 Clouds 11 1024 58 10000 3.6 320 13:53 15.11.2020
5446 Clouds 11 1024 62 10000 4.6 310 13:34 15.11.2020
5447 Clouds 12 1024 54 10000 4.1 320 12:50 15.11.2020
5448 Clouds 12 1024 50 10000 3.6 310 12:20 15.11.2020
5449 Clouds 12 1024 58 10000 5.7 310 11:45 15.11.2020
5450 Clouds 12 1024 58 10000 5.7 310 11:19 15.11.2020
5451 Clouds 13 1024 47 10000 3.1 340 10:53 15.11.2020
5452 Clouds 12 1025 46 10000 3.6 330 10:31 15.11.2020
5453 Clouds 11 1025 50 10000 4.1 350 09:56 15.11.2020
5454 Clouds 11 1025 58 10000 3.1 300 09:33 15.11.2020
5455 Clouds 10 1025 76 9000 1 0 09:00 15.11.2020
5456 Clouds 9 1025 81 8000 1.5 270 08:41 15.11.2020
5457 Clouds 8 1025 81 8000 2.1 330 07:46 15.11.2020
5458 Clouds 8 1024 81 7000 2.6 310 06:42 15.11.2020
5459 Clouds 7 1024 93 8000 2.1 260 04:54 15.11.2020
5460 Clouds 8 1025 81 10000 1 0 02:21 15.11.2020
5461 Clear 8 1025 81 10000 2.1 270 00:31 15.11.2020
5462 Clear 8 1025 76 10000 2.6 260 23:54 14.11.2020
5463 Clear 9 1025 76 10000 2.1 250 22:59 14.11.2020
5464 Clear 9 1025 76 10000 1 0 22:41 14.11.2020
5465 Clear 9 1025 76 10000 1 0 22:19 14.11.2020
5466 Clear 9 1025 76 10000 4.1 350 21:39 14.11.2020
5467 Clear 9 1025 76 10000 4.1 350 21:20 14.11.2020
5468 Clear 9 1025 76 10000 5.7 330 20:47 14.11.2020
5469 Clear 9 1025 76 10000 5.7 340 20:24 14.11.2020
5470 Clouds 9 1025 76 10000 5.1 330 19:36 14.11.2020
5471 Clouds 9 1025 76 10000 4.1 350 18:59 14.11.2020
5472 Clouds 9 1025 76 10000 3.1 340 18:39 14.11.2020
5473 Clouds 9 1025 76 10000 3.1 340 18:21 14.11.2020
5474 Clouds 9 1025 76 10000 4.1 360 17:44 14.11.2020
5475 Clouds 9 1025 71 10000 5.1 360 17:26 14.11.2020
5476 Clouds 10 1025 71 10000 4.1 360 16:52 14.11.2020
5477 Clouds 10 1025 71 10000 2.1 320 16:31 14.11.2020
5478 Clouds 10 1025 71 10000 3.1 330 15:54 14.11.2020
5479 Clouds 11 1025 71 10000 3.6 330 15:31 14.11.2020
5480 Clouds 11 1025 66 10000 3.6 320 14:56 14.11.2020
5481 Clouds 11 1025 66 10000 4.1 330 14:30 14.11.2020
5482 Clouds 12 1025 66 10000 3.6 320 13:52 14.11.2020
5483 Clouds 12 1025 66 10000 4.1 310 13:30 14.11.2020
5484 Clouds 11 1025 66 10000 4.1 320 12:52 14.11.2020
5485 Clouds 11 1025 71 10000 4.6 310 12:33 14.11.2020
5486 Clouds 11 1025 76 10000 4.6 300 11:56 14.11.2020
5487 Clouds 11 1026 76 10000 4.6 310 11:37 14.11.2020
5488 Clouds 10 1026 76 10000 3.1 280 10:59 14.11.2020
5489 Clouds 9 1026 76 10000 2.6 300 10:38 14.11.2020
5490 Clouds 9 1026 76 10000 2.6 300 10:38 14.11.2020
5491 Clouds 9 1026 76 10000 2.6 300 10:20 14.11.2020
5492 Clouds 9 1026 81 10000 3.6 310 09:43 14.11.2020
5493 Clouds 8 1026 81 10000 3.6 310 09:23 14.11.2020
5494 Clouds 8 1026 87 8000 4.6 300 08:40 14.11.2020
5495 Clouds 8 1026 87 8000 4.6 300 08:20 14.11.2020
5496 Clouds 8 1025 87 7000 4.1 280 07:41 14.11.2020
5497 Clouds 8 1025 93 10000 4.1 310 06:43 14.11.2020
5498 Clouds 8 1025 93 10000 4.1 310 06:20 14.11.2020
5499 Clouds 8 1025 93 10000 1.5 0 04:45 14.11.2020
5500 Clouds 9 1025 93 10000 2.6 280 01:42 14.11.2020
5501 Clouds 9 1025 93 10000 4.1 360 00:24 14.11.2020
5502 Clouds 9 1025 87 10000 3.1 300 23:33 13.11.2020
5503 Clouds 9 1025 93 10000 2.1 280 22:58 13.11.2020
5504 Clouds 9 1025 93 10000 2.1 300 22:39 13.11.2020
5505 Clouds 9 1025 93 10000 2.1 300 22:20 13.11.2020
5506 Clouds 9 1025 93 10000 2.1 290 21:44 13.11.2020
5507 Clouds 9 1025 93 10000 1.5 280 21:23 13.11.2020
5508 Clouds 9 1025 93 10000 1.5 320 20:51 13.11.2020
5509 Clouds 10 1025 81 10000 2.1 290 20:29 13.11.2020
5510 Clouds 10 1025 87 10000 1.5 270 19:47 13.11.2020
5511 Clouds 10 1025 87 10000 1.5 360 19:24 13.11.2020
5512 Clouds 10 1026 87 10000 3.1 360 18:59 13.11.2020
5513 Clouds 10 1026 93 10000 0.5 0 18:32 13.11.2020
5514 Clouds 10 1025 93 10000 1.5 360 17:43 13.11.2020
5515 Clouds 10 1025 93 10000 1.5 360 17:21 13.11.2020
5516 Clouds 10 1025 93 10000 1 340 16:50 13.11.2020
5517 Clouds 11 1025 93 10000 1.5 280 16:25 13.11.2020
5518 Clouds 11 1025 93 10000 2.1 280 15:58 13.11.2020
5519 Clouds 11 1025 87 10000 1 280 15:33 13.11.2020
5520 Clouds 12 1025 87 10000 2.1 260 14:53 13.11.2020
5521 Rain 12 1025 87 10000 1.5 250 14:28 13.11.2020
5522 Clouds 12 1025 87 10000 1.5 280 13:54 13.11.2020
5523 Clouds 12 1025 87 10000 1 0 13:31 13.11.2020
5524 Clouds 12 1025 87 10000 1 0 12:52 13.11.2020
5525 Rain 12 1026 87 10000 0.5 0 12:27 13.11.2020
5526 Rain 11 1026 93 10000 1 0 11:56 13.11.2020
5527 Mist 11 1026 93 4300 2.76 28 11:37 13.11.2020
5528 Clouds 11 1026 93 6000 2.86 38 10:59 13.11.2020
5529 Rain 11 1026 93 8000 2.1 20 10:41 13.11.2020
5530 Clouds 11 1026 93 8000 2.1 20 10:22 13.11.2020
5531 Clouds 11 1026 93 8000 1.5 20 09:47 13.11.2020
5532 Clouds 11 1026 93 8000 1.5 20 09:25 13.11.2020
5533 Clouds 10 1026 93 9000 2.1 20 08:52 13.11.2020
5534 Clouds 10 1026 100 4600 2.1 10 08:22 13.11.2020
5535 Mist 9 1026 100 3300 1 0 07:48 13.11.2020
5536 Clouds 9 1026 100 3300 2.24 67 07:27 13.11.2020
5537 Clouds 9 1026 100 7000 1 10 06:50 13.11.2020
5538 Clouds 9 1026 100 6000 0.5 260 06:19 13.11.2020
5539 Clouds 9 1026 93 10000 2.65 75 05:39 13.11.2020
5540 Clouds 9 1026 100 10000 0.5 0 02:22 13.11.2020
5541 Clouds 9 1026 100 9000 0.5 30 01:32 13.11.2020
5542 Clouds 10 1026 93 8000 3.96 96 00:33 13.11.2020
5543 Clouds 10 1026 87 10000 3.1 70 23:39 12.11.2020
5544 Clouds 10 1026 87 10000 3.1 70 23:20 12.11.2020
5545 Clouds 10 1026 93 10000 2.6 80 22:52 12.11.2020
5546 Clouds 10 1026 93 10000 2.6 70 22:33 12.11.2020
5547 Clouds 10 1027 93 10000 2.6 60 21:56 12.11.2020
5548 Clouds 10 1027 93 10000 3.1 60 21:37 12.11.2020
5549 Clouds 10 1027 93 10000 3.1 60 21:37 12.11.2020
5550 Clouds 10 1027 93 10000 3.1 60 21:18 12.11.2020
5551 Clouds 10 1027 93 10000 3.1 60 20:39 12.11.2020
5552 Clouds 10 1027 93 10000 3.1 60 20:21 12.11.2020
5553 Clouds 10 1027 87 10000 3.6 60 19:49 12.11.2020
5554 Clouds 10 1027 87 10000 1.5 90 19:31 12.11.2020
5555 Clouds 10 1027 87 10000 2.6 80 18:52 12.11.2020
5556 Clouds 10 1027 87 10000 3.1 60 18:24 12.11.2020
5557 Clouds 10 1027 87 10000 3.1 60 18:24 12.11.2020
5558 Clouds 10 1027 93 10000 4.1 40 17:48 12.11.2020
5559 Clouds 10 1027 93 10000 2.1 60 17:29 12.11.2020
5560 Clouds 10 1027 87 10000 1 0 16:47 12.11.2020
5561 Clouds 10 1027 87 10000 4.1 30 16:27 12.11.2020
5562 Drizzle 10 1027 93 7000 1.5 0 15:59 12.11.2020
5563 Drizzle 10 1027 87 6000 1 0 15:41 12.11.2020
5564 Drizzle 10 1027 87 6000 1 0 15:21 12.11.2020
5565 Drizzle 11 1027 87 6000 2.6 60 14:46 12.11.2020
5566 Clouds 11 1027 87 6000 2.1 60 14:25 12.11.2020
5567 Drizzle 11 1027 87 10000 1 0 13:55 12.11.2020
5568 Drizzle 11 1027 87 6000 0.5 0 13:36 12.11.2020
5569 Drizzle 11 1027 87 6000 0.5 0 13:18 12.11.2020
5570 Clouds 11 1028 81 10000 2.1 50 12:42 12.11.2020
5571 Clouds 11 1028 81 10000 2.1 50 12:19 12.11.2020
5572 Clouds 11 1028 81 10000 1 0 11:46 12.11.2020
5573 Clouds 12 1028 71 10000 3.1 80 11:26 12.11.2020
5574 Clouds 11 1028 71 10000 1.5 20 10:41 12.11.2020
5575 Clouds 11 1028 71 10000 1.5 20 10:23 12.11.2020
5576 Clouds 11 1028 71 10000 1.5 20 10:23 12.11.2020
5577 Clouds 11 1028 76 10000 2.1 20 09:46 12.11.2020
5578 Clouds 11 1028 71 10000 1 0 09:22 12.11.2020
5579 Clouds 10 1029 71 10000 5.26 63 08:57 12.11.2020
5580 Clouds 10 1029 71 10000 1 230 08:37 12.11.2020
5581 Clouds 10 1029 71 10000 1 230 08:19 12.11.2020
5582 Clouds 9 1029 76 10000 1 0 07:42 12.11.2020
5583 Clouds 9 1029 76 10000 1 0 07:18 12.11.2020
5584 Clear 9 1029 71 10000 1.5 0 06:47 12.11.2020
5585 Clear 9 1029 71 10000 4.6 40 05:19 12.11.2020
5586 Clear 9 1029 66 10000 1 0 03:21 12.11.2020
5587 Clear 9 1030 71 10000 1 0 01:23 12.11.2020
5588 Clear 9 1030 66 10000 1 0 23:47 11.11.2020
5589 Clear 9 1030 71 10000 1 0 23:25 11.11.2020
5590 Clear 9 1029 66 10000 6.2 40 22:58 11.11.2020
5591 Clear 9 1029 66 10000 7.2 40 22:39 11.11.2020
5592 Clear 9 1029 66 10000 7.2 40 22:19 11.11.2020
5593 Clear 9 1030 66 10000 1.5 0 21:41 11.11.2020
5594 Clear 9 1030 66 10000 1.5 0 21:23 11.11.2020
5595 Clear 9 1030 66 10000 1.5 200 20:55 11.11.2020
5596 Clouds 9 1030 66 10000 1.5 300 20:37 11.11.2020
5597 Clouds 9 1030 66 10000 1.5 300 20:19 11.11.2020
5598 Clouds 9 1030 66 10000 1.5 250 19:48 11.11.2020
5599 Clouds 9 1030 71 10000 1.5 300 19:30 11.11.2020
5600 Clouds 9 1030 71 10000 1.5 240 18:50 11.11.2020
5601 Clouds 9 1030 71 10000 1.5 260 18:31 11.11.2020
5602 Clouds 9 1030 71 10000 2.6 260 17:42 11.11.2020
5603 Clouds 9 1030 71 10000 2.6 260 17:22 11.11.2020
5604 Clouds 9 1029 71 10000 5.1 20 16:50 11.11.2020
5605 Clouds 9 1029 71 10000 1.5 330 16:32 11.11.2020
5606 Clouds 9 1030 71 10000 1 0 15:50 11.11.2020
5607 Clouds 9 1030 71 10000 3.1 70 15:27 11.11.2020
5608 Clouds 10 1030 66 10000 1.5 0 14:56 11.11.2020
5609 Clouds 10 1030 66 10000 3.1 0 14:35 11.11.2020
5610 Clouds 10 1029 66 10000 5.7 30 13:57 11.11.2020
5611 Clouds 10 1030 66 10000 4.1 30 13:35 11.11.2020
5612 Clouds 10 1030 66 10000 5.1 30 12:44 11.11.2020
5613 Clouds 10 1030 66 10000 5.7 20 12:20 11.11.2020
5614 Clouds 10 1030 71 10000 6.2 10 11:49 11.11.2020
5615 Clouds 10 1030 71 10000 5.7 10 11:30 11.11.2020
5616 Clouds 9 1030 71 10000 5.7 20 10:42 11.11.2020
5617 Clouds 9 1030 71 10000 5.7 20 10:24 11.11.2020
5618 Clouds 9 1030 71 10000 6.2 10 09:48 11.11.2020
5619 Clouds 9 1030 71 10000 6.2 10 09:28 11.11.2020
5620 Clouds 8 1030 76 10000 5.1 10 08:47 11.11.2020
5621 Clouds 8 1030 76 10000 6.2 20 08:28 11.11.2020
5622 Clouds 8 1030 76 10000 6.2 10 07:52 11.11.2020
5623 Clouds 8 1030 70 10000 6.2 360 07:32 11.11.2020
5624 Clouds 8 1030 70 10000 6.7 10 06:28 11.11.2020
5625 Clouds 8 1030 76 10000 5.7 10 04:32 11.11.2020
5626 Clouds 8 1030 81 10000 3.6 360 01:32 11.11.2020
5627 Clouds 8 1030 81 10000 4.6 20 00:36 11.11.2020
5628 Clouds 8 1030 81 10000 3.6 0 23:55 10.11.2020
5629 Clouds 8 1030 81 10000 2.6 270 23:24 10.11.2020
5630 Clouds 8 1030 81 10000 3.6 260 22:57 10.11.2020
5631 Clouds 8 1031 81 10000 1 0 22:28 10.11.2020
5632 Clouds 8 1030 81 10000 2.6 260 21:56 10.11.2020
5633 Clouds 8 1030 81 10000 3.1 240 21:38 10.11.2020
5634 Clouds 8 1030 81 10000 3.1 240 21:18 10.11.2020
5635 Clouds 8 1030 81 10000 4.1 240 20:42 10.11.2020
5636 Clouds 8 1030 81 10000 4.1 240 20:23 10.11.2020
5637 Clouds 8 1030 81 10000 2.6 250 19:53 10.11.2020
5638 Clouds 8 1030 81 10000 2.1 0 19:35 10.11.2020
5639 Clouds 8 1030 81 10000 4.6 350 18:59 10.11.2020
5640 Clouds 8 1030 81 10000 2.6 0 18:41 10.11.2020
5641 Clouds 8 1030 81 10000 2.6 0 18:20 10.11.2020
5642 Clouds 8 1030 87 10000 4.6 10 17:44 10.11.2020
5643 Clouds 8 1030 87 10000 4.6 10 17:26 10.11.2020
5644 Clouds 8 1030 87 10000 4.6 350 16:57 10.11.2020
5645 Clouds 8 1030 87 10000 3.6 320 16:37 10.11.2020
5646 Clouds 8 1030 87 10000 3.6 320 16:19 10.11.2020
5647 Clouds 9 1030 87 10000 3.1 300 15:45 10.11.2020
5648 Clouds 9 1030 87 10000 2.6 0 15:23 10.11.2020
5649 Clouds 9 1029 81 10000 5.1 340 14:41 10.11.2020
5650 Clouds 9 1029 81 10000 5.1 340 14:22 10.11.2020
5651 Clouds 9 1029 81 10000 3.1 340 13:54 10.11.2020
5652 Clouds 9 1029 81 10000 3.6 330 13:36 10.11.2020
5653 Clouds 9 1029 81 10000 3.6 330 13:18 10.11.2020
5654 Clouds 9 1030 81 10000 5.1 350 12:44 10.11.2020
5655 Clouds 9 1029 81 10000 6.2 340 12:23 10.11.2020
5656 Clouds 9 1030 76 10000 5.1 360 11:39 10.11.2020
5657 Clouds 9 1030 76 10000 5.1 360 11:20 10.11.2020
5658 Clouds 9 1030 76 10000 5.1 360 10:44 10.11.2020
5659 Clouds 9 1030 76 10000 5.7 360 10:26 10.11.2020
5660 Clouds 9 1030 76 10000 6.2 360 09:51 10.11.2020
5661 Clouds 9 1029 76 10000 5.1 10 09:27 10.11.2020
5662 Clouds 8 1029 81 10000 5.1 10 08:59 10.11.2020
5663 Clouds 8 1029 81 10000 4.6 360 08:38 10.11.2020
5664 Clouds 8 1029 81 10000 5.7 10 08:19 10.11.2020
5665 Clouds 7 1029 87 10000 4.6 10 07:38 10.11.2020
5666 Clouds 7 1029 87 10000 4.6 10 07:18 10.11.2020
5667 Clouds 7 1028 87 10000 3.6 0 06:38 10.11.2020
5668 Clouds 7 1028 87 10000 4.6 330 05:29 10.11.2020
5669 Clouds 6 1028 87 10000 2.6 0 03:36 10.11.2020
5670 Clouds 7 1027 87 10000 5.1 330 01:41 10.11.2020
5671 Clouds 7 1027 87 10000 4.6 340 00:50 10.11.2020
5672 Clouds 7 1027 87 10000 6.2 360 23:46 09.11.2020
5673 Clouds 7 1027 93 10000 4.6 350 22:59 09.11.2020
5674 Clouds 8 1027 81 10000 6.2 350 22:41 09.11.2020
5675 Clouds 8 1027 81 10000 6.2 350 22:20 09.11.2020
5676 Clouds 8 1027 81 10000 4.1 330 21:43 09.11.2020
5677 Clouds 8 1027 81 10000 4.1 330 21:25 09.11.2020
5678 Clouds 8 1027 81 10000 4.1 330 21:25 09.11.2020
5679 Clouds 9 1027 81 10000 3.6 340 20:42 09.11.2020
5680 Clouds 9 1027 81 10000 3.6 340 20:22 09.11.2020
5681 Clouds 9 1026 81 10000 5.7 360 19:46 09.11.2020
5682 Clouds 9 1026 76 10000 6.2 360 19:23 09.11.2020
5683 Clouds 9 1026 76 10000 5.7 10 18:57 09.11.2020
5684 Clouds 10 1026 71 10000 5.7 10 18:38 09.11.2020
5685 Clouds 10 1026 71 10000 5.7 10 18:18 09.11.2020
5686 Clouds 10 1026 76 10000 5.7 360 17:43 09.11.2020
5687 Clouds 10 1026 76 10000 5.7 360 17:25 09.11.2020
5688 Clouds 11 1025 71 10000 4.1 10 16:44 09.11.2020
5689 Clouds 13 1025 71 10000 4.1 10 16:20 09.11.2020
5690 Clouds 13 1025 71 10000 4.6 360 15:44 09.11.2020
5691 Clouds 13 1025 71 10000 4.6 360 15:25 09.11.2020
5692 Clouds 13 1025 67 10000 4.6 360 14:46 09.11.2020
5693 Clouds 13 1025 67 10000 4.6 360 14:28 09.11.2020
5694 Clouds 13 1025 67 10000 4.6 350 13:52 09.11.2020
5695 Clouds 14 1025 67 10000 4.1 350 13:24 09.11.2020
5696 Clouds 14 1025 67 10000 4.6 350 12:57 09.11.2020
5697 Clouds 14 1025 67 10000 5.1 340 12:37 09.11.2020
5698 Clouds 14 1025 67 10000 5.1 340 12:19 09.11.2020
5699 Clouds 14 1026 62 10000 2.6 30 11:41 09.11.2020
5700 Clouds 14 1026 62 10000 2.6 30 11:22 09.11.2020
5701 Clouds 13 1026 62 10000 3.1 30 10:43 09.11.2020
5702 Clouds 13 1026 62 10000 3.1 30 10:25 09.11.2020
5703 Clouds 13 1026 67 10000 2.1 20 09:52 09.11.2020
5704 Clouds 12 1026 71 10000 2.1 30 09:28 09.11.2020
5705 Clouds 11 1026 76 10000 1 0 08:45 09.11.2020
5706 Clouds 10 1026 87 10000 2.6 360 08:26 09.11.2020
5707 Clouds 9 1026 93 10000 1.83 7 07:41 09.11.2020
5708 Clouds 9 1026 93 10000 1.83 7 07:41 09.11.2020
5709 Clouds 9 1026 93 10000 1.95 9 07:21 09.11.2020
5710 Clouds 9 1025 93 10000 0.5 0 06:42 09.11.2020
5711 Clear 10 1025 87 10000 1.5 350 03:32 09.11.2020
5712 Clouds 9 1025 81 10000 1.5 10 01:55 09.11.2020
5713 Clouds 10 1025 81 10000 1 30 01:36 09.11.2020
5714 Clouds 10 1025 81 10000 1.32 352 23:54 08.11.2020
5715 Clouds 10 1025 81 10000 1.5 340 23:30 08.11.2020
5716 Clouds 10 1025 81 10000 1.5 360 22:58 08.11.2020
5717 Clouds 10 1025 76 10000 2.6 360 22:40 08.11.2020
5718 Clouds 11 1025 76 10000 2.6 360 22:19 08.11.2020
5719 Clouds 11 1026 76 10000 1.5 10 21:39 08.11.2020
5720 Clouds 10 1026 76 10000 1.5 10 21:19 08.11.2020
5721 Clouds 10 1026 76 10000 1.5 350 20:54 08.11.2020
5722 Clouds 10 1026 76 10000 2.1 360 20:36 08.11.2020
5723 Clouds 10 1026 76 10000 2.1 360 20:18 08.11.2020
5724 Clouds 10 1026 76 10000 0.5 0 19:42 08.11.2020
5725 Clouds 10 1026 76 10000 0.5 0 19:21 08.11.2020
5726 Clouds 10 1026 76 10000 0.54 25 18:48 08.11.2020
5727 Clouds 10 1026 76 10000 0.54 25 18:48 08.11.2020
5728 Clouds 11 1026 71 10000 0.5 190 18:22 08.11.2020
5729 Clouds 11 1026 71 10000 0.16 46 17:58 08.11.2020
5730 Clouds 11 1026 71 10000 1 0 17:38 08.11.2020
5731 Clouds 11 1026 71 10000 1 0 17:19 08.11.2020
5732 Clouds 12 1026 71 10000 2.1 130 16:48 08.11.2020
5733 Clouds 12 1026 71 10000 2.1 130 16:48 08.11.2020
5734 Clouds 12 1026 71 10000 0.5 120 16:22 08.11.2020
5735 Clouds 13 1026 71 10000 1.5 120 15:57 08.11.2020
5736 Clouds 13 1026 67 10000 1.5 140 15:38 08.11.2020
5737 Clouds 14 1026 67 10000 1.5 140 15:20 08.11.2020
5738 Clouds 13 1027 62 10000 0.5 0 14:40 08.11.2020
5739 Clouds 15 1027 62 10000 0.5 0 14:21 08.11.2020
5740 Clouds 14 1027 62 10000 2.1 130 13:46 08.11.2020
5741 Clouds 15 1027 62 10000 2.1 130 13:22 08.11.2020
5742 Clouds 15 1028 62 10000 1 0 12:43 08.11.2020
5743 Clouds 15 1028 62 10000 1 0 12:25 08.11.2020
5744 Clouds 14 1028 62 10000 0.5 0 11:57 08.11.2020
5745 Clouds 14 1028 62 10000 0.5 0 11:39 08.11.2020
5746 Clouds 14 1028 62 10000 0.5 0 11:20 08.11.2020
5747 Clouds 14 1029 62 10000 1.5 260 10:49 08.11.2020
5748 Clouds 12 1029 71 10000 1 240 10:18 08.11.2020
5749 Clouds 11 1030 71 10000 1.5 210 09:42 08.11.2020
5750 Clouds 11 1030 71 10000 1.5 210 09:24 08.11.2020
5751 Clouds 11 1030 71 10000 1.5 260 08:55 08.11.2020
5752 Clear 11 1030 81 10000 1.5 270 08:36 08.11.2020
5753 Mist 8 1030 81 5000 1 250 07:58 08.11.2020
5754 Clear 7 1030 87 10000 1 280 07:39 08.11.2020
5755 Clear 6 1030 87 10000 1 280 07:18 08.11.2020
5756 Clear 6 1030 87 10000 2.6 300 05:55 08.11.2020
5757 Clouds 6 1030 93 10000 2.52 350 05:26 08.11.2020
5758 Clouds 6 1030 87 10000 1.5 300 03:46 08.11.2020
5759 Clouds 5 1031 87 10000 2.1 260 01:49 08.11.2020
5760 Clouds 6 1031 87 10000 2.6 340 01:18 08.11.2020
5761 Clear 6 1031 75 10000 2.6 340 00:24 08.11.2020
5762 Clouds 7 1032 81 10000 2.1 330 23:45 07.11.2020
5763 Clouds 7 1032 75 10000 2.6 360 23:27 07.11.2020
5764 Clouds 6 1032 75 10000 2.6 10 22:41 07.11.2020
5765 Clouds 6 1032 75 10000 2.6 10 22:23 07.11.2020
5766 Clouds 7 1032 81 10000 2.6 10 21:45 07.11.2020
5767 Clouds 6 1032 81 10000 2.1 20 21:22 07.11.2020
5768 Clouds 7 1032 75 10000 1.5 20 20:50 07.11.2020
5769 Clouds 8 1032 70 10000 1.5 120 20:32 07.11.2020
5770 Clouds 8 1032 66 10000 1.5 100 19:57 07.11.2020
5771 Clouds 9 1032 66 10000 1 0 19:39 07.11.2020
5772 Clouds 9 1032 66 10000 1 0 19:19 07.11.2020
5773 Clouds 10 1032 62 10000 2.6 50 18:38 07.11.2020
5774 Clouds 10 1032 62 10000 2.6 50 18:20 07.11.2020
5775 Clouds 10 1032 62 10000 3.1 360 17:43 07.11.2020
5776 Clouds 10 1032 62 10000 3.1 360 17:43 07.11.2020
5777 Clouds 10 1032 62 10000 3.1 360 17:23 07.11.2020
5778 Clouds 10 1031 62 10000 3.1 20 16:42 07.11.2020
5779 Clouds 10 1031 62 10000 3.1 20 16:23 07.11.2020
5780 Clouds 11 1031 62 10000 2.6 30 15:45 07.11.2020
5781 Clouds 11 1031 62 10000 3.6 20 15:23 07.11.2020
5782 Clouds 11 1031 62 10000 3.6 350 14:55 07.11.2020
5783 Clouds 11 1031 62 10000 3.6 350 14:37 07.11.2020
5784 Clouds 11 1031 62 10000 3.6 350 14:18 07.11.2020
5785 Clouds 11 1031 62 10000 4.6 350 13:39 07.11.2020
5786 Clouds 11 1031 62 10000 4.6 350 13:20 07.11.2020
5787 Clouds 11 1032 66 10000 4.1 10 12:32 07.11.2020
5788 Clouds 12 1032 62 10000 5.7 360 11:45 07.11.2020
5789 Clouds 11 1032 62 10000 6.7 20 11:24 07.11.2020
5790 Clouds 11 1032 66 10000 6.7 20 10:56 07.11.2020
5791 Clouds 11 1032 66 10000 5.1 20 10:37 07.11.2020
5792 Clouds 11 1032 71 10000 4.6 10 10:18 07.11.2020
5793 Clouds 11 1032 66 10000 2.6 50 09:42 07.11.2020
5794 Clouds 11 1032 66 10000 2.6 50 09:19 07.11.2020
5795 Clouds 10 1032 76 10000 1.5 0 08:42 07.11.2020
5796 Clouds 10 1032 76 10000 1.5 0 08:22 07.11.2020
5797 Clouds 9 1032 81 10000 2.1 0 07:37 07.11.2020
5798 Clouds 8 1031 76 10000 1.5 0 06:48 07.11.2020
5799 Clouds 8 1030 81 10000 1.5 270 05:38 07.11.2020
5800 Clear 7 1030 87 10000 1 0 03:25 07.11.2020
5801 Clear 7 1030 93 10000 1.5 290 01:45 07.11.2020
5802 Clear 7 1030 87 10000 1.5 250 01:25 07.11.2020
5803 Clear 7 1030 87 10000 1 0 00:28 07.11.2020
5804 Clear 6 1030 93 10000 0.5 0 23:30 06.11.2020
5805 Clear 7 1029 87 10000 3.1 240 22:45 06.11.2020
5806 Clear 7 1029 87 10000 3.1 240 22:20 06.11.2020
5807 Clear 6 1029 93 10000 2.1 250 21:58 06.11.2020
5808 Clear 7 1029 87 10000 2.9 323 21:40 06.11.2020
5809 Clear 7 1029 87 10000 2.96 329 21:18 06.11.2020
5810 Clear 7 1029 81 10000 2.1 280 20:43 06.11.2020
5811 Clear 7 1029 81 10000 2.1 280 20:19 06.11.2020
5812 Clear 7 1029 81 10000 0.5 0 19:45 06.11.2020
5813 Clear 8 1029 81 10000 1 0 19:26 06.11.2020
5814 Clear 8 1029 81 10000 3.1 280 18:47 06.11.2020
5815 Clear 8 1029 76 10000 3.1 300 18:28 06.11.2020
5816 Clear 8 1029 76 10000 2.6 310 17:52 06.11.2020
5817 Clear 8 1029 76 10000 2.6 310 17:52 06.11.2020
5818 Clear 8 1029 81 10000 3.1 300 17:31 06.11.2020
5819 Clear 9 1029 76 10000 4.1 300 16:59 06.11.2020
5820 Clouds 10 1029 71 10000 5.1 300 16:33 06.11.2020
5821 Clouds 11 1029 66 10000 5.7 320 15:55 06.11.2020
5822 Clouds 12 1029 58 10000 5.1 330 15:33 06.11.2020
5823 Clouds 12 1029 58 10000 6.2 340 14:54 06.11.2020
5824 Clouds 13 1029 58 10000 5.7 350 14:29 06.11.2020
5825 Clouds 13 1029 54 10000 6.2 360 13:54 06.11.2020
5826 Clouds 13 1029 54 10000 5.7 360 13:26 06.11.2020
5827 Clouds 13 1029 50 10000 6.7 340 12:56 06.11.2020
5828 Clouds 13 1029 54 10000 6.2 350 12:38 06.11.2020
5829 Clouds 13 1029 54 10000 6.2 350 12:38 06.11.2020
5830 Clouds 14 1029 54 10000 6.2 350 12:18 06.11.2020
5831 Clouds 13 1030 54 10000 5.7 350 11:37 06.11.2020
5832 Clouds 13 1030 58 10000 5.7 340 10:58 06.11.2020
5833 Clouds 13 1030 62 10000 4.1 340 10:34 06.11.2020
5834 Clouds 11 1030 66 10000 4.6 350 09:55 06.11.2020
5835 Clouds 10 1030 76 10000 3.6 340 09:36 06.11.2020
5836 Clouds 10 1030 76 10000 3.6 340 09:36 06.11.2020
5837 Clouds 10 1030 76 10000 3.6 340 09:18 06.11.2020
5838 Clouds 9 1030 76 10000 3.6 350 08:46 06.11.2020
5839 Clouds 8 1030 81 10000 3.6 340 08:19 06.11.2020
5840 Clouds 8 1030 81 10000 3.6 350 07:42 06.11.2020
5841 Clouds 8 1030 81 10000 3.6 350 07:18 06.11.2020
5842 Clouds 8 1030 87 10000 3.6 320 06:40 06.11.2020
5843 Clouds 8 1029 87 10000 2.1 280 05:37 06.11.2020
5844 Clouds 8 1030 81 10000 2.6 0 01:56 06.11.2020
5845 Clouds 8 1029 87 10000 4.1 240 00:24 06.11.2020
5846 Clear 8 1029 81 10000 2.1 0 23:47 05.11.2020
5847 Clear 8 1029 81 10000 2.6 0 23:19 05.11.2020
5848 Clear 8 1028 81 10000 2.1 0 22:42 05.11.2020
5849 Clear 8 1028 81 10000 2.1 0 22:24 05.11.2020
5850 Clear 9 1028 81 10000 3.6 310 21:44 05.11.2020
5851 Clear 9 1028 81 10000 3.6 280 21:24 05.11.2020
5852 Clouds 9 1028 87 10000 3.1 240 20:58 05.11.2020
5853 Clouds 9 1028 87 10000 3.6 280 20:40 05.11.2020
5854 Clouds 9 1028 87 10000 3.6 280 20:21 05.11.2020
5855 Clouds 9 1028 87 10000 4.6 280 19:43 05.11.2020
5856 Clouds 9 1028 87 10000 4.6 280 19:23 05.11.2020
5857 Clouds 10 1028 81 10000 4.1 290 18:49 05.11.2020
5858 Clouds 10 1028 81 10000 3.1 260 18:30 05.11.2020
5859 Clouds 10 1028 81 10000 3.1 290 17:54 05.11.2020
5860 Clouds 10 1028 81 10000 3.6 300 17:36 05.11.2020
5861 Clouds 10 1028 81 10000 3.6 300 17:18 05.11.2020
5862 Clouds 11 1027 76 10000 4.6 290 16:41 05.11.2020
5863 Clouds 11 1027 76 10000 4.6 290 16:21 05.11.2020
5864 Clouds 11 1028 76 10000 4.1 280 15:49 05.11.2020
5865 Clouds 11 1027 76 10000 2.6 0 15:24 05.11.2020
5866 Clouds 11 1027 76 10000 4.1 300 14:47 05.11.2020
5867 Clouds 12 1027 76 10000 5.1 350 14:29 05.11.2020
5868 Clouds 12 1027 76 10000 4.6 360 13:49 05.11.2020
5869 Clouds 12 1026 76 10000 7.2 360 13:30 05.11.2020
5870 Clouds 13 1026 76 10000 8.7 350 12:53 05.11.2020
5871 Clouds 12 1026 76 10000 8.7 350 12:29 05.11.2020
5872 Clouds 13 1026 71 10000 8.7 360 11:55 05.11.2020
5873 Clouds 13 1026 76 10000 5.7 340 11:37 05.11.2020
5874 Clouds 12 1026 76 10000 5.7 340 11:18 05.11.2020
5875 Clouds 11 1028 76 10000 3.6 0 10:41 05.11.2020
5876 Clouds 11 1028 76 10000 3.6 0 10:22 05.11.2020
5877 Clouds 9 1027 81 10000 5.7 310 09:45 05.11.2020
5878 Clouds 9 1028 81 10000 5.7 300 09:22 05.11.2020
5879 Clouds 8 1028 81 10000 4.6 290 08:44 05.11.2020
5880 Clouds 8 1028 81 10000 5.7 280 08:26 05.11.2020
5881 Clouds 8 1027 81 10000 5.1 310 07:40 05.11.2020
5882 Clouds 7 1027 81 10000 5.1 310 07:20 05.11.2020
5883 Clouds 7 1027 87 10000 5.7 280 06:34 05.11.2020
5884 Clouds 6 1027 81 10000 3.6 260 05:23 05.11.2020
5885 Clouds 6 1026 93 10000 3.6 250 01:24 05.11.2020
5886 Clouds 7 1026 87 10000 3.1 270 00:32 05.11.2020
5887 Clouds 7 1026 81 10000 4.1 270 23:44 04.11.2020
5888 Clouds 8 1026 81 10000 3.1 290 23:26 04.11.2020
5889 Clouds 8 1026 87 10000 3.1 260 22:52 04.11.2020
5890 Clouds 8 1026 81 10000 3.6 270 22:26 04.11.2020
5891 Clouds 8 1026 87 10000 4.1 250 21:57 04.11.2020
5892 Clouds 8 1026 76 10000 2.6 0 21:37 04.11.2020
5893 Clouds 9 1026 76 10000 2.6 0 21:18 04.11.2020
5894 Clear 9 1025 76 10000 2.6 0 20:42 04.11.2020
5895 Clear 10 1025 76 10000 2.6 0 20:24 04.11.2020
5896 Clear 10 1025 76 10000 3.6 250 19:48 04.11.2020
5897 Clouds 10 1025 81 10000 6.2 360 19:29 04.11.2020
5898 Clouds 11 1024 76 10000 8.2 10 18:45 04.11.2020
5899 Clouds 11 1024 76 10000 5.7 360 18:27 04.11.2020
5900 Clouds 11 1024 76 10000 7.7 360 17:59 04.11.2020
5901 Clouds 12 1024 71 10000 7.2 360 17:40 04.11.2020
5902 Clouds 12 1024 71 10000 7.2 360 17:20 04.11.2020
5903 Clouds 12 1024 71 10000 5.7 360 16:38 04.11.2020
5904 Clouds 12 1024 71 10000 5.7 360 16:20 04.11.2020
5905 Clouds 13 1023 71 10000 6.7 360 15:47 04.11.2020
5906 Clouds 13 1023 71 10000 6.7 360 15:25 04.11.2020
5907 Clouds 13 1023 67 10000 7.7 10 14:57 04.11.2020
5908 Clouds 13 1022 67 10000 9.3 10 14:39 04.11.2020
5909 Clouds 13 1022 67 10000 9.3 10 14:18 04.11.2020
5910 Clouds 13 1022 67 10000 7.7 10 13:41 04.11.2020
5911 Clouds 13 1022 67 10000 7.7 10 13:19 04.11.2020
5912 Clouds 13 1022 67 10000 7.2 360 12:50 04.11.2020
5913 Clouds 13 1023 67 10000 6.2 350 12:26 04.11.2020
5914 Clouds 12 1023 71 10000 6.2 350 11:56 04.11.2020
5915 Clouds 12 1023 71 10000 6.2 350 11:56 04.11.2020
5916 Clouds 12 1023 71 10000 6.2 350 11:56 04.11.2020
5917 Clouds 12 1023 66 10000 5.7 350 11:36 04.11.2020
5918 Clouds 12 1023 71 10000 5.1 330 11:18 04.11.2020
5919 Clouds 12 1023 71 10000 5.1 330 11:18 04.11.2020
5920 Clouds 12 1023 71 10000 5.7 320 10:41 04.11.2020
5921 Clouds 12 1023 71 10000 5.7 320 10:22 04.11.2020
5922 Clouds 12 1023 66 10000 4.6 330 09:47 04.11.2020
5923 Clouds 11 1023 71 10000 4.1 330 09:22 04.11.2020
5924 Clouds 9 1023 76 10000 3.6 330 08:44 04.11.2020
5925 Clouds 9 1023 76 10000 2.6 0 08:18 04.11.2020
5926 Clouds 8 1022 81 10000 3.6 310 07:44 04.11.2020
5927 Clouds 8 1022 81 10000 5.1 340 07:26 04.11.2020
5928 Clouds 7 1022 81 10000 2.6 300 06:42 04.11.2020
5929 Clear 7 1022 81 10000 2.6 300 05:59 04.11.2020
5930 Clouds 9 1021 87 10000 0.5 0 02:32 04.11.2020
5931 Clouds 10 1021 87 10000 2.1 280 01:40 04.11.2020
5932 Clouds 10 1020 87 10000 1 0 00:40 04.11.2020
5933 Clouds 11 1020 81 10000 3.6 270 23:34 03.11.2020
5934 Clouds 11 1020 81 10000 3.1 230 22:59 03.11.2020
5935 Clouds 11 1020 81 10000 3.1 210 22:40 03.11.2020
5936 Clouds 11 1020 81 10000 3.1 210 22:20 03.11.2020
5937 Clouds 11 1020 81 10000 3.6 280 21:55 03.11.2020
5938 Clear 11 1020 81 10000 3.1 270 21:36 03.11.2020
5939 Clear 11 1020 81 10000 3.1 270 21:18 03.11.2020
5940 Clouds 11 1020 76 10000 2.6 0 20:42 03.11.2020
5941 Clouds 11 1020 76 10000 2.6 0 20:19 03.11.2020
5942 Clear 11 1019 71 10000 5.7 350 19:42 03.11.2020
5943 Clear 12 1019 71 10000 5.7 350 19:19 03.11.2020
5944 Clear 12 1019 71 10000 3.1 360 18:41 03.11.2020
5945 Clear 12 1019 71 10000 3.1 360 18:41 03.11.2020
5946 Clear 12 1019 71 10000 3.1 360 18:20 03.11.2020
5947 Clouds 12 1019 71 10000 4.6 360 17:54 03.11.2020
5948 Clouds 12 1019 71 10000 4.6 350 17:36 03.11.2020
5949 Clouds 12 1019 71 10000 2.6 330 16:54 03.11.2020
5950 Clouds 13 1019 62 10000 2.6 340 16:31 03.11.2020
5951 Clouds 13 1019 62 10000 2.6 310 15:59 03.11.2020
5952 Clouds 13 1019 62 10000 4.1 310 15:41 03.11.2020
5953 Clouds 14 1019 62 10000 4.1 310 15:21 03.11.2020
5954 Clouds 14 1019 58 10000 4.6 330 14:46 03.11.2020
5955 Clouds 14 1019 54 10000 4.1 320 14:27 03.11.2020
5956 Clouds 14 1019 54 10000 4.1 320 14:27 03.11.2020
5957 Clouds 14 1018 51 10000 3.1 340 13:43 03.11.2020
5958 Clouds 14 1018 51 10000 3.1 340 13:23 03.11.2020
5959 Clouds 14 1019 54 10000 4.1 330 12:48 03.11.2020
5960 Clouds 14 1019 54 10000 3.1 290 12:27 03.11.2020
5961 Clouds 13 1019 54 10000 3.6 300 11:57 03.11.2020
5962 Clouds 13 1019 62 10000 3.1 270 11:39 03.11.2020
5963 Clouds 13 1019 62 10000 3.1 270 11:18 03.11.2020
5964 Clear 12 1020 71 10000 2.6 250 10:39 03.11.2020
5965 Clear 12 1020 71 10000 2.6 250 10:19 03.11.2020
5966 Clear 12 1020 71 10000 2.1 280 09:48 03.11.2020
5967 Clear 12 1020 71 10000 2.1 250 09:27 03.11.2020
5968 Clear 11 1020 76 10000 2.1 250 08:52 03.11.2020
5969 Clear 10 1020 76 10000 1 0 08:34 03.11.2020
5970 Clear 9 1019 87 10000 2.1 270 07:49 03.11.2020
5971 Clear 9 1019 81 10000 0.5 0 07:22 03.11.2020
5972 Clear 8 1019 87 10000 1.96 329 06:43 03.11.2020
5973 Clear 8 1019 93 10000 1.92 315 04:54 03.11.2020
5974 Clear 8 1020 87 10000 1.5 270 00:53 03.11.2020
5975 Clear 8 1020 87 10000 1.49 259 00:30 03.11.2020
5976 Clear 7 1020 93 10000 1.5 10 23:47 02.11.2020
5977 Clear 7 1020 93 10000 1.54 242 23:28 02.11.2020
5978 Clear 7 1020 93 10000 1.54 242 23:28 02.11.2020
5979 Clear 7 1020 93 10000 1.54 242 22:45 02.11.2020
5980 Clear 7 1020 93 10000 1.92 232 22:27 02.11.2020
5981 Clear 7 1020 93 10000 1.5 360 21:58 02.11.2020
5982 Clear 7 1021 93 10000 1.92 232 21:37 02.11.2020
5983 Clear 7 1021 93 10000 1.84 214 21:18 02.11.2020
5984 Clear 7 1020 87 10000 1.84 214 20:38 02.11.2020
5985 Clear 8 1020 87 10000 1.64 201 20:19 02.11.2020
5986 Clear 8 1020 87 10000 1.5 330 19:44 02.11.2020
5987 Clear 8 1020 87 10000 1.5 20 19:26 02.11.2020
5988 Clear 8 1020 87 10000 1.5 20 19:26 02.11.2020
5989 Clear 9 1020 76 10000 2.1 30 18:43 02.11.2020
5990 Clear 9 1020 76 10000 2.1 30 18:43 02.11.2020
5991 Clear 9 1020 76 10000 2.1 30 18:22 02.11.2020
5992 Clear 10 1021 71 10000 2.1 40 17:59 02.11.2020
5993 Clear 10 1021 76 10000 2.1 70 17:40 02.11.2020
5994 Clear 10 1021 76 10000 2.1 70 17:21 02.11.2020
5995 Clear 11 1020 71 10000 4.1 100 16:48 02.11.2020
5996 Clear 14 1020 62 10000 3.1 120 16:24 02.11.2020
5997 Clear 16 1020 39 10000 0.5 190 15:46 02.11.2020
5998 Clear 16 1020 39 10000 1.5 210 15:25 02.11.2020
5999 Clear 16 1020 42 10000 2.1 250 14:58 02.11.2020
6000 Clear 17 1020 42 10000 2.1 230 14:40 02.11.2020
6001 Clear 17 1020 42 10000 2.1 230 14:18 02.11.2020
6002 Clear 17 1020 36 10000 3.6 250 13:44 02.11.2020
6003 Clear 17 1020 36 10000 3.1 250 13:21 02.11.2020
6004 Clear 16 1021 48 10000 3.6 240 12:42 02.11.2020
6005 Clear 16 1021 48 10000 3.6 240 12:21 02.11.2020
6006 Clear 15 1021 47 10000 4.1 260 11:45 02.11.2020
6007 Clear 15 1021 44 10000 3.6 240 11:20 02.11.2020
6008 Clear 15 1022 44 10000 3.1 260 10:44 02.11.2020
6009 Clear 14 1022 58 10000 2.1 0 10:22 02.11.2020
6010 Clear 13 1022 62 10000 2.1 280 09:55 02.11.2020
6011 Clear 12 1022 76 10000 2.1 300 09:25 02.11.2020
6012 Clear 11 1022 76 10000 2.6 300 08:46 02.11.2020
6013 Clear 9 1022 87 10000 2.1 260 08:28 02.11.2020
6014 Clear 7 1022 87 10000 3.1 280 07:54 02.11.2020
6015 Clear 7 1022 93 9000 4.1 300 07:30 02.11.2020
6016 Clear 5 1021 100 9000 2.6 290 06:37 02.11.2020
6017 Clear 4 1021 93 10000 1.88 290 04:56 02.11.2020
6018 Clear 5 1021 93 10000 2.6 270 01:26 02.11.2020
6019 Clear 5 1021 93 10000 0.5 0 00:36 02.11.2020
6020 Clear 6 1021 87 10000 1.5 150 23:55 01.11.2020
6021 Clear 6 1021 87 10000 1.5 180 23:36 01.11.2020
6022 Clear 6 1021 87 10000 1.5 180 23:18 01.11.2020
6023 Clear 7 1021 87 10000 2.6 320 22:38 01.11.2020
6024 Clear 7 1021 87 10000 2.6 320 22:18 01.11.2020
6025 Clear 7 1021 81 10000 3.1 330 21:41 01.11.2020
6026 Clear 7 1021 81 10000 3.1 330 21:23 01.11.2020
6027 Clear 7 1020 81 10000 2.6 350 20:45 01.11.2020
6028 Clear 7 1020 81 10000 2.6 350 20:25 01.11.2020
6029 Clear 8 1020 75 10000 2.6 300 19:46 01.11.2020
6030 Clear 8 1020 75 10000 2.6 300 19:28 01.11.2020
6031 Clear 8 1020 66 10000 2.1 280 18:57 01.11.2020
6032 Clear 9 1020 62 10000 2.6 230 18:38 01.11.2020
6033 Clear 9 1020 62 10000 2.6 230 18:19 01.11.2020
6034 Clear 9 1020 66 10000 2.1 280 17:43 01.11.2020
6035 Clear 9 1020 66 10000 2.1 280 17:25 01.11.2020
6036 Clear 10 1019 62 10000 3.6 280 16:44 01.11.2020
6037 Clear 11 1019 54 10000 5.7 280 16:25 01.11.2020
6038 Clear 12 1019 54 10000 6.7 270 15:55 01.11.2020
6039 Clear 13 1019 50 10000 6.2 300 15:37 01.11.2020
6040 Clear 13 1019 50 10000 6.2 300 15:18 01.11.2020
6041 Clear 13 1019 50 10000 6.7 290 14:45 01.11.2020
6042 Clear 14 1019 44 10000 7.2 280 14:22 01.11.2020
6043 Clear 14 1019 51 10000 7.7 310 13:50 01.11.2020
6044 Clear 13 1019 50 10000 8.7 290 13:32 01.11.2020
6045 Clear 13 1019 50 10000 8.2 280 12:58 01.11.2020
6046 Clear 13 1020 58 10000 6.7 290 12:38 01.11.2020
6047 Clear 13 1020 58 10000 6.7 290 12:18 01.11.2020
6048 Clear 13 1020 58 10000 6.7 290 12:18 01.11.2020
6049 Clouds 12 1020 66 10000 7.7 280 11:46 01.11.2020
6050 Clouds 11 1020 66 10000 7.7 280 11:18 01.11.2020
6051 Clouds 10 1020 76 10000 6.7 260 10:42 01.11.2020
6052 Clouds 10 1020 76 10000 6.7 260 10:23 01.11.2020
6053 Clear 9 1020 71 10000 7.7 260 09:48 01.11.2020
6054 Clear 8 1020 81 10000 6.2 250 08:55 01.11.2020
6055 Clear 8 1020 75 10000 5.7 260 08:36 01.11.2020
6056 Clear 7 1020 81 10000 5.1 260 07:50 01.11.2020
6057 Clear 4 1019 93 10000 2.1 250 06:23 01.11.2020
6058 Clear 5 1018 87 10000 5.7 290 02:22 01.11.2020
6059 Clear 6 1018 87 10000 6.2 330 01:23 01.11.2020
6060 Clouds 6 1018 87 10000 2.6 280 23:42 31.10.2020
6061 Clouds 6 1018 87 10000 2.6 280 23:23 31.10.2020
6062 Clouds 6 1017 87 10000 2.6 0 22:44 31.10.2020
6063 Clouds 6 1016 87 10000 4.1 320 22:23 31.10.2020
6064 Clouds 7 1015 87 10000 8.7 360 21:46 31.10.2020
6065 Clouds 7 1015 87 10000 8.7 360 21:21 31.10.2020
6066 Clouds 8 1016 87 10000 6.2 360 20:41 31.10.2020
6067 Rain 8 1016 87 10000 6.2 360 20:20 31.10.2020
6068 Rain 8 1015 87 10000 4.6 360 19:44 31.10.2020
6069 Rain 9 1015 87 10000 4.6 360 19:24 31.10.2020
6070 Rain 9 1014 93 10000 5.7 30 18:56 31.10.2020
6071 Rain 9 1014 93 10000 5.7 30 18:56 31.10.2020
6072 Rain 10 1014 93 7000 1.5 20 18:38 31.10.2020
6073 Rain 10 1014 100 5000 2.1 40 17:44 31.10.2020
6074 Rain 10 1014 93 7000 2.1 60 17:25 31.10.2020
6075 Rain 11 1014 93 7000 2.6 80 16:55 31.10.2020
6076 Rain 11 1014 93 7000 3.1 90 16:34 31.10.2020
6077 Clouds 11 1014 93 6000 2.1 80 15:55 31.10.2020
6078 Clouds 11 1015 93 7000 1.5 70 15:26 31.10.2020
6079 Clouds 11 1015 81 10000 1 0 14:55 31.10.2020
6080 Clouds 11 1015 81 10000 3.4 269 14:32 31.10.2020
6081 Clouds 12 1016 76 10000 1.5 240 13:55 31.10.2020
6082 Clouds 12 1016 71 8000 2.1 260 13:37 31.10.2020
6083 Clouds 13 1016 71 8000 2.1 260 13:18 31.10.2020
6084 Clouds 13 1016 58 10000 5.1 280 12:25 31.10.2020
6085 Clouds 12 1017 62 10000 5.7 270 11:42 31.10.2020
6086 Clouds 12 1017 62 10000 5.7 270 11:23 31.10.2020
6087 Clouds 12 1018 62 10000 5.7 260 10:49 31.10.2020
6088 Clouds 12 1018 62 10000 5.7 260 10:30 31.10.2020
6089 Rain 11 1019 71 10000 6.2 280 09:40 31.10.2020
6090 Clouds 10 1019 71 10000 6.2 280 09:20 31.10.2020
6091 Clouds 11 1019 71 10000 4.6 270 08:27 31.10.2020
6092 Clouds 10 1019 76 10000 4.1 260 07:45 31.10.2020
6093 Clouds 9 1019 81 10000 4.6 260 07:25 31.10.2020
6094 Clouds 8 1018 87 10000 5.1 250 06:37 31.10.2020
6095 Clouds 8 1018 87 10000 4.1 260 03:49 31.10.2020
6096 Clear 9 1018 81 10000 5.7 320 02:48 31.10.2020
6097 Clouds 10 1017 81 10000 5.7 310 00:55 31.10.2020
6098 Clouds 10 1017 87 10000 7.2 330 23:58 30.10.2020
6099 Clouds 10 1017 87 10000 8.2 330 23:38 30.10.2020
6100 Clouds 10 1017 87 10000 8.2 330 23:20 30.10.2020
6101 Clouds 10 1017 87 10000 6.7 300 22:39 30.10.2020
6102 Clouds 11 1017 87 10000 6.7 300 22:20 30.10.2020
6103 Clouds 11 1017 87 10000 6.2 320 21:49 30.10.2020
6104 Clouds 11 1017 87 10000 4.6 270 21:26 30.10.2020
6105 Clouds 11 1017 87 10000 4.1 280 20:45 30.10.2020
6106 Clouds 11 1017 87 10000 5.1 280 20:27 30.10.2020
6107 Clouds 11 1016 87 10000 5.1 290 19:59 30.10.2020
6108 Clouds 11 1016 81 10000 4.1 290 19:39 30.10.2020
6109 Clouds 11 1016 81 10000 4.1 290 19:18 30.10.2020
6110 Clouds 11 1016 81 10000 3.1 280 18:41 30.10.2020
6111 Clouds 11 1016 81 10000 3.1 280 18:22 30.10.2020
6112 Clouds 12 1016 76 10000 3.6 290 17:46 30.10.2020
6113 Clouds 12 1016 76 10000 4.1 300 17:21 30.10.2020
6114 Clouds 11 1016 87 10000 3.6 270 16:50 30.10.2020
6115 Clouds 11 1016 87 10000 3.6 270 16:25 30.10.2020
6116 Clouds 12 1016 82 10000 4.1 290 15:44 30.10.2020
6117 Clouds 12 1016 87 10000 3.1 270 15:26 30.10.2020
6118 Clouds 12 1016 87 10000 4.1 280 14:58 30.10.2020
6119 Clouds 12 1016 93 10000 3.6 280 14:39 30.10.2020
6120 Clouds 12 1016 93 10000 3.6 280 14:21 30.10.2020
6121 Clouds 12 1016 93 10000 3.6 280 14:21 30.10.2020
6122 Clouds 12 1016 93 10000 3.6 280 14:21 30.10.2020
6123 Clouds 12 1016 93 10000 3.6 280 14:21 30.10.2020
6124 Rain 12 1016 82 10000 5.1 280 13:41 30.10.2020
6125 Rain 13 1016 82 10000 5.1 280 13:20 30.10.2020
6126 Clouds 14 1016 71 10000 7.2 290 12:43 30.10.2020
6127 Clouds 14 1016 71 10000 7.2 290 12:22 30.10.2020
6128 Clouds 14 1016 67 10000 7.7 280 11:46 30.10.2020
6129 Clouds 15 1016 72 10000 7.2 280 11:20 30.10.2020
6130 Clouds 15 1016 77 10000 5.1 270 10:50 30.10.2020
6131 Clouds 15 1017 82 10000 4.1 250 10:25 30.10.2020
6132 Clouds 14 1017 87 7000 3.1 250 09:47 30.10.2020
6133 Clouds 13 1017 93 5000 2.1 290 09:24 30.10.2020
6134 Clouds 13 1017 93 6000 1.5 250 08:55 30.10.2020
6135 Clouds 13 1017 100 7000 1.5 300 08:31 30.10.2020
6136 Rain 12 1017 93 5000 0.5 300 07:51 30.10.2020
6137 Rain 12 1017 93 4500 0.5 0 07:33 30.10.2020
6138 Rain 12 1017 93 8000 0.5 290 06:49 30.10.2020
6139 Clouds 11 1016 93 8000 0.5 0 05:31 30.10.2020
6140 Clouds 11 1016 93 9000 1 0 02:30 30.10.2020
6141 Clouds 11 1016 93 9000 1.5 200 00:46 30.10.2020
6142 Clouds 11 1016 93 9000 2.05 300 23:54 29.10.2020
6143 Clouds 11 1016 93 9000 2.6 300 23:36 29.10.2020
6144 Clouds 11 1016 93 9000 2.6 300 23:18 29.10.2020
6145 Clouds 11 1016 93 9000 2.6 300 22:42 29.10.2020
6146 Clouds 11 1016 93 9000 2.6 300 22:23 29.10.2020
6147 Clear 12 1017 93 10000 2.6 290 21:40 29.10.2020
6148 Clear 12 1017 93 10000 2.6 290 21:40 29.10.2020
6149 Clear 12 1017 93 10000 2.6 290 21:20 29.10.2020
6150 Clear 12 1016 87 10000 1.5 290 20:42 29.10.2020
6151 Clear 12 1016 87 10000 1.5 290 20:20 29.10.2020
6152 Clouds 14 1016 82 10000 3.6 260 19:43 29.10.2020
6153 Clouds 14 1016 82 10000 3.6 260 19:22 29.10.2020
6154 Clouds 14 1016 82 10000 2.6 350 18:56 29.10.2020
6155 Clouds 14 1016 82 10000 2.6 310 18:36 29.10.2020
6156 Clouds 14 1016 82 10000 2.6 310 18:18 29.10.2020
6157 Clouds 15 1015 72 10000 3.6 320 17:41 29.10.2020
6158 Clouds 16 1015 72 10000 3.6 320 17:20 29.10.2020
6159 Clouds 17 1015 72 10000 3.6 320 16:46 29.10.2020
6160 Clear 17 1015 68 10000 4.6 310 16:20 29.10.2020
6161 Clouds 17 1015 68 10000 4.1 300 15:56 29.10.2020
6162 Clouds 18 1015 59 10000 4.6 320 15:38 29.10.2020
6163 Clouds 18 1015 59 10000 4.6 320 15:19 29.10.2020
6164 Clouds 19 1015 56 10000 4.1 320 14:45 29.10.2020
6165 Clouds 19 1014 59 10000 5.1 310 14:23 29.10.2020
6166 Clouds 19 1014 59 10000 5.1 310 14:23 29.10.2020
6167 Clouds 19 1014 59 10000 5.1 310 14:23 29.10.2020
6168 Clouds 19 1015 59 10000 4.6 330 13:47 29.10.2020
6169 Clouds 19 1015 56 10000 5.1 340 13:28 29.10.2020
6170 Clouds 19 1015 56 10000 5.1 330 12:44 29.10.2020
6171 Clouds 19 1015 63 10000 5.1 320 12:20 29.10.2020
6172 Clouds 19 1015 63 10000 4.6 320 11:58 29.10.2020
6173 Clouds 18 1016 68 10000 5.1 330 11:39 29.10.2020
6174 Clouds 18 1016 68 10000 5.1 330 11:20 29.10.2020
6175 Clouds 18 1016 72 10000 3.6 290 10:37 29.10.2020
6176 Clouds 18 1016 72 10000 3.6 290 10:37 29.10.2020
6177 Clouds 18 1016 72 10000 3.6 290 10:37 29.10.2020
6178 Clouds 18 1016 72 10000 3.6 290 10:37 29.10.2020
6179 Clouds 17 1016 72 10000 3.6 290 10:19 29.10.2020
6180 Clouds 15 1016 77 10000 3.6 320 09:50 29.10.2020
6181 Clouds 14 1016 82 10000 4.1 320 09:26 29.10.2020
6182 Clouds 13 1016 87 10000 4.1 260 08:46 29.10.2020
6183 Clouds 13 1016 93 10000 2.1 0 08:24 29.10.2020
6184 Clouds 12 1016 93 10000 4.1 300 07:51 29.10.2020
6185 Clouds 12 1016 93 10000 5.7 350 07:21 29.10.2020
6186 Clouds 12 1016 93 10000 3.6 10 06:47 29.10.2020
6187 Clouds 12 1015 87 10000 3.1 350 04:50 29.10.2020
6188 Clouds 11 1013 99 10000 1.84 2 02:29 29.10.2020
6189 Clouds 12 1013 99 10000 1.61 351 00:45 29.10.2020
6190 Clouds 12 1013 99 10000 2.45 357 00:22 29.10.2020
6191 Clouds 12 1014 99 10000 2.45 357 23:42 28.10.2020
6192 Clouds 11 1014 99 10000 1.52 13 23:20 28.10.2020
6193 Clear 13 1017 82 10000 2.6 50 22:43 28.10.2020
6194 Clear 13 1017 82 10000 2.6 50 22:25 28.10.2020
6195 Clear 14 1017 82 10000 2.6 50 21:45 28.10.2020
6196 Clear 13 1017 82 10000 1 0 21:26 28.10.2020
6197 Clear 13 1017 87 10000 1 20 20:58 28.10.2020
6198 Clear 14 1017 87 10000 2.1 80 20:40 28.10.2020
6199 Clear 14 1017 87 10000 2.1 80 20:18 28.10.2020
6200 Clear 14 1016 87 10000 1.5 70 19:42 28.10.2020
6201 Clear 15 1016 87 10000 1.5 70 19:24 28.10.2020
6202 Clouds 15 1016 87 10000 2.6 100 18:43 28.10.2020
6203 Clouds 15 1016 87 10000 2.6 100 18:20 28.10.2020
6204 Clouds 15 1016 87 10000 2.6 100 18:20 28.10.2020
6205 Clouds 15 1016 87 10000 2.6 50 17:43 28.10.2020
6206 Clouds 15 1016 87 10000 2.6 50 17:21 28.10.2020
6207 Clouds 16 1016 82 10000 3.6 90 16:47 28.10.2020
6208 Clouds 16 1016 82 10000 3.6 100 16:29 28.10.2020
6209 Clouds 18 1016 77 10000 4.6 100 15:45 28.10.2020
6210 Clouds 18 1016 72 10000 4.1 110 15:20 28.10.2020
6211 Clouds 19 1015 68 10000 4.6 140 14:50 28.10.2020
6212 Clouds 19 1015 68 10000 4.6 140 14:32 28.10.2020
6213 Clouds 20 1016 99 10000 0.89 135 13:59 28.10.2020
6214 Clouds 20 1016 99 10000 0.45 135 12:38 28.10.2020
6215 Clear 20 1016 99 10000 0.45 90 12:20 28.10.2020
6216 Clear 18 1014 64 10000 2.24 68 11:43 28.10.2020
6217 Clouds 17 1017 77 10000 4.1 160 11:22 28.10.2020
6218 Clouds 18 1016 88 8000 1.5 150 10:54 28.10.2020
6219 Clouds 17 1016 88 8000 1.5 150 10:34 28.10.2020
6220 Clouds 16 1016 93 6000 1 0 09:56 28.10.2020
6221 Clouds 17 1016 93 6000 1 0 09:38 28.10.2020
6222 Clouds 17 1016 93 6000 1 0 09:20 28.10.2020
6223 Mist 15 1016 100 5000 1 0 08:45 28.10.2020
6224 Mist 14 1016 100 2100 1 0 08:24 28.10.2020
6225 Fog 12 1016 100 350 0.5 0 07:47 28.10.2020
6226 Fog 12 1016 100 150 1 310 07:29 28.10.2020
6227 Fog 11 1015 100 300 0.5 0 06:40 28.10.2020
6228 Fog 10 1015 100 350 1.5 300 05:49 28.10.2020
6229 Fog 10 1015 100 300 2.41 42 04:52 28.10.2020
6230 Fog 11 1015 100 600 2.21 49 04:24 28.10.2020
6231 Fog 11 1015 100 4400 0.5 290 02:25 28.10.2020
6232 Clouds 11 1015 100 8000 2.1 20 00:51 28.10.2020
6233 Clear 12 1015 93 10000 2.1 20 23:51 27.10.2020
6234 Clear 12 1015 93 9000 1.68 129 23:23 27.10.2020
6235 Clear 12 1015 93 9000 1.68 129 22:55 27.10.2020
6236 Clouds 13 1015 93 10000 1.68 129 22:37 27.10.2020
6237 Clouds 13 1015 93 10000 1.95 128 22:18 27.10.2020
6238 Clouds 13 1015 93 10000 0.5 100 21:54 27.10.2020
6239 Clouds 14 1016 93 10000 1.5 60 21:36 27.10.2020
6240 Clouds 14 1016 93 10000 1.5 60 21:18 27.10.2020
6241 Clouds 14 1015 100 9000 1 60 20:39 27.10.2020
6242 Clouds 14 1015 100 9000 1 60 20:20 27.10.2020
6243 Clouds 15 1015 93 10000 2.76 122 19:39 27.10.2020
6244 Clouds 15 1015 93 10000 3.28 121 19:20 27.10.2020
6245 Clouds 16 1015 88 10000 1 0 18:57 27.10.2020
6246 Clouds 15 1015 93 10000 3.26 120 18:39 27.10.2020
6247 Clouds 15 1015 93 10000 3.61 119 18:18 27.10.2020
6248 Clouds 16 1015 93 10000 2.6 100 17:42 27.10.2020
6249 Clouds 16 1015 93 10000 2.6 100 17:21 27.10.2020
6250 Clouds 16 1014 88 10000 3.1 100 16:48 27.10.2020
6251 Clouds 17 1015 88 10000 3.1 120 16:25 27.10.2020
6252 Clouds 18 1015 82 10000 4.6 110 15:47 27.10.2020
6253 Clouds 18 1015 88 10000 5.1 120 15:29 27.10.2020
6254 Clouds 19 1014 77 10000 5.7 110 14:55 27.10.2020
6255 Clouds 19 1014 64 10000 4.1 110 14:36 27.10.2020
6256 Clouds 20 1014 64 10000 4.1 110 14:18 27.10.2020
6257 Clouds 20 1014 60 10000 3.1 90 13:33 27.10.2020
6258 Clouds 20 1014 68 10000 4.6 110 12:58 27.10.2020
6259 Clear 21 1015 60 10000 2.1 170 12:38 27.10.2020
6260 Clear 21 1015 60 10000 2.1 170 12:20 27.10.2020
6261 Clear 20 1015 64 10000 2.1 200 11:42 27.10.2020
6262 Clear 20 1015 64 10000 2.1 200 11:22 27.10.2020
6263 Clear 19 1016 72 10000 1.5 150 10:46 27.10.2020
6264 Clear 19 1016 72 10000 1.5 150 10:24 27.10.2020
6265 Clear 19 1015 82 9000 1.5 130 09:44 27.10.2020
6266 Clouds 17 1015 87 10000 0.5 0 09:23 27.10.2020
6267 Clouds 15 1016 100 8000 0.5 0 08:36 27.10.2020
6268 Clouds 14 1016 100 8000 0.5 0 08:18 27.10.2020
6269 Mist 12 1015 100 4700 0.91 210 07:42 27.10.2020
6270 Mist 10 1015 100 4700 0.91 210 07:42 27.10.2020
6271 Mist 10 1015 100 4700 0.61 252 07:24 27.10.2020
6272 Fog 9 1015 100 650 1 230 06:22 27.10.2020
6273 Fog 9 1015 100 4700 0.62 245 05:51 27.10.2020
6274 Fog 9 1015 100 500 0.62 245 05:32 27.10.2020
6275 Clouds 9 1015 100 8000 0.82 250 04:43 27.10.2020
6276 Clear 9 1015 100 10000 0.95 257 01:32 27.10.2020
6277 Clear 10 1015 100 10000 0.5 0 00:48 27.10.2020
6278 Clear 10 1015 100 10000 1.61 278 23:41 26.10.2020
6279 Clear 11 1015 100 10000 1.89 275 23:19 26.10.2020
6280 Clear 10 1015 93 10000 1.89 275 22:46 26.10.2020
6281 Clear 11 1015 93 10000 1.5 10 22:21 26.10.2020
6282 Clear 11 1015 93 10000 2.14 280 21:42 26.10.2020
6283 Clear 11 1015 93 10000 2.36 297 21:19 26.10.2020
6284 Clear 11 1015 87 10000 2.36 297 20:55 26.10.2020
6285 Clear 11 1014 87 10000 2.36 297 20:37 26.10.2020
6286 Clear 12 1014 87 10000 3.06 298 20:18 26.10.2020
6287 Clear 11 1014 93 10000 3.06 298 19:44 26.10.2020
6288 Clear 12 1014 93 10000 1 250 19:22 26.10.2020
6289 Clear 13 1014 77 10000 2.6 360 18:42 26.10.2020
6290 Clear 13 1014 77 10000 2.6 360 18:22 26.10.2020
6291 Clear 15 1014 72 10000 1 10 17:45 26.10.2020
6292 Clear 15 1014 72 10000 1 10 17:24 26.10.2020
6293 Clear 15 1013 77 10000 4.1 290 16:57 26.10.2020
6294 Clouds 17 1013 72 10000 4.1 280 16:38 26.10.2020
6295 Clouds 17 1013 72 10000 4.1 280 16:19 26.10.2020
6296 Clouds 18 1013 56 10000 4.1 290 15:39 26.10.2020
6297 Clouds 19 1013 56 10000 4.1 290 15:19 26.10.2020
6298 Clouds 19 1013 56 10000 4.1 280 14:46 26.10.2020
6299 Clouds 19 1013 56 10000 4.1 280 14:21 26.10.2020
6300 Clouds 19 1013 59 10000 5.7 270 13:42 26.10.2020
6301 Clouds 19 1013 59 10000 5.7 270 13:23 26.10.2020
6302 Clouds 19 1013 63 10000 5.1 280 12:47 26.10.2020
6303 Clouds 18 1013 68 10000 6.2 280 12:27 26.10.2020
6304 Clouds 18 1013 63 10000 5.7 290 11:55 26.10.2020
6305 Clouds 18 1013 68 10000 6.2 300 11:37 26.10.2020
6306 Clouds 17 1013 68 10000 6.2 300 11:18 26.10.2020
6307 Clouds 17 1013 77 10000 5.7 270 10:42 26.10.2020
6308 Clouds 17 1013 77 10000 5.7 270 10:24 26.10.2020
6309 Clouds 16 1013 82 10000 5.7 280 09:44 26.10.2020
6310 Clouds 16 1013 82 10000 4.1 300 09:23 26.10.2020
6311 Clouds 15 1013 93 8000 4.1 280 08:30 26.10.2020
6312 Clouds 14 1013 93 10000 3.1 270 07:56 26.10.2020
6313 Clouds 14 1013 93 10000 3.1 260 07:37 26.10.2020
6314 Clouds 14 1012 82 10000 2.1 10 06:38 26.10.2020
6315 Clouds 14 1012 82 10000 2.1 280 04:44 26.10.2020
6316 Clouds 15 1012 82 10000 5.7 300 04:18 26.10.2020
6317 Clouds 16 1012 93 10000 3.1 10 01:52 26.10.2020
6318 Clouds 15 1012 87 10000 1.99 5 01:23 26.10.2020
6319 Rain 15 1012 93 8000 2.6 280 00:32 26.10.2020
6320 Clouds 16 1012 93 10000 2.1 70 23:41 25.10.2020
6321 Clouds 16 1012 93 10000 2.1 70 23:21 25.10.2020
6322 Clouds 16 1013 88 10000 2.6 30 22:41 25.10.2020
6323 Clouds 16 1013 88 10000 2.6 30 22:21 25.10.2020
6324 Clouds 16 1013 88 10000 2.6 30 22:21 25.10.2020
6325 Clouds 17 1013 88 10000 0.5 0 21:43 25.10.2020
6326 Clouds 17 1013 88 10000 0.5 0 21:24 25.10.2020
6327 Clouds 17 1013 88 10000 2.6 70 20:56 25.10.2020
6328 Clouds 17 1013 93 10000 0.5 0 20:37 25.10.2020
6329 Clouds 17 1013 93 10000 0.5 0 20:18 25.10.2020
6330 Clouds 17 1013 88 9000 1.5 270 19:48 25.10.2020
6331 Clouds 17 1012 88 10000 1.5 260 19:22 25.10.2020
6332 Clouds 17 1012 93 10000 2.6 80 18:55 25.10.2020
6333 Clouds 17 1012 93 10000 2.6 90 18:36 25.10.2020
6334 Clouds 18 1012 93 10000 2.6 90 18:18 25.10.2020
6335 Clouds 18 1012 93 9000 2.6 90 17:39 25.10.2020
6336 Clouds 18 1012 93 9000 2.6 90 17:21 25.10.2020
6337 Clouds 18 1012 88 7000 3.6 90 16:55 25.10.2020
6338 Clouds 18 1012 88 8000 3.6 90 16:37 25.10.2020
6339 Clouds 18 1012 88 8000 3.6 90 16:18 25.10.2020
6340 Clouds 19 1012 82 8000 5.1 110 15:41 25.10.2020
6341 Clouds 19 1012 82 8000 5.1 110 15:23 25.10.2020
6342 Clouds 20 1012 77 9000 4.6 110 14:40 25.10.2020
6343 Clouds 21 1012 77 9000 4.6 110 14:21 25.10.2020
6344 Clouds 21 1012 77 8000 4.6 120 13:42 25.10.2020
6345 Clouds 21 1012 77 8000 4.6 120 13:20 25.10.2020
6346 Clouds 21 1012 77 9000 4.1 100 12:46 25.10.2020
6347 Clouds 21 1013 77 8000 4.6 120 12:26 25.10.2020
6348 Clouds 21 1013 77 8000 5.1 120 11:54 25.10.2020
6349 Clouds 22 1013 77 7000 5.1 120 11:36 25.10.2020
6350 Clouds 21 1013 77 7000 5.1 120 11:18 25.10.2020
6351 Clouds 21 1014 82 7000 4.1 120 10:43 25.10.2020
6352 Clouds 21 1014 82 7000 4.1 120 10:21 25.10.2020
6353 Mist 20 1014 82 5000 3.1 130 09:43 25.10.2020
6354 Mist 19 1014 82 5000 3.1 130 09:19 25.10.2020
6355 Mist 19 1014 88 5000 2.6 120 08:44 25.10.2020
6356 Clouds 18 1014 88 6000 2.86 116 08:25 25.10.2020
6357 Clouds 16 1014 87 9000 2.86 116 07:48 25.10.2020
6358 Clouds 16 1013 87 10000 2.46 105 07:25 25.10.2020
6359 Clouds 16 1014 82 10000 2.46 105 06:46 25.10.2020
6360 Clouds 15 1013 82 10000 0.5 60 05:43 25.10.2020
6361 Clouds 15 1013 87 10000 2.62 102 04:52 25.10.2020
6362 Clear 14 1014 87 10000 2.74 70 02:56 25.10.2020
6363 Clouds 13 1014 82 10000 1 0 01:20 25.10.2020
6364 Clouds 13 1014 87 10000 2.13 52 00:40 25.10.2020
6365 Clouds 13 1014 87 10000 1.74 49 00:18 25.10.2020
6366 Rain 14 1014 82 10000 1.74 49 23:43 24.10.2020
6367 Clear 14 1014 82 10000 1.24 39 23:22 24.10.2020
6368 Clear 14 1014 82 10000 0.5 0 22:42 24.10.2020
6369 Rain 14 1014 82 10000 0.5 0 22:23 24.10.2020
6370 Clear 14 1014 82 10000 0.71 31 21:56 24.10.2020
6371 Clear 14 1014 82 10000 0.71 31 21:38 24.10.2020
6372 Clear 14 1014 82 10000 0.44 90 21:19 24.10.2020
6373 Clear 14 1014 82 10000 0.5 90 20:45 24.10.2020
6374 Clear 15 1014 72 10000 1 20 20:21 24.10.2020
6375 Clear 16 1014 67 10000 1.5 60 19:44 24.10.2020
6376 Clear 16 1014 67 10000 1 20 19:25 24.10.2020
6377 Clear 16 1014 67 10000 1 20 19:25 24.10.2020
6378 Clear 18 1014 67 10000 1.5 70 18:55 24.10.2020
6379 Clear 18 1014 72 10000 2.1 120 18:31 24.10.2020
6380 Clear 19 1014 72 10000 1.5 110 17:55 24.10.2020
6381 Clear 20 1013 72 10000 2.6 120 17:27 24.10.2020
6382 Clear 21 1013 60 10000 3.6 120 16:58 24.10.2020
6383 Clear 23 1013 40 10000 5.1 110 16:40 24.10.2020
6384 Clear 24 1013 41 10000 4.6 110 15:59 24.10.2020
6385 Clear 24 1013 44 10000 4.6 110 15:38 24.10.2020
6386 Clear 25 1013 44 10000 4.6 110 15:19 24.10.2020
6387 Clear 27 1013 39 10000 4.1 140 14:40 24.10.2020
6388 Clear 27 1013 39 10000 4.1 140 14:22 24.10.2020
6389 Clear 27 1014 28 10000 1.5 0 13:44 24.10.2020
6390 Clear 27 1014 30 10000 1 0 13:20 24.10.2020
6391 Clear 26 1015 36 10000 2.1 200 12:41 24.10.2020
6392 Clear 26 1015 36 10000 2.1 200 12:20 24.10.2020
6393 Clear 25 1015 38 10000 2.06 201 11:50 24.10.2020
6394 Clear 23 1015 43 10000 1 0 11:23 24.10.2020
6395 Clear 22 1015 52 10000 1 0 10:47 24.10.2020
6396 Clear 20 1016 56 10000 1.5 240 10:27 24.10.2020
6397 Clear 17 1016 67 10000 1 0 09:48 24.10.2020
6398 Clear 16 1016 67 10000 0.5 0 09:26 24.10.2020
6399 Clear 17 1016 76 10000 0.5 0 08:57 24.10.2020
6400 Clear 15 1016 93 9000 1 0 08:19 24.10.2020
6401 Clear 12 1016 93 10000 0.5 0 07:51 24.10.2020
6402 Clear 11 1016 93 8000 1.76 285 07:21 24.10.2020
6403 Clear 11 1016 100 8000 0.5 280 06:50 24.10.2020
6404 Clear 12 1016 100 8000 0.5 0 05:46 24.10.2020
6405 Clear 13 1016 87 10000 0.5 0 02:26 24.10.2020
6406 Clear 14 1017 87 10000 1.53 228 00:56 24.10.2020
6407 Clear 14 1017 87 10000 0.5 0 00:37 24.10.2020
6408 Clear 14 1017 87 10000 0.5 0 00:19 24.10.2020
6409 Clear 14 1017 87 10000 2.1 340 23:41 23.10.2020
6410 Clear 14 1017 87 10000 2.1 340 23:22 23.10.2020
6411 Clear 14 1017 82 10000 1.5 20 22:42 23.10.2020
6412 Clear 14 1017 82 10000 1.5 20 22:22 23.10.2020
6413 Clear 13 1018 82 10000 1.5 10 21:56 23.10.2020
6414 Clear 14 1018 76 10000 2.1 10 21:38 23.10.2020
6415 Clear 14 1018 76 10000 2.1 10 21:20 23.10.2020
6416 Clear 15 1018 77 10000 1.5 360 20:39 23.10.2020
6417 Clear 15 1018 77 10000 1.5 360 20:19 23.10.2020
6418 Clear 15 1018 77 10000 2.1 360 19:45 23.10.2020
6419 Clear 15 1018 72 10000 1.78 188 19:26 23.10.2020
6420 Clear 17 1018 67 10000 1 0 18:47 23.10.2020
6421 Clear 16 1017 77 10000 2.1 110 18:29 23.10.2020
6422 Clear 19 1017 72 10000 3.1 120 17:47 23.10.2020
6423 Clear 21 1017 52 10000 3.1 120 17:22 23.10.2020
6424 Clear 21 1017 56 10000 4.1 110 16:51 23.10.2020
6425 Clear 22 1017 49 10000 4.6 120 16:33 23.10.2020
6426 Clear 22 1017 46 10000 4.6 120 15:58 23.10.2020
6427 Clear 23 1018 47 10000 3.6 130 15:39 23.10.2020
6428 Clear 23 1018 47 10000 3.6 130 15:19 23.10.2020
6429 Clear 23 1018 47 10000 3.6 130 14:47 23.10.2020
6430 Clear 24 1018 38 10000 2.1 200 14:29 23.10.2020
6431 Clear 24 1019 41 10000 1 0 13:42 23.10.2020
6432 Clear 22 1019 41 10000 1 0 13:23 23.10.2020
6433 Clear 23 1019 43 10000 1.5 0 12:50 23.10.2020
6434 Clear 21 1020 46 10000 1.5 0 12:30 23.10.2020
6435 Clear 22 1020 49 10000 1 0 11:50 23.10.2020
6436 Clear 20 1021 59 10000 1.5 260 11:27 23.10.2020
6437 Clear 19 1021 72 10000 2.1 250 10:54 23.10.2020
6438 Clear 17 1021 93 10000 1.5 260 10:26 23.10.2020
6439 Clear 16 1021 100 9000 0.5 0 09:57 23.10.2020
6440 Clouds 15 1021 100 6000 1.42 240 09:39 23.10.2020
6441 Clouds 14 1021 100 6000 1.27 251 09:20 23.10.2020
6442 Fog 12 1021 100 450 1.5 260 08:49 23.10.2020
6443 Fog 10 1021 100 300 1.11 274 08:24 23.10.2020
6444 Fog 9 1021 100 250 1 0 07:26 23.10.2020
6445 Fog 8 1020 100 400 1 260 06:48 23.10.2020
6446 Fog 8 1021 100 1000 1.5 300 06:19 23.10.2020
6447 Fog 10 1021 100 9000 1.36 249 03:37 23.10.2020
6448 Clear 11 1021 100 8000 1.32 234 02:26 23.10.2020
6449 Clear 11 1022 100 10000 1 340 00:49 23.10.2020
6450 Mist 11 1022 100 10000 1.5 340 00:21 23.10.2020
6451 Rain 11 1022 93 10000 2.1 50 23:37 22.10.2020
6452 Clear 11 1022 93 10000 2.1 50 23:18 22.10.2020
6453 Clear 11 1022 93 10000 1.5 40 22:42 22.10.2020
6454 Clear 12 1022 93 10000 1.5 40 22:21 22.10.2020
6455 Clear 12 1022 87 10000 1.5 30 21:47 22.10.2020
6456 Clear 13 1022 93 10000 1 80 21:28 22.10.2020
6457 Clear 13 1022 87 10000 1.5 70 20:58 22.10.2020
6458 Clear 13 1022 87 10000 2.1 50 20:40 22.10.2020
6459 Clear 13 1022 87 10000 2.1 50 20:20 22.10.2020
6460 Clear 13 1022 87 10000 2.1 50 19:42 22.10.2020
6461 Clear 14 1022 87 10000 2.1 50 19:20 22.10.2020
6462 Clear 15 1022 82 10000 2.6 120 18:43 22.10.2020
6463 Clear 15 1022 82 10000 2.6 120 18:21 22.10.2020
6464 Clear 16 1022 77 10000 2.6 120 17:47 22.10.2020
6465 Clear 17 1022 77 10000 3.1 110 17:26 22.10.2020
6466 Clear 17 1022 72 10000 4.6 100 16:58 22.10.2020
6467 Clear 18 1022 68 10000 5.1 100 16:40 22.10.2020
6468 Clear 19 1022 68 10000 5.1 100 16:22 22.10.2020
6469 Clear 19 1022 68 10000 5.1 100 15:44 22.10.2020
6470 Clear 20 1022 64 10000 5.7 110 15:25 22.10.2020
6471 Clouds 20 1022 64 10000 5.7 120 14:49 22.10.2020
6472 Clouds 20 1022 64 10000 5.7 120 14:49 22.10.2020
6473 Clear 20 1022 60 10000 3.1 0 14:25 22.10.2020
6474 Clear 21 1022 52 10000 2.1 0 13:49 22.10.2020
6475 Clear 21 1022 52 10000 3.6 260 13:24 22.10.2020
6476 Clear 20 1023 56 10000 3.6 260 12:54 22.10.2020
6477 Clear 20 1023 56 10000 3.6 260 12:24 22.10.2020
6478 Clear 19 1024 59 10000 2.6 240 11:50 22.10.2020
6479 Clear 19 1024 68 10000 1.5 0 11:20 22.10.2020
6480 Clear 18 1024 67 10000 1.5 270 10:51 22.10.2020
6481 Clear 17 1024 72 10000 1.5 270 10:29 22.10.2020
6482 Clear 16 1024 77 10000 0.5 0 09:54 22.10.2020
6483 Clear 14 1024 93 10000 1.5 260 09:35 22.10.2020
6484 Clear 12 1024 100 8000 1.5 280 08:53 22.10.2020
6485 Mist 11 1024 100 4100 1.81 259 08:32 22.10.2020
6486 Fog 8 1023 100 1700 2.1 240 07:58 22.10.2020
6487 Fog 8 1023 100 1300 1.48 277 07:40 22.10.2020
6488 Fog 7 1023 100 2200 1.52 289 06:58 22.10.2020
6489 Clouds 6 1023 100 6000 1 340 06:35 22.10.2020
6490 Mist 7 1023 100 4400 1.69 286 05:42 22.10.2020
6491 Mist 7 1023 100 4400 1.67 278 05:19 22.10.2020
6492 Clear 9 1024 93 10000 1 260 01:53 22.10.2020
6493 Clear 8 1024 93 10000 1.5 300 00:27 22.10.2020
6494 Clear 8 1024 93 10000 1.5 360 23:57 21.10.2020
6495 Clear 8 1024 93 10000 2.1 10 23:33 21.10.2020
6496 Clear 9 1025 93 10000 0.5 0 22:44 21.10.2020
6497 Clouds 9 1025 93 10000 0.5 0 22:20 21.10.2020
6498 Clouds 9 1025 93 10000 0.5 0 22:20 21.10.2020
6499 Clouds 9 1025 87 10000 2.6 10 21:57 21.10.2020
6500 Clouds 9 1025 87 10000 2.1 10 21:38 21.10.2020
6501 Clouds 9 1025 87 10000 2.1 10 21:19 21.10.2020
6502 Clouds 10 1025 87 10000 1.5 40 20:48 21.10.2020
6503 Clouds 11 1025 81 10000 0.5 320 20:19 21.10.2020
6504 Clouds 11 1025 76 10000 1.5 10 19:56 21.10.2020
6505 Clouds 11 1025 76 10000 1.5 10 19:36 21.10.2020
6506 Clouds 11 1025 76 10000 1.5 10 19:18 21.10.2020
6507 Clouds 12 1025 71 10000 0.5 0 18:45 21.10.2020
6508 Clouds 13 1025 71 10000 2.1 100 18:21 21.10.2020
6509 Clouds 15 1025 63 10000 4.1 120 17:42 21.10.2020
6510 Clouds 16 1025 59 10000 4.1 130 17:19 21.10.2020
6511 Clouds 17 1025 55 10000 4.1 130 16:41 21.10.2020
6512 Clouds 17 1025 52 10000 4.1 140 16:21 21.10.2020
6513 Clouds 17 1025 52 10000 4.1 140 15:55 21.10.2020
6514 Clouds 18 1025 52 10000 3.6 130 15:37 21.10.2020
6515 Clouds 18 1025 52 10000 3.6 120 15:18 21.10.2020
6516 Clouds 18 1025 48 10000 3.1 130 14:43 21.10.2020
6517 Clouds 18 1026 52 10000 4.6 130 14:23 21.10.2020
6518 Clouds 18 1026 52 10000 4.6 140 13:42 21.10.2020
6519 Clouds 18 1026 52 10000 3.6 120 13:23 21.10.2020
6520 Clouds 18 1027 55 10000 4.1 120 12:46 21.10.2020
6521 Clouds 18 1027 55 10000 3.6 120 12:24 21.10.2020
6522 Clouds 17 1027 55 10000 3.6 120 11:59 21.10.2020
6523 Clouds 17 1027 52 10000 5.1 130 11:39 21.10.2020
6524 Clouds 17 1027 48 10000 3.6 130 11:19 21.10.2020
6525 Clouds 17 1027 55 10000 0.5 0 10:41 21.10.2020
6526 Clouds 14 1027 71 10000 1 0 10:21 21.10.2020
6527 Clouds 14 1028 76 10000 1.5 330 09:51 21.10.2020
6528 Clouds 12 1028 76 10000 1.5 330 09:28 21.10.2020
6529 Clouds 10 1028 81 10000 1 260 08:42 21.10.2020
6530 Clouds 9 1028 87 10000 2.1 250 08:24 21.10.2020
6531 Clouds 9 1028 87 10000 2.1 250 07:56 21.10.2020
6532 Clouds 8 1027 100 10000 1.5 280 07:24 21.10.2020
6533 Clouds 8 1027 87 10000 2.1 210 06:47 21.10.2020
6534 Clouds 8 1027 87 10000 2.1 210 06:25 21.10.2020
6535 Clouds 11 1027 76 10000 1 0 03:48 21.10.2020
6536 Clear 12 1028 66 10000 3.1 60 00:49 21.10.2020
6537 Clear 12 1028 66 10000 4.1 40 23:37 20.10.2020
6538 Clear 11 1028 71 10000 2.6 90 22:47 20.10.2020
6539 Clear 11 1028 71 10000 2.6 90 22:25 20.10.2020
6540 Clear 11 1027 66 10000 5.1 50 21:48 20.10.2020
6541 Clear 11 1027 66 10000 4.6 50 21:20 20.10.2020
6542 Clear 12 1027 66 10000 4.6 60 20:44 20.10.2020
6543 Clouds 12 1027 66 10000 4.6 60 20:24 20.10.2020
6544 Clouds 12 1027 62 10000 4.6 50 19:57 20.10.2020
6545 Clouds 13 1027 62 10000 4.1 70 19:38 20.10.2020
6546 Clouds 13 1027 62 10000 2.6 50 19:20 20.10.2020
6547 Clouds 14 1027 58 10000 3.6 70 18:44 20.10.2020
6548 Clouds 14 1027 58 10000 4.1 80 18:25 20.10.2020
6549 Clouds 15 1026 55 10000 5.7 80 17:41 20.10.2020
6550 Clouds 16 1026 55 10000 5.7 100 17:23 20.10.2020
6551 Clouds 16 1026 55 10000 5.7 100 16:43 20.10.2020
6552 Clouds 16 1026 55 10000 5.7 100 16:43 20.10.2020
6553 Clouds 16 1026 55 10000 6.2 110 16:24 20.10.2020
6554 Clouds 16 1026 55 10000 7.2 110 15:49 20.10.2020
6555 Clouds 17 1026 55 10000 7.2 110 15:30 20.10.2020
6556 Clouds 18 1026 52 10000 6.2 100 14:55 20.10.2020
6557 Clouds 18 1026 52 10000 5.7 110 14:36 20.10.2020
6558 Clouds 17 1026 45 10000 5.1 100 14:18 20.10.2020
6559 Clouds 17 1026 45 10000 4.1 80 13:41 20.10.2020
6560 Clouds 18 1027 48 10000 3.6 70 13:21 20.10.2020
6561 Clouds 18 1027 48 10000 4.1 70 12:54 20.10.2020
6562 Clouds 18 1027 48 10000 4.1 70 12:31 20.10.2020
6563 Clouds 17 1027 48 10000 6.2 60 11:48 20.10.2020
6564 Clouds 17 1027 48 10000 6.2 60 11:30 20.10.2020
6565 Clouds 17 1026 48 10000 6.7 60 10:53 20.10.2020
6566 Clouds 16 1026 55 10000 5.1 40 10:28 20.10.2020
6567 Clouds 14 1026 58 10000 6.7 30 09:47 20.10.2020
6568 Clouds 13 1026 54 10000 5.7 30 09:20 20.10.2020
6569 Clouds 13 1026 54 10000 5.7 30 09:20 20.10.2020
6570 Clouds 12 1026 58 10000 2.6 10 08:50 20.10.2020
6571 Clouds 12 1026 58 10000 2.6 10 08:26 20.10.2020
6572 Clouds 9 1026 66 10000 1.5 240 07:48 20.10.2020
6573 Clouds 9 1026 66 10000 1.5 240 07:24 20.10.2020
6574 Clouds 9 1026 53 10000 1.5 0 06:24 20.10.2020
6575 Clouds 10 1026 54 10000 2.6 20 04:55 20.10.2020
6576 Clouds 10 1026 66 10000 0.5 0 02:31 20.10.2020
6577 Clouds 10 1026 58 10000 1.5 230 01:30 20.10.2020
6578 Clouds 10 1026 62 10000 0.5 0 00:52 20.10.2020
6579 Clouds 10 1026 62 10000 0.5 0 00:29 20.10.2020
6580 Clouds 11 1026 58 10000 3.1 10 23:54 19.10.2020
6581 Clouds 11 1026 62 10000 2.1 20 23:27 19.10.2020
6582 Clouds 11 1026 62 10000 2.1 360 22:56 19.10.2020
6583 Clouds 11 1026 62 10000 2.1 360 22:30 19.10.2020
6584 Rain 12 1026 58 10000 2.1 10 21:58 19.10.2020
6585 Rain 12 1026 58 10000 2.1 360 21:39 19.10.2020
6586 Clouds 12 1026 54 10000 1.5 360 21:19 19.10.2020
6587 Clouds 13 1026 54 10000 2.1 10 20:43 19.10.2020
6588 Clear 13 1026 54 10000 2.1 10 20:25 19.10.2020
6589 Clear 13 1026 54 10000 2.6 350 19:46 19.10.2020
6590 Clear 13 1025 47 10000 2.1 30 19:20 19.10.2020
6591 Clear 13 1025 47 10000 1.5 20 18:50 19.10.2020
6592 Clear 14 1025 47 10000 1.5 20 18:31 19.10.2020
6593 Clear 14 1025 51 10000 2.1 130 17:49 19.10.2020
6594 Clear 14 1025 51 10000 2.1 130 17:28 19.10.2020
6595 Clear 15 1024 39 10000 1.5 50 16:54 19.10.2020
6596 Clear 15 1024 39 10000 1.5 50 16:30 19.10.2020
6597 Clear 16 1024 39 10000 2.1 60 15:57 19.10.2020
6598 Clear 15 1023 92 10000 2.04 110 15:36 19.10.2020
6599 Clear 15 1023 92 10000 1.95 90 15:18 19.10.2020
6600 Clear 16 1022 91 10000 0.89 247 14:40 19.10.2020
6601 Clear 17 1022 91 10000 0.89 247 14:21 19.10.2020
6602 Clear 16 1022 92 10000 1.34 225 13:44 19.10.2020
6603 Clear 17 1023 92 10000 0.89 315 13:26 19.10.2020
6604 Clear 16 1022 43 10000 0.89 135 12:45 19.10.2020
6605 Clear 16 1023 92 10000 1.34 247 12:26 19.10.2020
6606 Clear 16 1022 45 10000 0.89 94 11:51 19.10.2020
6607 Clear 14 1024 50 10000 5.7 280 11:24 19.10.2020
6608 Clear 14 1024 50 10000 5.7 280 10:45 19.10.2020
6609 Clear 13 1024 50 10000 5.7 280 10:24 19.10.2020
6610 Clear 12 1024 58 10000 6.2 290 09:57 19.10.2020
6611 Clear 11 1024 62 10000 5.7 290 09:36 19.10.2020
6612 Clear 11 1024 62 10000 5.7 290 09:18 19.10.2020
6613 Clear 9 1024 70 10000 5.7 270 08:41 19.10.2020
6614 Clear 8 1024 70 10000 5.7 270 08:20 19.10.2020
6615 Clear 7 1023 70 10000 3.1 280 07:21 19.10.2020
6616 Clear 6 1023 75 10000 5.83 308 06:40 19.10.2020
6617 Clear 7 1022 70 10000 3.6 310 05:20 19.10.2020
6618 Clear 9 1021 66 10000 5.1 300 03:45 19.10.2020
6619 Clouds 10 1021 71 10000 3.6 240 01:43 19.10.2020
6620 Clouds 10 1021 66 10000 4.6 280 00:42 19.10.2020
6621 Clouds 10 1020 71 10000 5.1 290 23:56 18.10.2020
6622 Rain 10 1020 66 10000 3.6 290 23:38 18.10.2020
6623 Clouds 10 1020 66 10000 3.6 290 23:19 18.10.2020
6624 Clouds 10 1020 66 10000 3.6 290 23:19 18.10.2020
6625 Clouds 10 1020 66 10000 4.6 290 22:43 18.10.2020
6626 Clouds 10 1020 66 10000 4.6 290 22:18 18.10.2020
6627 Clouds 11 1019 58 10000 4.6 310 21:41 18.10.2020
6628 Clouds 11 1019 58 10000 4.6 310 21:21 18.10.2020
6629 Clouds 11 1019 58 10000 4.6 320 20:44 18.10.2020
6630 Clouds 11 1019 62 10000 4.6 330 20:24 18.10.2020
6631 Clouds 11 1019 62 10000 4.1 330 19:50 18.10.2020
6632 Clouds 12 1019 54 10000 3.6 320 19:27 18.10.2020
6633 Clouds 12 1019 54 10000 5.7 320 18:51 18.10.2020
6634 Clouds 13 1018 58 10000 3.6 310 18:30 18.10.2020
6635 Clouds 14 1018 47 10000 3.1 310 17:59 18.10.2020
6636 Clouds 14 1017 44 10000 5.7 290 17:41 18.10.2020
6637 Clouds 15 1017 44 10000 5.7 290 17:21 18.10.2020
6638 Clouds 15 1017 44 10000 5.7 290 17:21 18.10.2020
6639 Clouds 16 1017 42 10000 6.2 290 16:41 18.10.2020
6640 Clouds 16 1017 42 10000 6.2 290 16:21 18.10.2020
6641 Clouds 17 1017 42 10000 7.2 280 15:42 18.10.2020
6642 Clear 18 1017 42 10000 7.2 280 15:19 18.10.2020
6643 Clear 18 1017 42 10000 8.2 270 14:57 18.10.2020
6644 Clear 18 1017 39 10000 7.7 270 14:31 18.10.2020
6645 Clouds 17 1017 42 10000 7.2 280 13:58 18.10.2020
6646 Clouds 17 1017 42 10000 6.7 280 13:40 18.10.2020
6647 Clouds 18 1017 42 10000 6.7 280 13:21 18.10.2020
6648 Clouds 16 1017 58 10000 5.7 270 12:43 18.10.2020
6649 Clouds 16 1017 58 10000 5.7 270 12:22 18.10.2020
6650 Clouds 16 1018 58 10000 6.7 280 11:42 18.10.2020
6651 Clouds 16 1018 58 10000 6.7 280 11:23 18.10.2020
6652 Clouds 16 1018 58 10000 6.7 280 10:45 18.10.2020
6653 Clouds 14 1018 62 10000 6.2 290 10:21 18.10.2020
6654 Clouds 13 1018 62 10000 5.7 280 09:58 18.10.2020
6655 Clouds 12 1018 66 10000 5.7 280 09:39 18.10.2020
6656 Clouds 12 1018 66 10000 5.7 280 09:19 18.10.2020
6657 Clouds 11 1017 71 10000 6.7 270 08:43 18.10.2020
6658 Clouds 11 1017 71 10000 6.7 270 08:22 18.10.2020
6659 Clouds 10 1016 71 10000 6.2 270 07:36 18.10.2020
6660 Clear 11 1015 71 10000 6.2 300 05:35 18.10.2020
6661 Clear 11 1015 76 10000 3.1 220 03:33 18.10.2020
6662 Clouds 12 1015 81 10000 2.6 250 02:19 18.10.2020
6663 Clouds 12 1015 76 10000 1.5 300 01:23 18.10.2020
6664 Clouds 13 1015 82 10000 0.5 0 00:35 18.10.2020
6665 Clouds 13 1014 82 10000 0.5 0 23:57 17.10.2020
6666 Clouds 13 1014 76 10000 1.5 350 23:38 17.10.2020
6667 Clouds 13 1014 76 10000 1.5 350 23:20 17.10.2020
6668 Clouds 13 1014 82 10000 0.5 0 22:45 17.10.2020
6669 Clouds 13 1014 82 10000 0.5 0 22:20 17.10.2020
6670 Clouds 14 1014 76 10000 1.5 270 21:58 17.10.2020
6671 Clouds 14 1014 82 10000 2.1 300 21:39 17.10.2020
6672 Clouds 14 1014 82 10000 2.1 300 21:19 17.10.2020
6673 Clouds 14 1013 82 10000 3.1 300 20:43 17.10.2020
6674 Clouds 14 1013 82 10000 3.1 300 20:19 17.10.2020
6675 Clouds 15 1013 72 10000 4.6 300 19:43 17.10.2020
6676 Rain 15 1013 72 10000 4.6 300 19:20 17.10.2020
6677 Clouds 16 1012 72 10000 4.6 310 18:45 17.10.2020
6678 Clouds 16 1012 77 10000 4.1 290 18:25 17.10.2020
6679 Clouds 17 1011 72 10000 4.6 280 17:50 17.10.2020
6680 Clouds 18 1011 68 10000 5.1 280 17:23 17.10.2020
6681 Clouds 18 1011 68 10000 5.7 270 16:50 17.10.2020
6682 Clouds 19 1011 68 10000 5.1 270 16:24 17.10.2020
6683 Clouds 19 1011 68 10000 5.7 270 15:58 17.10.2020
6684 Clouds 20 1011 64 10000 6.2 270 15:40 17.10.2020
6685 C